<?xml version="1.0" encoding="UTF-8" standalone="no" ?>
<gpx xmlns="http://www.topografix.com/GPX/1/1" xmlns:xsi="http://www.w3.org/2001/XMLSchema-instance" xsi:schemaLocation="http://www.topografix.com/GPX/1/1 http://www.topografix.com/GPX/1/1/gpx.xsd" version="1.1" creator="VisuGPX - https://www.visugpx.com">
  <metadata>
    <name>Rando VTT Mervent 2022</name>
    <desc><![CDATA[Belle rando.... ]]></desc>
  </metadata>
  <trk>
    <name><![CDATA[Rando VTT Mervent 2022_1]]></name>
    <trkseg>
      <trkpt lat="46.52392" lon="-0.75703">
        <ele>83.2</ele>
        <time>2022-06-19T06:03:27Z</time>
      </trkpt>
      <trkpt lat="46.52397" lon="-0.75696">
        <ele>83.2</ele>
        <time>2022-06-19T06:03:36Z</time>
      </trkpt>
      <trkpt lat="46.52396" lon="-0.75691">
        <ele>83.2</ele>
        <time>2022-06-19T06:03:38Z</time>
      </trkpt>
      <trkpt lat="46.52393" lon="-0.75687">
        <ele>83.2</ele>
        <time>2022-06-19T06:03:40Z</time>
      </trkpt>
      <trkpt lat="46.52382" lon="-0.7568">
        <ele>83.6</ele>
        <time>2022-06-19T06:03:45Z</time>
      </trkpt>
      <trkpt lat="46.52372" lon="-0.7568">
        <ele>84.2</ele>
        <time>2022-06-19T06:03:49Z</time>
      </trkpt>
      <trkpt lat="46.52364" lon="-0.75689">
        <ele>85.2</ele>
        <time>2022-06-19T06:03:54Z</time>
      </trkpt>
      <trkpt lat="46.52364" lon="-0.75691">
        <ele>85.4</ele>
        <time>2022-06-19T06:03:55Z</time>
      </trkpt>
      <trkpt lat="46.52361" lon="-0.75695">
        <ele>85.8</ele>
        <time>2022-06-19T06:04:00Z</time>
      </trkpt>
      <trkpt lat="46.52359" lon="-0.757">
        <ele>86</ele>
        <time>2022-06-19T06:04:04Z</time>
      </trkpt>
      <trkpt lat="46.52355" lon="-0.75696">
        <ele>86</ele>
        <time>2022-06-19T06:04:06Z</time>
      </trkpt>
      <trkpt lat="46.52345" lon="-0.7568">
        <ele>85.6</ele>
        <time>2022-06-19T06:04:10Z</time>
      </trkpt>
      <trkpt lat="46.52342" lon="-0.75674">
        <ele>85.4</ele>
        <time>2022-06-19T06:04:11Z</time>
      </trkpt>
      <trkpt lat="46.52334" lon="-0.75666">
        <ele>84.8</ele>
        <time>2022-06-19T06:04:13Z</time>
      </trkpt>
      <trkpt lat="46.5233" lon="-0.75664">
        <ele>84.8</ele>
        <time>2022-06-19T06:04:14Z</time>
      </trkpt>
      <trkpt lat="46.52326" lon="-0.75663">
        <ele>84.6</ele>
        <time>2022-06-19T06:04:15Z</time>
      </trkpt>
      <trkpt lat="46.5232" lon="-0.75664">
        <ele>84.4</ele>
        <time>2022-06-19T06:04:17Z</time>
      </trkpt>
      <trkpt lat="46.52318" lon="-0.75665">
        <ele>84.2</ele>
        <time>2022-06-19T06:04:18Z</time>
      </trkpt>
      <trkpt lat="46.52317" lon="-0.75667">
        <ele>84.2</ele>
        <time>2022-06-19T06:04:19Z</time>
      </trkpt>
      <trkpt lat="46.52316" lon="-0.7567">
        <ele>84</ele>
        <time>2022-06-19T06:04:20Z</time>
      </trkpt>
      <trkpt lat="46.52315" lon="-0.75678">
        <ele>84</ele>
        <time>2022-06-19T06:04:22Z</time>
      </trkpt>
      <trkpt lat="46.52318" lon="-0.75705">
        <ele>84.2</ele>
        <time>2022-06-19T06:04:27Z</time>
      </trkpt>
      <trkpt lat="46.5232" lon="-0.75723">
        <ele>84.6</ele>
        <time>2022-06-19T06:04:30Z</time>
      </trkpt>
      <trkpt lat="46.52323" lon="-0.75734">
        <ele>84.6</ele>
        <time>2022-06-19T06:04:32Z</time>
      </trkpt>
      <trkpt lat="46.52325" lon="-0.75739">
        <ele>84.8</ele>
        <time>2022-06-19T06:04:33Z</time>
      </trkpt>
      <trkpt lat="46.5233" lon="-0.75754">
        <ele>85.2</ele>
        <time>2022-06-19T06:04:36Z</time>
      </trkpt>
      <trkpt lat="46.52332" lon="-0.75768">
        <ele>85.6</ele>
        <time>2022-06-19T06:04:38Z</time>
      </trkpt>
      <trkpt lat="46.52332" lon="-0.7578">
        <ele>85.8</ele>
        <time>2022-06-19T06:04:40Z</time>
      </trkpt>
      <trkpt lat="46.52334" lon="-0.75804">
        <ele>86.4</ele>
        <time>2022-06-19T06:04:44Z</time>
      </trkpt>
      <trkpt lat="46.52337" lon="-0.75833">
        <ele>87.4</ele>
        <time>2022-06-19T06:04:49Z</time>
      </trkpt>
      <trkpt lat="46.52337" lon="-0.75838">
        <ele>87.4</ele>
        <time>2022-06-19T06:04:50Z</time>
      </trkpt>
      <trkpt lat="46.52334" lon="-0.75869">
        <ele>87.6</ele>
        <time>2022-06-19T06:04:55Z</time>
      </trkpt>
      <trkpt lat="46.52324" lon="-0.75922">
        <ele>87</ele>
        <time>2022-06-19T06:05:02Z</time>
      </trkpt>
      <trkpt lat="46.5232" lon="-0.75948">
        <ele>86.4</ele>
        <time>2022-06-19T06:05:05Z</time>
      </trkpt>
      <trkpt lat="46.52314" lon="-0.75978">
        <ele>84.8</ele>
        <time>2022-06-19T06:05:09Z</time>
      </trkpt>
      <trkpt lat="46.52311" lon="-0.75993">
        <ele>83.6</ele>
        <time>2022-06-19T06:05:12Z</time>
      </trkpt>
      <trkpt lat="46.5231" lon="-0.75996">
        <ele>83.4</ele>
        <time>2022-06-19T06:05:13Z</time>
      </trkpt>
      <trkpt lat="46.52308" lon="-0.75999">
        <ele>83</ele>
        <time>2022-06-19T06:05:15Z</time>
      </trkpt>
      <trkpt lat="46.52305" lon="-0.75996">
        <ele>83</ele>
        <time>2022-06-19T06:05:17Z</time>
      </trkpt>
      <trkpt lat="46.52301" lon="-0.75975">
        <ele>83</ele>
        <time>2022-06-19T06:05:21Z</time>
      </trkpt>
      <trkpt lat="46.52293" lon="-0.75944">
        <ele>82.4</ele>
        <time>2022-06-19T06:05:25Z</time>
      </trkpt>
      <trkpt lat="46.5229" lon="-0.75936">
        <ele>82.4</ele>
        <time>2022-06-19T06:05:26Z</time>
      </trkpt>
      <trkpt lat="46.5227" lon="-0.75892">
        <ele>81.4</ele>
        <time>2022-06-19T06:05:31Z</time>
      </trkpt>
      <trkpt lat="46.52266" lon="-0.75883">
        <ele>81.2</ele>
        <time>2022-06-19T06:05:32Z</time>
      </trkpt>
      <trkpt lat="46.52256" lon="-0.75865">
        <ele>80.2</ele>
        <time>2022-06-19T06:05:34Z</time>
      </trkpt>
      <trkpt lat="46.5224" lon="-0.75836">
        <ele>79.2</ele>
        <time>2022-06-19T06:05:37Z</time>
      </trkpt>
      <trkpt lat="46.52234" lon="-0.75827">
        <ele>79</ele>
        <time>2022-06-19T06:05:38Z</time>
      </trkpt>
      <trkpt lat="46.52211" lon="-0.75788">
        <ele>78</ele>
        <time>2022-06-19T06:05:42Z</time>
      </trkpt>
      <trkpt lat="46.522" lon="-0.75769">
        <ele>77.2</ele>
        <time>2022-06-19T06:05:44Z</time>
      </trkpt>
      <trkpt lat="46.52195" lon="-0.75759">
        <ele>76.4</ele>
        <time>2022-06-19T06:05:45Z</time>
      </trkpt>
      <trkpt lat="46.52184" lon="-0.75739">
        <ele>75.2</ele>
        <time>2022-06-19T06:05:47Z</time>
      </trkpt>
      <trkpt lat="46.52175" lon="-0.75723">
        <ele>74.4</ele>
        <time>2022-06-19T06:05:49Z</time>
      </trkpt>
      <trkpt lat="46.52171" lon="-0.75717">
        <ele>73.2</ele>
        <time>2022-06-19T06:05:50Z</time>
      </trkpt>
      <trkpt lat="46.52169" lon="-0.75712">
        <ele>72.6</ele>
        <time>2022-06-19T06:05:51Z</time>
      </trkpt>
      <trkpt lat="46.52167" lon="-0.75708">
        <ele>71.8</ele>
        <time>2022-06-19T06:05:52Z</time>
      </trkpt>
      <trkpt lat="46.52154" lon="-0.75686">
        <ele>70.8</ele>
        <time>2022-06-19T06:05:56Z</time>
      </trkpt>
      <trkpt lat="46.52151" lon="-0.75679">
        <ele>70.6</ele>
        <time>2022-06-19T06:05:57Z</time>
      </trkpt>
      <trkpt lat="46.52121" lon="-0.75624">
        <ele>69.8</ele>
        <time>2022-06-19T06:06:04Z</time>
      </trkpt>
      <trkpt lat="46.52101" lon="-0.75579">
        <ele>68.6</ele>
        <time>2022-06-19T06:06:09Z</time>
      </trkpt>
      <trkpt lat="46.52098" lon="-0.75569">
        <ele>68.4</ele>
        <time>2022-06-19T06:06:10Z</time>
      </trkpt>
      <trkpt lat="46.52083" lon="-0.75509">
        <ele>67.6</ele>
        <time>2022-06-19T06:06:16Z</time>
      </trkpt>
      <trkpt lat="46.52079" lon="-0.75457">
        <ele>66.6</ele>
        <time>2022-06-19T06:06:21Z</time>
      </trkpt>
      <trkpt lat="46.52078" lon="-0.75436">
        <ele>66</ele>
        <time>2022-06-19T06:06:23Z</time>
      </trkpt>
      <trkpt lat="46.52078" lon="-0.75404">
        <ele>65.4</ele>
        <time>2022-06-19T06:06:26Z</time>
      </trkpt>
      <trkpt lat="46.52079" lon="-0.75394">
        <ele>65.4</ele>
        <time>2022-06-19T06:06:27Z</time>
      </trkpt>
      <trkpt lat="46.52083" lon="-0.75373">
        <ele>64.6</ele>
        <time>2022-06-19T06:06:29Z</time>
      </trkpt>
      <trkpt lat="46.52087" lon="-0.75364">
        <ele>64.4</ele>
        <time>2022-06-19T06:06:30Z</time>
      </trkpt>
      <trkpt lat="46.52091" lon="-0.75356">
        <ele>64</ele>
        <time>2022-06-19T06:06:31Z</time>
      </trkpt>
      <trkpt lat="46.52102" lon="-0.75338">
        <ele>63.2</ele>
        <time>2022-06-19T06:06:33Z</time>
      </trkpt>
      <trkpt lat="46.52108" lon="-0.75329">
        <ele>62.8</ele>
        <time>2022-06-19T06:06:34Z</time>
      </trkpt>
      <trkpt lat="46.5212" lon="-0.7531">
        <ele>61.6</ele>
        <time>2022-06-19T06:06:36Z</time>
      </trkpt>
      <trkpt lat="46.52133" lon="-0.75291">
        <ele>60.6</ele>
        <time>2022-06-19T06:06:38Z</time>
      </trkpt>
      <trkpt lat="46.52147" lon="-0.7527">
        <ele>58.8</ele>
        <time>2022-06-19T06:06:40Z</time>
      </trkpt>
      <trkpt lat="46.52154" lon="-0.7526">
        <ele>58.2</ele>
        <time>2022-06-19T06:06:41Z</time>
      </trkpt>
      <trkpt lat="46.52161" lon="-0.7525">
        <ele>57.6</ele>
        <time>2022-06-19T06:06:42Z</time>
      </trkpt>
      <trkpt lat="46.52174" lon="-0.75229">
        <ele>55.6</ele>
        <time>2022-06-19T06:06:44Z</time>
      </trkpt>
      <trkpt lat="46.52181" lon="-0.75219">
        <ele>54.6</ele>
        <time>2022-06-19T06:06:45Z</time>
      </trkpt>
      <trkpt lat="46.52195" lon="-0.75199">
        <ele>52.8</ele>
        <time>2022-06-19T06:06:47Z</time>
      </trkpt>
      <trkpt lat="46.52208" lon="-0.75178">
        <ele>51.2</ele>
        <time>2022-06-19T06:06:49Z</time>
      </trkpt>
      <trkpt lat="46.52215" lon="-0.75167">
        <ele>50.6</ele>
        <time>2022-06-19T06:06:50Z</time>
      </trkpt>
      <trkpt lat="46.52223" lon="-0.75156">
        <ele>49.4</ele>
        <time>2022-06-19T06:06:51Z</time>
      </trkpt>
      <trkpt lat="46.52237" lon="-0.75134">
        <ele>47.8</ele>
        <time>2022-06-19T06:06:53Z</time>
      </trkpt>
      <trkpt lat="46.52252" lon="-0.75112">
        <ele>46</ele>
        <time>2022-06-19T06:06:55Z</time>
      </trkpt>
      <trkpt lat="46.5226" lon="-0.75101">
        <ele>44.4</ele>
        <time>2022-06-19T06:06:56Z</time>
      </trkpt>
      <trkpt lat="46.52268" lon="-0.75088">
        <ele>43.4</ele>
        <time>2022-06-19T06:06:57Z</time>
      </trkpt>
      <trkpt lat="46.52283" lon="-0.75064">
        <ele>42</ele>
        <time>2022-06-19T06:06:59Z</time>
      </trkpt>
      <trkpt lat="46.52306" lon="-0.75032">
        <ele>40.8</ele>
        <time>2022-06-19T06:07:02Z</time>
      </trkpt>
      <trkpt lat="46.52339" lon="-0.75004">
        <ele>40.2</ele>
        <time>2022-06-19T06:07:06Z</time>
      </trkpt>
      <trkpt lat="46.52347" lon="-0.74998">
        <ele>39.8</ele>
        <time>2022-06-19T06:07:07Z</time>
      </trkpt>
      <trkpt lat="46.52368" lon="-0.74981">
        <ele>38.8</ele>
        <time>2022-06-19T06:07:10Z</time>
      </trkpt>
      <trkpt lat="46.52381" lon="-0.74971">
        <ele>38.4</ele>
        <time>2022-06-19T06:07:12Z</time>
      </trkpt>
      <trkpt lat="46.52407" lon="-0.7495">
        <ele>37.8</ele>
        <time>2022-06-19T06:07:17Z</time>
      </trkpt>
      <trkpt lat="46.52412" lon="-0.74946">
        <ele>37.6</ele>
        <time>2022-06-19T06:07:18Z</time>
      </trkpt>
      <trkpt lat="46.52435" lon="-0.74927">
        <ele>37.2</ele>
        <time>2022-06-19T06:07:24Z</time>
      </trkpt>
      <trkpt lat="46.52465" lon="-0.74905">
        <ele>37.2</ele>
        <time>2022-06-19T06:07:31Z</time>
      </trkpt>
      <trkpt lat="46.52472" lon="-0.74908">
        <ele>37.2</ele>
        <time>2022-06-19T06:07:33Z</time>
      </trkpt>
      <trkpt lat="46.52475" lon="-0.74911">
        <ele>37</ele>
        <time>2022-06-19T06:07:34Z</time>
      </trkpt>
      <trkpt lat="46.52476" lon="-0.74915">
        <ele>37</ele>
        <time>2022-06-19T06:07:35Z</time>
      </trkpt>
      <trkpt lat="46.52476" lon="-0.74921">
        <ele>37.4</ele>
        <time>2022-06-19T06:07:37Z</time>
      </trkpt>
      <trkpt lat="46.52475" lon="-0.74924">
        <ele>37.4</ele>
        <time>2022-06-19T06:07:38Z</time>
      </trkpt>
      <trkpt lat="46.52466" lon="-0.74949">
        <ele>38.6</ele>
        <time>2022-06-19T06:07:43Z</time>
      </trkpt>
      <trkpt lat="46.52457" lon="-0.74976">
        <ele>37.4</ele>
        <time>2022-06-19T06:07:47Z</time>
      </trkpt>
      <trkpt lat="46.52457" lon="-0.74984">
        <ele>37.2</ele>
        <time>2022-06-19T06:07:48Z</time>
      </trkpt>
      <trkpt lat="46.52458" lon="-0.74992">
        <ele>37.2</ele>
        <time>2022-06-19T06:07:49Z</time>
      </trkpt>
      <trkpt lat="46.52464" lon="-0.75016">
        <ele>36.6</ele>
        <time>2022-06-19T06:07:52Z</time>
      </trkpt>
      <trkpt lat="46.52475" lon="-0.75069">
        <ele>36</ele>
        <time>2022-06-19T06:07:59Z</time>
      </trkpt>
      <trkpt lat="46.52479" lon="-0.75092">
        <ele>36</ele>
        <time>2022-06-19T06:08:02Z</time>
      </trkpt>
      <trkpt lat="46.52481" lon="-0.751">
        <ele>36.2</ele>
        <time>2022-06-19T06:08:03Z</time>
      </trkpt>
      <trkpt lat="46.52487" lon="-0.7513">
        <ele>35.8</ele>
        <time>2022-06-19T06:08:07Z</time>
      </trkpt>
      <trkpt lat="46.52489" lon="-0.75138">
        <ele>35.8</ele>
        <time>2022-06-19T06:08:08Z</time>
      </trkpt>
      <trkpt lat="46.52497" lon="-0.75186">
        <ele>35.8</ele>
        <time>2022-06-19T06:08:15Z</time>
      </trkpt>
      <trkpt lat="46.52501" lon="-0.75205">
        <ele>35.8</ele>
        <time>2022-06-19T06:08:18Z</time>
      </trkpt>
      <trkpt lat="46.52504" lon="-0.75218">
        <ele>35.8</ele>
        <time>2022-06-19T06:08:20Z</time>
      </trkpt>
      <trkpt lat="46.52504" lon="-0.75224">
        <ele>35.8</ele>
        <time>2022-06-19T06:08:21Z</time>
      </trkpt>
      <trkpt lat="46.52504" lon="-0.75248">
        <ele>35.4</ele>
        <time>2022-06-19T06:08:24Z</time>
      </trkpt>
      <trkpt lat="46.52506" lon="-0.75257">
        <ele>35.4</ele>
        <time>2022-06-19T06:08:25Z</time>
      </trkpt>
      <trkpt lat="46.52508" lon="-0.75265">
        <ele>35.4</ele>
        <time>2022-06-19T06:08:26Z</time>
      </trkpt>
      <trkpt lat="46.52509" lon="-0.75271">
        <ele>35.6</ele>
        <time>2022-06-19T06:08:27Z</time>
      </trkpt>
      <trkpt lat="46.52513" lon="-0.75283">
        <ele>35.8</ele>
        <time>2022-06-19T06:08:30Z</time>
      </trkpt>
      <trkpt lat="46.52519" lon="-0.75289">
        <ele>36.6</ele>
        <time>2022-06-19T06:08:33Z</time>
      </trkpt>
      <trkpt lat="46.52525" lon="-0.75291">
        <ele>37.4</ele>
        <time>2022-06-19T06:08:36Z</time>
      </trkpt>
      <trkpt lat="46.52526" lon="-0.75291">
        <ele>37.8</ele>
        <time>2022-06-19T06:08:37Z</time>
      </trkpt>
      <trkpt lat="46.52531" lon="-0.75294">
        <ele>39.4</ele>
        <time>2022-06-19T06:08:41Z</time>
      </trkpt>
      <trkpt lat="46.52534" lon="-0.75295">
        <ele>40.2</ele>
        <time>2022-06-19T06:08:43Z</time>
      </trkpt>
      <trkpt lat="46.52535" lon="-0.75296">
        <ele>40.6</ele>
        <time>2022-06-19T06:08:44Z</time>
      </trkpt>
      <trkpt lat="46.5254" lon="-0.75302">
        <ele>41.8</ele>
        <time>2022-06-19T06:08:48Z</time>
      </trkpt>
      <trkpt lat="46.52543" lon="-0.75305">
        <ele>43.2</ele>
        <time>2022-06-19T06:08:50Z</time>
      </trkpt>
      <trkpt lat="46.52545" lon="-0.7531">
        <ele>44</ele>
        <time>2022-06-19T06:08:53Z</time>
      </trkpt>
      <trkpt lat="46.52547" lon="-0.75312">
        <ele>44.6</ele>
        <time>2022-06-19T06:08:54Z</time>
      </trkpt>
      <trkpt lat="46.52551" lon="-0.75313">
        <ele>45.8</ele>
        <time>2022-06-19T06:08:57Z</time>
      </trkpt>
      <trkpt lat="46.52556" lon="-0.75315">
        <ele>46.8</ele>
        <time>2022-06-19T06:09:00Z</time>
      </trkpt>
      <trkpt lat="46.52557" lon="-0.75316">
        <ele>47.4</ele>
        <time>2022-06-19T06:09:01Z</time>
      </trkpt>
      <trkpt lat="46.52562" lon="-0.75317">
        <ele>48.4</ele>
        <time>2022-06-19T06:09:04Z</time>
      </trkpt>
      <trkpt lat="46.52565" lon="-0.75317">
        <ele>49.6</ele>
        <time>2022-06-19T06:09:07Z</time>
      </trkpt>
      <trkpt lat="46.52572" lon="-0.75316">
        <ele>50.8</ele>
        <time>2022-06-19T06:09:12Z</time>
      </trkpt>
      <trkpt lat="46.52574" lon="-0.75315">
        <ele>51.2</ele>
        <time>2022-06-19T06:09:14Z</time>
      </trkpt>
      <trkpt lat="46.52576" lon="-0.75314">
        <ele>52.2</ele>
        <time>2022-06-19T06:09:17Z</time>
      </trkpt>
      <trkpt lat="46.5258" lon="-0.75311">
        <ele>53.2</ele>
        <time>2022-06-19T06:09:22Z</time>
      </trkpt>
      <trkpt lat="46.52582" lon="-0.75308">
        <ele>54</ele>
        <time>2022-06-19T06:09:25Z</time>
      </trkpt>
      <trkpt lat="46.52583" lon="-0.75306">
        <ele>54.4</ele>
        <time>2022-06-19T06:09:27Z</time>
      </trkpt>
      <trkpt lat="46.52586" lon="-0.75299">
        <ele>55.4</ele>
        <time>2022-06-19T06:09:31Z</time>
      </trkpt>
      <trkpt lat="46.52586" lon="-0.75297">
        <ele>55.6</ele>
        <time>2022-06-19T06:09:32Z</time>
      </trkpt>
      <trkpt lat="46.52589" lon="-0.75289">
        <ele>56.4</ele>
        <time>2022-06-19T06:09:37Z</time>
      </trkpt>
      <trkpt lat="46.5259" lon="-0.75286">
        <ele>56.8</ele>
        <time>2022-06-19T06:09:39Z</time>
      </trkpt>
      <trkpt lat="46.5259" lon="-0.75279">
        <ele>57.6</ele>
        <time>2022-06-19T06:09:43Z</time>
      </trkpt>
      <trkpt lat="46.52591" lon="-0.75278">
        <ele>57.8</ele>
        <time>2022-06-19T06:09:44Z</time>
      </trkpt>
      <trkpt lat="46.52592" lon="-0.75268">
        <ele>59</ele>
        <time>2022-06-19T06:09:50Z</time>
      </trkpt>
      <trkpt lat="46.52592" lon="-0.75262">
        <ele>59.6</ele>
        <time>2022-06-19T06:09:53Z</time>
      </trkpt>
      <trkpt lat="46.52595" lon="-0.75252">
        <ele>60.2</ele>
        <time>2022-06-19T06:09:58Z</time>
      </trkpt>
      <trkpt lat="46.52596" lon="-0.75245">
        <ele>61.4</ele>
        <time>2022-06-19T06:10:02Z</time>
      </trkpt>
      <trkpt lat="46.52599" lon="-0.75238">
        <ele>62.4</ele>
        <time>2022-06-19T06:10:07Z</time>
      </trkpt>
      <trkpt lat="46.52599" lon="-0.75237">
        <ele>62.6</ele>
        <time>2022-06-19T06:10:08Z</time>
      </trkpt>
      <trkpt lat="46.52605" lon="-0.7523">
        <ele>64</ele>
        <time>2022-06-19T06:10:13Z</time>
      </trkpt>
      <trkpt lat="46.52609" lon="-0.7522">
        <ele>65.2</ele>
        <time>2022-06-19T06:10:20Z</time>
      </trkpt>
      <trkpt lat="46.5261" lon="-0.75219">
        <ele>65.2</ele>
        <time>2022-06-19T06:10:21Z</time>
      </trkpt>
      <trkpt lat="46.52613" lon="-0.75214">
        <ele>66.2</ele>
        <time>2022-06-19T06:10:24Z</time>
      </trkpt>
      <trkpt lat="46.52615" lon="-0.75211">
        <ele>66.4</ele>
        <time>2022-06-19T06:10:26Z</time>
      </trkpt>
      <trkpt lat="46.52618" lon="-0.75205">
        <ele>67.2</ele>
        <time>2022-06-19T06:10:30Z</time>
      </trkpt>
      <trkpt lat="46.52622" lon="-0.75195">
        <ele>68.4</ele>
        <time>2022-06-19T06:10:36Z</time>
      </trkpt>
      <trkpt lat="46.52623" lon="-0.75193">
        <ele>68.6</ele>
        <time>2022-06-19T06:10:37Z</time>
      </trkpt>
      <trkpt lat="46.52626" lon="-0.75187">
        <ele>69.4</ele>
        <time>2022-06-19T06:10:41Z</time>
      </trkpt>
      <trkpt lat="46.52633" lon="-0.75178">
        <ele>70.6</ele>
        <time>2022-06-19T06:10:47Z</time>
      </trkpt>
      <trkpt lat="46.52636" lon="-0.75173">
        <ele>71.2</ele>
        <time>2022-06-19T06:10:51Z</time>
      </trkpt>
      <trkpt lat="46.5264" lon="-0.7517">
        <ele>71.6</ele>
        <time>2022-06-19T06:10:54Z</time>
      </trkpt>
      <trkpt lat="46.52646" lon="-0.75164">
        <ele>72.8</ele>
        <time>2022-06-19T06:11:00Z</time>
      </trkpt>
      <trkpt lat="46.52652" lon="-0.7516">
        <ele>73.6</ele>
        <time>2022-06-19T06:11:06Z</time>
      </trkpt>
      <trkpt lat="46.52653" lon="-0.75159">
        <ele>74</ele>
        <time>2022-06-19T06:11:07Z</time>
      </trkpt>
      <trkpt lat="46.52661" lon="-0.75153">
        <ele>75</ele>
        <time>2022-06-19T06:11:14Z</time>
      </trkpt>
      <trkpt lat="46.52668" lon="-0.75148">
        <ele>75.8</ele>
        <time>2022-06-19T06:11:19Z</time>
      </trkpt>
      <trkpt lat="46.5267" lon="-0.75147">
        <ele>76.2</ele>
        <time>2022-06-19T06:11:21Z</time>
      </trkpt>
      <trkpt lat="46.52684" lon="-0.75141">
        <ele>77.2</ele>
        <time>2022-06-19T06:11:31Z</time>
      </trkpt>
      <trkpt lat="46.52685" lon="-0.7514">
        <ele>77.2</ele>
        <time>2022-06-19T06:11:32Z</time>
      </trkpt>
      <trkpt lat="46.52696" lon="-0.75134">
        <ele>78.2</ele>
        <time>2022-06-19T06:11:38Z</time>
      </trkpt>
      <trkpt lat="46.52701" lon="-0.75131">
        <ele>78.4</ele>
        <time>2022-06-19T06:11:41Z</time>
      </trkpt>
      <trkpt lat="46.52706" lon="-0.75127">
        <ele>79</ele>
        <time>2022-06-19T06:11:44Z</time>
      </trkpt>
      <trkpt lat="46.52709" lon="-0.75123">
        <ele>79.2</ele>
        <time>2022-06-19T06:11:46Z</time>
      </trkpt>
      <trkpt lat="46.52711" lon="-0.75122">
        <ele>79.4</ele>
        <time>2022-06-19T06:11:47Z</time>
      </trkpt>
      <trkpt lat="46.52716" lon="-0.75114">
        <ele>80.4</ele>
        <time>2022-06-19T06:11:52Z</time>
      </trkpt>
      <trkpt lat="46.52718" lon="-0.75111">
        <ele>80.8</ele>
        <time>2022-06-19T06:11:54Z</time>
      </trkpt>
      <trkpt lat="46.52721" lon="-0.75104">
        <ele>81.2</ele>
        <time>2022-06-19T06:11:57Z</time>
      </trkpt>
      <trkpt lat="46.52723" lon="-0.75102">
        <ele>81.4</ele>
        <time>2022-06-19T06:11:58Z</time>
      </trkpt>
      <trkpt lat="46.52727" lon="-0.75098">
        <ele>81.6</ele>
        <time>2022-06-19T06:12:00Z</time>
      </trkpt>
      <trkpt lat="46.5274" lon="-0.7508">
        <ele>82.4</ele>
        <time>2022-06-19T06:12:08Z</time>
      </trkpt>
      <trkpt lat="46.52745" lon="-0.75072">
        <ele>82.6</ele>
        <time>2022-06-19T06:12:10Z</time>
      </trkpt>
      <trkpt lat="46.52755" lon="-0.7506">
        <ele>82.6</ele>
        <time>2022-06-19T06:12:14Z</time>
      </trkpt>
      <trkpt lat="46.52769" lon="-0.75046">
        <ele>83.4</ele>
        <time>2022-06-19T06:12:20Z</time>
      </trkpt>
      <trkpt lat="46.52778" lon="-0.75039">
        <ele>83.4</ele>
        <time>2022-06-19T06:12:23Z</time>
      </trkpt>
      <trkpt lat="46.52782" lon="-0.75034">
        <ele>83.2</ele>
        <time>2022-06-19T06:12:24Z</time>
      </trkpt>
      <trkpt lat="46.52787" lon="-0.7503">
        <ele>83.2</ele>
        <time>2022-06-19T06:12:25Z</time>
      </trkpt>
      <trkpt lat="46.52804" lon="-0.75018">
        <ele>83.2</ele>
        <time>2022-06-19T06:12:29Z</time>
      </trkpt>
      <trkpt lat="46.52809" lon="-0.75016">
        <ele>83.2</ele>
        <time>2022-06-19T06:12:30Z</time>
      </trkpt>
      <trkpt lat="46.52834" lon="-0.7501">
        <ele>83</ele>
        <time>2022-06-19T06:12:34Z</time>
      </trkpt>
      <trkpt lat="46.52865" lon="-0.7501">
        <ele>83</ele>
        <time>2022-06-19T06:12:39Z</time>
      </trkpt>
      <trkpt lat="46.52877" lon="-0.75013">
        <ele>83</ele>
        <time>2022-06-19T06:12:41Z</time>
      </trkpt>
      <trkpt lat="46.52903" lon="-0.75014">
        <ele>82.8</ele>
        <time>2022-06-19T06:12:46Z</time>
      </trkpt>
      <trkpt lat="46.52929" lon="-0.7501">
        <ele>83</ele>
        <time>2022-06-19T06:12:52Z</time>
      </trkpt>
      <trkpt lat="46.52933" lon="-0.75009">
        <ele>83</ele>
        <time>2022-06-19T06:12:53Z</time>
      </trkpt>
      <trkpt lat="46.52941" lon="-0.75006">
        <ele>83.2</ele>
        <time>2022-06-19T06:12:55Z</time>
      </trkpt>
      <trkpt lat="46.52946" lon="-0.75001">
        <ele>83.2</ele>
        <time>2022-06-19T06:12:57Z</time>
      </trkpt>
      <trkpt lat="46.52954" lon="-0.74995">
        <ele>83.8</ele>
        <time>2022-06-19T06:13:00Z</time>
      </trkpt>
      <trkpt lat="46.52956" lon="-0.74992">
        <ele>84</ele>
        <time>2022-06-19T06:13:01Z</time>
      </trkpt>
      <trkpt lat="46.52958" lon="-0.74984">
        <ele>84.4</ele>
        <time>2022-06-19T06:13:03Z</time>
      </trkpt>
      <trkpt lat="46.52957" lon="-0.74968">
        <ele>85</ele>
        <time>2022-06-19T06:13:06Z</time>
      </trkpt>
      <trkpt lat="46.5296" lon="-0.74943">
        <ele>85.6</ele>
        <time>2022-06-19T06:13:11Z</time>
      </trkpt>
      <trkpt lat="46.52967" lon="-0.74916">
        <ele>86</ele>
        <time>2022-06-19T06:13:17Z</time>
      </trkpt>
      <trkpt lat="46.52969" lon="-0.74905">
        <ele>86.2</ele>
        <time>2022-06-19T06:13:19Z</time>
      </trkpt>
      <trkpt lat="46.5297" lon="-0.74899">
        <ele>86.2</ele>
        <time>2022-06-19T06:13:20Z</time>
      </trkpt>
      <trkpt lat="46.52973" lon="-0.74888">
        <ele>86.4</ele>
        <time>2022-06-19T06:13:22Z</time>
      </trkpt>
      <trkpt lat="46.52979" lon="-0.74866">
        <ele>86.4</ele>
        <time>2022-06-19T06:13:26Z</time>
      </trkpt>
      <trkpt lat="46.52984" lon="-0.74857">
        <ele>86.6</ele>
        <time>2022-06-19T06:13:28Z</time>
      </trkpt>
      <trkpt lat="46.52994" lon="-0.74846">
        <ele>86.8</ele>
        <time>2022-06-19T06:13:31Z</time>
      </trkpt>
      <trkpt lat="46.52997" lon="-0.74842">
        <ele>86.8</ele>
        <time>2022-06-19T06:13:32Z</time>
      </trkpt>
      <trkpt lat="46.53012" lon="-0.74826">
        <ele>86.8</ele>
        <time>2022-06-19T06:13:36Z</time>
      </trkpt>
      <trkpt lat="46.53039" lon="-0.74795">
        <ele>86.2</ele>
        <time>2022-06-19T06:13:43Z</time>
      </trkpt>
      <trkpt lat="46.53058" lon="-0.74772">
        <ele>84.8</ele>
        <time>2022-06-19T06:13:47Z</time>
      </trkpt>
      <trkpt lat="46.53065" lon="-0.74766">
        <ele>84</ele>
        <time>2022-06-19T06:13:48Z</time>
      </trkpt>
      <trkpt lat="46.5307" lon="-0.7476">
        <ele>83.6</ele>
        <time>2022-06-19T06:13:49Z</time>
      </trkpt>
      <trkpt lat="46.53078" lon="-0.7475">
        <ele>82.8</ele>
        <time>2022-06-19T06:13:51Z</time>
      </trkpt>
      <trkpt lat="46.53091" lon="-0.74738">
        <ele>83</ele>
        <time>2022-06-19T06:13:52Z</time>
      </trkpt>
      <trkpt lat="46.53107" lon="-0.74719">
        <ele>84</ele>
        <time>2022-06-19T06:13:59Z</time>
      </trkpt>
      <trkpt lat="46.53109" lon="-0.74715">
        <ele>84</ele>
        <time>2022-06-19T06:14:00Z</time>
      </trkpt>
      <trkpt lat="46.53116" lon="-0.74705">
        <ele>83.8</ele>
        <time>2022-06-19T06:14:03Z</time>
      </trkpt>
      <trkpt lat="46.53123" lon="-0.74692">
        <ele>84</ele>
        <time>2022-06-19T06:14:06Z</time>
      </trkpt>
      <trkpt lat="46.53126" lon="-0.74687">
        <ele>84</ele>
        <time>2022-06-19T06:14:07Z</time>
      </trkpt>
      <trkpt lat="46.5314" lon="-0.74674">
        <ele>84.2</ele>
        <time>2022-06-19T06:14:10Z</time>
      </trkpt>
      <trkpt lat="46.5315" lon="-0.74664">
        <ele>84.4</ele>
        <time>2022-06-19T06:14:12Z</time>
      </trkpt>
      <trkpt lat="46.53158" lon="-0.74655">
        <ele>84.6</ele>
        <time>2022-06-19T06:14:14Z</time>
      </trkpt>
      <trkpt lat="46.53171" lon="-0.74639">
        <ele>83.8</ele>
        <time>2022-06-19T06:14:17Z</time>
      </trkpt>
      <trkpt lat="46.53175" lon="-0.74634">
        <ele>83.6</ele>
        <time>2022-06-19T06:14:18Z</time>
      </trkpt>
      <trkpt lat="46.53185" lon="-0.74619">
        <ele>83.2</ele>
        <time>2022-06-19T06:14:21Z</time>
      </trkpt>
      <trkpt lat="46.53195" lon="-0.74611">
        <ele>83</ele>
        <time>2022-06-19T06:14:23Z</time>
      </trkpt>
      <trkpt lat="46.53216" lon="-0.74591">
        <ele>82.4</ele>
        <time>2022-06-19T06:14:27Z</time>
      </trkpt>
      <trkpt lat="46.53225" lon="-0.7458">
        <ele>82.2</ele>
        <time>2022-06-19T06:14:29Z</time>
      </trkpt>
      <trkpt lat="46.53241" lon="-0.74565">
        <ele>82</ele>
        <time>2022-06-19T06:14:32Z</time>
      </trkpt>
      <trkpt lat="46.53254" lon="-0.74561">
        <ele>82</ele>
        <time>2022-06-19T06:14:34Z</time>
      </trkpt>
      <trkpt lat="46.53268" lon="-0.7456">
        <ele>81.6</ele>
        <time>2022-06-19T06:14:36Z</time>
      </trkpt>
      <trkpt lat="46.53272" lon="-0.74562">
        <ele>81.4</ele>
        <time>2022-06-19T06:14:37Z</time>
      </trkpt>
      <trkpt lat="46.53275" lon="-0.74566">
        <ele>81.4</ele>
        <time>2022-06-19T06:14:38Z</time>
      </trkpt>
      <trkpt lat="46.53279" lon="-0.74575">
        <ele>81.4</ele>
        <time>2022-06-19T06:14:41Z</time>
      </trkpt>
      <trkpt lat="46.53279" lon="-0.74585">
        <ele>81.6</ele>
        <time>2022-06-19T06:14:44Z</time>
      </trkpt>
      <trkpt lat="46.53278" lon="-0.74593">
        <ele>81.8</ele>
        <time>2022-06-19T06:14:46Z</time>
      </trkpt>
      <trkpt lat="46.53278" lon="-0.74602">
        <ele>82</ele>
        <time>2022-06-19T06:14:48Z</time>
      </trkpt>
      <trkpt lat="46.53278" lon="-0.74612">
        <ele>82</ele>
        <time>2022-06-19T06:14:50Z</time>
      </trkpt>
      <trkpt lat="46.53278" lon="-0.74616">
        <ele>82.2</ele>
        <time>2022-06-19T06:14:51Z</time>
      </trkpt>
      <trkpt lat="46.53279" lon="-0.74625">
        <ele>82.6</ele>
        <time>2022-06-19T06:14:53Z</time>
      </trkpt>
      <trkpt lat="46.53277" lon="-0.7464">
        <ele>82.8</ele>
        <time>2022-06-19T06:14:56Z</time>
      </trkpt>
      <trkpt lat="46.53278" lon="-0.74668">
        <ele>83.4</ele>
        <time>2022-06-19T06:15:01Z</time>
      </trkpt>
      <trkpt lat="46.53278" lon="-0.74673">
        <ele>84</ele>
        <time>2022-06-19T06:15:02Z</time>
      </trkpt>
      <trkpt lat="46.53279" lon="-0.74684">
        <ele>84.2</ele>
        <time>2022-06-19T06:15:04Z</time>
      </trkpt>
      <trkpt lat="46.5328" lon="-0.74698">
        <ele>84.6</ele>
        <time>2022-06-19T06:15:07Z</time>
      </trkpt>
      <trkpt lat="46.53279" lon="-0.74702">
        <ele>84.6</ele>
        <time>2022-06-19T06:15:08Z</time>
      </trkpt>
      <trkpt lat="46.53278" lon="-0.74707">
        <ele>84.6</ele>
        <time>2022-06-19T06:15:09Z</time>
      </trkpt>
      <trkpt lat="46.53275" lon="-0.74717">
        <ele>85</ele>
        <time>2022-06-19T06:15:11Z</time>
      </trkpt>
      <trkpt lat="46.53273" lon="-0.74728">
        <ele>85.2</ele>
        <time>2022-06-19T06:15:13Z</time>
      </trkpt>
      <trkpt lat="46.53267" lon="-0.74752">
        <ele>86</ele>
        <time>2022-06-19T06:15:18Z</time>
      </trkpt>
      <trkpt lat="46.53264" lon="-0.74761">
        <ele>86</ele>
        <time>2022-06-19T06:15:19Z</time>
      </trkpt>
      <trkpt lat="46.5326" lon="-0.74777">
        <ele>87.4</ele>
        <time>2022-06-19T06:15:24Z</time>
      </trkpt>
      <trkpt lat="46.53259" lon="-0.74782">
        <ele>87.6</ele>
        <time>2022-06-19T06:15:25Z</time>
      </trkpt>
      <trkpt lat="46.53258" lon="-0.74796">
        <ele>88.4</ele>
        <time>2022-06-19T06:15:28Z</time>
      </trkpt>
      <trkpt lat="46.53258" lon="-0.74813">
        <ele>89</ele>
        <time>2022-06-19T06:15:32Z</time>
      </trkpt>
      <trkpt lat="46.53259" lon="-0.74824">
        <ele>89.4</ele>
        <time>2022-06-19T06:15:34Z</time>
      </trkpt>
      <trkpt lat="46.53258" lon="-0.74845">
        <ele>90</ele>
        <time>2022-06-19T06:15:38Z</time>
      </trkpt>
      <trkpt lat="46.53255" lon="-0.7486">
        <ele>90.4</ele>
        <time>2022-06-19T06:15:41Z</time>
      </trkpt>
      <trkpt lat="46.53251" lon="-0.74879">
        <ele>91.4</ele>
        <time>2022-06-19T06:15:45Z</time>
      </trkpt>
      <trkpt lat="46.53251" lon="-0.74884">
        <ele>91.4</ele>
        <time>2022-06-19T06:15:46Z</time>
      </trkpt>
      <trkpt lat="46.53251" lon="-0.74906">
        <ele>91.8</ele>
        <time>2022-06-19T06:15:51Z</time>
      </trkpt>
      <trkpt lat="46.5325" lon="-0.74922">
        <ele>91.8</ele>
        <time>2022-06-19T06:15:54Z</time>
      </trkpt>
      <trkpt lat="46.53249" lon="-0.74935">
        <ele>91.8</ele>
        <time>2022-06-19T06:15:56Z</time>
      </trkpt>
      <trkpt lat="46.53249" lon="-0.7495">
        <ele>91.8</ele>
        <time>2022-06-19T06:15:58Z</time>
      </trkpt>
      <trkpt lat="46.53247" lon="-0.74972">
        <ele>92</ele>
        <time>2022-06-19T06:16:01Z</time>
      </trkpt>
      <trkpt lat="46.53246" lon="-0.74996">
        <ele>92.2</ele>
        <time>2022-06-19T06:16:04Z</time>
      </trkpt>
      <trkpt lat="46.53245" lon="-0.75008">
        <ele>92.6</ele>
        <time>2022-06-19T06:16:06Z</time>
      </trkpt>
      <trkpt lat="46.53245" lon="-0.75016">
        <ele>92.6</ele>
        <time>2022-06-19T06:16:07Z</time>
      </trkpt>
      <trkpt lat="46.53246" lon="-0.75024">
        <ele>92.6</ele>
        <time>2022-06-19T06:16:08Z</time>
      </trkpt>
      <trkpt lat="46.53248" lon="-0.75037">
        <ele>92.8</ele>
        <time>2022-06-19T06:16:10Z</time>
      </trkpt>
      <trkpt lat="46.5325" lon="-0.75043">
        <ele>92.8</ele>
        <time>2022-06-19T06:16:11Z</time>
      </trkpt>
      <trkpt lat="46.5325" lon="-0.7505">
        <ele>92.6</ele>
        <time>2022-06-19T06:16:12Z</time>
      </trkpt>
      <trkpt lat="46.53251" lon="-0.75064">
        <ele>92.6</ele>
        <time>2022-06-19T06:16:14Z</time>
      </trkpt>
      <trkpt lat="46.53251" lon="-0.7507">
        <ele>92.6</ele>
        <time>2022-06-19T06:16:15Z</time>
      </trkpt>
      <trkpt lat="46.53259" lon="-0.75105">
        <ele>92</ele>
        <time>2022-06-19T06:16:21Z</time>
      </trkpt>
      <trkpt lat="46.53261" lon="-0.7511">
        <ele>92</ele>
        <time>2022-06-19T06:16:22Z</time>
      </trkpt>
      <trkpt lat="46.53266" lon="-0.75134">
        <ele>91.8</ele>
        <time>2022-06-19T06:16:26Z</time>
      </trkpt>
      <trkpt lat="46.53267" lon="-0.7514">
        <ele>91.8</ele>
        <time>2022-06-19T06:16:27Z</time>
      </trkpt>
      <trkpt lat="46.53268" lon="-0.75146">
        <ele>91.8</ele>
        <time>2022-06-19T06:16:28Z</time>
      </trkpt>
      <trkpt lat="46.53271" lon="-0.75167">
        <ele>91.6</ele>
        <time>2022-06-19T06:16:31Z</time>
      </trkpt>
      <trkpt lat="46.53272" lon="-0.75182">
        <ele>91.6</ele>
        <time>2022-06-19T06:16:33Z</time>
      </trkpt>
      <trkpt lat="46.53273" lon="-0.75198">
        <ele>91.6</ele>
        <time>2022-06-19T06:16:35Z</time>
      </trkpt>
      <trkpt lat="46.53274" lon="-0.75207">
        <ele>91.4</ele>
        <time>2022-06-19T06:16:36Z</time>
      </trkpt>
      <trkpt lat="46.53276" lon="-0.75222">
        <ele>91.4</ele>
        <time>2022-06-19T06:16:38Z</time>
      </trkpt>
      <trkpt lat="46.53279" lon="-0.75235">
        <ele>91.4</ele>
        <time>2022-06-19T06:16:40Z</time>
      </trkpt>
      <trkpt lat="46.5328" lon="-0.7525">
        <ele>91.4</ele>
        <time>2022-06-19T06:16:43Z</time>
      </trkpt>
      <trkpt lat="46.53277" lon="-0.75259">
        <ele>91.6</ele>
        <time>2022-06-19T06:16:45Z</time>
      </trkpt>
      <trkpt lat="46.5327" lon="-0.7527">
        <ele>91.4</ele>
        <time>2022-06-19T06:16:47Z</time>
      </trkpt>
      <trkpt lat="46.53252" lon="-0.75294">
        <ele>91.2</ele>
        <time>2022-06-19T06:16:51Z</time>
      </trkpt>
      <trkpt lat="46.53247" lon="-0.753">
        <ele>91.2</ele>
        <time>2022-06-19T06:16:52Z</time>
      </trkpt>
      <trkpt lat="46.53225" lon="-0.75329">
        <ele>90.6</ele>
        <time>2022-06-19T06:16:57Z</time>
      </trkpt>
      <trkpt lat="46.53222" lon="-0.75334">
        <ele>90.4</ele>
        <time>2022-06-19T06:16:58Z</time>
      </trkpt>
      <trkpt lat="46.53219" lon="-0.75339">
        <ele>90.2</ele>
        <time>2022-06-19T06:16:59Z</time>
      </trkpt>
      <trkpt lat="46.53211" lon="-0.75349">
        <ele>89.4</ele>
        <time>2022-06-19T06:17:02Z</time>
      </trkpt>
      <trkpt lat="46.53208" lon="-0.75365">
        <ele>89.2</ele>
        <time>2022-06-19T06:17:06Z</time>
      </trkpt>
      <trkpt lat="46.53218" lon="-0.75389">
        <ele>90.2</ele>
        <time>2022-06-19T06:17:10Z</time>
      </trkpt>
      <trkpt lat="46.5323" lon="-0.75411">
        <ele>90.4</ele>
        <time>2022-06-19T06:17:14Z</time>
      </trkpt>
      <trkpt lat="46.53238" lon="-0.75431">
        <ele>90.2</ele>
        <time>2022-06-19T06:17:17Z</time>
      </trkpt>
      <trkpt lat="46.53266" lon="-0.75488">
        <ele>89.2</ele>
        <time>2022-06-19T06:17:25Z</time>
      </trkpt>
      <trkpt lat="46.53283" lon="-0.75519">
        <ele>88.8</ele>
        <time>2022-06-19T06:17:29Z</time>
      </trkpt>
      <trkpt lat="46.53285" lon="-0.75526">
        <ele>88.8</ele>
        <time>2022-06-19T06:17:30Z</time>
      </trkpt>
      <trkpt lat="46.53284" lon="-0.75532">
        <ele>88.4</ele>
        <time>2022-06-19T06:17:31Z</time>
      </trkpt>
      <trkpt lat="46.53282" lon="-0.75538">
        <ele>87.8</ele>
        <time>2022-06-19T06:17:32Z</time>
      </trkpt>
      <trkpt lat="46.53281" lon="-0.75543">
        <ele>87.4</ele>
        <time>2022-06-19T06:17:33Z</time>
      </trkpt>
      <trkpt lat="46.53279" lon="-0.7555">
        <ele>86.8</ele>
        <time>2022-06-19T06:17:35Z</time>
      </trkpt>
      <trkpt lat="46.53277" lon="-0.75553">
        <ele>86.4</ele>
        <time>2022-06-19T06:17:37Z</time>
      </trkpt>
      <trkpt lat="46.53267" lon="-0.75564">
        <ele>86</ele>
        <time>2022-06-19T06:17:42Z</time>
      </trkpt>
      <trkpt lat="46.53264" lon="-0.75568">
        <ele>85.8</ele>
        <time>2022-06-19T06:17:43Z</time>
      </trkpt>
      <trkpt lat="46.5325" lon="-0.75584">
        <ele>85.4</ele>
        <time>2022-06-19T06:17:47Z</time>
      </trkpt>
      <trkpt lat="46.53238" lon="-0.75598">
        <ele>84.4</ele>
        <time>2022-06-19T06:17:50Z</time>
      </trkpt>
      <trkpt lat="46.53228" lon="-0.75611">
        <ele>84</ele>
        <time>2022-06-19T06:17:52Z</time>
      </trkpt>
      <trkpt lat="46.53219" lon="-0.75624">
        <ele>83.2</ele>
        <time>2022-06-19T06:17:54Z</time>
      </trkpt>
      <trkpt lat="46.53208" lon="-0.75637">
        <ele>82</ele>
        <time>2022-06-19T06:17:56Z</time>
      </trkpt>
      <trkpt lat="46.53198" lon="-0.75651">
        <ele>81</ele>
        <time>2022-06-19T06:17:58Z</time>
      </trkpt>
      <trkpt lat="46.53194" lon="-0.75656">
        <ele>80.2</ele>
        <time>2022-06-19T06:17:59Z</time>
      </trkpt>
      <trkpt lat="46.53189" lon="-0.75659">
        <ele>79.4</ele>
        <time>2022-06-19T06:18:00Z</time>
      </trkpt>
      <trkpt lat="46.53184" lon="-0.7566">
        <ele>79</ele>
        <time>2022-06-19T06:18:01Z</time>
      </trkpt>
      <trkpt lat="46.53179" lon="-0.75659">
        <ele>78</ele>
        <time>2022-06-19T06:18:02Z</time>
      </trkpt>
      <trkpt lat="46.53173" lon="-0.75658">
        <ele>77.4</ele>
        <time>2022-06-19T06:18:03Z</time>
      </trkpt>
      <trkpt lat="46.53161" lon="-0.75657">
        <ele>76.6</ele>
        <time>2022-06-19T06:18:05Z</time>
      </trkpt>
      <trkpt lat="46.53149" lon="-0.75656">
        <ele>74.8</ele>
        <time>2022-06-19T06:18:07Z</time>
      </trkpt>
      <trkpt lat="46.53136" lon="-0.75654">
        <ele>71.8</ele>
        <time>2022-06-19T06:18:09Z</time>
      </trkpt>
      <trkpt lat="46.5313" lon="-0.75654">
        <ele>70.4</ele>
        <time>2022-06-19T06:18:10Z</time>
      </trkpt>
      <trkpt lat="46.53122" lon="-0.75654">
        <ele>67.8</ele>
        <time>2022-06-19T06:18:11Z</time>
      </trkpt>
      <trkpt lat="46.53114" lon="-0.75655">
        <ele>65.8</ele>
        <time>2022-06-19T06:18:12Z</time>
      </trkpt>
      <trkpt lat="46.53104" lon="-0.75655">
        <ele>64.4</ele>
        <time>2022-06-19T06:18:13Z</time>
      </trkpt>
      <trkpt lat="46.53095" lon="-0.75654">
        <ele>62.6</ele>
        <time>2022-06-19T06:18:14Z</time>
      </trkpt>
      <trkpt lat="46.53085" lon="-0.75652">
        <ele>60.8</ele>
        <time>2022-06-19T06:18:15Z</time>
      </trkpt>
      <trkpt lat="46.53076" lon="-0.75651">
        <ele>57.2</ele>
        <time>2022-06-19T06:18:16Z</time>
      </trkpt>
      <trkpt lat="46.53067" lon="-0.7565">
        <ele>55.2</ele>
        <time>2022-06-19T06:18:17Z</time>
      </trkpt>
      <trkpt lat="46.53058" lon="-0.75648">
        <ele>52.8</ele>
        <time>2022-06-19T06:18:18Z</time>
      </trkpt>
      <trkpt lat="46.5305" lon="-0.75648">
        <ele>51.6</ele>
        <time>2022-06-19T06:18:19Z</time>
      </trkpt>
      <trkpt lat="46.53041" lon="-0.75647">
        <ele>49.8</ele>
        <time>2022-06-19T06:18:20Z</time>
      </trkpt>
      <trkpt lat="46.53024" lon="-0.75645">
        <ele>45.6</ele>
        <time>2022-06-19T06:18:22Z</time>
      </trkpt>
      <trkpt lat="46.53008" lon="-0.75642">
        <ele>42.4</ele>
        <time>2022-06-19T06:18:23Z</time>
      </trkpt>
      <trkpt lat="46.53008" lon="-0.75642">
        <ele>42.4</ele>
        <time>2022-06-19T06:18:24Z</time>
      </trkpt>
      <trkpt lat="46.53008" lon="-0.75642">
        <ele>40.6</ele>
        <time>2022-06-19T06:18:25Z</time>
      </trkpt>
      <trkpt lat="46.52995" lon="-0.75642">
        <ele>39</ele>
        <time>2022-06-19T06:18:26Z</time>
      </trkpt>
      <trkpt lat="46.52985" lon="-0.75642">
        <ele>37.2</ele>
        <time>2022-06-19T06:18:28Z</time>
      </trkpt>
      <trkpt lat="46.52981" lon="-0.75646">
        <ele>36.4</ele>
        <time>2022-06-19T06:18:30Z</time>
      </trkpt>
      <trkpt lat="46.52975" lon="-0.75654">
        <ele>36</ele>
        <time>2022-06-19T06:18:32Z</time>
      </trkpt>
      <trkpt lat="46.52965" lon="-0.7567">
        <ele>36.2</ele>
        <time>2022-06-19T06:18:35Z</time>
      </trkpt>
      <trkpt lat="46.52962" lon="-0.75681">
        <ele>36.2</ele>
        <time>2022-06-19T06:18:37Z</time>
      </trkpt>
      <trkpt lat="46.52951" lon="-0.75716">
        <ele>36.2</ele>
        <time>2022-06-19T06:18:42Z</time>
      </trkpt>
      <trkpt lat="46.52945" lon="-0.75739">
        <ele>36.4</ele>
        <time>2022-06-19T06:18:45Z</time>
      </trkpt>
      <trkpt lat="46.52941" lon="-0.75753">
        <ele>36.4</ele>
        <time>2022-06-19T06:18:47Z</time>
      </trkpt>
      <trkpt lat="46.52933" lon="-0.75781">
        <ele>36.2</ele>
        <time>2022-06-19T06:18:51Z</time>
      </trkpt>
      <trkpt lat="46.5293" lon="-0.75796">
        <ele>36.4</ele>
        <time>2022-06-19T06:18:53Z</time>
      </trkpt>
      <trkpt lat="46.52924" lon="-0.7583">
        <ele>36.6</ele>
        <time>2022-06-19T06:18:57Z</time>
      </trkpt>
      <trkpt lat="46.52924" lon="-0.75844">
        <ele>36.6</ele>
        <time>2022-06-19T06:18:59Z</time>
      </trkpt>
      <trkpt lat="46.5292" lon="-0.75874">
        <ele>37</ele>
        <time>2022-06-19T06:19:04Z</time>
      </trkpt>
      <trkpt lat="46.52918" lon="-0.75881">
        <ele>37</ele>
        <time>2022-06-19T06:19:05Z</time>
      </trkpt>
      <trkpt lat="46.52918" lon="-0.75889">
        <ele>36.8</ele>
        <time>2022-06-19T06:19:06Z</time>
      </trkpt>
      <trkpt lat="46.52918" lon="-0.75903">
        <ele>36.8</ele>
        <time>2022-06-19T06:19:08Z</time>
      </trkpt>
      <trkpt lat="46.52919" lon="-0.75908">
        <ele>36.6</ele>
        <time>2022-06-19T06:19:09Z</time>
      </trkpt>
      <trkpt lat="46.5292" lon="-0.75928">
        <ele>36.4</ele>
        <time>2022-06-19T06:19:12Z</time>
      </trkpt>
      <trkpt lat="46.52923" lon="-0.75942">
        <ele>36.2</ele>
        <time>2022-06-19T06:19:14Z</time>
      </trkpt>
      <trkpt lat="46.52937" lon="-0.75966">
        <ele>36.2</ele>
        <time>2022-06-19T06:19:18Z</time>
      </trkpt>
      <trkpt lat="46.52948" lon="-0.75981">
        <ele>36</ele>
        <time>2022-06-19T06:19:21Z</time>
      </trkpt>
      <trkpt lat="46.52957" lon="-0.75989">
        <ele>36.6</ele>
        <time>2022-06-19T06:19:23Z</time>
      </trkpt>
      <trkpt lat="46.52965" lon="-0.75998">
        <ele>36.6</ele>
        <time>2022-06-19T06:19:25Z</time>
      </trkpt>
      <trkpt lat="46.52973" lon="-0.76004">
        <ele>36.4</ele>
        <time>2022-06-19T06:19:27Z</time>
      </trkpt>
      <trkpt lat="46.52978" lon="-0.76005">
        <ele>36.2</ele>
        <time>2022-06-19T06:19:28Z</time>
      </trkpt>
      <trkpt lat="46.52991" lon="-0.7601">
        <ele>36.2</ele>
        <time>2022-06-19T06:19:31Z</time>
      </trkpt>
      <trkpt lat="46.53" lon="-0.7601">
        <ele>36.6</ele>
        <time>2022-06-19T06:19:33Z</time>
      </trkpt>
      <trkpt lat="46.53007" lon="-0.76009">
        <ele>36.6</ele>
        <time>2022-06-19T06:19:35Z</time>
      </trkpt>
      <trkpt lat="46.53015" lon="-0.76008">
        <ele>36.8</ele>
        <time>2022-06-19T06:19:37Z</time>
      </trkpt>
      <trkpt lat="46.53033" lon="-0.76007">
        <ele>37.2</ele>
        <time>2022-06-19T06:19:42Z</time>
      </trkpt>
      <trkpt lat="46.53037" lon="-0.76007">
        <ele>37.2</ele>
        <time>2022-06-19T06:19:43Z</time>
      </trkpt>
      <trkpt lat="46.53055" lon="-0.76008">
        <ele>37.4</ele>
        <time>2022-06-19T06:19:47Z</time>
      </trkpt>
      <trkpt lat="46.5306" lon="-0.76008">
        <ele>37.4</ele>
        <time>2022-06-19T06:19:48Z</time>
      </trkpt>
      <trkpt lat="46.53072" lon="-0.76008">
        <ele>37.8</ele>
        <time>2022-06-19T06:19:51Z</time>
      </trkpt>
      <trkpt lat="46.53082" lon="-0.76006">
        <ele>37.8</ele>
        <time>2022-06-19T06:19:53Z</time>
      </trkpt>
      <trkpt lat="46.53112" lon="-0.76011">
        <ele>37.8</ele>
        <time>2022-06-19T06:19:59Z</time>
      </trkpt>
      <trkpt lat="46.53128" lon="-0.76017">
        <ele>37.6</ele>
        <time>2022-06-19T06:20:02Z</time>
      </trkpt>
      <trkpt lat="46.53141" lon="-0.76027">
        <ele>37.6</ele>
        <time>2022-06-19T06:20:05Z</time>
      </trkpt>
      <trkpt lat="46.53144" lon="-0.76033">
        <ele>37.6</ele>
        <time>2022-06-19T06:20:06Z</time>
      </trkpt>
      <trkpt lat="46.53149" lon="-0.76042">
        <ele>37.8</ele>
        <time>2022-06-19T06:20:08Z</time>
      </trkpt>
      <trkpt lat="46.53154" lon="-0.76052">
        <ele>37.6</ele>
        <time>2022-06-19T06:20:10Z</time>
      </trkpt>
      <trkpt lat="46.53174" lon="-0.76088">
        <ele>36.8</ele>
        <time>2022-06-19T06:20:16Z</time>
      </trkpt>
      <trkpt lat="46.53177" lon="-0.76094">
        <ele>36.8</ele>
        <time>2022-06-19T06:20:17Z</time>
      </trkpt>
      <trkpt lat="46.5319" lon="-0.76112">
        <ele>36.8</ele>
        <time>2022-06-19T06:20:20Z</time>
      </trkpt>
      <trkpt lat="46.53195" lon="-0.76117">
        <ele>36.6</ele>
        <time>2022-06-19T06:20:21Z</time>
      </trkpt>
      <trkpt lat="46.53205" lon="-0.76121">
        <ele>36.2</ele>
        <time>2022-06-19T06:20:23Z</time>
      </trkpt>
      <trkpt lat="46.5321" lon="-0.76121">
        <ele>36</ele>
        <time>2022-06-19T06:20:24Z</time>
      </trkpt>
      <trkpt lat="46.53215" lon="-0.7612">
        <ele>36</ele>
        <time>2022-06-19T06:20:25Z</time>
      </trkpt>
      <trkpt lat="46.53224" lon="-0.76116">
        <ele>35.8</ele>
        <time>2022-06-19T06:20:27Z</time>
      </trkpt>
      <trkpt lat="46.53228" lon="-0.76113">
        <ele>35.6</ele>
        <time>2022-06-19T06:20:28Z</time>
      </trkpt>
      <trkpt lat="46.53236" lon="-0.76108">
        <ele>35.6</ele>
        <time>2022-06-19T06:20:30Z</time>
      </trkpt>
      <trkpt lat="46.53245" lon="-0.76098">
        <ele>35.8</ele>
        <time>2022-06-19T06:20:33Z</time>
      </trkpt>
      <trkpt lat="46.53253" lon="-0.76087">
        <ele>36.2</ele>
        <time>2022-06-19T06:20:36Z</time>
      </trkpt>
      <trkpt lat="46.53261" lon="-0.76077">
        <ele>36.6</ele>
        <time>2022-06-19T06:20:39Z</time>
      </trkpt>
      <trkpt lat="46.53271" lon="-0.76062">
        <ele>37.6</ele>
        <time>2022-06-19T06:20:44Z</time>
      </trkpt>
      <trkpt lat="46.53272" lon="-0.76059">
        <ele>38.2</ele>
        <time>2022-06-19T06:20:45Z</time>
      </trkpt>
      <trkpt lat="46.53276" lon="-0.76052">
        <ele>39</ele>
        <time>2022-06-19T06:20:47Z</time>
      </trkpt>
      <trkpt lat="46.53288" lon="-0.76039">
        <ele>39.2</ele>
        <time>2022-06-19T06:20:52Z</time>
      </trkpt>
      <trkpt lat="46.53308" lon="-0.76028">
        <ele>38</ele>
        <time>2022-06-19T06:20:56Z</time>
      </trkpt>
      <trkpt lat="46.53314" lon="-0.76025">
        <ele>37.8</ele>
        <time>2022-06-19T06:20:57Z</time>
      </trkpt>
      <trkpt lat="46.5332" lon="-0.76023">
        <ele>37.4</ele>
        <time>2022-06-19T06:20:58Z</time>
      </trkpt>
      <trkpt lat="46.53338" lon="-0.76012">
        <ele>36.8</ele>
        <time>2022-06-19T06:21:01Z</time>
      </trkpt>
      <trkpt lat="46.53344" lon="-0.7601">
        <ele>36.4</ele>
        <time>2022-06-19T06:21:02Z</time>
      </trkpt>
      <trkpt lat="46.53356" lon="-0.76006">
        <ele>36</ele>
        <time>2022-06-19T06:21:04Z</time>
      </trkpt>
      <trkpt lat="46.53368" lon="-0.76002">
        <ele>35.8</ele>
        <time>2022-06-19T06:21:06Z</time>
      </trkpt>
      <trkpt lat="46.53374" lon="-0.76">
        <ele>35.6</ele>
        <time>2022-06-19T06:21:07Z</time>
      </trkpt>
      <trkpt lat="46.53384" lon="-0.76002">
        <ele>35.6</ele>
        <time>2022-06-19T06:21:09Z</time>
      </trkpt>
      <trkpt lat="46.5339" lon="-0.76005">
        <ele>35.6</ele>
        <time>2022-06-19T06:21:10Z</time>
      </trkpt>
      <trkpt lat="46.53394" lon="-0.76008">
        <ele>35.6</ele>
        <time>2022-06-19T06:21:11Z</time>
      </trkpt>
      <trkpt lat="46.53404" lon="-0.76012">
        <ele>35.6</ele>
        <time>2022-06-19T06:21:13Z</time>
      </trkpt>
      <trkpt lat="46.53416" lon="-0.76016">
        <ele>35.4</ele>
        <time>2022-06-19T06:21:15Z</time>
      </trkpt>
      <trkpt lat="46.53422" lon="-0.76018">
        <ele>35.4</ele>
        <time>2022-06-19T06:21:16Z</time>
      </trkpt>
      <trkpt lat="46.53427" lon="-0.7602">
        <ele>35.4</ele>
        <time>2022-06-19T06:21:17Z</time>
      </trkpt>
      <trkpt lat="46.53441" lon="-0.76027">
        <ele>35.4</ele>
        <time>2022-06-19T06:21:20Z</time>
      </trkpt>
      <trkpt lat="46.53453" lon="-0.76036">
        <ele>35.2</ele>
        <time>2022-06-19T06:21:24Z</time>
      </trkpt>
      <trkpt lat="46.5346" lon="-0.76041">
        <ele>35.2</ele>
        <time>2022-06-19T06:21:26Z</time>
      </trkpt>
      <trkpt lat="46.53468" lon="-0.76047">
        <ele>35.4</ele>
        <time>2022-06-19T06:21:28Z</time>
      </trkpt>
      <trkpt lat="46.53482" lon="-0.76058">
        <ele>36</ele>
        <time>2022-06-19T06:21:31Z</time>
      </trkpt>
      <trkpt lat="46.53492" lon="-0.76062">
        <ele>36</ele>
        <time>2022-06-19T06:21:33Z</time>
      </trkpt>
      <trkpt lat="46.53499" lon="-0.76064">
        <ele>36</ele>
        <time>2022-06-19T06:21:35Z</time>
      </trkpt>
      <trkpt lat="46.53518" lon="-0.7606">
        <ele>35.6</ele>
        <time>2022-06-19T06:21:40Z</time>
      </trkpt>
      <trkpt lat="46.53535" lon="-0.76062">
        <ele>35.4</ele>
        <time>2022-06-19T06:21:46Z</time>
      </trkpt>
      <trkpt lat="46.53545" lon="-0.76073">
        <ele>34.8</ele>
        <time>2022-06-19T06:21:50Z</time>
      </trkpt>
      <trkpt lat="46.53554" lon="-0.7609">
        <ele>34.8</ele>
        <time>2022-06-19T06:21:54Z</time>
      </trkpt>
      <trkpt lat="46.53555" lon="-0.76094">
        <ele>35</ele>
        <time>2022-06-19T06:21:55Z</time>
      </trkpt>
      <trkpt lat="46.53555" lon="-0.76099">
        <ele>35.2</ele>
        <time>2022-06-19T06:21:56Z</time>
      </trkpt>
      <trkpt lat="46.53551" lon="-0.76104">
        <ele>35.8</ele>
        <time>2022-06-19T06:21:58Z</time>
      </trkpt>
      <trkpt lat="46.53547" lon="-0.76109">
        <ele>36</ele>
        <time>2022-06-19T06:22:00Z</time>
      </trkpt>
      <trkpt lat="46.53542" lon="-0.76114">
        <ele>36</ele>
        <time>2022-06-19T06:22:02Z</time>
      </trkpt>
      <trkpt lat="46.53535" lon="-0.76118">
        <ele>35.8</ele>
        <time>2022-06-19T06:22:04Z</time>
      </trkpt>
      <trkpt lat="46.53531" lon="-0.7612">
        <ele>35.8</ele>
        <time>2022-06-19T06:22:05Z</time>
      </trkpt>
      <trkpt lat="46.53526" lon="-0.76121">
        <ele>35.8</ele>
        <time>2022-06-19T06:22:06Z</time>
      </trkpt>
      <trkpt lat="46.53511" lon="-0.76125">
        <ele>36</ele>
        <time>2022-06-19T06:22:10Z</time>
      </trkpt>
      <trkpt lat="46.53507" lon="-0.76125">
        <ele>36</ele>
        <time>2022-06-19T06:22:11Z</time>
      </trkpt>
      <trkpt lat="46.53501" lon="-0.76124">
        <ele>36.2</ele>
        <time>2022-06-19T06:22:13Z</time>
      </trkpt>
      <trkpt lat="46.53494" lon="-0.76125">
        <ele>36.6</ele>
        <time>2022-06-19T06:22:15Z</time>
      </trkpt>
      <trkpt lat="46.53485" lon="-0.76124">
        <ele>37.6</ele>
        <time>2022-06-19T06:22:18Z</time>
      </trkpt>
      <trkpt lat="46.53477" lon="-0.76122">
        <ele>38.8</ele>
        <time>2022-06-19T06:22:22Z</time>
      </trkpt>
      <trkpt lat="46.53473" lon="-0.7612">
        <ele>39</ele>
        <time>2022-06-19T06:22:24Z</time>
      </trkpt>
      <trkpt lat="46.53469" lon="-0.76116">
        <ele>39.2</ele>
        <time>2022-06-19T06:22:26Z</time>
      </trkpt>
      <trkpt lat="46.53459" lon="-0.76107">
        <ele>38.6</ele>
        <time>2022-06-19T06:22:29Z</time>
      </trkpt>
      <trkpt lat="46.53455" lon="-0.76105">
        <ele>38.4</ele>
        <time>2022-06-19T06:22:30Z</time>
      </trkpt>
      <trkpt lat="46.53446" lon="-0.761">
        <ele>37.4</ele>
        <time>2022-06-19T06:22:32Z</time>
      </trkpt>
      <trkpt lat="46.53435" lon="-0.7609">
        <ele>37</ele>
        <time>2022-06-19T06:22:34Z</time>
      </trkpt>
      <trkpt lat="46.5343" lon="-0.76087">
        <ele>36.8</ele>
        <time>2022-06-19T06:22:35Z</time>
      </trkpt>
      <trkpt lat="46.53418" lon="-0.76082">
        <ele>36.4</ele>
        <time>2022-06-19T06:22:37Z</time>
      </trkpt>
      <trkpt lat="46.53398" lon="-0.76073">
        <ele>36</ele>
        <time>2022-06-19T06:22:41Z</time>
      </trkpt>
      <trkpt lat="46.5339" lon="-0.76072">
        <ele>35.8</ele>
        <time>2022-06-19T06:22:43Z</time>
      </trkpt>
      <trkpt lat="46.5338" lon="-0.76073">
        <ele>35.8</ele>
        <time>2022-06-19T06:22:45Z</time>
      </trkpt>
      <trkpt lat="46.53376" lon="-0.76075">
        <ele>36</ele>
        <time>2022-06-19T06:22:46Z</time>
      </trkpt>
      <trkpt lat="46.53365" lon="-0.76082">
        <ele>36</ele>
        <time>2022-06-19T06:22:49Z</time>
      </trkpt>
      <trkpt lat="46.53357" lon="-0.76088">
        <ele>36</ele>
        <time>2022-06-19T06:22:51Z</time>
      </trkpt>
      <trkpt lat="46.5335" lon="-0.76093">
        <ele>35.8</ele>
        <time>2022-06-19T06:22:53Z</time>
      </trkpt>
      <trkpt lat="46.53345" lon="-0.76095">
        <ele>35.8</ele>
        <time>2022-06-19T06:22:54Z</time>
      </trkpt>
      <trkpt lat="46.53326" lon="-0.76104">
        <ele>35.6</ele>
        <time>2022-06-19T06:22:58Z</time>
      </trkpt>
      <trkpt lat="46.53301" lon="-0.76123">
        <ele>35.6</ele>
        <time>2022-06-19T06:23:03Z</time>
      </trkpt>
      <trkpt lat="46.53296" lon="-0.76127">
        <ele>35.6</ele>
        <time>2022-06-19T06:23:04Z</time>
      </trkpt>
      <trkpt lat="46.53288" lon="-0.76134">
        <ele>35.6</ele>
        <time>2022-06-19T06:23:06Z</time>
      </trkpt>
      <trkpt lat="46.53282" lon="-0.76143">
        <ele>35.4</ele>
        <time>2022-06-19T06:23:08Z</time>
      </trkpt>
      <trkpt lat="46.5327" lon="-0.76158">
        <ele>35.4</ele>
        <time>2022-06-19T06:23:11Z</time>
      </trkpt>
      <trkpt lat="46.53255" lon="-0.76173">
        <ele>35.4</ele>
        <time>2022-06-19T06:23:15Z</time>
      </trkpt>
      <trkpt lat="46.53243" lon="-0.76185">
        <ele>35.4</ele>
        <time>2022-06-19T06:23:19Z</time>
      </trkpt>
      <trkpt lat="46.53236" lon="-0.76191">
        <ele>35.4</ele>
        <time>2022-06-19T06:23:21Z</time>
      </trkpt>
      <trkpt lat="46.53216" lon="-0.762">
        <ele>35.8</ele>
        <time>2022-06-19T06:23:27Z</time>
      </trkpt>
      <trkpt lat="46.53195" lon="-0.76202">
        <ele>36.8</ele>
        <time>2022-06-19T06:23:32Z</time>
      </trkpt>
      <trkpt lat="46.53182" lon="-0.762">
        <ele>38.2</ele>
        <time>2022-06-19T06:23:35Z</time>
      </trkpt>
      <trkpt lat="46.53177" lon="-0.76197">
        <ele>39.6</ele>
        <time>2022-06-19T06:23:37Z</time>
      </trkpt>
      <trkpt lat="46.53175" lon="-0.76195">
        <ele>40</ele>
        <time>2022-06-19T06:23:38Z</time>
      </trkpt>
      <trkpt lat="46.5317" lon="-0.7619">
        <ele>40.6</ele>
        <time>2022-06-19T06:23:41Z</time>
      </trkpt>
      <trkpt lat="46.53169" lon="-0.76188">
        <ele>40.8</ele>
        <time>2022-06-19T06:23:42Z</time>
      </trkpt>
      <trkpt lat="46.53166" lon="-0.76181">
        <ele>40.6</ele>
        <time>2022-06-19T06:23:44Z</time>
      </trkpt>
      <trkpt lat="46.53162" lon="-0.76171">
        <ele>40</ele>
        <time>2022-06-19T06:23:46Z</time>
      </trkpt>
      <trkpt lat="46.5316" lon="-0.76165">
        <ele>39.6</ele>
        <time>2022-06-19T06:23:47Z</time>
      </trkpt>
      <trkpt lat="46.53159" lon="-0.76159">
        <ele>39.2</ele>
        <time>2022-06-19T06:23:48Z</time>
      </trkpt>
      <trkpt lat="46.53157" lon="-0.76152">
        <ele>38.6</ele>
        <time>2022-06-19T06:23:49Z</time>
      </trkpt>
      <trkpt lat="46.53152" lon="-0.76143">
        <ele>38.2</ele>
        <time>2022-06-19T06:23:50Z</time>
      </trkpt>
      <trkpt lat="46.53142" lon="-0.7613">
        <ele>37.8</ele>
        <time>2022-06-19T06:23:52Z</time>
      </trkpt>
      <trkpt lat="46.53131" lon="-0.76121">
        <ele>37.6</ele>
        <time>2022-06-19T06:23:54Z</time>
      </trkpt>
      <trkpt lat="46.53118" lon="-0.76114">
        <ele>37.4</ele>
        <time>2022-06-19T06:23:56Z</time>
      </trkpt>
      <trkpt lat="46.53108" lon="-0.76113">
        <ele>37.2</ele>
        <time>2022-06-19T06:23:58Z</time>
      </trkpt>
      <trkpt lat="46.53097" lon="-0.76113">
        <ele>36.6</ele>
        <time>2022-06-19T06:24:00Z</time>
      </trkpt>
      <trkpt lat="46.5308" lon="-0.7611">
        <ele>36</ele>
        <time>2022-06-19T06:24:03Z</time>
      </trkpt>
      <trkpt lat="46.53059" lon="-0.76107">
        <ele>35.6</ele>
        <time>2022-06-19T06:24:06Z</time>
      </trkpt>
      <trkpt lat="46.53039" lon="-0.76113">
        <ele>35.8</ele>
        <time>2022-06-19T06:24:10Z</time>
      </trkpt>
      <trkpt lat="46.53029" lon="-0.76117">
        <ele>35.8</ele>
        <time>2022-06-19T06:24:12Z</time>
      </trkpt>
      <trkpt lat="46.5301" lon="-0.76127">
        <ele>36.2</ele>
        <time>2022-06-19T06:24:17Z</time>
      </trkpt>
      <trkpt lat="46.53003" lon="-0.76129">
        <ele>36.4</ele>
        <time>2022-06-19T06:24:19Z</time>
      </trkpt>
      <trkpt lat="46.52998" lon="-0.7613">
        <ele>36.4</ele>
        <time>2022-06-19T06:24:20Z</time>
      </trkpt>
      <trkpt lat="46.52986" lon="-0.76131">
        <ele>36.6</ele>
        <time>2022-06-19T06:24:22Z</time>
      </trkpt>
      <trkpt lat="46.5298" lon="-0.76131">
        <ele>36.6</ele>
        <time>2022-06-19T06:24:23Z</time>
      </trkpt>
      <trkpt lat="46.52971" lon="-0.7613">
        <ele>36.4</ele>
        <time>2022-06-19T06:24:25Z</time>
      </trkpt>
      <trkpt lat="46.52961" lon="-0.76128">
        <ele>36.2</ele>
        <time>2022-06-19T06:24:27Z</time>
      </trkpt>
      <trkpt lat="46.52955" lon="-0.76127">
        <ele>36.2</ele>
        <time>2022-06-19T06:24:28Z</time>
      </trkpt>
      <trkpt lat="46.52941" lon="-0.76121">
        <ele>36.2</ele>
        <time>2022-06-19T06:24:31Z</time>
      </trkpt>
      <trkpt lat="46.52934" lon="-0.76118">
        <ele>36.4</ele>
        <time>2022-06-19T06:24:33Z</time>
      </trkpt>
      <trkpt lat="46.52927" lon="-0.76123">
        <ele>36.4</ele>
        <time>2022-06-19T06:24:35Z</time>
      </trkpt>
      <trkpt lat="46.52925" lon="-0.76127">
        <ele>36.4</ele>
        <time>2022-06-19T06:24:36Z</time>
      </trkpt>
      <trkpt lat="46.52924" lon="-0.76133">
        <ele>36.4</ele>
        <time>2022-06-19T06:24:37Z</time>
      </trkpt>
      <trkpt lat="46.52924" lon="-0.76145">
        <ele>36.4</ele>
        <time>2022-06-19T06:24:39Z</time>
      </trkpt>
      <trkpt lat="46.52934" lon="-0.76177">
        <ele>35.4</ele>
        <time>2022-06-19T06:24:45Z</time>
      </trkpt>
      <trkpt lat="46.52949" lon="-0.76207">
        <ele>36.6</ele>
        <time>2022-06-19T06:24:52Z</time>
      </trkpt>
      <trkpt lat="46.52955" lon="-0.76224">
        <ele>37</ele>
        <time>2022-06-19T06:24:56Z</time>
      </trkpt>
      <trkpt lat="46.52956" lon="-0.76229">
        <ele>36.8</ele>
        <time>2022-06-19T06:24:57Z</time>
      </trkpt>
      <trkpt lat="46.52957" lon="-0.76242">
        <ele>36.6</ele>
        <time>2022-06-19T06:24:59Z</time>
      </trkpt>
      <trkpt lat="46.52958" lon="-0.76255">
        <ele>36.6</ele>
        <time>2022-06-19T06:25:01Z</time>
      </trkpt>
      <trkpt lat="46.52957" lon="-0.76263">
        <ele>36.6</ele>
        <time>2022-06-19T06:25:02Z</time>
      </trkpt>
      <trkpt lat="46.52953" lon="-0.76294">
        <ele>36.6</ele>
        <time>2022-06-19T06:25:07Z</time>
      </trkpt>
      <trkpt lat="46.52952" lon="-0.76303">
        <ele>36.6</ele>
        <time>2022-06-19T06:25:08Z</time>
      </trkpt>
      <trkpt lat="46.52947" lon="-0.76331">
        <ele>36.2</ele>
        <time>2022-06-19T06:25:12Z</time>
      </trkpt>
      <trkpt lat="46.52943" lon="-0.76347">
        <ele>36.2</ele>
        <time>2022-06-19T06:25:14Z</time>
      </trkpt>
      <trkpt lat="46.52936" lon="-0.76364">
        <ele>36.2</ele>
        <time>2022-06-19T06:25:16Z</time>
      </trkpt>
      <trkpt lat="46.52924" lon="-0.76398">
        <ele>36.4</ele>
        <time>2022-06-19T06:25:21Z</time>
      </trkpt>
      <trkpt lat="46.52922" lon="-0.76405">
        <ele>36.4</ele>
        <time>2022-06-19T06:25:22Z</time>
      </trkpt>
      <trkpt lat="46.5292" lon="-0.7641">
        <ele>36.4</ele>
        <time>2022-06-19T06:25:23Z</time>
      </trkpt>
      <trkpt lat="46.52906" lon="-0.76434">
        <ele>36.2</ele>
        <time>2022-06-19T06:25:27Z</time>
      </trkpt>
      <trkpt lat="46.52891" lon="-0.76464">
        <ele>36.4</ele>
        <time>2022-06-19T06:25:31Z</time>
      </trkpt>
      <trkpt lat="46.52886" lon="-0.76479">
        <ele>36.2</ele>
        <time>2022-06-19T06:25:33Z</time>
      </trkpt>
      <trkpt lat="46.5288" lon="-0.7649">
        <ele>36.2</ele>
        <time>2022-06-19T06:25:35Z</time>
      </trkpt>
      <trkpt lat="46.52873" lon="-0.76507">
        <ele>36.2</ele>
        <time>2022-06-19T06:25:38Z</time>
      </trkpt>
      <trkpt lat="46.52858" lon="-0.76538">
        <ele>36</ele>
        <time>2022-06-19T06:25:43Z</time>
      </trkpt>
      <trkpt lat="46.52854" lon="-0.76545">
        <ele>35.8</ele>
        <time>2022-06-19T06:25:44Z</time>
      </trkpt>
      <trkpt lat="46.52829" lon="-0.76585">
        <ele>35.6</ele>
        <time>2022-06-19T06:25:50Z</time>
      </trkpt>
      <trkpt lat="46.5281" lon="-0.76612">
        <ele>35.6</ele>
        <time>2022-06-19T06:25:55Z</time>
      </trkpt>
      <trkpt lat="46.528" lon="-0.76626">
        <ele>35.6</ele>
        <time>2022-06-19T06:25:58Z</time>
      </trkpt>
      <trkpt lat="46.52781" lon="-0.76648">
        <ele>35.4</ele>
        <time>2022-06-19T06:26:03Z</time>
      </trkpt>
      <trkpt lat="46.52777" lon="-0.76653">
        <ele>35.4</ele>
        <time>2022-06-19T06:26:04Z</time>
      </trkpt>
      <trkpt lat="46.52767" lon="-0.76665">
        <ele>35</ele>
        <time>2022-06-19T06:26:07Z</time>
      </trkpt>
      <trkpt lat="46.52762" lon="-0.76669">
        <ele>35.2</ele>
        <time>2022-06-19T06:26:08Z</time>
      </trkpt>
      <trkpt lat="46.52758" lon="-0.76673">
        <ele>35.2</ele>
        <time>2022-06-19T06:26:09Z</time>
      </trkpt>
      <trkpt lat="46.52743" lon="-0.76692">
        <ele>35.6</ele>
        <time>2022-06-19T06:26:14Z</time>
      </trkpt>
      <trkpt lat="46.5274" lon="-0.76695">
        <ele>36.2</ele>
        <time>2022-06-19T06:26:15Z</time>
      </trkpt>
      <trkpt lat="46.52735" lon="-0.76702">
        <ele>36.8</ele>
        <time>2022-06-19T06:26:17Z</time>
      </trkpt>
      <trkpt lat="46.52732" lon="-0.76706">
        <ele>37.2</ele>
        <time>2022-06-19T06:26:18Z</time>
      </trkpt>
      <trkpt lat="46.52725" lon="-0.76713">
        <ele>38</ele>
        <time>2022-06-19T06:26:20Z</time>
      </trkpt>
      <trkpt lat="46.52721" lon="-0.76718">
        <ele>38.2</ele>
        <time>2022-06-19T06:26:21Z</time>
      </trkpt>
      <trkpt lat="46.52719" lon="-0.76723">
        <ele>38.4</ele>
        <time>2022-06-19T06:26:22Z</time>
      </trkpt>
      <trkpt lat="46.52712" lon="-0.76743">
        <ele>39</ele>
        <time>2022-06-19T06:26:26Z</time>
      </trkpt>
      <trkpt lat="46.52711" lon="-0.76756">
        <ele>39.8</ele>
        <time>2022-06-19T06:26:29Z</time>
      </trkpt>
      <trkpt lat="46.5271" lon="-0.7676">
        <ele>40.2</ele>
        <time>2022-06-19T06:26:30Z</time>
      </trkpt>
      <trkpt lat="46.52711" lon="-0.76762">
        <ele>40.4</ele>
        <time>2022-06-19T06:26:31Z</time>
      </trkpt>
      <trkpt lat="46.52711" lon="-0.76765">
        <ele>40.8</ele>
        <time>2022-06-19T06:26:32Z</time>
      </trkpt>
      <trkpt lat="46.52721" lon="-0.76779">
        <ele>42.2</ele>
        <time>2022-06-19T06:26:37Z</time>
      </trkpt>
      <trkpt lat="46.52731" lon="-0.76787">
        <ele>43.2</ele>
        <time>2022-06-19T06:26:43Z</time>
      </trkpt>
      <trkpt lat="46.5274" lon="-0.76789">
        <ele>44.2</ele>
        <time>2022-06-19T06:26:49Z</time>
      </trkpt>
      <trkpt lat="46.52746" lon="-0.76787">
        <ele>45.2</ele>
        <time>2022-06-19T06:26:55Z</time>
      </trkpt>
      <trkpt lat="46.52747" lon="-0.76787">
        <ele>45.6</ele>
        <time>2022-06-19T06:26:56Z</time>
      </trkpt>
      <trkpt lat="46.52752" lon="-0.76787">
        <ele>46.6</ele>
        <time>2022-06-19T06:26:59Z</time>
      </trkpt>
      <trkpt lat="46.52753" lon="-0.76788">
        <ele>46.8</ele>
        <time>2022-06-19T06:27:00Z</time>
      </trkpt>
      <trkpt lat="46.52756" lon="-0.7679">
        <ele>46.8</ele>
        <time>2022-06-19T06:27:02Z</time>
      </trkpt>
      <trkpt lat="46.52764" lon="-0.7679">
        <ele>48</ele>
        <time>2022-06-19T06:27:07Z</time>
      </trkpt>
      <trkpt lat="46.52771" lon="-0.76787">
        <ele>49.2</ele>
        <time>2022-06-19T06:27:13Z</time>
      </trkpt>
      <trkpt lat="46.52776" lon="-0.76784">
        <ele>50.4</ele>
        <time>2022-06-19T06:27:17Z</time>
      </trkpt>
      <trkpt lat="46.52782" lon="-0.76781">
        <ele>51.2</ele>
        <time>2022-06-19T06:27:21Z</time>
      </trkpt>
      <trkpt lat="46.52784" lon="-0.76779">
        <ele>51.6</ele>
        <time>2022-06-19T06:27:23Z</time>
      </trkpt>
      <trkpt lat="46.52788" lon="-0.76772">
        <ele>52.4</ele>
        <time>2022-06-19T06:27:28Z</time>
      </trkpt>
      <trkpt lat="46.5279" lon="-0.76771">
        <ele>53</ele>
        <time>2022-06-19T06:27:29Z</time>
      </trkpt>
      <trkpt lat="46.52791" lon="-0.76766">
        <ele>54</ele>
        <time>2022-06-19T06:27:32Z</time>
      </trkpt>
      <trkpt lat="46.52791" lon="-0.76764">
        <ele>54.2</ele>
        <time>2022-06-19T06:27:33Z</time>
      </trkpt>
      <trkpt lat="46.52792" lon="-0.76761">
        <ele>54.6</ele>
        <time>2022-06-19T06:27:35Z</time>
      </trkpt>
      <trkpt lat="46.52795" lon="-0.76755">
        <ele>55.2</ele>
        <time>2022-06-19T06:27:39Z</time>
      </trkpt>
      <trkpt lat="46.52796" lon="-0.76752">
        <ele>55.8</ele>
        <time>2022-06-19T06:27:41Z</time>
      </trkpt>
      <trkpt lat="46.52797" lon="-0.7675">
        <ele>56</ele>
        <time>2022-06-19T06:27:42Z</time>
      </trkpt>
      <trkpt lat="46.52799" lon="-0.76747">
        <ele>56.4</ele>
        <time>2022-06-19T06:27:45Z</time>
      </trkpt>
      <trkpt lat="46.528" lon="-0.76746">
        <ele>56.6</ele>
        <time>2022-06-19T06:27:48Z</time>
      </trkpt>
      <trkpt lat="46.52803" lon="-0.76741">
        <ele>57.4</ele>
        <time>2022-06-19T06:27:54Z</time>
      </trkpt>
      <trkpt lat="46.52805" lon="-0.76736">
        <ele>58.2</ele>
        <time>2022-06-19T06:27:58Z</time>
      </trkpt>
      <trkpt lat="46.52807" lon="-0.76732">
        <ele>58.8</ele>
        <time>2022-06-19T06:28:02Z</time>
      </trkpt>
      <trkpt lat="46.52808" lon="-0.7673">
        <ele>59.2</ele>
        <time>2022-06-19T06:28:05Z</time>
      </trkpt>
      <trkpt lat="46.52811" lon="-0.76726">
        <ele>59.8</ele>
        <time>2022-06-19T06:28:09Z</time>
      </trkpt>
      <trkpt lat="46.52812" lon="-0.76725">
        <ele>59.8</ele>
        <time>2022-06-19T06:28:10Z</time>
      </trkpt>
      <trkpt lat="46.52813" lon="-0.76722">
        <ele>60.4</ele>
        <time>2022-06-19T06:28:12Z</time>
      </trkpt>
      <trkpt lat="46.52814" lon="-0.76721">
        <ele>60.4</ele>
        <time>2022-06-19T06:28:13Z</time>
      </trkpt>
      <trkpt lat="46.52816" lon="-0.76718">
        <ele>60.8</ele>
        <time>2022-06-19T06:28:15Z</time>
      </trkpt>
      <trkpt lat="46.5282" lon="-0.7671">
        <ele>62</ele>
        <time>2022-06-19T06:28:22Z</time>
      </trkpt>
      <trkpt lat="46.52821" lon="-0.76707">
        <ele>62.8</ele>
        <time>2022-06-19T06:28:25Z</time>
      </trkpt>
      <trkpt lat="46.52821" lon="-0.76706">
        <ele>62.8</ele>
        <time>2022-06-19T06:28:26Z</time>
      </trkpt>
      <trkpt lat="46.52822" lon="-0.76705">
        <ele>63</ele>
        <time>2022-06-19T06:28:27Z</time>
      </trkpt>
      <trkpt lat="46.52825" lon="-0.76703">
        <ele>63.6</ele>
        <time>2022-06-19T06:28:31Z</time>
      </trkpt>
      <trkpt lat="46.52826" lon="-0.76703">
        <ele>63.6</ele>
        <time>2022-06-19T06:28:32Z</time>
      </trkpt>
      <trkpt lat="46.52828" lon="-0.76701">
        <ele>64</ele>
        <time>2022-06-19T06:28:34Z</time>
      </trkpt>
      <trkpt lat="46.52829" lon="-0.76701">
        <ele>64</ele>
        <time>2022-06-19T06:28:35Z</time>
      </trkpt>
      <trkpt lat="46.52831" lon="-0.76699">
        <ele>64.8</ele>
        <time>2022-06-19T06:28:38Z</time>
      </trkpt>
      <trkpt lat="46.52832" lon="-0.76698">
        <ele>65</ele>
        <time>2022-06-19T06:28:40Z</time>
      </trkpt>
      <trkpt lat="46.52834" lon="-0.76697">
        <ele>65.2</ele>
        <time>2022-06-19T06:28:41Z</time>
      </trkpt>
      <trkpt lat="46.52835" lon="-0.76696">
        <ele>65.4</ele>
        <time>2022-06-19T06:28:44Z</time>
      </trkpt>
      <trkpt lat="46.52838" lon="-0.76694">
        <ele>65.4</ele>
        <time>2022-06-19T06:28:47Z</time>
      </trkpt>
      <trkpt lat="46.52841" lon="-0.76692">
        <ele>65.6</ele>
        <time>2022-06-19T06:28:52Z</time>
      </trkpt>
      <trkpt lat="46.52843" lon="-0.7669">
        <ele>66.2</ele>
        <time>2022-06-19T06:28:57Z</time>
      </trkpt>
      <trkpt lat="46.52847" lon="-0.76687">
        <ele>66.6</ele>
        <time>2022-06-19T06:29:01Z</time>
      </trkpt>
      <trkpt lat="46.52848" lon="-0.76685">
        <ele>66.6</ele>
        <time>2022-06-19T06:29:03Z</time>
      </trkpt>
      <trkpt lat="46.52853" lon="-0.76682">
        <ele>67</ele>
        <time>2022-06-19T06:29:07Z</time>
      </trkpt>
      <trkpt lat="46.52859" lon="-0.76681">
        <ele>67.2</ele>
        <time>2022-06-19T06:29:10Z</time>
      </trkpt>
      <trkpt lat="46.52862" lon="-0.7668">
        <ele>67.2</ele>
        <time>2022-06-19T06:29:12Z</time>
      </trkpt>
      <trkpt lat="46.52868" lon="-0.76678">
        <ele>68.2</ele>
        <time>2022-06-19T06:29:17Z</time>
      </trkpt>
      <trkpt lat="46.52877" lon="-0.76676">
        <ele>69.4</ele>
        <time>2022-06-19T06:29:23Z</time>
      </trkpt>
      <trkpt lat="46.52879" lon="-0.76675">
        <ele>69.6</ele>
        <time>2022-06-19T06:29:25Z</time>
      </trkpt>
      <trkpt lat="46.52889" lon="-0.7667">
        <ele>70.6</ele>
        <time>2022-06-19T06:29:31Z</time>
      </trkpt>
      <trkpt lat="46.52898" lon="-0.7667">
        <ele>71.6</ele>
        <time>2022-06-19T06:29:35Z</time>
      </trkpt>
      <trkpt lat="46.52907" lon="-0.76666">
        <ele>72.8</ele>
        <time>2022-06-19T06:29:40Z</time>
      </trkpt>
      <trkpt lat="46.52911" lon="-0.76662">
        <ele>73.4</ele>
        <time>2022-06-19T06:29:43Z</time>
      </trkpt>
      <trkpt lat="46.52916" lon="-0.7666">
        <ele>74</ele>
        <time>2022-06-19T06:29:46Z</time>
      </trkpt>
      <trkpt lat="46.5292" lon="-0.76657">
        <ele>74.4</ele>
        <time>2022-06-19T06:29:49Z</time>
      </trkpt>
      <trkpt lat="46.52924" lon="-0.76653">
        <ele>75</ele>
        <time>2022-06-19T06:29:52Z</time>
      </trkpt>
      <trkpt lat="46.52928" lon="-0.76645">
        <ele>76</ele>
        <time>2022-06-19T06:29:57Z</time>
      </trkpt>
      <trkpt lat="46.52931" lon="-0.76634">
        <ele>77.2</ele>
        <time>2022-06-19T06:30:02Z</time>
      </trkpt>
      <trkpt lat="46.52932" lon="-0.76629">
        <ele>77.4</ele>
        <time>2022-06-19T06:30:04Z</time>
      </trkpt>
      <trkpt lat="46.52936" lon="-0.76621">
        <ele>78.2</ele>
        <time>2022-06-19T06:30:08Z</time>
      </trkpt>
      <trkpt lat="46.52937" lon="-0.76615">
        <ele>79.2</ele>
        <time>2022-06-19T06:30:11Z</time>
      </trkpt>
      <trkpt lat="46.5294" lon="-0.76599">
        <ele>80.4</ele>
        <time>2022-06-19T06:30:18Z</time>
      </trkpt>
      <trkpt lat="46.52944" lon="-0.76591">
        <ele>81.4</ele>
        <time>2022-06-19T06:30:23Z</time>
      </trkpt>
      <trkpt lat="46.52946" lon="-0.7659">
        <ele>81.6</ele>
        <time>2022-06-19T06:30:24Z</time>
      </trkpt>
      <trkpt lat="46.5295" lon="-0.76587">
        <ele>82</ele>
        <time>2022-06-19T06:30:26Z</time>
      </trkpt>
      <trkpt lat="46.52955" lon="-0.76583">
        <ele>82.6</ele>
        <time>2022-06-19T06:30:29Z</time>
      </trkpt>
      <trkpt lat="46.5296" lon="-0.76577">
        <ele>83</ele>
        <time>2022-06-19T06:30:32Z</time>
      </trkpt>
      <trkpt lat="46.52966" lon="-0.76566">
        <ele>83.6</ele>
        <time>2022-06-19T06:30:37Z</time>
      </trkpt>
      <trkpt lat="46.52975" lon="-0.76558">
        <ele>84.8</ele>
        <time>2022-06-19T06:30:43Z</time>
      </trkpt>
      <trkpt lat="46.52977" lon="-0.76557">
        <ele>84.8</ele>
        <time>2022-06-19T06:30:44Z</time>
      </trkpt>
      <trkpt lat="46.5299" lon="-0.76551">
        <ele>85.8</ele>
        <time>2022-06-19T06:30:50Z</time>
      </trkpt>
      <trkpt lat="46.52992" lon="-0.76552">
        <ele>85.8</ele>
        <time>2022-06-19T06:30:51Z</time>
      </trkpt>
      <trkpt lat="46.53003" lon="-0.76563">
        <ele>86</ele>
        <time>2022-06-19T06:30:56Z</time>
      </trkpt>
      <trkpt lat="46.53018" lon="-0.76575">
        <ele>86.4</ele>
        <time>2022-06-19T06:31:02Z</time>
      </trkpt>
      <trkpt lat="46.53041" lon="-0.76598">
        <ele>86.2</ele>
        <time>2022-06-19T06:31:09Z</time>
      </trkpt>
      <trkpt lat="46.53057" lon="-0.76614">
        <ele>85.2</ele>
        <time>2022-06-19T06:31:12Z</time>
      </trkpt>
      <trkpt lat="46.53062" lon="-0.76621">
        <ele>84.8</ele>
        <time>2022-06-19T06:31:13Z</time>
      </trkpt>
      <trkpt lat="46.53068" lon="-0.76628">
        <ele>84.4</ele>
        <time>2022-06-19T06:31:14Z</time>
      </trkpt>
      <trkpt lat="46.53074" lon="-0.76634">
        <ele>84.2</ele>
        <time>2022-06-19T06:31:15Z</time>
      </trkpt>
      <trkpt lat="46.53088" lon="-0.76645">
        <ele>83.2</ele>
        <time>2022-06-19T06:31:17Z</time>
      </trkpt>
      <trkpt lat="46.53103" lon="-0.76656">
        <ele>81.2</ele>
        <time>2022-06-19T06:31:19Z</time>
      </trkpt>
      <trkpt lat="46.53119" lon="-0.76665">
        <ele>80.2</ele>
        <time>2022-06-19T06:31:21Z</time>
      </trkpt>
      <trkpt lat="46.53127" lon="-0.76669">
        <ele>80</ele>
        <time>2022-06-19T06:31:22Z</time>
      </trkpt>
      <trkpt lat="46.5315" lon="-0.76684">
        <ele>79</ele>
        <time>2022-06-19T06:31:25Z</time>
      </trkpt>
      <trkpt lat="46.53175" lon="-0.76697">
        <ele>78</ele>
        <time>2022-06-19T06:31:28Z</time>
      </trkpt>
      <trkpt lat="46.53192" lon="-0.76703">
        <ele>76.8</ele>
        <time>2022-06-19T06:31:30Z</time>
      </trkpt>
      <trkpt lat="46.53214" lon="-0.7671">
        <ele>76.6</ele>
        <time>2022-06-19T06:31:33Z</time>
      </trkpt>
      <trkpt lat="46.53242" lon="-0.76721">
        <ele>76.8</ele>
        <time>2022-06-19T06:31:38Z</time>
      </trkpt>
      <trkpt lat="46.53254" lon="-0.76728">
        <ele>77.2</ele>
        <time>2022-06-19T06:31:41Z</time>
      </trkpt>
      <trkpt lat="46.53261" lon="-0.76733">
        <ele>77.8</ele>
        <time>2022-06-19T06:31:43Z</time>
      </trkpt>
      <trkpt lat="46.53263" lon="-0.76735">
        <ele>78</ele>
        <time>2022-06-19T06:31:44Z</time>
      </trkpt>
      <trkpt lat="46.53273" lon="-0.7674">
        <ele>79</ele>
        <time>2022-06-19T06:31:47Z</time>
      </trkpt>
      <trkpt lat="46.53283" lon="-0.76745">
        <ele>80.6</ele>
        <time>2022-06-19T06:31:50Z</time>
      </trkpt>
      <trkpt lat="46.53292" lon="-0.76751">
        <ele>81.4</ele>
        <time>2022-06-19T06:31:53Z</time>
      </trkpt>
      <trkpt lat="46.53295" lon="-0.76753">
        <ele>81.8</ele>
        <time>2022-06-19T06:31:54Z</time>
      </trkpt>
      <trkpt lat="46.53308" lon="-0.76761">
        <ele>83</ele>
        <time>2022-06-19T06:31:58Z</time>
      </trkpt>
      <trkpt lat="46.53311" lon="-0.76763">
        <ele>83.2</ele>
        <time>2022-06-19T06:31:59Z</time>
      </trkpt>
      <trkpt lat="46.5332" lon="-0.7677">
        <ele>84.2</ele>
        <time>2022-06-19T06:32:02Z</time>
      </trkpt>
      <trkpt lat="46.5333" lon="-0.76777">
        <ele>84.6</ele>
        <time>2022-06-19T06:32:05Z</time>
      </trkpt>
      <trkpt lat="46.53355" lon="-0.76793">
        <ele>85.4</ele>
        <time>2022-06-19T06:32:13Z</time>
      </trkpt>
      <trkpt lat="46.53358" lon="-0.76795">
        <ele>85.4</ele>
        <time>2022-06-19T06:32:14Z</time>
      </trkpt>
      <trkpt lat="46.53374" lon="-0.76804">
        <ele>85.6</ele>
        <time>2022-06-19T06:32:19Z</time>
      </trkpt>
      <trkpt lat="46.53387" lon="-0.768">
        <ele>86</ele>
        <time>2022-06-19T06:32:23Z</time>
      </trkpt>
      <trkpt lat="46.53391" lon="-0.76796">
        <ele>86.4</ele>
        <time>2022-06-19T06:32:25Z</time>
      </trkpt>
      <trkpt lat="46.53394" lon="-0.7679">
        <ele>86.8</ele>
        <time>2022-06-19T06:32:28Z</time>
      </trkpt>
      <trkpt lat="46.53397" lon="-0.76784">
        <ele>87.2</ele>
        <time>2022-06-19T06:32:31Z</time>
      </trkpt>
      <trkpt lat="46.53398" lon="-0.76782">
        <ele>87.6</ele>
        <time>2022-06-19T06:32:32Z</time>
      </trkpt>
      <trkpt lat="46.534" lon="-0.76779">
        <ele>88</ele>
        <time>2022-06-19T06:32:34Z</time>
      </trkpt>
      <trkpt lat="46.53401" lon="-0.76774">
        <ele>88.2</ele>
        <time>2022-06-19T06:32:36Z</time>
      </trkpt>
      <trkpt lat="46.53401" lon="-0.76767">
        <ele>88.8</ele>
        <time>2022-06-19T06:32:39Z</time>
      </trkpt>
      <trkpt lat="46.53403" lon="-0.76758">
        <ele>90</ele>
        <time>2022-06-19T06:32:43Z</time>
      </trkpt>
      <trkpt lat="46.53404" lon="-0.76753">
        <ele>90</ele>
        <time>2022-06-19T06:32:45Z</time>
      </trkpt>
      <trkpt lat="46.53406" lon="-0.76744">
        <ele>91</ele>
        <time>2022-06-19T06:32:49Z</time>
      </trkpt>
      <trkpt lat="46.53412" lon="-0.76734">
        <ele>91.8</ele>
        <time>2022-06-19T06:32:53Z</time>
      </trkpt>
      <trkpt lat="46.53413" lon="-0.76732">
        <ele>92</ele>
        <time>2022-06-19T06:32:54Z</time>
      </trkpt>
      <trkpt lat="46.53418" lon="-0.76723">
        <ele>92.8</ele>
        <time>2022-06-19T06:32:58Z</time>
      </trkpt>
      <trkpt lat="46.53421" lon="-0.76719">
        <ele>93</ele>
        <time>2022-06-19T06:33:00Z</time>
      </trkpt>
      <trkpt lat="46.53421" lon="-0.76716">
        <ele>93.2</ele>
        <time>2022-06-19T06:33:01Z</time>
      </trkpt>
      <trkpt lat="46.53426" lon="-0.76704">
        <ele>94.2</ele>
        <time>2022-06-19T06:33:05Z</time>
      </trkpt>
      <trkpt lat="46.5343" lon="-0.76697">
        <ele>94.4</ele>
        <time>2022-06-19T06:33:07Z</time>
      </trkpt>
      <trkpt lat="46.5344" lon="-0.76679">
        <ele>95.2</ele>
        <time>2022-06-19T06:33:14Z</time>
      </trkpt>
      <trkpt lat="46.53453" lon="-0.76656">
        <ele>95.8</ele>
        <time>2022-06-19T06:33:22Z</time>
      </trkpt>
      <trkpt lat="46.53462" lon="-0.76637">
        <ele>95.8</ele>
        <time>2022-06-19T06:33:28Z</time>
      </trkpt>
      <trkpt lat="46.5347" lon="-0.76622">
        <ele>96.2</ele>
        <time>2022-06-19T06:33:32Z</time>
      </trkpt>
      <trkpt lat="46.53475" lon="-0.76609">
        <ele>96.6</ele>
        <time>2022-06-19T06:33:35Z</time>
      </trkpt>
      <trkpt lat="46.53481" lon="-0.76593">
        <ele>96.4</ele>
        <time>2022-06-19T06:33:39Z</time>
      </trkpt>
      <trkpt lat="46.53488" lon="-0.7658">
        <ele>96</ele>
        <time>2022-06-19T06:33:42Z</time>
      </trkpt>
      <trkpt lat="46.53491" lon="-0.76569">
        <ele>95.6</ele>
        <time>2022-06-19T06:33:44Z</time>
      </trkpt>
      <trkpt lat="46.53492" lon="-0.76563">
        <ele>94.8</ele>
        <time>2022-06-19T06:33:45Z</time>
      </trkpt>
      <trkpt lat="46.53495" lon="-0.76551">
        <ele>93.4</ele>
        <time>2022-06-19T06:33:47Z</time>
      </trkpt>
      <trkpt lat="46.53496" lon="-0.76545">
        <ele>92.8</ele>
        <time>2022-06-19T06:33:48Z</time>
      </trkpt>
      <trkpt lat="46.53499" lon="-0.76528">
        <ele>92</ele>
        <time>2022-06-19T06:33:50Z</time>
      </trkpt>
      <trkpt lat="46.53502" lon="-0.7652">
        <ele>90.8</ele>
        <time>2022-06-19T06:33:51Z</time>
      </trkpt>
      <trkpt lat="46.53504" lon="-0.76513">
        <ele>89.6</ele>
        <time>2022-06-19T06:33:52Z</time>
      </trkpt>
      <trkpt lat="46.53508" lon="-0.76507">
        <ele>88.2</ele>
        <time>2022-06-19T06:33:53Z</time>
      </trkpt>
      <trkpt lat="46.53513" lon="-0.76504">
        <ele>87.2</ele>
        <time>2022-06-19T06:33:54Z</time>
      </trkpt>
      <trkpt lat="46.53521" lon="-0.76505">
        <ele>86.4</ele>
        <time>2022-06-19T06:33:55Z</time>
      </trkpt>
      <trkpt lat="46.53527" lon="-0.76506">
        <ele>86</ele>
        <time>2022-06-19T06:33:56Z</time>
      </trkpt>
      <trkpt lat="46.53535" lon="-0.76506">
        <ele>85.6</ele>
        <time>2022-06-19T06:33:57Z</time>
      </trkpt>
      <trkpt lat="46.5356" lon="-0.76512">
        <ele>86</ele>
        <time>2022-06-19T06:34:01Z</time>
      </trkpt>
      <trkpt lat="46.53579" lon="-0.76521">
        <ele>87</ele>
        <time>2022-06-19T06:34:05Z</time>
      </trkpt>
      <trkpt lat="46.53591" lon="-0.76529">
        <ele>87.4</ele>
        <time>2022-06-19T06:34:08Z</time>
      </trkpt>
      <trkpt lat="46.53615" lon="-0.76543">
        <ele>88.2</ele>
        <time>2022-06-19T06:34:14Z</time>
      </trkpt>
      <trkpt lat="46.53639" lon="-0.76561">
        <ele>89.4</ele>
        <time>2022-06-19T06:34:21Z</time>
      </trkpt>
      <trkpt lat="46.53661" lon="-0.76581">
        <ele>90.6</ele>
        <time>2022-06-19T06:34:28Z</time>
      </trkpt>
      <trkpt lat="46.53664" lon="-0.76583">
        <ele>90.6</ele>
        <time>2022-06-19T06:34:29Z</time>
      </trkpt>
      <trkpt lat="46.53686" lon="-0.76607">
        <ele>91.6</ele>
        <time>2022-06-19T06:34:37Z</time>
      </trkpt>
      <trkpt lat="46.5371" lon="-0.7663">
        <ele>92</ele>
        <time>2022-06-19T06:34:44Z</time>
      </trkpt>
      <trkpt lat="46.53737" lon="-0.76656">
        <ele>92.6</ele>
        <time>2022-06-19T06:34:51Z</time>
      </trkpt>
      <trkpt lat="46.53744" lon="-0.76669">
        <ele>92.6</ele>
        <time>2022-06-19T06:34:55Z</time>
      </trkpt>
      <trkpt lat="46.53744" lon="-0.76673">
        <ele>93</ele>
        <time>2022-06-19T06:34:56Z</time>
      </trkpt>
      <trkpt lat="46.53748" lon="-0.76692">
        <ele>94</ele>
        <time>2022-06-19T06:35:00Z</time>
      </trkpt>
      <trkpt lat="46.53751" lon="-0.76698">
        <ele>94</ele>
        <time>2022-06-19T06:35:01Z</time>
      </trkpt>
      <trkpt lat="46.53761" lon="-0.76711">
        <ele>94</ele>
        <time>2022-06-19T06:35:04Z</time>
      </trkpt>
      <trkpt lat="46.53771" lon="-0.76723">
        <ele>94</ele>
        <time>2022-06-19T06:35:07Z</time>
      </trkpt>
      <trkpt lat="46.53775" lon="-0.76731">
        <ele>93.8</ele>
        <time>2022-06-19T06:35:09Z</time>
      </trkpt>
      <trkpt lat="46.53791" lon="-0.76752">
        <ele>93.6</ele>
        <time>2022-06-19T06:35:14Z</time>
      </trkpt>
      <trkpt lat="46.53794" lon="-0.76756">
        <ele>93.6</ele>
        <time>2022-06-19T06:35:15Z</time>
      </trkpt>
      <trkpt lat="46.53796" lon="-0.7676">
        <ele>93.6</ele>
        <time>2022-06-19T06:35:16Z</time>
      </trkpt>
      <trkpt lat="46.53806" lon="-0.7678">
        <ele>93.8</ele>
        <time>2022-06-19T06:35:20Z</time>
      </trkpt>
      <trkpt lat="46.53822" lon="-0.76804">
        <ele>93.8</ele>
        <time>2022-06-19T06:35:26Z</time>
      </trkpt>
      <trkpt lat="46.53843" lon="-0.76845">
        <ele>93.4</ele>
        <time>2022-06-19T06:35:33Z</time>
      </trkpt>
      <trkpt lat="46.53857" lon="-0.76881">
        <ele>93.6</ele>
        <time>2022-06-19T06:35:38Z</time>
      </trkpt>
      <trkpt lat="46.53862" lon="-0.76906">
        <ele>92.8</ele>
        <time>2022-06-19T06:35:42Z</time>
      </trkpt>
      <trkpt lat="46.53862" lon="-0.76913">
        <ele>92.6</ele>
        <time>2022-06-19T06:35:43Z</time>
      </trkpt>
      <trkpt lat="46.53857" lon="-0.76922">
        <ele>92.2</ele>
        <time>2022-06-19T06:35:45Z</time>
      </trkpt>
      <trkpt lat="46.53856" lon="-0.76926">
        <ele>92.2</ele>
        <time>2022-06-19T06:35:46Z</time>
      </trkpt>
      <trkpt lat="46.53852" lon="-0.7693">
        <ele>92.2</ele>
        <time>2022-06-19T06:35:47Z</time>
      </trkpt>
      <trkpt lat="46.53845" lon="-0.76934">
        <ele>91.6</ele>
        <time>2022-06-19T06:35:49Z</time>
      </trkpt>
      <trkpt lat="46.53842" lon="-0.76935">
        <ele>91.4</ele>
        <time>2022-06-19T06:35:50Z</time>
      </trkpt>
      <trkpt lat="46.53838" lon="-0.76936">
        <ele>91.2</ele>
        <time>2022-06-19T06:35:51Z</time>
      </trkpt>
      <trkpt lat="46.53823" lon="-0.76944">
        <ele>90.6</ele>
        <time>2022-06-19T06:35:54Z</time>
      </trkpt>
      <trkpt lat="46.53818" lon="-0.76947">
        <ele>90.4</ele>
        <time>2022-06-19T06:35:55Z</time>
      </trkpt>
      <trkpt lat="46.53809" lon="-0.76951">
        <ele>89.6</ele>
        <time>2022-06-19T06:35:57Z</time>
      </trkpt>
      <trkpt lat="46.53804" lon="-0.76956">
        <ele>88.8</ele>
        <time>2022-06-19T06:35:58Z</time>
      </trkpt>
      <trkpt lat="46.53799" lon="-0.76959">
        <ele>87.8</ele>
        <time>2022-06-19T06:35:59Z</time>
      </trkpt>
      <trkpt lat="46.53792" lon="-0.76966">
        <ele>86.8</ele>
        <time>2022-06-19T06:36:01Z</time>
      </trkpt>
      <trkpt lat="46.53789" lon="-0.76969">
        <ele>86.2</ele>
        <time>2022-06-19T06:36:02Z</time>
      </trkpt>
      <trkpt lat="46.53787" lon="-0.76973">
        <ele>85.8</ele>
        <time>2022-06-19T06:36:03Z</time>
      </trkpt>
      <trkpt lat="46.53785" lon="-0.76978">
        <ele>85.2</ele>
        <time>2022-06-19T06:36:04Z</time>
      </trkpt>
      <trkpt lat="46.53785" lon="-0.76983">
        <ele>85</ele>
        <time>2022-06-19T06:36:05Z</time>
      </trkpt>
      <trkpt lat="46.53782" lon="-0.77004">
        <ele>84.8</ele>
        <time>2022-06-19T06:36:09Z</time>
      </trkpt>
      <trkpt lat="46.53779" lon="-0.77016">
        <ele>85</ele>
        <time>2022-06-19T06:36:11Z</time>
      </trkpt>
      <trkpt lat="46.53779" lon="-0.77021">
        <ele>85</ele>
        <time>2022-06-19T06:36:12Z</time>
      </trkpt>
      <trkpt lat="46.5378" lon="-0.77037">
        <ele>84.8</ele>
        <time>2022-06-19T06:36:15Z</time>
      </trkpt>
      <trkpt lat="46.53779" lon="-0.77043">
        <ele>84.6</ele>
        <time>2022-06-19T06:36:16Z</time>
      </trkpt>
      <trkpt lat="46.5378" lon="-0.77049">
        <ele>84.4</ele>
        <time>2022-06-19T06:36:17Z</time>
      </trkpt>
      <trkpt lat="46.53786" lon="-0.77076">
        <ele>84</ele>
        <time>2022-06-19T06:36:21Z</time>
      </trkpt>
      <trkpt lat="46.53788" lon="-0.77092">
        <ele>83.8</ele>
        <time>2022-06-19T06:36:23Z</time>
      </trkpt>
      <trkpt lat="46.53791" lon="-0.77117">
        <ele>83.6</ele>
        <time>2022-06-19T06:36:26Z</time>
      </trkpt>
      <trkpt lat="46.53797" lon="-0.77151">
        <ele>82.2</ele>
        <time>2022-06-19T06:36:30Z</time>
      </trkpt>
      <trkpt lat="46.53798" lon="-0.77166">
        <ele>81.6</ele>
        <time>2022-06-19T06:36:32Z</time>
      </trkpt>
      <trkpt lat="46.53799" lon="-0.77179">
        <ele>80.2</ele>
        <time>2022-06-19T06:36:34Z</time>
      </trkpt>
      <trkpt lat="46.53797" lon="-0.77191">
        <ele>78.8</ele>
        <time>2022-06-19T06:36:36Z</time>
      </trkpt>
      <trkpt lat="46.53799" lon="-0.77199">
        <ele>77.6</ele>
        <time>2022-06-19T06:36:38Z</time>
      </trkpt>
      <trkpt lat="46.53801" lon="-0.77205">
        <ele>77.2</ele>
        <time>2022-06-19T06:36:40Z</time>
      </trkpt>
      <trkpt lat="46.53813" lon="-0.77219">
        <ele>76.8</ele>
        <time>2022-06-19T06:36:45Z</time>
      </trkpt>
      <trkpt lat="46.53823" lon="-0.77227">
        <ele>76.4</ele>
        <time>2022-06-19T06:36:49Z</time>
      </trkpt>
      <trkpt lat="46.53835" lon="-0.77232">
        <ele>75.8</ele>
        <time>2022-06-19T06:36:52Z</time>
      </trkpt>
      <trkpt lat="46.53863" lon="-0.77237">
        <ele>75.8</ele>
        <time>2022-06-19T06:36:57Z</time>
      </trkpt>
      <trkpt lat="46.53884" lon="-0.77239">
        <ele>76.8</ele>
        <time>2022-06-19T06:37:02Z</time>
      </trkpt>
      <trkpt lat="46.53892" lon="-0.7724">
        <ele>77.6</ele>
        <time>2022-06-19T06:37:04Z</time>
      </trkpt>
      <trkpt lat="46.53911" lon="-0.77243">
        <ele>78.2</ele>
        <time>2022-06-19T06:37:09Z</time>
      </trkpt>
      <trkpt lat="46.53915" lon="-0.77244">
        <ele>78.2</ele>
        <time>2022-06-19T06:37:10Z</time>
      </trkpt>
      <trkpt lat="46.53925" lon="-0.77246">
        <ele>77.8</ele>
        <time>2022-06-19T06:37:13Z</time>
      </trkpt>
      <trkpt lat="46.53936" lon="-0.77249">
        <ele>78.4</ele>
        <time>2022-06-19T06:37:17Z</time>
      </trkpt>
      <trkpt lat="46.5394" lon="-0.77249">
        <ele>78.6</ele>
        <time>2022-06-19T06:37:18Z</time>
      </trkpt>
      <trkpt lat="46.53958" lon="-0.7725">
        <ele>79.8</ele>
        <time>2022-06-19T06:37:23Z</time>
      </trkpt>
      <trkpt lat="46.53961" lon="-0.7725">
        <ele>80.6</ele>
        <time>2022-06-19T06:37:24Z</time>
      </trkpt>
      <trkpt lat="46.53969" lon="-0.77249">
        <ele>81.4</ele>
        <time>2022-06-19T06:37:25Z</time>
      </trkpt>
      <trkpt lat="46.53984" lon="-0.7725">
        <ele>82.4</ele>
        <time>2022-06-19T06:37:30Z</time>
      </trkpt>
      <trkpt lat="46.53991" lon="-0.77249">
        <ele>82.6</ele>
        <time>2022-06-19T06:37:32Z</time>
      </trkpt>
      <trkpt lat="46.54013" lon="-0.77249">
        <ele>83.6</ele>
        <time>2022-06-19T06:37:39Z</time>
      </trkpt>
      <trkpt lat="46.54016" lon="-0.77249">
        <ele>83.6</ele>
        <time>2022-06-19T06:37:40Z</time>
      </trkpt>
      <trkpt lat="46.54025" lon="-0.7725">
        <ele>84.6</ele>
        <time>2022-06-19T06:37:43Z</time>
      </trkpt>
      <trkpt lat="46.54036" lon="-0.77251">
        <ele>85.2</ele>
        <time>2022-06-19T06:37:47Z</time>
      </trkpt>
      <trkpt lat="46.54045" lon="-0.77252">
        <ele>85.8</ele>
        <time>2022-06-19T06:37:50Z</time>
      </trkpt>
      <trkpt lat="46.54056" lon="-0.77252">
        <ele>86.4</ele>
        <time>2022-06-19T06:37:54Z</time>
      </trkpt>
      <trkpt lat="46.54061" lon="-0.77253">
        <ele>86.8</ele>
        <time>2022-06-19T06:37:56Z</time>
      </trkpt>
      <trkpt lat="46.54072" lon="-0.77254">
        <ele>87.6</ele>
        <time>2022-06-19T06:38:01Z</time>
      </trkpt>
      <trkpt lat="46.54074" lon="-0.77254">
        <ele>87.8</ele>
        <time>2022-06-19T06:38:02Z</time>
      </trkpt>
      <trkpt lat="46.54089" lon="-0.77254">
        <ele>88.6</ele>
        <time>2022-06-19T06:38:08Z</time>
      </trkpt>
      <trkpt lat="46.54092" lon="-0.77254">
        <ele>88.8</ele>
        <time>2022-06-19T06:38:09Z</time>
      </trkpt>
      <trkpt lat="46.54109" lon="-0.77252">
        <ele>90</ele>
        <time>2022-06-19T06:38:15Z</time>
      </trkpt>
      <trkpt lat="46.54122" lon="-0.77252">
        <ele>91</ele>
        <time>2022-06-19T06:38:20Z</time>
      </trkpt>
      <trkpt lat="46.54132" lon="-0.77251">
        <ele>91.6</ele>
        <time>2022-06-19T06:38:23Z</time>
      </trkpt>
      <trkpt lat="46.54152" lon="-0.7725">
        <ele>92.2</ele>
        <time>2022-06-19T06:38:30Z</time>
      </trkpt>
      <trkpt lat="46.54167" lon="-0.7725">
        <ele>92</ele>
        <time>2022-06-19T06:38:35Z</time>
      </trkpt>
      <trkpt lat="46.54171" lon="-0.7725">
        <ele>92</ele>
        <time>2022-06-19T06:38:36Z</time>
      </trkpt>
      <trkpt lat="46.5419" lon="-0.77253">
        <ele>91.6</ele>
        <time>2022-06-19T06:38:40Z</time>
      </trkpt>
      <trkpt lat="46.54196" lon="-0.77253">
        <ele>91.2</ele>
        <time>2022-06-19T06:38:41Z</time>
      </trkpt>
      <trkpt lat="46.54206" lon="-0.77252">
        <ele>90.2</ele>
        <time>2022-06-19T06:38:43Z</time>
      </trkpt>
      <trkpt lat="46.5421" lon="-0.77249">
        <ele>90</ele>
        <time>2022-06-19T06:38:44Z</time>
      </trkpt>
      <trkpt lat="46.54213" lon="-0.77245">
        <ele>89.8</ele>
        <time>2022-06-19T06:38:45Z</time>
      </trkpt>
      <trkpt lat="46.54221" lon="-0.77231">
        <ele>89.6</ele>
        <time>2022-06-19T06:38:49Z</time>
      </trkpt>
      <trkpt lat="46.54223" lon="-0.7722">
        <ele>89.6</ele>
        <time>2022-06-19T06:38:52Z</time>
      </trkpt>
      <trkpt lat="46.54223" lon="-0.77206">
        <ele>89.8</ele>
        <time>2022-06-19T06:38:55Z</time>
      </trkpt>
      <trkpt lat="46.54221" lon="-0.772">
        <ele>90</ele>
        <time>2022-06-19T06:38:56Z</time>
      </trkpt>
      <trkpt lat="46.54219" lon="-0.77176">
        <ele>90.4</ele>
        <time>2022-06-19T06:39:01Z</time>
      </trkpt>
      <trkpt lat="46.54216" lon="-0.77154">
        <ele>90.4</ele>
        <time>2022-06-19T06:39:05Z</time>
      </trkpt>
      <trkpt lat="46.5421" lon="-0.77134">
        <ele>90</ele>
        <time>2022-06-19T06:39:08Z</time>
      </trkpt>
      <trkpt lat="46.542" lon="-0.77102">
        <ele>89</ele>
        <time>2022-06-19T06:39:12Z</time>
      </trkpt>
      <trkpt lat="46.54199" lon="-0.77095">
        <ele>89</ele>
        <time>2022-06-19T06:39:13Z</time>
      </trkpt>
      <trkpt lat="46.54196" lon="-0.77075">
        <ele>88.8</ele>
        <time>2022-06-19T06:39:16Z</time>
      </trkpt>
      <trkpt lat="46.54197" lon="-0.77063">
        <ele>88</ele>
        <time>2022-06-19T06:39:18Z</time>
      </trkpt>
      <trkpt lat="46.54195" lon="-0.77049">
        <ele>87.8</ele>
        <time>2022-06-19T06:39:20Z</time>
      </trkpt>
      <trkpt lat="46.5419" lon="-0.77027">
        <ele>87.4</ele>
        <time>2022-06-19T06:39:23Z</time>
      </trkpt>
      <trkpt lat="46.54186" lon="-0.76982">
        <ele>87</ele>
        <time>2022-06-19T06:39:29Z</time>
      </trkpt>
      <trkpt lat="46.54186" lon="-0.76975">
        <ele>86.6</ele>
        <time>2022-06-19T06:39:30Z</time>
      </trkpt>
      <trkpt lat="46.54181" lon="-0.76963">
        <ele>86.4</ele>
        <time>2022-06-19T06:39:31Z</time>
      </trkpt>
      <trkpt lat="46.54183" lon="-0.76951">
        <ele>85.4</ele>
        <time>2022-06-19T06:39:33Z</time>
      </trkpt>
      <trkpt lat="46.5418" lon="-0.76942">
        <ele>84.8</ele>
        <time>2022-06-19T06:39:34Z</time>
      </trkpt>
      <trkpt lat="46.54179" lon="-0.76934">
        <ele>84.2</ele>
        <time>2022-06-19T06:39:35Z</time>
      </trkpt>
      <trkpt lat="46.54185" lon="-0.7693">
        <ele>83.8</ele>
        <time>2022-06-19T06:39:36Z</time>
      </trkpt>
      <trkpt lat="46.54186" lon="-0.76927">
        <ele>83.6</ele>
        <time>2022-06-19T06:39:37Z</time>
      </trkpt>
      <trkpt lat="46.54192" lon="-0.76921">
        <ele>83.6</ele>
        <time>2022-06-19T06:39:39Z</time>
      </trkpt>
      <trkpt lat="46.54207" lon="-0.7691">
        <ele>84</ele>
        <time>2022-06-19T06:39:43Z</time>
      </trkpt>
      <trkpt lat="46.54213" lon="-0.76905">
        <ele>84.2</ele>
        <time>2022-06-19T06:39:45Z</time>
      </trkpt>
      <trkpt lat="46.54226" lon="-0.76901">
        <ele>83.8</ele>
        <time>2022-06-19T06:39:48Z</time>
      </trkpt>
      <trkpt lat="46.54233" lon="-0.76898">
        <ele>83.8</ele>
        <time>2022-06-19T06:39:50Z</time>
      </trkpt>
      <trkpt lat="46.5424" lon="-0.76893">
        <ele>83.6</ele>
        <time>2022-06-19T06:39:52Z</time>
      </trkpt>
      <trkpt lat="46.54244" lon="-0.76892">
        <ele>83.6</ele>
        <time>2022-06-19T06:39:53Z</time>
      </trkpt>
      <trkpt lat="46.54248" lon="-0.76891">
        <ele>83.6</ele>
        <time>2022-06-19T06:39:54Z</time>
      </trkpt>
      <trkpt lat="46.54264" lon="-0.76886">
        <ele>83.2</ele>
        <time>2022-06-19T06:39:58Z</time>
      </trkpt>
      <trkpt lat="46.54268" lon="-0.76885">
        <ele>83.2</ele>
        <time>2022-06-19T06:39:59Z</time>
      </trkpt>
      <trkpt lat="46.54298" lon="-0.76873">
        <ele>82.8</ele>
        <time>2022-06-19T06:40:05Z</time>
      </trkpt>
      <trkpt lat="46.54304" lon="-0.76871">
        <ele>82.6</ele>
        <time>2022-06-19T06:40:06Z</time>
      </trkpt>
      <trkpt lat="46.54321" lon="-0.76866">
        <ele>82</ele>
        <time>2022-06-19T06:40:09Z</time>
      </trkpt>
      <trkpt lat="46.54333" lon="-0.76863">
        <ele>81.6</ele>
        <time>2022-06-19T06:40:11Z</time>
      </trkpt>
      <trkpt lat="46.54333" lon="-0.76863">
        <ele>81</ele>
        <time>2022-06-19T06:40:13Z</time>
      </trkpt>
      <trkpt lat="46.54356" lon="-0.76855">
        <ele>80.2</ele>
        <time>2022-06-19T06:40:16Z</time>
      </trkpt>
      <trkpt lat="46.54358" lon="-0.76852">
        <ele>79.8</ele>
        <time>2022-06-19T06:40:17Z</time>
      </trkpt>
      <trkpt lat="46.54372" lon="-0.76832">
        <ele>79.4</ele>
        <time>2022-06-19T06:40:22Z</time>
      </trkpt>
      <trkpt lat="46.54375" lon="-0.76799">
        <ele>79.6</ele>
        <time>2022-06-19T06:40:28Z</time>
      </trkpt>
      <trkpt lat="46.54383" lon="-0.76767">
        <ele>80.4</ele>
        <time>2022-06-19T06:40:34Z</time>
      </trkpt>
      <trkpt lat="46.54385" lon="-0.76741">
        <ele>80.4</ele>
        <time>2022-06-19T06:40:39Z</time>
      </trkpt>
      <trkpt lat="46.5438" lon="-0.76721">
        <ele>80.2</ele>
        <time>2022-06-19T06:40:45Z</time>
      </trkpt>
      <trkpt lat="46.54375" lon="-0.76713">
        <ele>80.8</ele>
        <time>2022-06-19T06:40:49Z</time>
      </trkpt>
      <trkpt lat="46.54374" lon="-0.76712">
        <ele>81</ele>
        <time>2022-06-19T06:40:50Z</time>
      </trkpt>
      <trkpt lat="46.54369" lon="-0.76707">
        <ele>81.4</ele>
        <time>2022-06-19T06:40:55Z</time>
      </trkpt>
      <trkpt lat="46.54363" lon="-0.76704">
        <ele>82</ele>
        <time>2022-06-19T06:40:59Z</time>
      </trkpt>
      <trkpt lat="46.54359" lon="-0.76703">
        <ele>82</ele>
        <time>2022-06-19T06:41:02Z</time>
      </trkpt>
      <trkpt lat="46.54346" lon="-0.76703">
        <ele>82</ele>
        <time>2022-06-19T06:41:09Z</time>
      </trkpt>
      <trkpt lat="46.54333" lon="-0.76704">
        <ele>82.4</ele>
        <time>2022-06-19T06:41:15Z</time>
      </trkpt>
      <trkpt lat="46.54331" lon="-0.76704">
        <ele>82.4</ele>
        <time>2022-06-19T06:41:16Z</time>
      </trkpt>
      <trkpt lat="46.54325" lon="-0.76709">
        <ele>82</ele>
        <time>2022-06-19T06:41:20Z</time>
      </trkpt>
      <trkpt lat="46.54322" lon="-0.76709">
        <ele>81.8</ele>
        <time>2022-06-19T06:41:21Z</time>
      </trkpt>
      <trkpt lat="46.54302" lon="-0.7671">
        <ele>81.2</ele>
        <time>2022-06-19T06:41:27Z</time>
      </trkpt>
      <trkpt lat="46.54294" lon="-0.7671">
        <ele>80.8</ele>
        <time>2022-06-19T06:41:29Z</time>
      </trkpt>
      <trkpt lat="46.5428" lon="-0.7671">
        <ele>80</ele>
        <time>2022-06-19T06:41:33Z</time>
      </trkpt>
      <trkpt lat="46.54272" lon="-0.76711">
        <ele>80</ele>
        <time>2022-06-19T06:41:35Z</time>
      </trkpt>
      <trkpt lat="46.54254" lon="-0.76712">
        <ele>80</ele>
        <time>2022-06-19T06:41:39Z</time>
      </trkpt>
      <trkpt lat="46.54251" lon="-0.76713">
        <ele>79.8</ele>
        <time>2022-06-19T06:41:40Z</time>
      </trkpt>
      <trkpt lat="46.54247" lon="-0.76715">
        <ele>79.8</ele>
        <time>2022-06-19T06:41:41Z</time>
      </trkpt>
      <trkpt lat="46.54237" lon="-0.76716">
        <ele>79</ele>
        <time>2022-06-19T06:41:44Z</time>
      </trkpt>
      <trkpt lat="46.54232" lon="-0.76713">
        <ele>78.6</ele>
        <time>2022-06-19T06:41:46Z</time>
      </trkpt>
      <trkpt lat="46.5423" lon="-0.7671">
        <ele>78.8</ele>
        <time>2022-06-19T06:41:47Z</time>
      </trkpt>
      <trkpt lat="46.54228" lon="-0.76708">
        <ele>78.8</ele>
        <time>2022-06-19T06:41:48Z</time>
      </trkpt>
      <trkpt lat="46.54225" lon="-0.76704">
        <ele>78.8</ele>
        <time>2022-06-19T06:41:49Z</time>
      </trkpt>
      <trkpt lat="46.54215" lon="-0.76687">
        <ele>78.6</ele>
        <time>2022-06-19T06:41:54Z</time>
      </trkpt>
      <trkpt lat="46.5421" lon="-0.76676">
        <ele>77.4</ele>
        <time>2022-06-19T06:41:57Z</time>
      </trkpt>
      <trkpt lat="46.54207" lon="-0.76666">
        <ele>77</ele>
        <time>2022-06-19T06:42:00Z</time>
      </trkpt>
      <trkpt lat="46.54198" lon="-0.76648">
        <ele>77</ele>
        <time>2022-06-19T06:42:05Z</time>
      </trkpt>
      <trkpt lat="46.54195" lon="-0.76639">
        <ele>77.2</ele>
        <time>2022-06-19T06:42:07Z</time>
      </trkpt>
      <trkpt lat="46.54193" lon="-0.7663">
        <ele>77.4</ele>
        <time>2022-06-19T06:42:09Z</time>
      </trkpt>
      <trkpt lat="46.54189" lon="-0.76606">
        <ele>77.6</ele>
        <time>2022-06-19T06:42:14Z</time>
      </trkpt>
      <trkpt lat="46.54177" lon="-0.76562">
        <ele>78</ele>
        <time>2022-06-19T06:42:21Z</time>
      </trkpt>
      <trkpt lat="46.54174" lon="-0.76545">
        <ele>78.4</ele>
        <time>2022-06-19T06:42:24Z</time>
      </trkpt>
      <trkpt lat="46.54171" lon="-0.76512">
        <ele>78.2</ele>
        <time>2022-06-19T06:42:29Z</time>
      </trkpt>
      <trkpt lat="46.54164" lon="-0.76468">
        <ele>77.8</ele>
        <time>2022-06-19T06:42:35Z</time>
      </trkpt>
      <trkpt lat="46.54162" lon="-0.76448">
        <ele>77.8</ele>
        <time>2022-06-19T06:42:38Z</time>
      </trkpt>
      <trkpt lat="46.54162" lon="-0.76427">
        <ele>77</ele>
        <time>2022-06-19T06:42:41Z</time>
      </trkpt>
      <trkpt lat="46.54163" lon="-0.76419">
        <ele>76.4</ele>
        <time>2022-06-19T06:42:42Z</time>
      </trkpt>
      <trkpt lat="46.54162" lon="-0.76411">
        <ele>76</ele>
        <time>2022-06-19T06:42:43Z</time>
      </trkpt>
      <trkpt lat="46.54158" lon="-0.76393">
        <ele>75.6</ele>
        <time>2022-06-19T06:42:45Z</time>
      </trkpt>
      <trkpt lat="46.54155" lon="-0.76385">
        <ele>75.6</ele>
        <time>2022-06-19T06:42:46Z</time>
      </trkpt>
      <trkpt lat="46.54157" lon="-0.76345">
        <ele>76.8</ele>
        <time>2022-06-19T06:42:52Z</time>
      </trkpt>
      <trkpt lat="46.54155" lon="-0.76324">
        <ele>77.4</ele>
        <time>2022-06-19T06:42:55Z</time>
      </trkpt>
      <trkpt lat="46.54154" lon="-0.76299">
        <ele>78</ele>
        <time>2022-06-19T06:42:59Z</time>
      </trkpt>
      <trkpt lat="46.54152" lon="-0.76277">
        <ele>78.4</ele>
        <time>2022-06-19T06:43:03Z</time>
      </trkpt>
      <trkpt lat="46.54152" lon="-0.76271">
        <ele>78.8</ele>
        <time>2022-06-19T06:43:04Z</time>
      </trkpt>
      <trkpt lat="46.5415" lon="-0.7625">
        <ele>79.6</ele>
        <time>2022-06-19T06:43:08Z</time>
      </trkpt>
      <trkpt lat="46.5415" lon="-0.76238">
        <ele>79.6</ele>
        <time>2022-06-19T06:43:10Z</time>
      </trkpt>
      <trkpt lat="46.54148" lon="-0.76198">
        <ele>80</ele>
        <time>2022-06-19T06:43:17Z</time>
      </trkpt>
      <trkpt lat="46.54148" lon="-0.76175">
        <ele>80.2</ele>
        <time>2022-06-19T06:43:22Z</time>
      </trkpt>
      <trkpt lat="46.54147" lon="-0.7617">
        <ele>80.2</ele>
        <time>2022-06-19T06:43:23Z</time>
      </trkpt>
      <trkpt lat="46.54142" lon="-0.76146">
        <ele>80.4</ele>
        <time>2022-06-19T06:43:29Z</time>
      </trkpt>
      <trkpt lat="46.54143" lon="-0.76143">
        <ele>80.4</ele>
        <time>2022-06-19T06:43:30Z</time>
      </trkpt>
      <trkpt lat="46.54149" lon="-0.76137">
        <ele>80.4</ele>
        <time>2022-06-19T06:43:33Z</time>
      </trkpt>
      <trkpt lat="46.54152" lon="-0.76134">
        <ele>80.6</ele>
        <time>2022-06-19T06:43:34Z</time>
      </trkpt>
      <trkpt lat="46.5416" lon="-0.76129">
        <ele>80.6</ele>
        <time>2022-06-19T06:43:36Z</time>
      </trkpt>
      <trkpt lat="46.54166" lon="-0.76124">
        <ele>80.6</ele>
        <time>2022-06-19T06:43:37Z</time>
      </trkpt>
      <trkpt lat="46.54166" lon="-0.76124">
        <ele>80.6</ele>
        <time>2022-06-19T06:43:38Z</time>
      </trkpt>
      <trkpt lat="46.54185" lon="-0.76116">
        <ele>80.4</ele>
        <time>2022-06-19T06:43:43Z</time>
      </trkpt>
      <trkpt lat="46.54196" lon="-0.76112">
        <ele>80.4</ele>
        <time>2022-06-19T06:43:46Z</time>
      </trkpt>
      <trkpt lat="46.542" lon="-0.76111">
        <ele>80.4</ele>
        <time>2022-06-19T06:43:47Z</time>
      </trkpt>
      <trkpt lat="46.54216" lon="-0.76106">
        <ele>80.2</ele>
        <time>2022-06-19T06:43:51Z</time>
      </trkpt>
      <trkpt lat="46.54219" lon="-0.76104">
        <ele>80.2</ele>
        <time>2022-06-19T06:43:52Z</time>
      </trkpt>
      <trkpt lat="46.54226" lon="-0.76101">
        <ele>80</ele>
        <time>2022-06-19T06:43:54Z</time>
      </trkpt>
      <trkpt lat="46.54237" lon="-0.76098">
        <ele>79.8</ele>
        <time>2022-06-19T06:43:57Z</time>
      </trkpt>
      <trkpt lat="46.5424" lon="-0.76097">
        <ele>79.8</ele>
        <time>2022-06-19T06:43:58Z</time>
      </trkpt>
      <trkpt lat="46.54246" lon="-0.7609">
        <ele>79.6</ele>
        <time>2022-06-19T06:44:01Z</time>
      </trkpt>
      <trkpt lat="46.54253" lon="-0.76072">
        <ele>79.6</ele>
        <time>2022-06-19T06:44:05Z</time>
      </trkpt>
      <trkpt lat="46.54255" lon="-0.76067">
        <ele>79.4</ele>
        <time>2022-06-19T06:44:06Z</time>
      </trkpt>
      <trkpt lat="46.54259" lon="-0.76036">
        <ele>78.8</ele>
        <time>2022-06-19T06:44:11Z</time>
      </trkpt>
      <trkpt lat="46.54258" lon="-0.76028">
        <ele>78.6</ele>
        <time>2022-06-19T06:44:12Z</time>
      </trkpt>
      <trkpt lat="46.54259" lon="-0.7602">
        <ele>78.6</ele>
        <time>2022-06-19T06:44:13Z</time>
      </trkpt>
      <trkpt lat="46.54257" lon="-0.75991">
        <ele>77.4</ele>
        <time>2022-06-19T06:44:17Z</time>
      </trkpt>
      <trkpt lat="46.54253" lon="-0.75968">
        <ele>76.8</ele>
        <time>2022-06-19T06:44:20Z</time>
      </trkpt>
      <trkpt lat="46.54253" lon="-0.75951">
        <ele>76.4</ele>
        <time>2022-06-19T06:44:22Z</time>
      </trkpt>
      <trkpt lat="46.54254" lon="-0.75942">
        <ele>76.4</ele>
        <time>2022-06-19T06:44:23Z</time>
      </trkpt>
      <trkpt lat="46.54253" lon="-0.75926">
        <ele>75.8</ele>
        <time>2022-06-19T06:44:25Z</time>
      </trkpt>
      <trkpt lat="46.54251" lon="-0.75909">
        <ele>75.2</ele>
        <time>2022-06-19T06:44:27Z</time>
      </trkpt>
      <trkpt lat="46.54253" lon="-0.75888">
        <ele>73.6</ele>
        <time>2022-06-19T06:44:29Z</time>
      </trkpt>
      <trkpt lat="46.54252" lon="-0.7587">
        <ele>72.4</ele>
        <time>2022-06-19T06:44:31Z</time>
      </trkpt>
      <trkpt lat="46.54252" lon="-0.75852">
        <ele>70.6</ele>
        <time>2022-06-19T06:44:33Z</time>
      </trkpt>
      <trkpt lat="46.54252" lon="-0.75843">
        <ele>68.6</ele>
        <time>2022-06-19T06:44:34Z</time>
      </trkpt>
      <trkpt lat="46.5425" lon="-0.7583">
        <ele>67.4</ele>
        <time>2022-06-19T06:44:35Z</time>
      </trkpt>
      <trkpt lat="46.5425" lon="-0.75824">
        <ele>66.4</ele>
        <time>2022-06-19T06:44:36Z</time>
      </trkpt>
      <trkpt lat="46.54249" lon="-0.75818">
        <ele>65.6</ele>
        <time>2022-06-19T06:44:37Z</time>
      </trkpt>
      <trkpt lat="46.54244" lon="-0.75795">
        <ele>64</ele>
        <time>2022-06-19T06:44:40Z</time>
      </trkpt>
      <trkpt lat="46.54242" lon="-0.75789">
        <ele>63.4</ele>
        <time>2022-06-19T06:44:41Z</time>
      </trkpt>
      <trkpt lat="46.54239" lon="-0.75783">
        <ele>62.4</ele>
        <time>2022-06-19T06:44:42Z</time>
      </trkpt>
      <trkpt lat="46.54229" lon="-0.75766">
        <ele>60.6</ele>
        <time>2022-06-19T06:44:44Z</time>
      </trkpt>
      <trkpt lat="46.54223" lon="-0.75751">
        <ele>58.8</ele>
        <time>2022-06-19T06:44:45Z</time>
      </trkpt>
      <trkpt lat="46.54218" lon="-0.75742">
        <ele>57.6</ele>
        <time>2022-06-19T06:44:46Z</time>
      </trkpt>
      <trkpt lat="46.54213" lon="-0.75732">
        <ele>56</ele>
        <time>2022-06-19T06:44:47Z</time>
      </trkpt>
      <trkpt lat="46.54207" lon="-0.75718">
        <ele>53.8</ele>
        <time>2022-06-19T06:44:49Z</time>
      </trkpt>
      <trkpt lat="46.54202" lon="-0.75706">
        <ele>52.2</ele>
        <time>2022-06-19T06:44:51Z</time>
      </trkpt>
      <trkpt lat="46.542" lon="-0.757">
        <ele>50.8</ele>
        <time>2022-06-19T06:44:52Z</time>
      </trkpt>
      <trkpt lat="46.54199" lon="-0.75695">
        <ele>50</ele>
        <time>2022-06-19T06:44:53Z</time>
      </trkpt>
      <trkpt lat="46.54199" lon="-0.7569">
        <ele>49.4</ele>
        <time>2022-06-19T06:44:54Z</time>
      </trkpt>
      <trkpt lat="46.54197" lon="-0.75686">
        <ele>49</ele>
        <time>2022-06-19T06:44:55Z</time>
      </trkpt>
      <trkpt lat="46.54193" lon="-0.7568">
        <ele>48.6</ele>
        <time>2022-06-19T06:44:56Z</time>
      </trkpt>
      <trkpt lat="46.54189" lon="-0.75677">
        <ele>47.8</ele>
        <time>2022-06-19T06:44:57Z</time>
      </trkpt>
      <trkpt lat="46.5418" lon="-0.75673">
        <ele>46.8</ele>
        <time>2022-06-19T06:44:59Z</time>
      </trkpt>
      <trkpt lat="46.54177" lon="-0.75674">
        <ele>46.6</ele>
        <time>2022-06-19T06:45:00Z</time>
      </trkpt>
      <trkpt lat="46.54176" lon="-0.75676">
        <ele>46.6</ele>
        <time>2022-06-19T06:45:01Z</time>
      </trkpt>
      <trkpt lat="46.54171" lon="-0.7568">
        <ele>46.2</ele>
        <time>2022-06-19T06:45:03Z</time>
      </trkpt>
      <trkpt lat="46.54169" lon="-0.75683">
        <ele>46</ele>
        <time>2022-06-19T06:45:04Z</time>
      </trkpt>
      <trkpt lat="46.54165" lon="-0.7569">
        <ele>45.8</ele>
        <time>2022-06-19T06:45:06Z</time>
      </trkpt>
      <trkpt lat="46.54161" lon="-0.75699">
        <ele>45.6</ele>
        <time>2022-06-19T06:45:08Z</time>
      </trkpt>
      <trkpt lat="46.54159" lon="-0.75702">
        <ele>45.6</ele>
        <time>2022-06-19T06:45:09Z</time>
      </trkpt>
      <trkpt lat="46.54151" lon="-0.75716">
        <ele>45.4</ele>
        <time>2022-06-19T06:45:13Z</time>
      </trkpt>
      <trkpt lat="46.54147" lon="-0.75722">
        <ele>45.4</ele>
        <time>2022-06-19T06:45:15Z</time>
      </trkpt>
      <trkpt lat="46.54146" lon="-0.75725">
        <ele>45.4</ele>
        <time>2022-06-19T06:45:16Z</time>
      </trkpt>
      <trkpt lat="46.54145" lon="-0.75732">
        <ele>45.4</ele>
        <time>2022-06-19T06:45:17Z</time>
      </trkpt>
      <trkpt lat="46.54138" lon="-0.75745">
        <ele>45.2</ele>
        <time>2022-06-19T06:45:20Z</time>
      </trkpt>
      <trkpt lat="46.54132" lon="-0.75753">
        <ele>45</ele>
        <time>2022-06-19T06:45:22Z</time>
      </trkpt>
      <trkpt lat="46.54128" lon="-0.75764">
        <ele>44.6</ele>
        <time>2022-06-19T06:45:24Z</time>
      </trkpt>
      <trkpt lat="46.54125" lon="-0.75768">
        <ele>44.6</ele>
        <time>2022-06-19T06:45:25Z</time>
      </trkpt>
      <trkpt lat="46.5412" lon="-0.75774">
        <ele>44.2</ele>
        <time>2022-06-19T06:45:27Z</time>
      </trkpt>
      <trkpt lat="46.54113" lon="-0.75778">
        <ele>44</ele>
        <time>2022-06-19T06:45:30Z</time>
      </trkpt>
      <trkpt lat="46.54107" lon="-0.75797">
        <ele>43.8</ele>
        <time>2022-06-19T06:45:36Z</time>
      </trkpt>
      <trkpt lat="46.54105" lon="-0.75801">
        <ele>43.6</ele>
        <time>2022-06-19T06:45:37Z</time>
      </trkpt>
      <trkpt lat="46.5409" lon="-0.75806">
        <ele>43.8</ele>
        <time>2022-06-19T06:45:41Z</time>
      </trkpt>
      <trkpt lat="46.54086" lon="-0.75806">
        <ele>43.6</ele>
        <time>2022-06-19T06:45:42Z</time>
      </trkpt>
      <trkpt lat="46.5407" lon="-0.75804">
        <ele>43.4</ele>
        <time>2022-06-19T06:45:47Z</time>
      </trkpt>
      <trkpt lat="46.5405" lon="-0.75803">
        <ele>44.8</ele>
        <time>2022-06-19T06:45:53Z</time>
      </trkpt>
      <trkpt lat="46.54047" lon="-0.75803">
        <ele>45</ele>
        <time>2022-06-19T06:45:54Z</time>
      </trkpt>
      <trkpt lat="46.54035" lon="-0.75794">
        <ele>45.4</ele>
        <time>2022-06-19T06:45:58Z</time>
      </trkpt>
      <trkpt lat="46.54028" lon="-0.7579">
        <ele>45.8</ele>
        <time>2022-06-19T06:46:00Z</time>
      </trkpt>
      <trkpt lat="46.54021" lon="-0.75783">
        <ele>47.2</ele>
        <time>2022-06-19T06:46:03Z</time>
      </trkpt>
      <trkpt lat="46.54014" lon="-0.75778">
        <ele>48</ele>
        <time>2022-06-19T06:46:06Z</time>
      </trkpt>
      <trkpt lat="46.5401" lon="-0.75774">
        <ele>48.2</ele>
        <time>2022-06-19T06:46:08Z</time>
      </trkpt>
      <trkpt lat="46.54003" lon="-0.7577">
        <ele>49.4</ele>
        <time>2022-06-19T06:46:11Z</time>
      </trkpt>
      <trkpt lat="46.53997" lon="-0.75765">
        <ele>50</ele>
        <time>2022-06-19T06:46:14Z</time>
      </trkpt>
      <trkpt lat="46.53994" lon="-0.75762">
        <ele>50.6</ele>
        <time>2022-06-19T06:46:16Z</time>
      </trkpt>
      <trkpt lat="46.53988" lon="-0.75751">
        <ele>51.8</ele>
        <time>2022-06-19T06:46:21Z</time>
      </trkpt>
      <trkpt lat="46.53986" lon="-0.75748">
        <ele>52</ele>
        <time>2022-06-19T06:46:23Z</time>
      </trkpt>
      <trkpt lat="46.53983" lon="-0.75741">
        <ele>53</ele>
        <time>2022-06-19T06:46:27Z</time>
      </trkpt>
      <trkpt lat="46.53982" lon="-0.75732">
        <ele>54</ele>
        <time>2022-06-19T06:46:32Z</time>
      </trkpt>
      <trkpt lat="46.53982" lon="-0.75725">
        <ele>55.2</ele>
        <time>2022-06-19T06:46:37Z</time>
      </trkpt>
      <trkpt lat="46.5398" lon="-0.75716">
        <ele>56</ele>
        <time>2022-06-19T06:46:41Z</time>
      </trkpt>
      <trkpt lat="46.53979" lon="-0.75714">
        <ele>56.2</ele>
        <time>2022-06-19T06:46:42Z</time>
      </trkpt>
      <trkpt lat="46.53974" lon="-0.757">
        <ele>57</ele>
        <time>2022-06-19T06:46:48Z</time>
      </trkpt>
      <trkpt lat="46.53974" lon="-0.75698">
        <ele>57.2</ele>
        <time>2022-06-19T06:46:49Z</time>
      </trkpt>
      <trkpt lat="46.53968" lon="-0.75685">
        <ele>58.2</ele>
        <time>2022-06-19T06:46:55Z</time>
      </trkpt>
      <trkpt lat="46.53968" lon="-0.75683">
        <ele>58.4</ele>
        <time>2022-06-19T06:46:56Z</time>
      </trkpt>
      <trkpt lat="46.53966" lon="-0.75668">
        <ele>59.4</ele>
        <time>2022-06-19T06:47:02Z</time>
      </trkpt>
      <trkpt lat="46.53966" lon="-0.75666">
        <ele>59.4</ele>
        <time>2022-06-19T06:47:03Z</time>
      </trkpt>
      <trkpt lat="46.53966" lon="-0.75649">
        <ele>60.4</ele>
        <time>2022-06-19T06:47:10Z</time>
      </trkpt>
      <trkpt lat="46.53966" lon="-0.75647">
        <ele>60.6</ele>
        <time>2022-06-19T06:47:11Z</time>
      </trkpt>
      <trkpt lat="46.53967" lon="-0.75636">
        <ele>61.4</ele>
        <time>2022-06-19T06:47:16Z</time>
      </trkpt>
      <trkpt lat="46.53968" lon="-0.7563">
        <ele>62</ele>
        <time>2022-06-19T06:47:19Z</time>
      </trkpt>
      <trkpt lat="46.53968" lon="-0.75622">
        <ele>62.6</ele>
        <time>2022-06-19T06:47:22Z</time>
      </trkpt>
      <trkpt lat="46.5397" lon="-0.7561">
        <ele>63.6</ele>
        <time>2022-06-19T06:47:27Z</time>
      </trkpt>
      <trkpt lat="46.5397" lon="-0.7561">
        <ele>64.8</ele>
        <time>2022-06-19T06:47:33Z</time>
      </trkpt>
      <trkpt lat="46.53964" lon="-0.75589">
        <ele>65.4</ele>
        <time>2022-06-19T06:47:35Z</time>
      </trkpt>
      <trkpt lat="46.53959" lon="-0.75582">
        <ele>66</ele>
        <time>2022-06-19T06:47:38Z</time>
      </trkpt>
      <trkpt lat="46.53956" lon="-0.75579">
        <ele>66.4</ele>
        <time>2022-06-19T06:47:40Z</time>
      </trkpt>
      <trkpt lat="46.53949" lon="-0.75572">
        <ele>67.2</ele>
        <time>2022-06-19T06:47:44Z</time>
      </trkpt>
      <trkpt lat="46.53944" lon="-0.75568">
        <ele>67.4</ele>
        <time>2022-06-19T06:47:46Z</time>
      </trkpt>
      <trkpt lat="46.53935" lon="-0.75559">
        <ele>68.2</ele>
        <time>2022-06-19T06:47:51Z</time>
      </trkpt>
      <trkpt lat="46.53928" lon="-0.75552">
        <ele>69.2</ele>
        <time>2022-06-19T06:47:55Z</time>
      </trkpt>
      <trkpt lat="46.53926" lon="-0.75549">
        <ele>69.4</ele>
        <time>2022-06-19T06:47:56Z</time>
      </trkpt>
      <trkpt lat="46.5392" lon="-0.75538">
        <ele>70</ele>
        <time>2022-06-19T06:48:01Z</time>
      </trkpt>
      <trkpt lat="46.53916" lon="-0.75534">
        <ele>70.4</ele>
        <time>2022-06-19T06:48:03Z</time>
      </trkpt>
      <trkpt lat="46.5391" lon="-0.75525">
        <ele>71</ele>
        <time>2022-06-19T06:48:07Z</time>
      </trkpt>
      <trkpt lat="46.53905" lon="-0.75518">
        <ele>71.6</ele>
        <time>2022-06-19T06:48:11Z</time>
      </trkpt>
      <trkpt lat="46.539" lon="-0.75514">
        <ele>72.4</ele>
        <time>2022-06-19T06:48:15Z</time>
      </trkpt>
      <trkpt lat="46.53897" lon="-0.7551">
        <ele>73</ele>
        <time>2022-06-19T06:48:17Z</time>
      </trkpt>
      <trkpt lat="46.53893" lon="-0.75506">
        <ele>74</ele>
        <time>2022-06-19T06:48:22Z</time>
      </trkpt>
      <trkpt lat="46.53893" lon="-0.75506">
        <ele>74</ele>
        <time>2022-06-19T06:48:23Z</time>
      </trkpt>
      <trkpt lat="46.5389" lon="-0.7551">
        <ele>74.6</ele>
        <time>2022-06-19T06:48:27Z</time>
      </trkpt>
      <trkpt lat="46.53889" lon="-0.7551">
        <ele>74.8</ele>
        <time>2022-06-19T06:48:28Z</time>
      </trkpt>
      <trkpt lat="46.53888" lon="-0.7551">
        <ele>75</ele>
        <time>2022-06-19T06:48:29Z</time>
      </trkpt>
      <trkpt lat="46.53881" lon="-0.75509">
        <ele>75.6</ele>
        <time>2022-06-19T06:48:34Z</time>
      </trkpt>
      <trkpt lat="46.53878" lon="-0.75509">
        <ele>76</ele>
        <time>2022-06-19T06:48:36Z</time>
      </trkpt>
      <trkpt lat="46.53876" lon="-0.75512">
        <ele>76.2</ele>
        <time>2022-06-19T06:48:38Z</time>
      </trkpt>
      <trkpt lat="46.53875" lon="-0.75518">
        <ele>76.2</ele>
        <time>2022-06-19T06:48:40Z</time>
      </trkpt>
      <trkpt lat="46.53869" lon="-0.75533">
        <ele>75.8</ele>
        <time>2022-06-19T06:48:45Z</time>
      </trkpt>
      <trkpt lat="46.53856" lon="-0.75527">
        <ele>76</ele>
        <time>2022-06-19T06:48:50Z</time>
      </trkpt>
      <trkpt lat="46.53844" lon="-0.75524">
        <ele>76.6</ele>
        <time>2022-06-19T06:48:55Z</time>
      </trkpt>
      <trkpt lat="46.53833" lon="-0.75519">
        <ele>77.2</ele>
        <time>2022-06-19T06:49:00Z</time>
      </trkpt>
      <trkpt lat="46.5383" lon="-0.75518">
        <ele>77.2</ele>
        <time>2022-06-19T06:49:02Z</time>
      </trkpt>
      <trkpt lat="46.5381" lon="-0.7551">
        <ele>77.6</ele>
        <time>2022-06-19T06:49:10Z</time>
      </trkpt>
      <trkpt lat="46.53793" lon="-0.75505">
        <ele>77.8</ele>
        <time>2022-06-19T06:49:15Z</time>
      </trkpt>
      <trkpt lat="46.53776" lon="-0.75501">
        <ele>78</ele>
        <time>2022-06-19T06:49:20Z</time>
      </trkpt>
      <trkpt lat="46.5377" lon="-0.755">
        <ele>78</ele>
        <time>2022-06-19T06:49:21Z</time>
      </trkpt>
      <trkpt lat="46.53738" lon="-0.7549">
        <ele>78</ele>
        <time>2022-06-19T06:49:25Z</time>
      </trkpt>
      <trkpt lat="46.53731" lon="-0.75488">
        <ele>78</ele>
        <time>2022-06-19T06:49:26Z</time>
      </trkpt>
      <trkpt lat="46.53721" lon="-0.75485">
        <ele>78</ele>
        <time>2022-06-19T06:49:27Z</time>
      </trkpt>
      <trkpt lat="46.53697" lon="-0.75475">
        <ele>77.6</ele>
        <time>2022-06-19T06:49:30Z</time>
      </trkpt>
      <trkpt lat="46.53689" lon="-0.75472">
        <ele>77.4</ele>
        <time>2022-06-19T06:49:31Z</time>
      </trkpt>
      <trkpt lat="46.53683" lon="-0.75469">
        <ele>77.4</ele>
        <time>2022-06-19T06:49:32Z</time>
      </trkpt>
      <trkpt lat="46.5367" lon="-0.75466">
        <ele>77.2</ele>
        <time>2022-06-19T06:49:34Z</time>
      </trkpt>
      <trkpt lat="46.53656" lon="-0.75461">
        <ele>76</ele>
        <time>2022-06-19T06:49:36Z</time>
      </trkpt>
      <trkpt lat="46.53645" lon="-0.75456">
        <ele>75</ele>
        <time>2022-06-19T06:49:38Z</time>
      </trkpt>
      <trkpt lat="46.53638" lon="-0.7545">
        <ele>73.8</ele>
        <time>2022-06-19T06:49:40Z</time>
      </trkpt>
      <trkpt lat="46.53633" lon="-0.75447">
        <ele>72.4</ele>
        <time>2022-06-19T06:49:42Z</time>
      </trkpt>
      <trkpt lat="46.5363" lon="-0.75446">
        <ele>71.8</ele>
        <time>2022-06-19T06:49:43Z</time>
      </trkpt>
      <trkpt lat="46.53627" lon="-0.75445">
        <ele>71</ele>
        <time>2022-06-19T06:49:44Z</time>
      </trkpt>
      <trkpt lat="46.5362" lon="-0.75443">
        <ele>69.6</ele>
        <time>2022-06-19T06:49:46Z</time>
      </trkpt>
      <trkpt lat="46.53616" lon="-0.75442">
        <ele>69.2</ele>
        <time>2022-06-19T06:49:47Z</time>
      </trkpt>
      <trkpt lat="46.53609" lon="-0.75439">
        <ele>68.4</ele>
        <time>2022-06-19T06:49:49Z</time>
      </trkpt>
      <trkpt lat="46.53601" lon="-0.75434">
        <ele>68</ele>
        <time>2022-06-19T06:49:52Z</time>
      </trkpt>
      <trkpt lat="46.53595" lon="-0.75426">
        <ele>68.8</ele>
        <time>2022-06-19T06:49:57Z</time>
      </trkpt>
      <trkpt lat="46.53594" lon="-0.75426">
        <ele>69</ele>
        <time>2022-06-19T06:49:58Z</time>
      </trkpt>
      <trkpt lat="46.53587" lon="-0.75424">
        <ele>69.4</ele>
        <time>2022-06-19T06:50:02Z</time>
      </trkpt>
      <trkpt lat="46.53583" lon="-0.75423">
        <ele>70.6</ele>
        <time>2022-06-19T06:50:05Z</time>
      </trkpt>
      <trkpt lat="46.53582" lon="-0.75424">
        <ele>70.8</ele>
        <time>2022-06-19T06:50:06Z</time>
      </trkpt>
      <trkpt lat="46.53579" lon="-0.75424">
        <ele>71.4</ele>
        <time>2022-06-19T06:50:08Z</time>
      </trkpt>
      <trkpt lat="46.53578" lon="-0.75424">
        <ele>71.6</ele>
        <time>2022-06-19T06:50:09Z</time>
      </trkpt>
      <trkpt lat="46.53571" lon="-0.75417">
        <ele>72.6</ele>
        <time>2022-06-19T06:50:13Z</time>
      </trkpt>
      <trkpt lat="46.5357" lon="-0.75415">
        <ele>73</ele>
        <time>2022-06-19T06:50:14Z</time>
      </trkpt>
      <trkpt lat="46.53558" lon="-0.75402">
        <ele>73.8</ele>
        <time>2022-06-19T06:50:21Z</time>
      </trkpt>
      <trkpt lat="46.53556" lon="-0.754">
        <ele>74</ele>
        <time>2022-06-19T06:50:22Z</time>
      </trkpt>
      <trkpt lat="46.53551" lon="-0.75396">
        <ele>75.2</ele>
        <time>2022-06-19T06:50:26Z</time>
      </trkpt>
      <trkpt lat="46.53544" lon="-0.75391">
        <ele>75.8</ele>
        <time>2022-06-19T06:50:30Z</time>
      </trkpt>
      <trkpt lat="46.53541" lon="-0.75389">
        <ele>76.2</ele>
        <time>2022-06-19T06:50:32Z</time>
      </trkpt>
      <trkpt lat="46.53531" lon="-0.75386">
        <ele>76.8</ele>
        <time>2022-06-19T06:50:36Z</time>
      </trkpt>
      <trkpt lat="46.53522" lon="-0.75383">
        <ele>77.2</ele>
        <time>2022-06-19T06:50:40Z</time>
      </trkpt>
      <trkpt lat="46.53519" lon="-0.75383">
        <ele>77.6</ele>
        <time>2022-06-19T06:50:42Z</time>
      </trkpt>
      <trkpt lat="46.53515" lon="-0.75383">
        <ele>78.2</ele>
        <time>2022-06-19T06:50:44Z</time>
      </trkpt>
      <trkpt lat="46.53506" lon="-0.75383">
        <ele>78.8</ele>
        <time>2022-06-19T06:50:49Z</time>
      </trkpt>
      <trkpt lat="46.53501" lon="-0.75385">
        <ele>79.4</ele>
        <time>2022-06-19T06:50:52Z</time>
      </trkpt>
      <trkpt lat="46.53496" lon="-0.75385">
        <ele>79.4</ele>
        <time>2022-06-19T06:50:54Z</time>
      </trkpt>
      <trkpt lat="46.53483" lon="-0.75387">
        <ele>80.4</ele>
        <time>2022-06-19T06:51:00Z</time>
      </trkpt>
      <trkpt lat="46.53481" lon="-0.75387">
        <ele>80.6</ele>
        <time>2022-06-19T06:51:01Z</time>
      </trkpt>
      <trkpt lat="46.53478" lon="-0.75387">
        <ele>80.8</ele>
        <time>2022-06-19T06:51:02Z</time>
      </trkpt>
      <trkpt lat="46.53461" lon="-0.75383">
        <ele>81.6</ele>
        <time>2022-06-19T06:51:08Z</time>
      </trkpt>
      <trkpt lat="46.53444" lon="-0.75377">
        <ele>82.6</ele>
        <time>2022-06-19T06:51:15Z</time>
      </trkpt>
      <trkpt lat="46.53442" lon="-0.75378">
        <ele>82.6</ele>
        <time>2022-06-19T06:51:16Z</time>
      </trkpt>
      <trkpt lat="46.53439" lon="-0.75378">
        <ele>82.6</ele>
        <time>2022-06-19T06:51:17Z</time>
      </trkpt>
      <trkpt lat="46.53432" lon="-0.75381">
        <ele>83.2</ele>
        <time>2022-06-19T06:51:20Z</time>
      </trkpt>
      <trkpt lat="46.53423" lon="-0.75381">
        <ele>83.6</ele>
        <time>2022-06-19T06:51:24Z</time>
      </trkpt>
      <trkpt lat="46.53415" lon="-0.75379">
        <ele>83.8</ele>
        <time>2022-06-19T06:51:26Z</time>
      </trkpt>
      <trkpt lat="46.53397" lon="-0.75365">
        <ele>84.4</ele>
        <time>2022-06-19T06:51:32Z</time>
      </trkpt>
      <trkpt lat="46.53395" lon="-0.75363">
        <ele>84.8</ele>
        <time>2022-06-19T06:51:33Z</time>
      </trkpt>
      <trkpt lat="46.5338" lon="-0.75347">
        <ele>85.4</ele>
        <time>2022-06-19T06:51:38Z</time>
      </trkpt>
      <trkpt lat="46.53369" lon="-0.75336">
        <ele>86</ele>
        <time>2022-06-19T06:51:42Z</time>
      </trkpt>
      <trkpt lat="46.53364" lon="-0.7533">
        <ele>86.2</ele>
        <time>2022-06-19T06:51:44Z</time>
      </trkpt>
      <trkpt lat="46.53362" lon="-0.75327">
        <ele>86.2</ele>
        <time>2022-06-19T06:51:45Z</time>
      </trkpt>
      <trkpt lat="46.53364" lon="-0.7532">
        <ele>86.6</ele>
        <time>2022-06-19T06:51:47Z</time>
      </trkpt>
      <trkpt lat="46.53374" lon="-0.75305">
        <ele>86</ele>
        <time>2022-06-19T06:51:53Z</time>
      </trkpt>
      <trkpt lat="46.53381" lon="-0.75298">
        <ele>85.8</ele>
        <time>2022-06-19T06:51:55Z</time>
      </trkpt>
      <trkpt lat="46.5339" lon="-0.75288">
        <ele>85.4</ele>
        <time>2022-06-19T06:51:57Z</time>
      </trkpt>
      <trkpt lat="46.53394" lon="-0.75283">
        <ele>84.8</ele>
        <time>2022-06-19T06:51:58Z</time>
      </trkpt>
      <trkpt lat="46.53402" lon="-0.75273">
        <ele>83.8</ele>
        <time>2022-06-19T06:51:59Z</time>
      </trkpt>
      <trkpt lat="46.53402" lon="-0.75273">
        <ele>83.6</ele>
        <time>2022-06-19T06:52:01Z</time>
      </trkpt>
      <trkpt lat="46.53411" lon="-0.75259">
        <ele>83.2</ele>
        <time>2022-06-19T06:52:03Z</time>
      </trkpt>
      <trkpt lat="46.53416" lon="-0.75253">
        <ele>82.6</ele>
        <time>2022-06-19T06:52:05Z</time>
      </trkpt>
      <trkpt lat="46.53422" lon="-0.75245">
        <ele>82.4</ele>
        <time>2022-06-19T06:52:08Z</time>
      </trkpt>
      <trkpt lat="46.53428" lon="-0.75225">
        <ele>82.4</ele>
        <time>2022-06-19T06:52:13Z</time>
      </trkpt>
      <trkpt lat="46.53433" lon="-0.75218">
        <ele>82.4</ele>
        <time>2022-06-19T06:52:15Z</time>
      </trkpt>
      <trkpt lat="46.53436" lon="-0.75211">
        <ele>82</ele>
        <time>2022-06-19T06:52:17Z</time>
      </trkpt>
      <trkpt lat="46.53438" lon="-0.75208">
        <ele>81.8</ele>
        <time>2022-06-19T06:52:18Z</time>
      </trkpt>
      <trkpt lat="46.53448" lon="-0.75188">
        <ele>82.8</ele>
        <time>2022-06-19T06:52:24Z</time>
      </trkpt>
      <trkpt lat="46.5345" lon="-0.75171">
        <ele>82.6</ele>
        <time>2022-06-19T06:52:29Z</time>
      </trkpt>
      <trkpt lat="46.53456" lon="-0.75165">
        <ele>82.8</ele>
        <time>2022-06-19T06:52:31Z</time>
      </trkpt>
      <trkpt lat="46.53469" lon="-0.75153">
        <ele>83</ele>
        <time>2022-06-19T06:52:34Z</time>
      </trkpt>
      <trkpt lat="46.53481" lon="-0.75134">
        <ele>82.8</ele>
        <time>2022-06-19T06:52:38Z</time>
      </trkpt>
      <trkpt lat="46.53487" lon="-0.75123">
        <ele>82.6</ele>
        <time>2022-06-19T06:52:40Z</time>
      </trkpt>
      <trkpt lat="46.53509" lon="-0.75086">
        <ele>82.4</ele>
        <time>2022-06-19T06:52:47Z</time>
      </trkpt>
      <trkpt lat="46.53517" lon="-0.75074">
        <ele>82</ele>
        <time>2022-06-19T06:52:50Z</time>
      </trkpt>
      <trkpt lat="46.53523" lon="-0.75068">
        <ele>81.6</ele>
        <time>2022-06-19T06:52:52Z</time>
      </trkpt>
      <trkpt lat="46.53525" lon="-0.75065">
        <ele>81.2</ele>
        <time>2022-06-19T06:52:53Z</time>
      </trkpt>
      <trkpt lat="46.53537" lon="-0.75048">
        <ele>81.6</ele>
        <time>2022-06-19T06:52:59Z</time>
      </trkpt>
      <trkpt lat="46.53538" lon="-0.75042">
        <ele>81.6</ele>
        <time>2022-06-19T06:53:01Z</time>
      </trkpt>
      <trkpt lat="46.53539" lon="-0.75031">
        <ele>82</ele>
        <time>2022-06-19T06:53:04Z</time>
      </trkpt>
      <trkpt lat="46.53536" lon="-0.75004">
        <ele>82.4</ele>
        <time>2022-06-19T06:53:10Z</time>
      </trkpt>
      <trkpt lat="46.53532" lon="-0.74984">
        <ele>82.6</ele>
        <time>2022-06-19T06:53:15Z</time>
      </trkpt>
      <trkpt lat="46.53534" lon="-0.74981">
        <ele>83</ele>
        <time>2022-06-19T06:53:16Z</time>
      </trkpt>
      <trkpt lat="46.53538" lon="-0.74963">
        <ele>83.6</ele>
        <time>2022-06-19T06:53:20Z</time>
      </trkpt>
      <trkpt lat="46.5354" lon="-0.74954">
        <ele>83.8</ele>
        <time>2022-06-19T06:53:22Z</time>
      </trkpt>
      <trkpt lat="46.53544" lon="-0.74932">
        <ele>84.4</ele>
        <time>2022-06-19T06:53:28Z</time>
      </trkpt>
      <trkpt lat="46.53549" lon="-0.74905">
        <ele>84.6</ele>
        <time>2022-06-19T06:53:34Z</time>
      </trkpt>
      <trkpt lat="46.53549" lon="-0.74894">
        <ele>84.8</ele>
        <time>2022-06-19T06:53:37Z</time>
      </trkpt>
      <trkpt lat="46.53552" lon="-0.74883">
        <ele>84.6</ele>
        <time>2022-06-19T06:53:40Z</time>
      </trkpt>
      <trkpt lat="46.5356" lon="-0.74859">
        <ele>84.2</ele>
        <time>2022-06-19T06:53:47Z</time>
      </trkpt>
      <trkpt lat="46.53559" lon="-0.74852">
        <ele>84</ele>
        <time>2022-06-19T06:53:49Z</time>
      </trkpt>
      <trkpt lat="46.53563" lon="-0.74847">
        <ele>83.8</ele>
        <time>2022-06-19T06:53:51Z</time>
      </trkpt>
      <trkpt lat="46.53587" lon="-0.7484">
        <ele>83.2</ele>
        <time>2022-06-19T06:53:56Z</time>
      </trkpt>
      <trkpt lat="46.53591" lon="-0.74839">
        <ele>83.2</ele>
        <time>2022-06-19T06:53:57Z</time>
      </trkpt>
      <trkpt lat="46.53594" lon="-0.74837">
        <ele>82.8</ele>
        <time>2022-06-19T06:53:58Z</time>
      </trkpt>
      <trkpt lat="46.53598" lon="-0.74835">
        <ele>82.8</ele>
        <time>2022-06-19T06:53:59Z</time>
      </trkpt>
      <trkpt lat="46.53603" lon="-0.74834">
        <ele>82.6</ele>
        <time>2022-06-19T06:54:00Z</time>
      </trkpt>
      <trkpt lat="46.53614" lon="-0.74833">
        <ele>82.4</ele>
        <time>2022-06-19T06:54:02Z</time>
      </trkpt>
      <trkpt lat="46.53645" lon="-0.74828">
        <ele>81.6</ele>
        <time>2022-06-19T06:54:07Z</time>
      </trkpt>
      <trkpt lat="46.53656" lon="-0.74824">
        <ele>81.4</ele>
        <time>2022-06-19T06:54:09Z</time>
      </trkpt>
      <trkpt lat="46.53676" lon="-0.74821">
        <ele>80.6</ele>
        <time>2022-06-19T06:54:13Z</time>
      </trkpt>
      <trkpt lat="46.53684" lon="-0.7482">
        <ele>80.4</ele>
        <time>2022-06-19T06:54:15Z</time>
      </trkpt>
      <trkpt lat="46.53698" lon="-0.74814">
        <ele>80</ele>
        <time>2022-06-19T06:54:20Z</time>
      </trkpt>
      <trkpt lat="46.53708" lon="-0.74808">
        <ele>79.4</ele>
        <time>2022-06-19T06:54:24Z</time>
      </trkpt>
      <trkpt lat="46.53715" lon="-0.74803">
        <ele>79.8</ele>
        <time>2022-06-19T06:54:27Z</time>
      </trkpt>
      <trkpt lat="46.53716" lon="-0.74801">
        <ele>80</ele>
        <time>2022-06-19T06:54:28Z</time>
      </trkpt>
      <trkpt lat="46.53726" lon="-0.74793">
        <ele>79.4</ele>
        <time>2022-06-19T06:54:33Z</time>
      </trkpt>
      <trkpt lat="46.53736" lon="-0.74785">
        <ele>79</ele>
        <time>2022-06-19T06:54:39Z</time>
      </trkpt>
      <trkpt lat="46.53746" lon="-0.7478">
        <ele>78.8</ele>
        <time>2022-06-19T06:54:44Z</time>
      </trkpt>
      <trkpt lat="46.53748" lon="-0.74781">
        <ele>78.8</ele>
        <time>2022-06-19T06:54:45Z</time>
      </trkpt>
      <trkpt lat="46.53751" lon="-0.74782">
        <ele>79</ele>
        <time>2022-06-19T06:54:46Z</time>
      </trkpt>
      <trkpt lat="46.53765" lon="-0.74792">
        <ele>79.4</ele>
        <time>2022-06-19T06:54:50Z</time>
      </trkpt>
      <trkpt lat="46.53783" lon="-0.74814">
        <ele>80</ele>
        <time>2022-06-19T06:54:56Z</time>
      </trkpt>
      <trkpt lat="46.53803" lon="-0.74834">
        <ele>80</ele>
        <time>2022-06-19T06:55:02Z</time>
      </trkpt>
      <trkpt lat="46.53819" lon="-0.74849">
        <ele>80</ele>
        <time>2022-06-19T06:55:07Z</time>
      </trkpt>
      <trkpt lat="46.53823" lon="-0.74853">
        <ele>80</ele>
        <time>2022-06-19T06:55:08Z</time>
      </trkpt>
      <trkpt lat="46.53834" lon="-0.74866">
        <ele>80</ele>
        <time>2022-06-19T06:55:11Z</time>
      </trkpt>
      <trkpt lat="46.53845" lon="-0.74877">
        <ele>80</ele>
        <time>2022-06-19T06:55:14Z</time>
      </trkpt>
      <trkpt lat="46.5386" lon="-0.74888">
        <ele>80.2</ele>
        <time>2022-06-19T06:55:18Z</time>
      </trkpt>
      <trkpt lat="46.53871" lon="-0.74894">
        <ele>80.2</ele>
        <time>2022-06-19T06:55:21Z</time>
      </trkpt>
      <trkpt lat="46.53894" lon="-0.7491">
        <ele>79.4</ele>
        <time>2022-06-19T06:55:27Z</time>
      </trkpt>
      <trkpt lat="46.53906" lon="-0.74915">
        <ele>79.4</ele>
        <time>2022-06-19T06:55:30Z</time>
      </trkpt>
      <trkpt lat="46.53914" lon="-0.74919">
        <ele>79.4</ele>
        <time>2022-06-19T06:55:32Z</time>
      </trkpt>
      <trkpt lat="46.53931" lon="-0.74925">
        <ele>79</ele>
        <time>2022-06-19T06:55:36Z</time>
      </trkpt>
      <trkpt lat="46.53939" lon="-0.74931">
        <ele>78.8</ele>
        <time>2022-06-19T06:55:38Z</time>
      </trkpt>
      <trkpt lat="46.53948" lon="-0.74939">
        <ele>78.4</ele>
        <time>2022-06-19T06:55:40Z</time>
      </trkpt>
      <trkpt lat="46.53957" lon="-0.74949">
        <ele>78</ele>
        <time>2022-06-19T06:55:42Z</time>
      </trkpt>
      <trkpt lat="46.53981" lon="-0.74972">
        <ele>77.4</ele>
        <time>2022-06-19T06:55:47Z</time>
      </trkpt>
      <trkpt lat="46.53997" lon="-0.74985">
        <ele>76.4</ele>
        <time>2022-06-19T06:55:51Z</time>
      </trkpt>
      <trkpt lat="46.54" lon="-0.74988">
        <ele>76.2</ele>
        <time>2022-06-19T06:55:52Z</time>
      </trkpt>
      <trkpt lat="46.54014" lon="-0.74999">
        <ele>75.6</ele>
        <time>2022-06-19T06:55:56Z</time>
      </trkpt>
      <trkpt lat="46.54025" lon="-0.7501">
        <ele>75</ele>
        <time>2022-06-19T06:55:59Z</time>
      </trkpt>
      <trkpt lat="46.5403" lon="-0.75014">
        <ele>74.8</ele>
        <time>2022-06-19T06:56:01Z</time>
      </trkpt>
      <trkpt lat="46.54046" lon="-0.75025">
        <ele>74.6</ele>
        <time>2022-06-19T06:56:06Z</time>
      </trkpt>
      <trkpt lat="46.54054" lon="-0.75031">
        <ele>74.4</ele>
        <time>2022-06-19T06:56:08Z</time>
      </trkpt>
      <trkpt lat="46.54074" lon="-0.75048">
        <ele>74</ele>
        <time>2022-06-19T06:56:12Z</time>
      </trkpt>
      <trkpt lat="46.5408" lon="-0.75052">
        <ele>73.8</ele>
        <time>2022-06-19T06:56:13Z</time>
      </trkpt>
      <trkpt lat="46.54112" lon="-0.75076">
        <ele>72.8</ele>
        <time>2022-06-19T06:56:18Z</time>
      </trkpt>
      <trkpt lat="46.54129" lon="-0.75088">
        <ele>71.8</ele>
        <time>2022-06-19T06:56:21Z</time>
      </trkpt>
      <trkpt lat="46.5414" lon="-0.75094">
        <ele>71.4</ele>
        <time>2022-06-19T06:56:23Z</time>
      </trkpt>
      <trkpt lat="46.54164" lon="-0.75106">
        <ele>70.6</ele>
        <time>2022-06-19T06:56:28Z</time>
      </trkpt>
      <trkpt lat="46.54179" lon="-0.75116">
        <ele>69.8</ele>
        <time>2022-06-19T06:56:31Z</time>
      </trkpt>
      <trkpt lat="46.54183" lon="-0.7512">
        <ele>69.4</ele>
        <time>2022-06-19T06:56:32Z</time>
      </trkpt>
      <trkpt lat="46.54192" lon="-0.7513">
        <ele>69</ele>
        <time>2022-06-19T06:56:34Z</time>
      </trkpt>
      <trkpt lat="46.54202" lon="-0.75138">
        <ele>68.2</ele>
        <time>2022-06-19T06:56:36Z</time>
      </trkpt>
      <trkpt lat="46.54214" lon="-0.75147">
        <ele>67.2</ele>
        <time>2022-06-19T06:56:38Z</time>
      </trkpt>
      <trkpt lat="46.54219" lon="-0.75151">
        <ele>66.6</ele>
        <time>2022-06-19T06:56:39Z</time>
      </trkpt>
      <trkpt lat="46.54229" lon="-0.75162">
        <ele>66</ele>
        <time>2022-06-19T06:56:41Z</time>
      </trkpt>
      <trkpt lat="46.54237" lon="-0.75173">
        <ele>65.4</ele>
        <time>2022-06-19T06:56:43Z</time>
      </trkpt>
      <trkpt lat="46.54253" lon="-0.7519">
        <ele>65.2</ele>
        <time>2022-06-19T06:56:48Z</time>
      </trkpt>
      <trkpt lat="46.54269" lon="-0.75218">
        <ele>65</ele>
        <time>2022-06-19T06:56:54Z</time>
      </trkpt>
      <trkpt lat="46.54272" lon="-0.75223">
        <ele>64.8</ele>
        <time>2022-06-19T06:56:55Z</time>
      </trkpt>
      <trkpt lat="46.54278" lon="-0.75235">
        <ele>64</ele>
        <time>2022-06-19T06:56:57Z</time>
      </trkpt>
      <trkpt lat="46.54282" lon="-0.7524">
        <ele>63.8</ele>
        <time>2022-06-19T06:56:58Z</time>
      </trkpt>
      <trkpt lat="46.54285" lon="-0.75245">
        <ele>63.8</ele>
        <time>2022-06-19T06:56:59Z</time>
      </trkpt>
      <trkpt lat="46.54289" lon="-0.7525">
        <ele>63.6</ele>
        <time>2022-06-19T06:57:00Z</time>
      </trkpt>
      <trkpt lat="46.54308" lon="-0.75266">
        <ele>63</ele>
        <time>2022-06-19T06:57:06Z</time>
      </trkpt>
      <trkpt lat="46.5431" lon="-0.75267">
        <ele>63</ele>
        <time>2022-06-19T06:57:07Z</time>
      </trkpt>
      <trkpt lat="46.54316" lon="-0.75262">
        <ele>63</ele>
        <time>2022-06-19T06:57:10Z</time>
      </trkpt>
      <trkpt lat="46.54329" lon="-0.75244">
        <ele>63.8</ele>
        <time>2022-06-19T06:57:15Z</time>
      </trkpt>
      <trkpt lat="46.54344" lon="-0.75215">
        <ele>64.6</ele>
        <time>2022-06-19T06:57:23Z</time>
      </trkpt>
      <trkpt lat="46.54352" lon="-0.75201">
        <ele>64.8</ele>
        <time>2022-06-19T06:57:27Z</time>
      </trkpt>
      <trkpt lat="46.54353" lon="-0.75197">
        <ele>64.8</ele>
        <time>2022-06-19T06:57:28Z</time>
      </trkpt>
      <trkpt lat="46.54364" lon="-0.75178">
        <ele>64.4</ele>
        <time>2022-06-19T06:57:33Z</time>
      </trkpt>
      <trkpt lat="46.5437" lon="-0.75168">
        <ele>64.2</ele>
        <time>2022-06-19T06:57:35Z</time>
      </trkpt>
      <trkpt lat="46.54376" lon="-0.75158">
        <ele>64.2</ele>
        <time>2022-06-19T06:57:37Z</time>
      </trkpt>
      <trkpt lat="46.54378" lon="-0.75154">
        <ele>64</ele>
        <time>2022-06-19T06:57:38Z</time>
      </trkpt>
      <trkpt lat="46.54383" lon="-0.75149">
        <ele>64</ele>
        <time>2022-06-19T06:57:41Z</time>
      </trkpt>
      <trkpt lat="46.54395" lon="-0.75152">
        <ele>63.8</ele>
        <time>2022-06-19T06:57:45Z</time>
      </trkpt>
      <trkpt lat="46.54409" lon="-0.75148">
        <ele>63.4</ele>
        <time>2022-06-19T06:57:49Z</time>
      </trkpt>
      <trkpt lat="46.54412" lon="-0.75149">
        <ele>63.2</ele>
        <time>2022-06-19T06:57:50Z</time>
      </trkpt>
      <trkpt lat="46.54417" lon="-0.75154">
        <ele>63</ele>
        <time>2022-06-19T06:57:52Z</time>
      </trkpt>
      <trkpt lat="46.54423" lon="-0.75163">
        <ele>62.6</ele>
        <time>2022-06-19T06:57:54Z</time>
      </trkpt>
      <trkpt lat="46.54429" lon="-0.75175">
        <ele>62.2</ele>
        <time>2022-06-19T06:57:56Z</time>
      </trkpt>
      <trkpt lat="46.54437" lon="-0.75187">
        <ele>61.2</ele>
        <time>2022-06-19T06:57:58Z</time>
      </trkpt>
      <trkpt lat="46.54452" lon="-0.75208">
        <ele>60.4</ele>
        <time>2022-06-19T06:58:01Z</time>
      </trkpt>
      <trkpt lat="46.54457" lon="-0.75215">
        <ele>60.2</ele>
        <time>2022-06-19T06:58:02Z</time>
      </trkpt>
      <trkpt lat="46.54461" lon="-0.75223">
        <ele>59.4</ele>
        <time>2022-06-19T06:58:03Z</time>
      </trkpt>
      <trkpt lat="46.5447" lon="-0.75242">
        <ele>57.8</ele>
        <time>2022-06-19T06:58:05Z</time>
      </trkpt>
      <trkpt lat="46.54477" lon="-0.75263">
        <ele>56.8</ele>
        <time>2022-06-19T06:58:07Z</time>
      </trkpt>
      <trkpt lat="46.54477" lon="-0.75263">
        <ele>55.6</ele>
        <time>2022-06-19T06:58:10Z</time>
      </trkpt>
      <trkpt lat="46.5449" lon="-0.75307">
        <ele>55.4</ele>
        <time>2022-06-19T06:58:11Z</time>
      </trkpt>
      <trkpt lat="46.54495" lon="-0.7533">
        <ele>54.4</ele>
        <time>2022-06-19T06:58:13Z</time>
      </trkpt>
      <trkpt lat="46.54496" lon="-0.75352">
        <ele>53.8</ele>
        <time>2022-06-19T06:58:15Z</time>
      </trkpt>
      <trkpt lat="46.54496" lon="-0.75363">
        <ele>53.6</ele>
        <time>2022-06-19T06:58:16Z</time>
      </trkpt>
      <trkpt lat="46.54497" lon="-0.75384">
        <ele>53.2</ele>
        <time>2022-06-19T06:58:18Z</time>
      </trkpt>
      <trkpt lat="46.54498" lon="-0.7541">
        <ele>53.4</ele>
        <time>2022-06-19T06:58:21Z</time>
      </trkpt>
      <trkpt lat="46.54499" lon="-0.75417">
        <ele>53.4</ele>
        <time>2022-06-19T06:58:22Z</time>
      </trkpt>
      <trkpt lat="46.54502" lon="-0.75442">
        <ele>54.2</ele>
        <time>2022-06-19T06:58:26Z</time>
      </trkpt>
      <trkpt lat="46.54501" lon="-0.75447">
        <ele>54.2</ele>
        <time>2022-06-19T06:58:27Z</time>
      </trkpt>
      <trkpt lat="46.545" lon="-0.75461">
        <ele>54.8</ele>
        <time>2022-06-19T06:58:31Z</time>
      </trkpt>
      <trkpt lat="46.54506" lon="-0.7548">
        <ele>55.6</ele>
        <time>2022-06-19T06:58:35Z</time>
      </trkpt>
      <trkpt lat="46.54509" lon="-0.75488">
        <ele>56.2</ele>
        <time>2022-06-19T06:58:37Z</time>
      </trkpt>
      <trkpt lat="46.5451" lon="-0.75495">
        <ele>56.6</ele>
        <time>2022-06-19T06:58:40Z</time>
      </trkpt>
      <trkpt lat="46.54511" lon="-0.755">
        <ele>57</ele>
        <time>2022-06-19T06:58:42Z</time>
      </trkpt>
      <trkpt lat="46.54511" lon="-0.75508">
        <ele>58</ele>
        <time>2022-06-19T06:58:45Z</time>
      </trkpt>
      <trkpt lat="46.54511" lon="-0.75521">
        <ele>59</ele>
        <time>2022-06-19T06:58:49Z</time>
      </trkpt>
      <trkpt lat="46.54511" lon="-0.75524">
        <ele>59.2</ele>
        <time>2022-06-19T06:58:50Z</time>
      </trkpt>
      <trkpt lat="46.54517" lon="-0.7554">
        <ele>60</ele>
        <time>2022-06-19T06:58:55Z</time>
      </trkpt>
      <trkpt lat="46.54518" lon="-0.75543">
        <ele>60.2</ele>
        <time>2022-06-19T06:58:56Z</time>
      </trkpt>
      <trkpt lat="46.54525" lon="-0.7556">
        <ele>61</ele>
        <time>2022-06-19T06:59:02Z</time>
      </trkpt>
      <trkpt lat="46.54526" lon="-0.75563">
        <ele>61.2</ele>
        <time>2022-06-19T06:59:03Z</time>
      </trkpt>
      <trkpt lat="46.54531" lon="-0.75588">
        <ele>62</ele>
        <time>2022-06-19T06:59:10Z</time>
      </trkpt>
      <trkpt lat="46.54537" lon="-0.75604">
        <ele>62.4</ele>
        <time>2022-06-19T06:59:15Z</time>
      </trkpt>
      <trkpt lat="46.54543" lon="-0.75616">
        <ele>62.6</ele>
        <time>2022-06-19T06:59:18Z</time>
      </trkpt>
      <trkpt lat="46.54556" lon="-0.7564">
        <ele>63.4</ele>
        <time>2022-06-19T06:59:25Z</time>
      </trkpt>
      <trkpt lat="46.54557" lon="-0.75643">
        <ele>63.4</ele>
        <time>2022-06-19T06:59:26Z</time>
      </trkpt>
      <trkpt lat="46.54562" lon="-0.75654">
        <ele>63.8</ele>
        <time>2022-06-19T06:59:30Z</time>
      </trkpt>
      <trkpt lat="46.54571" lon="-0.75676">
        <ele>64.4</ele>
        <time>2022-06-19T06:59:37Z</time>
      </trkpt>
      <trkpt lat="46.54572" lon="-0.75681">
        <ele>64.6</ele>
        <time>2022-06-19T06:59:38Z</time>
      </trkpt>
      <trkpt lat="46.54582" lon="-0.7571">
        <ele>65.8</ele>
        <time>2022-06-19T06:59:45Z</time>
      </trkpt>
      <trkpt lat="46.54595" lon="-0.75746">
        <ele>66.2</ele>
        <time>2022-06-19T06:59:53Z</time>
      </trkpt>
      <trkpt lat="46.54605" lon="-0.75773">
        <ele>66</ele>
        <time>2022-06-19T06:59:59Z</time>
      </trkpt>
      <trkpt lat="46.54608" lon="-0.75777">
        <ele>66</ele>
        <time>2022-06-19T07:00:00Z</time>
      </trkpt>
      <trkpt lat="46.54623" lon="-0.75787">
        <ele>65.8</ele>
        <time>2022-06-19T07:00:03Z</time>
      </trkpt>
      <trkpt lat="46.54642" lon="-0.75794">
        <ele>64.8</ele>
        <time>2022-06-19T07:00:08Z</time>
      </trkpt>
      <trkpt lat="46.54645" lon="-0.75795">
        <ele>64.6</ele>
        <time>2022-06-19T07:00:09Z</time>
      </trkpt>
      <trkpt lat="46.5466" lon="-0.75794">
        <ele>64</ele>
        <time>2022-06-19T07:00:13Z</time>
      </trkpt>
      <trkpt lat="46.54665" lon="-0.75794">
        <ele>63.8</ele>
        <time>2022-06-19T07:00:15Z</time>
      </trkpt>
      <trkpt lat="46.5468" lon="-0.75793">
        <ele>63.6</ele>
        <time>2022-06-19T07:00:20Z</time>
      </trkpt>
      <trkpt lat="46.54684" lon="-0.75793">
        <ele>63.6</ele>
        <time>2022-06-19T07:00:21Z</time>
      </trkpt>
      <trkpt lat="46.5469" lon="-0.75793">
        <ele>63.8</ele>
        <time>2022-06-19T07:00:23Z</time>
      </trkpt>
      <trkpt lat="46.54702" lon="-0.75791">
        <ele>64.4</ele>
        <time>2022-06-19T07:00:27Z</time>
      </trkpt>
      <trkpt lat="46.5471" lon="-0.7579">
        <ele>64.6</ele>
        <time>2022-06-19T07:00:29Z</time>
      </trkpt>
      <trkpt lat="46.54714" lon="-0.7579">
        <ele>64.6</ele>
        <time>2022-06-19T07:00:30Z</time>
      </trkpt>
      <trkpt lat="46.54743" lon="-0.75784">
        <ele>65.4</ele>
        <time>2022-06-19T07:00:37Z</time>
      </trkpt>
      <trkpt lat="46.54755" lon="-0.75779">
        <ele>65.6</ele>
        <time>2022-06-19T07:00:43Z</time>
      </trkpt>
      <trkpt lat="46.54757" lon="-0.75778">
        <ele>64.8</ele>
        <time>2022-06-19T07:00:46Z</time>
      </trkpt>
      <trkpt lat="46.54775" lon="-0.75774">
        <ele>64.8</ele>
        <time>2022-06-19T07:03:48Z</time>
      </trkpt>
      <trkpt lat="46.54776" lon="-0.75768">
        <ele>64.8</ele>
        <time>2022-06-19T07:03:54Z</time>
      </trkpt>
      <trkpt lat="46.54777" lon="-0.75751">
        <ele>64.8</ele>
        <time>2022-06-19T07:04:00Z</time>
      </trkpt>
      <trkpt lat="46.54775" lon="-0.75726">
        <ele>65.4</ele>
        <time>2022-06-19T07:04:06Z</time>
      </trkpt>
      <trkpt lat="46.5477" lon="-0.75692">
        <ele>65.2</ele>
        <time>2022-06-19T07:04:14Z</time>
      </trkpt>
      <trkpt lat="46.54769" lon="-0.75678">
        <ele>65.2</ele>
        <time>2022-06-19T07:04:17Z</time>
      </trkpt>
      <trkpt lat="46.54767" lon="-0.7566">
        <ele>65.4</ele>
        <time>2022-06-19T07:04:20Z</time>
      </trkpt>
      <trkpt lat="46.54762" lon="-0.75615">
        <ele>65.4</ele>
        <time>2022-06-19T07:04:27Z</time>
      </trkpt>
      <trkpt lat="46.54758" lon="-0.75575">
        <ele>65.8</ele>
        <time>2022-06-19T07:04:33Z</time>
      </trkpt>
      <trkpt lat="46.54753" lon="-0.75539">
        <ele>65.6</ele>
        <time>2022-06-19T07:04:38Z</time>
      </trkpt>
      <trkpt lat="46.54753" lon="-0.75531">
        <ele>65.6</ele>
        <time>2022-06-19T07:04:39Z</time>
      </trkpt>
      <trkpt lat="46.54749" lon="-0.75487">
        <ele>64.8</ele>
        <time>2022-06-19T07:04:44Z</time>
      </trkpt>
      <trkpt lat="46.54749" lon="-0.75487">
        <ele>63.4</ele>
        <time>2022-06-19T07:04:47Z</time>
      </trkpt>
      <trkpt lat="46.54742" lon="-0.75428">
        <ele>62.2</ele>
        <time>2022-06-19T07:04:50Z</time>
      </trkpt>
      <trkpt lat="46.54742" lon="-0.75414">
        <ele>61</ele>
        <time>2022-06-19T07:04:52Z</time>
      </trkpt>
      <trkpt lat="46.54742" lon="-0.754">
        <ele>60</ele>
        <time>2022-06-19T07:04:54Z</time>
      </trkpt>
      <trkpt lat="46.54742" lon="-0.75387">
        <ele>58.8</ele>
        <time>2022-06-19T07:04:56Z</time>
      </trkpt>
      <trkpt lat="46.54741" lon="-0.75378">
        <ele>56.4</ele>
        <time>2022-06-19T07:04:58Z</time>
      </trkpt>
      <trkpt lat="46.5474" lon="-0.75371">
        <ele>54.8</ele>
        <time>2022-06-19T07:05:00Z</time>
      </trkpt>
      <trkpt lat="46.54739" lon="-0.75367">
        <ele>53.6</ele>
        <time>2022-06-19T07:05:01Z</time>
      </trkpt>
      <trkpt lat="46.54737" lon="-0.75352">
        <ele>52.4</ele>
        <time>2022-06-19T07:05:04Z</time>
      </trkpt>
      <trkpt lat="46.54732" lon="-0.75332">
        <ele>51.2</ele>
        <time>2022-06-19T07:05:08Z</time>
      </trkpt>
      <trkpt lat="46.5473" lon="-0.75328">
        <ele>50.8</ele>
        <time>2022-06-19T07:05:09Z</time>
      </trkpt>
      <trkpt lat="46.54728" lon="-0.75315">
        <ele>50.2</ele>
        <time>2022-06-19T07:05:11Z</time>
      </trkpt>
      <trkpt lat="46.54723" lon="-0.75281">
        <ele>49.2</ele>
        <time>2022-06-19T07:05:15Z</time>
      </trkpt>
      <trkpt lat="46.54725" lon="-0.75249">
        <ele>48.2</ele>
        <time>2022-06-19T07:05:20Z</time>
      </trkpt>
      <trkpt lat="46.5472" lon="-0.75221">
        <ele>49</ele>
        <time>2022-06-19T07:05:26Z</time>
      </trkpt>
      <trkpt lat="46.54712" lon="-0.75191">
        <ele>49</ele>
        <time>2022-06-19T07:05:33Z</time>
      </trkpt>
      <trkpt lat="46.54707" lon="-0.75172">
        <ele>48.2</ele>
        <time>2022-06-19T07:05:38Z</time>
      </trkpt>
      <trkpt lat="46.54705" lon="-0.75167">
        <ele>48.2</ele>
        <time>2022-06-19T07:05:40Z</time>
      </trkpt>
      <trkpt lat="46.54703" lon="-0.7516">
        <ele>48.2</ele>
        <time>2022-06-19T07:05:43Z</time>
      </trkpt>
      <trkpt lat="46.54701" lon="-0.75154">
        <ele>48.2</ele>
        <time>2022-06-19T07:05:46Z</time>
      </trkpt>
      <trkpt lat="46.547" lon="-0.7515">
        <ele>48.4</ele>
        <time>2022-06-19T07:05:49Z</time>
      </trkpt>
      <trkpt lat="46.54697" lon="-0.75146">
        <ele>48.6</ele>
        <time>2022-06-19T07:05:53Z</time>
      </trkpt>
      <trkpt lat="46.54696" lon="-0.75145">
        <ele>48.6</ele>
        <time>2022-06-19T07:05:54Z</time>
      </trkpt>
      <trkpt lat="46.54689" lon="-0.75133">
        <ele>48.8</ele>
        <time>2022-06-19T07:06:01Z</time>
      </trkpt>
      <trkpt lat="46.54687" lon="-0.7513">
        <ele>48.8</ele>
        <time>2022-06-19T07:06:03Z</time>
      </trkpt>
      <trkpt lat="46.54686" lon="-0.75121">
        <ele>48.8</ele>
        <time>2022-06-19T07:06:07Z</time>
      </trkpt>
      <trkpt lat="46.54686" lon="-0.75118">
        <ele>48.4</ele>
        <time>2022-06-19T07:06:08Z</time>
      </trkpt>
      <trkpt lat="46.54687" lon="-0.75103">
        <ele>48.6</ele>
        <time>2022-06-19T07:06:15Z</time>
      </trkpt>
      <trkpt lat="46.54687" lon="-0.75092">
        <ele>49.2</ele>
        <time>2022-06-19T07:06:19Z</time>
      </trkpt>
      <trkpt lat="46.54688" lon="-0.75087">
        <ele>49.2</ele>
        <time>2022-06-19T07:06:21Z</time>
      </trkpt>
      <trkpt lat="46.5469" lon="-0.75075">
        <ele>49.6</ele>
        <time>2022-06-19T07:06:25Z</time>
      </trkpt>
      <trkpt lat="46.54691" lon="-0.75069">
        <ele>50.2</ele>
        <time>2022-06-19T07:06:27Z</time>
      </trkpt>
      <trkpt lat="46.54692" lon="-0.75062">
        <ele>50.4</ele>
        <time>2022-06-19T07:06:29Z</time>
      </trkpt>
      <trkpt lat="46.54698" lon="-0.75047">
        <ele>51.4</ele>
        <time>2022-06-19T07:06:34Z</time>
      </trkpt>
      <trkpt lat="46.54699" lon="-0.75042">
        <ele>52.4</ele>
        <time>2022-06-19T07:06:36Z</time>
      </trkpt>
      <trkpt lat="46.54699" lon="-0.75038">
        <ele>53.4</ele>
        <time>2022-06-19T07:06:38Z</time>
      </trkpt>
      <trkpt lat="46.54699" lon="-0.75034">
        <ele>54</ele>
        <time>2022-06-19T07:06:40Z</time>
      </trkpt>
      <trkpt lat="46.54698" lon="-0.75029">
        <ele>54.6</ele>
        <time>2022-06-19T07:06:42Z</time>
      </trkpt>
      <trkpt lat="46.54698" lon="-0.75026">
        <ele>54.8</ele>
        <time>2022-06-19T07:06:43Z</time>
      </trkpt>
      <trkpt lat="46.54697" lon="-0.75013">
        <ele>55.6</ele>
        <time>2022-06-19T07:06:48Z</time>
      </trkpt>
      <trkpt lat="46.54696" lon="-0.75007">
        <ele>56</ele>
        <time>2022-06-19T07:06:50Z</time>
      </trkpt>
      <trkpt lat="46.54693" lon="-0.74985">
        <ele>56.6</ele>
        <time>2022-06-19T07:06:58Z</time>
      </trkpt>
      <trkpt lat="46.54691" lon="-0.74976">
        <ele>56.8</ele>
        <time>2022-06-19T07:07:01Z</time>
      </trkpt>
      <trkpt lat="46.54688" lon="-0.7496">
        <ele>57.6</ele>
        <time>2022-06-19T07:07:06Z</time>
      </trkpt>
      <trkpt lat="46.54686" lon="-0.74953">
        <ele>57.8</ele>
        <time>2022-06-19T07:07:08Z</time>
      </trkpt>
      <trkpt lat="46.54682" lon="-0.74936">
        <ele>58.2</ele>
        <time>2022-06-19T07:07:14Z</time>
      </trkpt>
      <trkpt lat="46.54678" lon="-0.74923">
        <ele>58.8</ele>
        <time>2022-06-19T07:07:19Z</time>
      </trkpt>
      <trkpt lat="46.54675" lon="-0.74914">
        <ele>59.2</ele>
        <time>2022-06-19T07:07:22Z</time>
      </trkpt>
      <trkpt lat="46.54671" lon="-0.74897">
        <ele>59.8</ele>
        <time>2022-06-19T07:07:27Z</time>
      </trkpt>
      <trkpt lat="46.54667" lon="-0.74878">
        <ele>60.2</ele>
        <time>2022-06-19T07:07:32Z</time>
      </trkpt>
      <trkpt lat="46.54664" lon="-0.74852">
        <ele>60</ele>
        <time>2022-06-19T07:07:37Z</time>
      </trkpt>
      <trkpt lat="46.54662" lon="-0.74818">
        <ele>59.8</ele>
        <time>2022-06-19T07:07:45Z</time>
      </trkpt>
      <trkpt lat="46.54659" lon="-0.74794">
        <ele>60.2</ele>
        <time>2022-06-19T07:07:51Z</time>
      </trkpt>
      <trkpt lat="46.54659" lon="-0.7479">
        <ele>60.2</ele>
        <time>2022-06-19T07:07:52Z</time>
      </trkpt>
      <trkpt lat="46.54659" lon="-0.74781">
        <ele>60.4</ele>
        <time>2022-06-19T07:07:54Z</time>
      </trkpt>
      <trkpt lat="46.54659" lon="-0.74768">
        <ele>60.4</ele>
        <time>2022-06-19T07:07:56Z</time>
      </trkpt>
      <trkpt lat="46.54659" lon="-0.74762">
        <ele>60.6</ele>
        <time>2022-06-19T07:07:57Z</time>
      </trkpt>
      <trkpt lat="46.54659" lon="-0.7475">
        <ele>61</ele>
        <time>2022-06-19T07:07:59Z</time>
      </trkpt>
      <trkpt lat="46.54659" lon="-0.7472">
        <ele>61.2</ele>
        <time>2022-06-19T07:08:04Z</time>
      </trkpt>
      <trkpt lat="46.54665" lon="-0.74693">
        <ele>62</ele>
        <time>2022-06-19T07:08:10Z</time>
      </trkpt>
      <trkpt lat="46.54675" lon="-0.7467">
        <ele>61.8</ele>
        <time>2022-06-19T07:08:17Z</time>
      </trkpt>
      <trkpt lat="46.54675" lon="-0.74667">
        <ele>61.8</ele>
        <time>2022-06-19T07:08:18Z</time>
      </trkpt>
      <trkpt lat="46.5467" lon="-0.74662">
        <ele>61.8</ele>
        <time>2022-06-19T07:08:22Z</time>
      </trkpt>
      <trkpt lat="46.54658" lon="-0.74667">
        <ele>61.4</ele>
        <time>2022-06-19T07:08:29Z</time>
      </trkpt>
      <trkpt lat="46.54652" lon="-0.74671">
        <ele>61</ele>
        <time>2022-06-19T07:08:31Z</time>
      </trkpt>
      <trkpt lat="46.54642" lon="-0.74672">
        <ele>59.8</ele>
        <time>2022-06-19T07:08:34Z</time>
      </trkpt>
      <trkpt lat="46.54632" lon="-0.74657">
        <ele>59</ele>
        <time>2022-06-19T07:08:38Z</time>
      </trkpt>
      <trkpt lat="46.54625" lon="-0.74626">
        <ele>59.2</ele>
        <time>2022-06-19T07:08:44Z</time>
      </trkpt>
      <trkpt lat="46.54614" lon="-0.74594">
        <ele>60.4</ele>
        <time>2022-06-19T07:08:52Z</time>
      </trkpt>
      <trkpt lat="46.54601" lon="-0.74557">
        <ele>59.8</ele>
        <time>2022-06-19T07:09:01Z</time>
      </trkpt>
      <trkpt lat="46.54588" lon="-0.74531">
        <ele>59.4</ele>
        <time>2022-06-19T07:09:08Z</time>
      </trkpt>
      <trkpt lat="46.54572" lon="-0.74505">
        <ele>59.8</ele>
        <time>2022-06-19T07:09:16Z</time>
      </trkpt>
      <trkpt lat="46.54566" lon="-0.7449">
        <ele>59.8</ele>
        <time>2022-06-19T07:09:22Z</time>
      </trkpt>
      <trkpt lat="46.54566" lon="-0.74488">
        <ele>59.8</ele>
        <time>2022-06-19T07:09:23Z</time>
      </trkpt>
      <trkpt lat="46.54569" lon="-0.74479">
        <ele>60.4</ele>
        <time>2022-06-19T07:09:27Z</time>
      </trkpt>
      <trkpt lat="46.54571" lon="-0.74474">
        <ele>60.8</ele>
        <time>2022-06-19T07:09:29Z</time>
      </trkpt>
      <trkpt lat="46.54576" lon="-0.74464">
        <ele>62</ele>
        <time>2022-06-19T07:09:33Z</time>
      </trkpt>
      <trkpt lat="46.54579" lon="-0.74457">
        <ele>62.4</ele>
        <time>2022-06-19T07:09:36Z</time>
      </trkpt>
      <trkpt lat="46.54586" lon="-0.74444">
        <ele>63.2</ele>
        <time>2022-06-19T07:09:41Z</time>
      </trkpt>
      <trkpt lat="46.54591" lon="-0.74434">
        <ele>63.8</ele>
        <time>2022-06-19T07:09:45Z</time>
      </trkpt>
      <trkpt lat="46.54595" lon="-0.74427">
        <ele>64.2</ele>
        <time>2022-06-19T07:09:48Z</time>
      </trkpt>
      <trkpt lat="46.54604" lon="-0.74414">
        <ele>64.6</ele>
        <time>2022-06-19T07:09:54Z</time>
      </trkpt>
      <trkpt lat="46.54619" lon="-0.74393">
        <ele>65.2</ele>
        <time>2022-06-19T07:10:03Z</time>
      </trkpt>
      <trkpt lat="46.54628" lon="-0.74381">
        <ele>65.4</ele>
        <time>2022-06-19T07:10:08Z</time>
      </trkpt>
      <trkpt lat="46.54637" lon="-0.74371">
        <ele>65.6</ele>
        <time>2022-06-19T07:10:12Z</time>
      </trkpt>
      <trkpt lat="46.54651" lon="-0.74344">
        <ele>65.8</ele>
        <time>2022-06-19T07:10:19Z</time>
      </trkpt>
      <trkpt lat="46.54671" lon="-0.74296">
        <ele>66</ele>
        <time>2022-06-19T07:10:29Z</time>
      </trkpt>
      <trkpt lat="46.54683" lon="-0.74254">
        <ele>66.4</ele>
        <time>2022-06-19T07:10:36Z</time>
      </trkpt>
      <trkpt lat="46.54687" lon="-0.74242">
        <ele>66.6</ele>
        <time>2022-06-19T07:10:38Z</time>
      </trkpt>
      <trkpt lat="46.54699" lon="-0.74218">
        <ele>66.4</ele>
        <time>2022-06-19T07:10:42Z</time>
      </trkpt>
      <trkpt lat="46.54706" lon="-0.74207">
        <ele>66.4</ele>
        <time>2022-06-19T07:10:44Z</time>
      </trkpt>
      <trkpt lat="46.54728" lon="-0.74171">
        <ele>66.6</ele>
        <time>2022-06-19T07:10:51Z</time>
      </trkpt>
      <trkpt lat="46.5474" lon="-0.74134">
        <ele>67.2</ele>
        <time>2022-06-19T07:10:58Z</time>
      </trkpt>
      <trkpt lat="46.54743" lon="-0.74123">
        <ele>67.6</ele>
        <time>2022-06-19T07:11:00Z</time>
      </trkpt>
      <trkpt lat="46.54752" lon="-0.74097">
        <ele>68.6</ele>
        <time>2022-06-19T07:11:04Z</time>
      </trkpt>
      <trkpt lat="46.54756" lon="-0.74089">
        <ele>69</ele>
        <time>2022-06-19T07:11:06Z</time>
      </trkpt>
      <trkpt lat="46.54773" lon="-0.74073">
        <ele>69.4</ele>
        <time>2022-06-19T07:11:12Z</time>
      </trkpt>
      <trkpt lat="46.5478" lon="-0.74072">
        <ele>69.6</ele>
        <time>2022-06-19T07:11:15Z</time>
      </trkpt>
      <trkpt lat="46.54788" lon="-0.74072">
        <ele>69.8</ele>
        <time>2022-06-19T07:11:19Z</time>
      </trkpt>
      <trkpt lat="46.54805" lon="-0.74072">
        <ele>70.6</ele>
        <time>2022-06-19T07:11:26Z</time>
      </trkpt>
      <trkpt lat="46.54815" lon="-0.74071">
        <ele>70.8</ele>
        <time>2022-06-19T07:11:29Z</time>
      </trkpt>
      <trkpt lat="46.54835" lon="-0.74071">
        <ele>70.8</ele>
        <time>2022-06-19T07:11:34Z</time>
      </trkpt>
      <trkpt lat="46.5487" lon="-0.74058">
        <ele>71.2</ele>
        <time>2022-06-19T07:11:41Z</time>
      </trkpt>
      <trkpt lat="46.54906" lon="-0.74026">
        <ele>72</ele>
        <time>2022-06-19T07:11:51Z</time>
      </trkpt>
      <trkpt lat="46.54938" lon="-0.73993">
        <ele>72.2</ele>
        <time>2022-06-19T07:12:00Z</time>
      </trkpt>
      <trkpt lat="46.54953" lon="-0.73968">
        <ele>72.4</ele>
        <time>2022-06-19T07:12:05Z</time>
      </trkpt>
      <trkpt lat="46.54955" lon="-0.73962">
        <ele>72.4</ele>
        <time>2022-06-19T07:12:06Z</time>
      </trkpt>
      <trkpt lat="46.54956" lon="-0.73957">
        <ele>72.4</ele>
        <time>2022-06-19T07:12:07Z</time>
      </trkpt>
      <trkpt lat="46.54962" lon="-0.73934">
        <ele>72.4</ele>
        <time>2022-06-19T07:12:11Z</time>
      </trkpt>
      <trkpt lat="46.5496" lon="-0.73908">
        <ele>72.8</ele>
        <time>2022-06-19T07:12:16Z</time>
      </trkpt>
      <trkpt lat="46.54961" lon="-0.73902">
        <ele>72.8</ele>
        <time>2022-06-19T07:12:17Z</time>
      </trkpt>
      <trkpt lat="46.54964" lon="-0.7389">
        <ele>72.8</ele>
        <time>2022-06-19T07:12:19Z</time>
      </trkpt>
      <trkpt lat="46.54966" lon="-0.73885">
        <ele>72.6</ele>
        <time>2022-06-19T07:12:20Z</time>
      </trkpt>
      <trkpt lat="46.5498" lon="-0.73846">
        <ele>72.4</ele>
        <time>2022-06-19T07:12:27Z</time>
      </trkpt>
      <trkpt lat="46.54982" lon="-0.7384">
        <ele>72.4</ele>
        <time>2022-06-19T07:12:28Z</time>
      </trkpt>
      <trkpt lat="46.54994" lon="-0.73808">
        <ele>72</ele>
        <time>2022-06-19T07:12:33Z</time>
      </trkpt>
      <trkpt lat="46.55006" lon="-0.73777">
        <ele>70.8</ele>
        <time>2022-06-19T07:12:37Z</time>
      </trkpt>
      <trkpt lat="46.55013" lon="-0.73754">
        <ele>69.8</ele>
        <time>2022-06-19T07:12:40Z</time>
      </trkpt>
      <trkpt lat="46.55022" lon="-0.7371">
        <ele>69</ele>
        <time>2022-06-19T07:12:46Z</time>
      </trkpt>
      <trkpt lat="46.55028" lon="-0.73659">
        <ele>69.2</ele>
        <time>2022-06-19T07:12:52Z</time>
      </trkpt>
      <trkpt lat="46.55033" lon="-0.73635">
        <ele>68.8</ele>
        <time>2022-06-19T07:12:55Z</time>
      </trkpt>
      <trkpt lat="46.55035" lon="-0.73621">
        <ele>68.6</ele>
        <time>2022-06-19T07:12:57Z</time>
      </trkpt>
      <trkpt lat="46.55037" lon="-0.73609">
        <ele>68.4</ele>
        <time>2022-06-19T07:13:00Z</time>
      </trkpt>
      <trkpt lat="46.55038" lon="-0.73603">
        <ele>68.4</ele>
        <time>2022-06-19T07:13:01Z</time>
      </trkpt>
      <trkpt lat="46.55035" lon="-0.73589">
        <ele>68.8</ele>
        <time>2022-06-19T07:13:04Z</time>
      </trkpt>
      <trkpt lat="46.55024" lon="-0.73575">
        <ele>69.4</ele>
        <time>2022-06-19T07:13:09Z</time>
      </trkpt>
      <trkpt lat="46.55012" lon="-0.73563">
        <ele>69.8</ele>
        <time>2022-06-19T07:13:14Z</time>
      </trkpt>
      <trkpt lat="46.55007" lon="-0.73559">
        <ele>70</ele>
        <time>2022-06-19T07:13:16Z</time>
      </trkpt>
      <trkpt lat="46.54991" lon="-0.73543">
        <ele>70.8</ele>
        <time>2022-06-19T07:13:23Z</time>
      </trkpt>
      <trkpt lat="46.54972" lon="-0.73525">
        <ele>71.4</ele>
        <time>2022-06-19T07:13:30Z</time>
      </trkpt>
      <trkpt lat="46.54967" lon="-0.73519">
        <ele>72</ele>
        <time>2022-06-19T07:13:32Z</time>
      </trkpt>
      <trkpt lat="46.54953" lon="-0.73503">
        <ele>72.8</ele>
        <time>2022-06-19T07:13:38Z</time>
      </trkpt>
      <trkpt lat="46.54944" lon="-0.73496">
        <ele>73.2</ele>
        <time>2022-06-19T07:13:41Z</time>
      </trkpt>
      <trkpt lat="46.54937" lon="-0.7349">
        <ele>73.6</ele>
        <time>2022-06-19T07:13:44Z</time>
      </trkpt>
      <trkpt lat="46.54917" lon="-0.73474">
        <ele>74.2</ele>
        <time>2022-06-19T07:13:52Z</time>
      </trkpt>
      <trkpt lat="46.54906" lon="-0.73463">
        <ele>74.4</ele>
        <time>2022-06-19T07:13:56Z</time>
      </trkpt>
      <trkpt lat="46.54901" lon="-0.73459">
        <ele>74.8</ele>
        <time>2022-06-19T07:13:58Z</time>
      </trkpt>
      <trkpt lat="46.54886" lon="-0.73445">
        <ele>75.4</ele>
        <time>2022-06-19T07:14:04Z</time>
      </trkpt>
      <trkpt lat="46.54884" lon="-0.73441">
        <ele>75.4</ele>
        <time>2022-06-19T07:14:05Z</time>
      </trkpt>
      <trkpt lat="46.54883" lon="-0.73423">
        <ele>75.4</ele>
        <time>2022-06-19T07:14:09Z</time>
      </trkpt>
      <trkpt lat="46.54882" lon="-0.7341">
        <ele>74.8</ele>
        <time>2022-06-19T07:14:12Z</time>
      </trkpt>
      <trkpt lat="46.54885" lon="-0.73405">
        <ele>74.6</ele>
        <time>2022-06-19T07:14:14Z</time>
      </trkpt>
      <trkpt lat="46.54887" lon="-0.73405">
        <ele>74.4</ele>
        <time>2022-06-19T07:14:15Z</time>
      </trkpt>
      <trkpt lat="46.54899" lon="-0.73404">
        <ele>73.8</ele>
        <time>2022-06-19T07:14:20Z</time>
      </trkpt>
      <trkpt lat="46.54917" lon="-0.73404">
        <ele>73.2</ele>
        <time>2022-06-19T07:14:26Z</time>
      </trkpt>
      <trkpt lat="46.54923" lon="-0.73405">
        <ele>72.8</ele>
        <time>2022-06-19T07:14:28Z</time>
      </trkpt>
      <trkpt lat="46.54938" lon="-0.73406">
        <ele>72.2</ele>
        <time>2022-06-19T07:14:32Z</time>
      </trkpt>
      <trkpt lat="46.54949" lon="-0.73408">
        <ele>71.8</ele>
        <time>2022-06-19T07:14:35Z</time>
      </trkpt>
      <trkpt lat="46.54957" lon="-0.73408">
        <ele>71.6</ele>
        <time>2022-06-19T07:14:37Z</time>
      </trkpt>
      <trkpt lat="46.5497" lon="-0.73409">
        <ele>71.2</ele>
        <time>2022-06-19T07:14:40Z</time>
      </trkpt>
      <trkpt lat="46.54974" lon="-0.73408">
        <ele>70.8</ele>
        <time>2022-06-19T07:14:41Z</time>
      </trkpt>
      <trkpt lat="46.54987" lon="-0.73409">
        <ele>70</ele>
        <time>2022-06-19T07:14:44Z</time>
      </trkpt>
      <trkpt lat="46.55019" lon="-0.73409">
        <ele>69.8</ele>
        <time>2022-06-19T07:14:50Z</time>
      </trkpt>
      <trkpt lat="46.55042" lon="-0.73409">
        <ele>69</ele>
        <time>2022-06-19T07:14:54Z</time>
      </trkpt>
      <trkpt lat="46.55059" lon="-0.73409">
        <ele>68.4</ele>
        <time>2022-06-19T07:14:57Z</time>
      </trkpt>
      <trkpt lat="46.55083" lon="-0.73412">
        <ele>67.6</ele>
        <time>2022-06-19T07:15:01Z</time>
      </trkpt>
      <trkpt lat="46.55083" lon="-0.73412">
        <ele>65.6</ele>
        <time>2022-06-19T07:15:03Z</time>
      </trkpt>
      <trkpt lat="46.55109" lon="-0.73414">
        <ele>64</ele>
        <time>2022-06-19T07:15:05Z</time>
      </trkpt>
      <trkpt lat="46.55128" lon="-0.73416">
        <ele>62.2</ele>
        <time>2022-06-19T07:15:08Z</time>
      </trkpt>
      <trkpt lat="46.55139" lon="-0.73418">
        <ele>60.8</ele>
        <time>2022-06-19T07:15:10Z</time>
      </trkpt>
      <trkpt lat="46.55148" lon="-0.73418">
        <ele>59.6</ele>
        <time>2022-06-19T07:15:13Z</time>
      </trkpt>
      <trkpt lat="46.5515" lon="-0.73418">
        <ele>59.4</ele>
        <time>2022-06-19T07:15:14Z</time>
      </trkpt>
      <trkpt lat="46.55156" lon="-0.73417">
        <ele>59.2</ele>
        <time>2022-06-19T07:15:18Z</time>
      </trkpt>
      <trkpt lat="46.55161" lon="-0.73416">
        <ele>59.4</ele>
        <time>2022-06-19T07:15:20Z</time>
      </trkpt>
      <trkpt lat="46.55163" lon="-0.73414">
        <ele>59.4</ele>
        <time>2022-06-19T07:15:21Z</time>
      </trkpt>
      <trkpt lat="46.55168" lon="-0.73398">
        <ele>60.4</ele>
        <time>2022-06-19T07:15:25Z</time>
      </trkpt>
      <trkpt lat="46.55172" lon="-0.73354">
        <ele>60.6</ele>
        <time>2022-06-19T07:15:32Z</time>
      </trkpt>
      <trkpt lat="46.55173" lon="-0.73337">
        <ele>60.6</ele>
        <time>2022-06-19T07:15:35Z</time>
      </trkpt>
      <trkpt lat="46.55172" lon="-0.73315">
        <ele>61</ele>
        <time>2022-06-19T07:15:39Z</time>
      </trkpt>
      <trkpt lat="46.55172" lon="-0.73289">
        <ele>61.4</ele>
        <time>2022-06-19T07:15:45Z</time>
      </trkpt>
      <trkpt lat="46.55171" lon="-0.73275">
        <ele>62</ele>
        <time>2022-06-19T07:15:48Z</time>
      </trkpt>
      <trkpt lat="46.55169" lon="-0.73254">
        <ele>63.4</ele>
        <time>2022-06-19T07:15:53Z</time>
      </trkpt>
      <trkpt lat="46.55169" lon="-0.73251">
        <ele>63.8</ele>
        <time>2022-06-19T07:15:54Z</time>
      </trkpt>
      <trkpt lat="46.55168" lon="-0.73225">
        <ele>64.4</ele>
        <time>2022-06-19T07:16:00Z</time>
      </trkpt>
      <trkpt lat="46.55168" lon="-0.73216">
        <ele>65</ele>
        <time>2022-06-19T07:16:02Z</time>
      </trkpt>
      <trkpt lat="46.55172" lon="-0.73187">
        <ele>65.4</ele>
        <time>2022-06-19T07:16:08Z</time>
      </trkpt>
      <trkpt lat="46.55179" lon="-0.73147">
        <ele>64.4</ele>
        <time>2022-06-19T07:16:14Z</time>
      </trkpt>
      <trkpt lat="46.55189" lon="-0.73117">
        <ele>63.4</ele>
        <time>2022-06-19T07:16:19Z</time>
      </trkpt>
      <trkpt lat="46.55191" lon="-0.73114">
        <ele>63</ele>
        <time>2022-06-19T07:16:20Z</time>
      </trkpt>
      <trkpt lat="46.55196" lon="-0.73099">
        <ele>62.8</ele>
        <time>2022-06-19T07:16:24Z</time>
      </trkpt>
      <trkpt lat="46.552" lon="-0.7307">
        <ele>63.4</ele>
        <time>2022-06-19T07:16:31Z</time>
      </trkpt>
      <trkpt lat="46.55207" lon="-0.73036">
        <ele>64.2</ele>
        <time>2022-06-19T07:16:38Z</time>
      </trkpt>
      <trkpt lat="46.55207" lon="-0.73031">
        <ele>64.4</ele>
        <time>2022-06-19T07:16:39Z</time>
      </trkpt>
      <trkpt lat="46.55203" lon="-0.7301">
        <ele>64.6</ele>
        <time>2022-06-19T07:16:44Z</time>
      </trkpt>
      <trkpt lat="46.55187" lon="-0.72981">
        <ele>64.4</ele>
        <time>2022-06-19T07:16:51Z</time>
      </trkpt>
      <trkpt lat="46.55171" lon="-0.72956">
        <ele>65.4</ele>
        <time>2022-06-19T07:16:57Z</time>
      </trkpt>
      <trkpt lat="46.55169" lon="-0.72952">
        <ele>65.6</ele>
        <time>2022-06-19T07:16:58Z</time>
      </trkpt>
      <trkpt lat="46.5516" lon="-0.72925">
        <ele>65.8</ele>
        <time>2022-06-19T07:17:04Z</time>
      </trkpt>
      <trkpt lat="46.5516" lon="-0.72898">
        <ele>66.6</ele>
        <time>2022-06-19T07:17:10Z</time>
      </trkpt>
      <trkpt lat="46.5516" lon="-0.72893">
        <ele>66.6</ele>
        <time>2022-06-19T07:17:11Z</time>
      </trkpt>
      <trkpt lat="46.55159" lon="-0.72869">
        <ele>67</ele>
        <time>2022-06-19T07:17:17Z</time>
      </trkpt>
      <trkpt lat="46.55157" lon="-0.72848">
        <ele>67.6</ele>
        <time>2022-06-19T07:17:23Z</time>
      </trkpt>
      <trkpt lat="46.55163" lon="-0.72828">
        <ele>68.6</ele>
        <time>2022-06-19T07:17:28Z</time>
      </trkpt>
      <trkpt lat="46.55163" lon="-0.72823">
        <ele>68.6</ele>
        <time>2022-06-19T07:17:29Z</time>
      </trkpt>
      <trkpt lat="46.55169" lon="-0.72794">
        <ele>68.8</ele>
        <time>2022-06-19T07:17:36Z</time>
      </trkpt>
      <trkpt lat="46.55176" lon="-0.72762">
        <ele>69</ele>
        <time>2022-06-19T07:17:44Z</time>
      </trkpt>
      <trkpt lat="46.55182" lon="-0.72732">
        <ele>69.4</ele>
        <time>2022-06-19T07:17:51Z</time>
      </trkpt>
      <trkpt lat="46.55188" lon="-0.727">
        <ele>69.2</ele>
        <time>2022-06-19T07:17:57Z</time>
      </trkpt>
      <trkpt lat="46.55191" lon="-0.72665">
        <ele>69.2</ele>
        <time>2022-06-19T07:18:04Z</time>
      </trkpt>
      <trkpt lat="46.55192" lon="-0.72656">
        <ele>69.6</ele>
        <time>2022-06-19T07:18:06Z</time>
      </trkpt>
      <trkpt lat="46.55193" lon="-0.7264">
        <ele>70.8</ele>
        <time>2022-06-19T07:18:10Z</time>
      </trkpt>
      <trkpt lat="46.55196" lon="-0.72622">
        <ele>72</ele>
        <time>2022-06-19T07:18:15Z</time>
      </trkpt>
      <trkpt lat="46.55199" lon="-0.72611">
        <ele>72</ele>
        <time>2022-06-19T07:18:18Z</time>
      </trkpt>
      <trkpt lat="46.55208" lon="-0.72577">
        <ele>72.6</ele>
        <time>2022-06-19T07:18:27Z</time>
      </trkpt>
      <trkpt lat="46.55211" lon="-0.72569">
        <ele>73</ele>
        <time>2022-06-19T07:18:29Z</time>
      </trkpt>
      <trkpt lat="46.55216" lon="-0.72554">
        <ele>73.2</ele>
        <time>2022-06-19T07:18:33Z</time>
      </trkpt>
      <trkpt lat="46.55231" lon="-0.72528">
        <ele>73</ele>
        <time>2022-06-19T07:18:40Z</time>
      </trkpt>
      <trkpt lat="46.55246" lon="-0.72503">
        <ele>72</ele>
        <time>2022-06-19T07:18:46Z</time>
      </trkpt>
      <trkpt lat="46.55255" lon="-0.72485">
        <ele>72.4</ele>
        <time>2022-06-19T07:18:50Z</time>
      </trkpt>
      <trkpt lat="46.55266" lon="-0.7246">
        <ele>72</ele>
        <time>2022-06-19T07:18:56Z</time>
      </trkpt>
      <trkpt lat="46.55268" lon="-0.72439">
        <ele>72.4</ele>
        <time>2022-06-19T07:19:01Z</time>
      </trkpt>
      <trkpt lat="46.55271" lon="-0.72417">
        <ele>72.4</ele>
        <time>2022-06-19T07:19:06Z</time>
      </trkpt>
      <trkpt lat="46.55281" lon="-0.72398">
        <ele>73</ele>
        <time>2022-06-19T07:19:11Z</time>
      </trkpt>
      <trkpt lat="46.55283" lon="-0.72394">
        <ele>73</ele>
        <time>2022-06-19T07:19:12Z</time>
      </trkpt>
      <trkpt lat="46.55297" lon="-0.72379">
        <ele>73.2</ele>
        <time>2022-06-19T07:19:18Z</time>
      </trkpt>
      <trkpt lat="46.55311" lon="-0.72367">
        <ele>74</ele>
        <time>2022-06-19T07:19:23Z</time>
      </trkpt>
      <trkpt lat="46.55314" lon="-0.72366">
        <ele>74</ele>
        <time>2022-06-19T07:19:24Z</time>
      </trkpt>
      <trkpt lat="46.5533" lon="-0.72359">
        <ele>75.2</ele>
        <time>2022-06-19T07:19:30Z</time>
      </trkpt>
      <trkpt lat="46.55343" lon="-0.72345">
        <ele>76.2</ele>
        <time>2022-06-19T07:19:35Z</time>
      </trkpt>
      <trkpt lat="46.55349" lon="-0.72341">
        <ele>76.6</ele>
        <time>2022-06-19T07:19:37Z</time>
      </trkpt>
      <trkpt lat="46.55357" lon="-0.72335">
        <ele>77.2</ele>
        <time>2022-06-19T07:19:40Z</time>
      </trkpt>
      <trkpt lat="46.55372" lon="-0.72326">
        <ele>77.8</ele>
        <time>2022-06-19T07:19:45Z</time>
      </trkpt>
      <trkpt lat="46.55386" lon="-0.72314">
        <ele>77.6</ele>
        <time>2022-06-19T07:19:50Z</time>
      </trkpt>
      <trkpt lat="46.55396" lon="-0.723">
        <ele>77.8</ele>
        <time>2022-06-19T07:19:55Z</time>
      </trkpt>
      <trkpt lat="46.55401" lon="-0.72299">
        <ele>78</ele>
        <time>2022-06-19T07:19:57Z</time>
      </trkpt>
      <trkpt lat="46.55404" lon="-0.723">
        <ele>78.2</ele>
        <time>2022-06-19T07:19:58Z</time>
      </trkpt>
      <trkpt lat="46.55407" lon="-0.72303">
        <ele>78.4</ele>
        <time>2022-06-19T07:19:59Z</time>
      </trkpt>
      <trkpt lat="46.55422" lon="-0.72318">
        <ele>79</ele>
        <time>2022-06-19T07:20:04Z</time>
      </trkpt>
      <trkpt lat="46.55437" lon="-0.72336">
        <ele>79.4</ele>
        <time>2022-06-19T07:20:09Z</time>
      </trkpt>
      <trkpt lat="46.55443" lon="-0.72343">
        <ele>79.8</ele>
        <time>2022-06-19T07:20:11Z</time>
      </trkpt>
      <trkpt lat="46.55462" lon="-0.72363">
        <ele>80.4</ele>
        <time>2022-06-19T07:20:17Z</time>
      </trkpt>
      <trkpt lat="46.55468" lon="-0.72371">
        <ele>80.6</ele>
        <time>2022-06-19T07:20:19Z</time>
      </trkpt>
      <trkpt lat="46.5549" lon="-0.724">
        <ele>80.8</ele>
        <time>2022-06-19T07:20:26Z</time>
      </trkpt>
      <trkpt lat="46.55511" lon="-0.72429">
        <ele>80.4</ele>
        <time>2022-06-19T07:20:32Z</time>
      </trkpt>
      <trkpt lat="46.55534" lon="-0.7246">
        <ele>80</ele>
        <time>2022-06-19T07:20:39Z</time>
      </trkpt>
      <trkpt lat="46.55553" lon="-0.72488">
        <ele>79.4</ele>
        <time>2022-06-19T07:20:44Z</time>
      </trkpt>
      <trkpt lat="46.55557" lon="-0.72494">
        <ele>79.2</ele>
        <time>2022-06-19T07:20:45Z</time>
      </trkpt>
      <trkpt lat="46.5558" lon="-0.72526">
        <ele>78.6</ele>
        <time>2022-06-19T07:20:51Z</time>
      </trkpt>
      <trkpt lat="46.55591" lon="-0.72541">
        <ele>78.4</ele>
        <time>2022-06-19T07:20:54Z</time>
      </trkpt>
      <trkpt lat="46.55605" lon="-0.72558">
        <ele>79</ele>
        <time>2022-06-19T07:20:58Z</time>
      </trkpt>
      <trkpt lat="46.55608" lon="-0.72562">
        <ele>79.4</ele>
        <time>2022-06-19T07:20:59Z</time>
      </trkpt>
      <trkpt lat="46.55618" lon="-0.72574">
        <ele>80</ele>
        <time>2022-06-19T07:21:03Z</time>
      </trkpt>
      <trkpt lat="46.5562" lon="-0.72578">
        <ele>80.4</ele>
        <time>2022-06-19T07:21:04Z</time>
      </trkpt>
      <trkpt lat="46.55633" lon="-0.72594">
        <ele>81.6</ele>
        <time>2022-06-19T07:21:09Z</time>
      </trkpt>
      <trkpt lat="46.55635" lon="-0.72597">
        <ele>81.8</ele>
        <time>2022-06-19T07:21:10Z</time>
      </trkpt>
      <trkpt lat="46.55646" lon="-0.72622">
        <ele>82.6</ele>
        <time>2022-06-19T07:21:16Z</time>
      </trkpt>
      <trkpt lat="46.55648" lon="-0.72626">
        <ele>82.8</ele>
        <time>2022-06-19T07:21:17Z</time>
      </trkpt>
      <trkpt lat="46.55661" lon="-0.72642">
        <ele>83.6</ele>
        <time>2022-06-19T07:21:22Z</time>
      </trkpt>
      <trkpt lat="46.55664" lon="-0.72645">
        <ele>83.6</ele>
        <time>2022-06-19T07:21:23Z</time>
      </trkpt>
      <trkpt lat="46.55667" lon="-0.72648">
        <ele>83.8</ele>
        <time>2022-06-19T07:21:24Z</time>
      </trkpt>
      <trkpt lat="46.55682" lon="-0.72669">
        <ele>84.8</ele>
        <time>2022-06-19T07:21:30Z</time>
      </trkpt>
      <trkpt lat="46.55687" lon="-0.72678">
        <ele>84.8</ele>
        <time>2022-06-19T07:21:32Z</time>
      </trkpt>
      <trkpt lat="46.55706" lon="-0.72701">
        <ele>85.2</ele>
        <time>2022-06-19T07:21:38Z</time>
      </trkpt>
      <trkpt lat="46.55727" lon="-0.72733">
        <ele>85.6</ele>
        <time>2022-06-19T07:21:46Z</time>
      </trkpt>
      <trkpt lat="46.5574" lon="-0.72751">
        <ele>86</ele>
        <time>2022-06-19T07:21:51Z</time>
      </trkpt>
      <trkpt lat="46.55743" lon="-0.72755">
        <ele>86.2</ele>
        <time>2022-06-19T07:21:52Z</time>
      </trkpt>
      <trkpt lat="46.55766" lon="-0.72784">
        <ele>86.4</ele>
        <time>2022-06-19T07:21:58Z</time>
      </trkpt>
      <trkpt lat="46.55793" lon="-0.7282">
        <ele>86</ele>
        <time>2022-06-19T07:22:05Z</time>
      </trkpt>
      <trkpt lat="46.55821" lon="-0.72857">
        <ele>85.4</ele>
        <time>2022-06-19T07:22:12Z</time>
      </trkpt>
      <trkpt lat="46.55834" lon="-0.72874">
        <ele>84.8</ele>
        <time>2022-06-19T07:22:15Z</time>
      </trkpt>
      <trkpt lat="46.55856" lon="-0.72904">
        <ele>83.8</ele>
        <time>2022-06-19T07:22:20Z</time>
      </trkpt>
      <trkpt lat="46.55881" lon="-0.72935">
        <ele>82.4</ele>
        <time>2022-06-19T07:22:25Z</time>
      </trkpt>
      <trkpt lat="46.55895" lon="-0.72953">
        <ele>81.6</ele>
        <time>2022-06-19T07:22:28Z</time>
      </trkpt>
      <trkpt lat="46.55898" lon="-0.72957">
        <ele>81.2</ele>
        <time>2022-06-19T07:22:29Z</time>
      </trkpt>
      <trkpt lat="46.55909" lon="-0.72972">
        <ele>80.4</ele>
        <time>2022-06-19T07:22:32Z</time>
      </trkpt>
      <trkpt lat="46.55912" lon="-0.72973">
        <ele>80.2</ele>
        <time>2022-06-19T07:22:33Z</time>
      </trkpt>
      <trkpt lat="46.55916" lon="-0.72975">
        <ele>80</ele>
        <time>2022-06-19T07:22:34Z</time>
      </trkpt>
      <trkpt lat="46.55921" lon="-0.72974">
        <ele>79.8</ele>
        <time>2022-06-19T07:22:36Z</time>
      </trkpt>
      <trkpt lat="46.55931" lon="-0.7296">
        <ele>79.8</ele>
        <time>2022-06-19T07:22:41Z</time>
      </trkpt>
      <trkpt lat="46.55939" lon="-0.72948">
        <ele>80.4</ele>
        <time>2022-06-19T07:22:46Z</time>
      </trkpt>
      <trkpt lat="46.55946" lon="-0.72933">
        <ele>80.2</ele>
        <time>2022-06-19T07:22:51Z</time>
      </trkpt>
      <trkpt lat="46.55956" lon="-0.72912">
        <ele>81.2</ele>
        <time>2022-06-19T07:22:58Z</time>
      </trkpt>
      <trkpt lat="46.55958" lon="-0.72907">
        <ele>81.2</ele>
        <time>2022-06-19T07:22:59Z</time>
      </trkpt>
      <trkpt lat="46.55965" lon="-0.72882">
        <ele>82.2</ele>
        <time>2022-06-19T07:23:04Z</time>
      </trkpt>
      <trkpt lat="46.55973" lon="-0.72854">
        <ele>83.4</ele>
        <time>2022-06-19T07:23:09Z</time>
      </trkpt>
      <trkpt lat="46.55975" lon="-0.72849">
        <ele>83.6</ele>
        <time>2022-06-19T07:23:10Z</time>
      </trkpt>
      <trkpt lat="46.55983" lon="-0.72826">
        <ele>84</ele>
        <time>2022-06-19T07:23:16Z</time>
      </trkpt>
      <trkpt lat="46.55988" lon="-0.72801">
        <ele>84.4</ele>
        <time>2022-06-19T07:23:21Z</time>
      </trkpt>
      <trkpt lat="46.55989" lon="-0.72796">
        <ele>84.4</ele>
        <time>2022-06-19T07:23:22Z</time>
      </trkpt>
      <trkpt lat="46.55999" lon="-0.7276">
        <ele>85</ele>
        <time>2022-06-19T07:23:28Z</time>
      </trkpt>
      <trkpt lat="46.56008" lon="-0.7273">
        <ele>85.4</ele>
        <time>2022-06-19T07:23:33Z</time>
      </trkpt>
      <trkpt lat="46.5601" lon="-0.72726">
        <ele>85.4</ele>
        <time>2022-06-19T07:23:34Z</time>
      </trkpt>
      <trkpt lat="46.5602" lon="-0.72695">
        <ele>84.6</ele>
        <time>2022-06-19T07:23:40Z</time>
      </trkpt>
      <trkpt lat="46.56023" lon="-0.72684">
        <ele>85.6</ele>
        <time>2022-06-19T07:23:42Z</time>
      </trkpt>
      <trkpt lat="46.56027" lon="-0.72664">
        <ele>86</ele>
        <time>2022-06-19T07:23:46Z</time>
      </trkpt>
      <trkpt lat="46.56034" lon="-0.72632">
        <ele>86.6</ele>
        <time>2022-06-19T07:23:52Z</time>
      </trkpt>
      <trkpt lat="46.56046" lon="-0.72594">
        <ele>87.2</ele>
        <time>2022-06-19T07:24:00Z</time>
      </trkpt>
      <trkpt lat="46.56055" lon="-0.72558">
        <ele>87.4</ele>
        <time>2022-06-19T07:24:06Z</time>
      </trkpt>
      <trkpt lat="46.5606" lon="-0.72536">
        <ele>87.6</ele>
        <time>2022-06-19T07:24:10Z</time>
      </trkpt>
      <trkpt lat="46.56064" lon="-0.72519">
        <ele>87.8</ele>
        <time>2022-06-19T07:24:14Z</time>
      </trkpt>
      <trkpt lat="46.56076" lon="-0.72488">
        <ele>87.2</ele>
        <time>2022-06-19T07:24:20Z</time>
      </trkpt>
      <trkpt lat="46.5609" lon="-0.72443">
        <ele>86.6</ele>
        <time>2022-06-19T07:24:27Z</time>
      </trkpt>
      <trkpt lat="46.56101" lon="-0.72403">
        <ele>85.4</ele>
        <time>2022-06-19T07:24:33Z</time>
      </trkpt>
      <trkpt lat="46.56106" lon="-0.72382">
        <ele>84.4</ele>
        <time>2022-06-19T07:24:36Z</time>
      </trkpt>
      <trkpt lat="46.56109" lon="-0.72364">
        <ele>83.6</ele>
        <time>2022-06-19T07:24:39Z</time>
      </trkpt>
      <trkpt lat="46.56111" lon="-0.72355">
        <ele>83.2</ele>
        <time>2022-06-19T07:24:41Z</time>
      </trkpt>
      <trkpt lat="46.56112" lon="-0.72347">
        <ele>82.8</ele>
        <time>2022-06-19T07:24:43Z</time>
      </trkpt>
      <trkpt lat="46.56122" lon="-0.72321">
        <ele>82.4</ele>
        <time>2022-06-19T07:24:49Z</time>
      </trkpt>
      <trkpt lat="46.56127" lon="-0.72301">
        <ele>82.2</ele>
        <time>2022-06-19T07:24:52Z</time>
      </trkpt>
      <trkpt lat="46.56129" lon="-0.7229">
        <ele>82</ele>
        <time>2022-06-19T07:24:54Z</time>
      </trkpt>
      <trkpt lat="46.56132" lon="-0.72281">
        <ele>81.8</ele>
        <time>2022-06-19T07:24:56Z</time>
      </trkpt>
      <trkpt lat="46.56136" lon="-0.72271">
        <ele>81</ele>
        <time>2022-06-19T07:24:58Z</time>
      </trkpt>
      <trkpt lat="46.56142" lon="-0.72252">
        <ele>80.6</ele>
        <time>2022-06-19T07:25:02Z</time>
      </trkpt>
      <trkpt lat="46.56151" lon="-0.72222">
        <ele>81.2</ele>
        <time>2022-06-19T07:25:09Z</time>
      </trkpt>
      <trkpt lat="46.56156" lon="-0.72202">
        <ele>81.4</ele>
        <time>2022-06-19T07:25:14Z</time>
      </trkpt>
      <trkpt lat="46.56161" lon="-0.7218">
        <ele>81.6</ele>
        <time>2022-06-19T07:25:18Z</time>
      </trkpt>
      <trkpt lat="46.56163" lon="-0.72178">
        <ele>81.6</ele>
        <time>2022-06-19T07:25:19Z</time>
      </trkpt>
      <trkpt lat="46.56165" lon="-0.72178">
        <ele>81.8</ele>
        <time>2022-06-19T07:25:20Z</time>
      </trkpt>
      <trkpt lat="46.56167" lon="-0.72178">
        <ele>82.2</ele>
        <time>2022-06-19T07:25:21Z</time>
      </trkpt>
      <trkpt lat="46.56174" lon="-0.72177">
        <ele>82.8</ele>
        <time>2022-06-19T07:25:24Z</time>
      </trkpt>
      <trkpt lat="46.56178" lon="-0.72178">
        <ele>83.2</ele>
        <time>2022-06-19T07:25:26Z</time>
      </trkpt>
      <trkpt lat="46.56189" lon="-0.72179">
        <ele>83.8</ele>
        <time>2022-06-19T07:25:31Z</time>
      </trkpt>
      <trkpt lat="46.56195" lon="-0.7218">
        <ele>84.2</ele>
        <time>2022-06-19T07:25:34Z</time>
      </trkpt>
      <trkpt lat="46.56205" lon="-0.72184">
        <ele>84.6</ele>
        <time>2022-06-19T07:25:38Z</time>
      </trkpt>
      <trkpt lat="46.5622" lon="-0.72187">
        <ele>85.2</ele>
        <time>2022-06-19T07:25:45Z</time>
      </trkpt>
      <trkpt lat="46.56222" lon="-0.72189">
        <ele>85.2</ele>
        <time>2022-06-19T07:25:46Z</time>
      </trkpt>
      <trkpt lat="46.56238" lon="-0.72194">
        <ele>85.2</ele>
        <time>2022-06-19T07:25:51Z</time>
      </trkpt>
      <trkpt lat="46.56256" lon="-0.72202">
        <ele>84.8</ele>
        <time>2022-06-19T07:25:57Z</time>
      </trkpt>
      <trkpt lat="46.56282" lon="-0.72219">
        <ele>84</ele>
        <time>2022-06-19T07:26:04Z</time>
      </trkpt>
      <trkpt lat="46.56286" lon="-0.72221">
        <ele>83.6</ele>
        <time>2022-06-19T07:26:05Z</time>
      </trkpt>
      <trkpt lat="46.56301" lon="-0.72231">
        <ele>82.8</ele>
        <time>2022-06-19T07:26:08Z</time>
      </trkpt>
      <trkpt lat="46.56309" lon="-0.72235">
        <ele>81.6</ele>
        <time>2022-06-19T07:26:10Z</time>
      </trkpt>
      <trkpt lat="46.56315" lon="-0.72238">
        <ele>80.4</ele>
        <time>2022-06-19T07:26:12Z</time>
      </trkpt>
      <trkpt lat="46.56323" lon="-0.72243">
        <ele>79.2</ele>
        <time>2022-06-19T07:26:15Z</time>
      </trkpt>
      <trkpt lat="46.56329" lon="-0.72247">
        <ele>78.2</ele>
        <time>2022-06-19T07:26:17Z</time>
      </trkpt>
      <trkpt lat="46.5633" lon="-0.72248">
        <ele>77.8</ele>
        <time>2022-06-19T07:26:18Z</time>
      </trkpt>
      <trkpt lat="46.56341" lon="-0.7225">
        <ele>77.4</ele>
        <time>2022-06-19T07:26:22Z</time>
      </trkpt>
      <trkpt lat="46.56346" lon="-0.72252">
        <ele>77.2</ele>
        <time>2022-06-19T07:26:25Z</time>
      </trkpt>
      <trkpt lat="46.56348" lon="-0.72252">
        <ele>77</ele>
        <time>2022-06-19T07:26:26Z</time>
      </trkpt>
      <trkpt lat="46.5635" lon="-0.72254">
        <ele>77</ele>
        <time>2022-06-19T07:26:28Z</time>
      </trkpt>
      <trkpt lat="46.56362" lon="-0.72262">
        <ele>77</ele>
        <time>2022-06-19T07:26:36Z</time>
      </trkpt>
      <trkpt lat="46.56363" lon="-0.72261">
        <ele>76</ele>
        <time>2022-06-19T07:26:48Z</time>
      </trkpt>
      <trkpt lat="46.56363" lon="-0.72261">
        <ele>75.4</ele>
        <time>2022-06-19T07:26:50Z</time>
      </trkpt>
      <trkpt lat="46.56366" lon="-0.72262">
        <ele>74.8</ele>
        <time>2022-06-19T07:27:06Z</time>
      </trkpt>
      <trkpt lat="46.56367" lon="-0.72262">
        <ele>74.8</ele>
        <time>2022-06-19T07:27:07Z</time>
      </trkpt>
      <trkpt lat="46.56369" lon="-0.72263">
        <ele>74.2</ele>
        <time>2022-06-19T07:27:23Z</time>
      </trkpt>
      <trkpt lat="46.5637" lon="-0.72262">
        <ele>73.8</ele>
        <time>2022-06-19T07:27:29Z</time>
      </trkpt>
      <trkpt lat="46.56372" lon="-0.72262">
        <ele>74.2</ele>
        <time>2022-06-19T07:27:41Z</time>
      </trkpt>
      <trkpt lat="46.56382" lon="-0.72267">
        <ele>74</ele>
        <time>2022-06-19T07:27:57Z</time>
      </trkpt>
      <trkpt lat="46.56386" lon="-0.72272">
        <ele>74.2</ele>
        <time>2022-06-19T07:28:02Z</time>
      </trkpt>
      <trkpt lat="46.56395" lon="-0.72277">
        <ele>73.8</ele>
        <time>2022-06-19T07:28:09Z</time>
      </trkpt>
      <trkpt lat="46.564" lon="-0.72282">
        <ele>73.4</ele>
        <time>2022-06-19T07:28:13Z</time>
      </trkpt>
      <trkpt lat="46.56412" lon="-0.72285">
        <ele>73.2</ele>
        <time>2022-06-19T07:28:22Z</time>
      </trkpt>
      <trkpt lat="46.56432" lon="-0.72296">
        <ele>74.6</ele>
        <time>2022-06-19T07:28:34Z</time>
      </trkpt>
      <trkpt lat="46.56434" lon="-0.72297">
        <ele>75</ele>
        <time>2022-06-19T07:28:35Z</time>
      </trkpt>
      <trkpt lat="46.56436" lon="-0.72299">
        <ele>75.2</ele>
        <time>2022-06-19T07:28:36Z</time>
      </trkpt>
      <trkpt lat="46.56441" lon="-0.72296">
        <ele>75.6</ele>
        <time>2022-06-19T07:28:39Z</time>
      </trkpt>
      <trkpt lat="46.56442" lon="-0.72296">
        <ele>75.6</ele>
        <time>2022-06-19T07:28:40Z</time>
      </trkpt>
      <trkpt lat="46.56447" lon="-0.72296">
        <ele>75.6</ele>
        <time>2022-06-19T07:28:44Z</time>
      </trkpt>
      <trkpt lat="46.56448" lon="-0.72297">
        <ele>75.6</ele>
        <time>2022-06-19T07:28:45Z</time>
      </trkpt>
      <trkpt lat="46.56449" lon="-0.72303">
        <ele>75.6</ele>
        <time>2022-06-19T07:28:49Z</time>
      </trkpt>
      <trkpt lat="46.56453" lon="-0.72315">
        <ele>76</ele>
        <time>2022-06-19T07:28:53Z</time>
      </trkpt>
      <trkpt lat="46.56454" lon="-0.72318">
        <ele>76</ele>
        <time>2022-06-19T07:28:54Z</time>
      </trkpt>
      <trkpt lat="46.56459" lon="-0.72342">
        <ele>76.4</ele>
        <time>2022-06-19T07:29:01Z</time>
      </trkpt>
      <trkpt lat="46.56463" lon="-0.72356">
        <ele>77</ele>
        <time>2022-06-19T07:29:06Z</time>
      </trkpt>
      <trkpt lat="46.56465" lon="-0.72362">
        <ele>77.2</ele>
        <time>2022-06-19T07:29:08Z</time>
      </trkpt>
      <trkpt lat="46.56466" lon="-0.72382">
        <ele>78.2</ele>
        <time>2022-06-19T07:29:14Z</time>
      </trkpt>
      <trkpt lat="46.56466" lon="-0.72405">
        <ele>78.8</ele>
        <time>2022-06-19T07:29:20Z</time>
      </trkpt>
      <trkpt lat="46.56467" lon="-0.72422">
        <ele>79.4</ele>
        <time>2022-06-19T07:29:25Z</time>
      </trkpt>
      <trkpt lat="46.56468" lon="-0.72432">
        <ele>79.6</ele>
        <time>2022-06-19T07:29:27Z</time>
      </trkpt>
      <trkpt lat="46.56475" lon="-0.72452">
        <ele>80.4</ele>
        <time>2022-06-19T07:29:32Z</time>
      </trkpt>
      <trkpt lat="46.56476" lon="-0.72458">
        <ele>80.6</ele>
        <time>2022-06-19T07:29:34Z</time>
      </trkpt>
      <trkpt lat="46.56476" lon="-0.72475">
        <ele>80.6</ele>
        <time>2022-06-19T07:29:37Z</time>
      </trkpt>
      <trkpt lat="46.56477" lon="-0.72486">
        <ele>80.6</ele>
        <time>2022-06-19T07:29:39Z</time>
      </trkpt>
      <trkpt lat="46.56478" lon="-0.72491">
        <ele>80.8</ele>
        <time>2022-06-19T07:29:40Z</time>
      </trkpt>
      <trkpt lat="46.5648" lon="-0.7252">
        <ele>81.2</ele>
        <time>2022-06-19T07:29:45Z</time>
      </trkpt>
      <trkpt lat="46.56486" lon="-0.72554">
        <ele>80.8</ele>
        <time>2022-06-19T07:29:50Z</time>
      </trkpt>
      <trkpt lat="46.56484" lon="-0.72573">
        <ele>80.4</ele>
        <time>2022-06-19T07:29:52Z</time>
      </trkpt>
      <trkpt lat="46.56484" lon="-0.72596">
        <ele>80.2</ele>
        <time>2022-06-19T07:29:55Z</time>
      </trkpt>
      <trkpt lat="46.56488" lon="-0.72612">
        <ele>80</ele>
        <time>2022-06-19T07:29:57Z</time>
      </trkpt>
      <trkpt lat="46.56485" lon="-0.72634">
        <ele>80.2</ele>
        <time>2022-06-19T07:29:59Z</time>
      </trkpt>
      <trkpt lat="46.56483" lon="-0.72643">
        <ele>80.2</ele>
        <time>2022-06-19T07:30:00Z</time>
      </trkpt>
      <trkpt lat="46.56484" lon="-0.72691">
        <ele>80.4</ele>
        <time>2022-06-19T07:30:06Z</time>
      </trkpt>
      <trkpt lat="46.56477" lon="-0.72717">
        <ele>80.4</ele>
        <time>2022-06-19T07:30:08Z</time>
      </trkpt>
      <trkpt lat="46.56473" lon="-0.7274">
        <ele>80.6</ele>
        <time>2022-06-19T07:30:11Z</time>
      </trkpt>
      <trkpt lat="46.56475" lon="-0.72752">
        <ele>81</ele>
        <time>2022-06-19T07:30:13Z</time>
      </trkpt>
      <trkpt lat="46.56478" lon="-0.7277">
        <ele>81.4</ele>
        <time>2022-06-19T07:30:16Z</time>
      </trkpt>
      <trkpt lat="46.56479" lon="-0.72775">
        <ele>81.6</ele>
        <time>2022-06-19T07:30:17Z</time>
      </trkpt>
      <trkpt lat="46.56487" lon="-0.72805">
        <ele>82.4</ele>
        <time>2022-06-19T07:30:22Z</time>
      </trkpt>
      <trkpt lat="46.56484" lon="-0.72825">
        <ele>82.6</ele>
        <time>2022-06-19T07:30:24Z</time>
      </trkpt>
      <trkpt lat="46.56486" lon="-0.72831">
        <ele>82.8</ele>
        <time>2022-06-19T07:30:25Z</time>
      </trkpt>
      <trkpt lat="46.56487" lon="-0.72855">
        <ele>82.8</ele>
        <time>2022-06-19T07:30:28Z</time>
      </trkpt>
      <trkpt lat="46.56481" lon="-0.7289">
        <ele>83</ele>
        <time>2022-06-19T07:30:32Z</time>
      </trkpt>
      <trkpt lat="46.56482" lon="-0.72944">
        <ele>83.2</ele>
        <time>2022-06-19T07:30:39Z</time>
      </trkpt>
      <trkpt lat="46.56483" lon="-0.72952">
        <ele>83</ele>
        <time>2022-06-19T07:30:40Z</time>
      </trkpt>
      <trkpt lat="46.56484" lon="-0.72995">
        <ele>82.6</ele>
        <time>2022-06-19T07:30:45Z</time>
      </trkpt>
      <trkpt lat="46.56484" lon="-0.73038">
        <ele>82</ele>
        <time>2022-06-19T07:30:50Z</time>
      </trkpt>
      <trkpt lat="46.56484" lon="-0.73049">
        <ele>81.2</ele>
        <time>2022-06-19T07:30:52Z</time>
      </trkpt>
      <trkpt lat="46.56484" lon="-0.73056">
        <ele>80.4</ele>
        <time>2022-06-19T07:30:54Z</time>
      </trkpt>
      <trkpt lat="46.56484" lon="-0.73061">
        <ele>79.8</ele>
        <time>2022-06-19T07:30:55Z</time>
      </trkpt>
      <trkpt lat="46.56482" lon="-0.73073">
        <ele>78.8</ele>
        <time>2022-06-19T07:30:57Z</time>
      </trkpt>
      <trkpt lat="46.5648" lon="-0.7308">
        <ele>78.6</ele>
        <time>2022-06-19T07:30:58Z</time>
      </trkpt>
      <trkpt lat="46.56476" lon="-0.73087">
        <ele>78.2</ele>
        <time>2022-06-19T07:30:59Z</time>
      </trkpt>
      <trkpt lat="46.56461" lon="-0.73109">
        <ele>77.4</ele>
        <time>2022-06-19T07:31:03Z</time>
      </trkpt>
      <trkpt lat="46.56453" lon="-0.73119">
        <ele>77.4</ele>
        <time>2022-06-19T07:31:05Z</time>
      </trkpt>
      <trkpt lat="46.56424" lon="-0.73145">
        <ele>76.2</ele>
        <time>2022-06-19T07:31:11Z</time>
      </trkpt>
      <trkpt lat="46.56409" lon="-0.73156">
        <ele>75.2</ele>
        <time>2022-06-19T07:31:14Z</time>
      </trkpt>
      <trkpt lat="46.56396" lon="-0.73166">
        <ele>74.6</ele>
        <time>2022-06-19T07:31:16Z</time>
      </trkpt>
      <trkpt lat="46.5639" lon="-0.73169">
        <ele>74.4</ele>
        <time>2022-06-19T07:31:17Z</time>
      </trkpt>
      <trkpt lat="46.56375" lon="-0.73176">
        <ele>74.2</ele>
        <time>2022-06-19T07:31:19Z</time>
      </trkpt>
      <trkpt lat="46.56359" lon="-0.73182">
        <ele>73.8</ele>
        <time>2022-06-19T07:31:21Z</time>
      </trkpt>
      <trkpt lat="46.56345" lon="-0.73186">
        <ele>73.2</ele>
        <time>2022-06-19T07:31:23Z</time>
      </trkpt>
      <trkpt lat="46.56321" lon="-0.73197">
        <ele>72.4</ele>
        <time>2022-06-19T07:31:26Z</time>
      </trkpt>
      <trkpt lat="46.56312" lon="-0.73202">
        <ele>72</ele>
        <time>2022-06-19T07:31:27Z</time>
      </trkpt>
      <trkpt lat="46.56278" lon="-0.7322">
        <ele>71</ele>
        <time>2022-06-19T07:31:31Z</time>
      </trkpt>
      <trkpt lat="46.5627" lon="-0.73224">
        <ele>70.2</ele>
        <time>2022-06-19T07:31:32Z</time>
      </trkpt>
      <trkpt lat="46.56261" lon="-0.73229">
        <ele>69.2</ele>
        <time>2022-06-19T07:31:33Z</time>
      </trkpt>
      <trkpt lat="46.56237" lon="-0.73238">
        <ele>68.2</ele>
        <time>2022-06-19T07:31:36Z</time>
      </trkpt>
      <trkpt lat="46.56221" lon="-0.73246">
        <ele>67.6</ele>
        <time>2022-06-19T07:31:38Z</time>
      </trkpt>
      <trkpt lat="46.56207" lon="-0.73253">
        <ele>67</ele>
        <time>2022-06-19T07:31:40Z</time>
      </trkpt>
      <trkpt lat="46.56196" lon="-0.73257">
        <ele>66</ele>
        <time>2022-06-19T07:31:42Z</time>
      </trkpt>
      <trkpt lat="46.5619" lon="-0.73265">
        <ele>65.6</ele>
        <time>2022-06-19T07:31:44Z</time>
      </trkpt>
      <trkpt lat="46.56185" lon="-0.73276">
        <ele>65.2</ele>
        <time>2022-06-19T07:31:46Z</time>
      </trkpt>
      <trkpt lat="46.5618" lon="-0.73286">
        <ele>64.8</ele>
        <time>2022-06-19T07:31:48Z</time>
      </trkpt>
      <trkpt lat="46.56175" lon="-0.73295">
        <ele>64.4</ele>
        <time>2022-06-19T07:31:50Z</time>
      </trkpt>
      <trkpt lat="46.56169" lon="-0.73299">
        <ele>64.2</ele>
        <time>2022-06-19T07:31:52Z</time>
      </trkpt>
      <trkpt lat="46.56149" lon="-0.73311">
        <ele>64</ele>
        <time>2022-06-19T07:31:58Z</time>
      </trkpt>
      <trkpt lat="46.56134" lon="-0.73322">
        <ele>64.8</ele>
        <time>2022-06-19T07:32:03Z</time>
      </trkpt>
      <trkpt lat="46.56114" lon="-0.73341">
        <ele>64</ele>
        <time>2022-06-19T07:32:08Z</time>
      </trkpt>
      <trkpt lat="46.56109" lon="-0.73346">
        <ele>64</ele>
        <time>2022-06-19T07:32:09Z</time>
      </trkpt>
      <trkpt lat="46.561" lon="-0.73354">
        <ele>64</ele>
        <time>2022-06-19T07:32:11Z</time>
      </trkpt>
      <trkpt lat="46.56091" lon="-0.73363">
        <ele>64.2</ele>
        <time>2022-06-19T07:32:13Z</time>
      </trkpt>
      <trkpt lat="46.56083" lon="-0.7337">
        <ele>64.6</ele>
        <time>2022-06-19T07:32:15Z</time>
      </trkpt>
      <trkpt lat="46.56072" lon="-0.7338">
        <ele>65.2</ele>
        <time>2022-06-19T07:32:18Z</time>
      </trkpt>
      <trkpt lat="46.56065" lon="-0.73383">
        <ele>65.8</ele>
        <time>2022-06-19T07:32:20Z</time>
      </trkpt>
      <trkpt lat="46.56062" lon="-0.73384">
        <ele>66.4</ele>
        <time>2022-06-19T07:32:21Z</time>
      </trkpt>
      <trkpt lat="46.56054" lon="-0.7339">
        <ele>67.6</ele>
        <time>2022-06-19T07:32:24Z</time>
      </trkpt>
      <trkpt lat="46.56051" lon="-0.73392">
        <ele>68.2</ele>
        <time>2022-06-19T07:32:25Z</time>
      </trkpt>
      <trkpt lat="46.56046" lon="-0.73395">
        <ele>68.6</ele>
        <time>2022-06-19T07:32:27Z</time>
      </trkpt>
      <trkpt lat="46.56029" lon="-0.73409">
        <ele>68.2</ele>
        <time>2022-06-19T07:32:32Z</time>
      </trkpt>
      <trkpt lat="46.56017" lon="-0.73418">
        <ele>68.4</ele>
        <time>2022-06-19T07:32:35Z</time>
      </trkpt>
      <trkpt lat="46.56009" lon="-0.73427">
        <ele>69.6</ele>
        <time>2022-06-19T07:32:38Z</time>
      </trkpt>
      <trkpt lat="46.56007" lon="-0.73429">
        <ele>69.8</ele>
        <time>2022-06-19T07:32:39Z</time>
      </trkpt>
      <trkpt lat="46.55991" lon="-0.73449">
        <ele>70.8</ele>
        <time>2022-06-19T07:32:44Z</time>
      </trkpt>
      <trkpt lat="46.55988" lon="-0.73453">
        <ele>70.8</ele>
        <time>2022-06-19T07:32:45Z</time>
      </trkpt>
      <trkpt lat="46.5598" lon="-0.73466">
        <ele>70.8</ele>
        <time>2022-06-19T07:32:48Z</time>
      </trkpt>
      <trkpt lat="46.55978" lon="-0.7347">
        <ele>71</ele>
        <time>2022-06-19T07:32:49Z</time>
      </trkpt>
      <trkpt lat="46.55964" lon="-0.7349">
        <ele>71.6</ele>
        <time>2022-06-19T07:32:55Z</time>
      </trkpt>
      <trkpt lat="46.55954" lon="-0.73504">
        <ele>72</ele>
        <time>2022-06-19T07:32:59Z</time>
      </trkpt>
      <trkpt lat="46.55952" lon="-0.73505">
        <ele>72</ele>
        <time>2022-06-19T07:33:00Z</time>
      </trkpt>
      <trkpt lat="46.5595" lon="-0.73505">
        <ele>72.2</ele>
        <time>2022-06-19T07:33:01Z</time>
      </trkpt>
      <trkpt lat="46.55943" lon="-0.73503">
        <ele>72.8</ele>
        <time>2022-06-19T07:33:05Z</time>
      </trkpt>
      <trkpt lat="46.55941" lon="-0.73503">
        <ele>73.2</ele>
        <time>2022-06-19T07:33:06Z</time>
      </trkpt>
      <trkpt lat="46.55935" lon="-0.73499">
        <ele>74.4</ele>
        <time>2022-06-19T07:33:10Z</time>
      </trkpt>
      <trkpt lat="46.55931" lon="-0.73496">
        <ele>74.8</ele>
        <time>2022-06-19T07:33:12Z</time>
      </trkpt>
      <trkpt lat="46.55926" lon="-0.73493">
        <ele>75.4</ele>
        <time>2022-06-19T07:33:14Z</time>
      </trkpt>
      <trkpt lat="46.55911" lon="-0.73481">
        <ele>76.6</ele>
        <time>2022-06-19T07:33:20Z</time>
      </trkpt>
      <trkpt lat="46.55896" lon="-0.73465">
        <ele>76.6</ele>
        <time>2022-06-19T07:33:26Z</time>
      </trkpt>
      <trkpt lat="46.55892" lon="-0.7346">
        <ele>76.4</ele>
        <time>2022-06-19T07:33:28Z</time>
      </trkpt>
      <trkpt lat="46.55884" lon="-0.73451">
        <ele>76.2</ele>
        <time>2022-06-19T07:33:31Z</time>
      </trkpt>
      <trkpt lat="46.55881" lon="-0.73446">
        <ele>76</ele>
        <time>2022-06-19T07:33:32Z</time>
      </trkpt>
      <trkpt lat="46.55875" lon="-0.73439">
        <ele>76</ele>
        <time>2022-06-19T07:33:34Z</time>
      </trkpt>
      <trkpt lat="46.55864" lon="-0.73429">
        <ele>75.6</ele>
        <time>2022-06-19T07:33:37Z</time>
      </trkpt>
      <trkpt lat="46.55857" lon="-0.73422">
        <ele>75.4</ele>
        <time>2022-06-19T07:33:39Z</time>
      </trkpt>
      <trkpt lat="46.5585" lon="-0.73414">
        <ele>75.4</ele>
        <time>2022-06-19T07:33:41Z</time>
      </trkpt>
      <trkpt lat="46.55833" lon="-0.73395">
        <ele>76.8</ele>
        <time>2022-06-19T07:33:46Z</time>
      </trkpt>
      <trkpt lat="46.55827" lon="-0.73389">
        <ele>77</ele>
        <time>2022-06-19T07:33:47Z</time>
      </trkpt>
      <trkpt lat="46.55814" lon="-0.73369">
        <ele>77.8</ele>
        <time>2022-06-19T07:33:52Z</time>
      </trkpt>
      <trkpt lat="46.55812" lon="-0.73365">
        <ele>78</ele>
        <time>2022-06-19T07:33:53Z</time>
      </trkpt>
      <trkpt lat="46.5581" lon="-0.73364">
        <ele>78.2</ele>
        <time>2022-06-19T07:33:54Z</time>
      </trkpt>
      <trkpt lat="46.55797" lon="-0.73359">
        <ele>78.6</ele>
        <time>2022-06-19T07:33:56Z</time>
      </trkpt>
      <trkpt lat="46.55791" lon="-0.73361">
        <ele>78.6</ele>
        <time>2022-06-19T07:33:57Z</time>
      </trkpt>
      <trkpt lat="46.55773" lon="-0.73372">
        <ele>78.4</ele>
        <time>2022-06-19T07:34:01Z</time>
      </trkpt>
      <trkpt lat="46.55746" lon="-0.73396">
        <ele>78</ele>
        <time>2022-06-19T07:34:07Z</time>
      </trkpt>
      <trkpt lat="46.55724" lon="-0.7342">
        <ele>77.8</ele>
        <time>2022-06-19T07:34:12Z</time>
      </trkpt>
      <trkpt lat="46.55697" lon="-0.73454">
        <ele>77.8</ele>
        <time>2022-06-19T07:34:18Z</time>
      </trkpt>
      <trkpt lat="46.55667" lon="-0.73497">
        <ele>77</ele>
        <time>2022-06-19T07:34:24Z</time>
      </trkpt>
      <trkpt lat="46.55635" lon="-0.73542">
        <ele>76.2</ele>
        <time>2022-06-19T07:34:30Z</time>
      </trkpt>
      <trkpt lat="46.55624" lon="-0.73557">
        <ele>75.8</ele>
        <time>2022-06-19T07:34:32Z</time>
      </trkpt>
      <trkpt lat="46.55615" lon="-0.7357">
        <ele>75.2</ele>
        <time>2022-06-19T07:34:34Z</time>
      </trkpt>
      <trkpt lat="46.55611" lon="-0.73575">
        <ele>75</ele>
        <time>2022-06-19T07:34:35Z</time>
      </trkpt>
      <trkpt lat="46.55605" lon="-0.73579">
        <ele>75</ele>
        <time>2022-06-19T07:34:36Z</time>
      </trkpt>
      <trkpt lat="46.55596" lon="-0.73589">
        <ele>74.8</ele>
        <time>2022-06-19T07:34:38Z</time>
      </trkpt>
      <trkpt lat="46.55595" lon="-0.73595">
        <ele>74.2</ele>
        <time>2022-06-19T07:34:39Z</time>
      </trkpt>
      <trkpt lat="46.55594" lon="-0.736">
        <ele>74</ele>
        <time>2022-06-19T07:34:40Z</time>
      </trkpt>
      <trkpt lat="46.55595" lon="-0.73619">
        <ele>73.6</ele>
        <time>2022-06-19T07:34:43Z</time>
      </trkpt>
      <trkpt lat="46.55595" lon="-0.73659">
        <ele>73</ele>
        <time>2022-06-19T07:34:49Z</time>
      </trkpt>
      <trkpt lat="46.55594" lon="-0.73668">
        <ele>72.6</ele>
        <time>2022-06-19T07:34:50Z</time>
      </trkpt>
      <trkpt lat="46.55595" lon="-0.73711">
        <ele>71.4</ele>
        <time>2022-06-19T07:34:56Z</time>
      </trkpt>
      <trkpt lat="46.55593" lon="-0.73722">
        <ele>70.8</ele>
        <time>2022-06-19T07:34:57Z</time>
      </trkpt>
      <trkpt lat="46.55589" lon="-0.73746">
        <ele>70.2</ele>
        <time>2022-06-19T07:34:58Z</time>
      </trkpt>
      <trkpt lat="46.55584" lon="-0.73765">
        <ele>69.8</ele>
        <time>2022-06-19T07:35:02Z</time>
      </trkpt>
      <trkpt lat="46.55582" lon="-0.73773">
        <ele>69</ele>
        <time>2022-06-19T07:35:03Z</time>
      </trkpt>
      <trkpt lat="46.5558" lon="-0.73783">
        <ele>68</ele>
        <time>2022-06-19T07:35:04Z</time>
      </trkpt>
      <trkpt lat="46.55579" lon="-0.73791">
        <ele>67.4</ele>
        <time>2022-06-19T07:35:05Z</time>
      </trkpt>
      <trkpt lat="46.55579" lon="-0.73798">
        <ele>66.8</ele>
        <time>2022-06-19T07:35:06Z</time>
      </trkpt>
      <trkpt lat="46.55579" lon="-0.73805">
        <ele>65.8</ele>
        <time>2022-06-19T07:35:07Z</time>
      </trkpt>
      <trkpt lat="46.55571" lon="-0.73825">
        <ele>64.6</ele>
        <time>2022-06-19T07:35:09Z</time>
      </trkpt>
      <trkpt lat="46.55566" lon="-0.73835">
        <ele>64.2</ele>
        <time>2022-06-19T07:35:10Z</time>
      </trkpt>
      <trkpt lat="46.55564" lon="-0.73841">
        <ele>64</ele>
        <time>2022-06-19T07:35:11Z</time>
      </trkpt>
      <trkpt lat="46.55545" lon="-0.73876">
        <ele>63.6</ele>
        <time>2022-06-19T07:35:15Z</time>
      </trkpt>
      <trkpt lat="46.5554" lon="-0.73886">
        <ele>63.4</ele>
        <time>2022-06-19T07:35:16Z</time>
      </trkpt>
      <trkpt lat="46.55536" lon="-0.73894">
        <ele>62.8</ele>
        <time>2022-06-19T07:35:17Z</time>
      </trkpt>
      <trkpt lat="46.55526" lon="-0.73911">
        <ele>62.4</ele>
        <time>2022-06-19T07:35:19Z</time>
      </trkpt>
      <trkpt lat="46.55522" lon="-0.73917">
        <ele>62.4</ele>
        <time>2022-06-19T07:35:20Z</time>
      </trkpt>
      <trkpt lat="46.55497" lon="-0.73966">
        <ele>62.8</ele>
        <time>2022-06-19T07:35:26Z</time>
      </trkpt>
      <trkpt lat="46.55484" lon="-0.73988">
        <ele>62.4</ele>
        <time>2022-06-19T07:35:29Z</time>
      </trkpt>
      <trkpt lat="46.55475" lon="-0.74003">
        <ele>62.2</ele>
        <time>2022-06-19T07:35:31Z</time>
      </trkpt>
      <trkpt lat="46.55446" lon="-0.74051">
        <ele>60.8</ele>
        <time>2022-06-19T07:35:38Z</time>
      </trkpt>
      <trkpt lat="46.55442" lon="-0.74056">
        <ele>59.8</ele>
        <time>2022-06-19T07:35:39Z</time>
      </trkpt>
      <trkpt lat="46.55438" lon="-0.74064">
        <ele>57.4</ele>
        <time>2022-06-19T07:35:41Z</time>
      </trkpt>
      <trkpt lat="46.55436" lon="-0.74068">
        <ele>56.4</ele>
        <time>2022-06-19T07:35:42Z</time>
      </trkpt>
      <trkpt lat="46.55433" lon="-0.74076">
        <ele>55</ele>
        <time>2022-06-19T07:35:44Z</time>
      </trkpt>
      <trkpt lat="46.55432" lon="-0.74083">
        <ele>54.4</ele>
        <time>2022-06-19T07:35:46Z</time>
      </trkpt>
      <trkpt lat="46.55431" lon="-0.74086">
        <ele>54.2</ele>
        <time>2022-06-19T07:35:47Z</time>
      </trkpt>
      <trkpt lat="46.55434" lon="-0.74094">
        <ele>54.2</ele>
        <time>2022-06-19T07:35:51Z</time>
      </trkpt>
      <trkpt lat="46.55437" lon="-0.74098">
        <ele>54.2</ele>
        <time>2022-06-19T07:35:53Z</time>
      </trkpt>
      <trkpt lat="46.55449" lon="-0.74103">
        <ele>53.8</ele>
        <time>2022-06-19T07:35:59Z</time>
      </trkpt>
      <trkpt lat="46.55464" lon="-0.74104">
        <ele>53.4</ele>
        <time>2022-06-19T07:36:05Z</time>
      </trkpt>
      <trkpt lat="46.55483" lon="-0.74106">
        <ele>53.2</ele>
        <time>2022-06-19T07:36:11Z</time>
      </trkpt>
      <trkpt lat="46.55487" lon="-0.74115">
        <ele>53</ele>
        <time>2022-06-19T07:36:15Z</time>
      </trkpt>
      <trkpt lat="46.55489" lon="-0.74119">
        <ele>53</ele>
        <time>2022-06-19T07:36:16Z</time>
      </trkpt>
      <trkpt lat="46.55491" lon="-0.74128">
        <ele>53</ele>
        <time>2022-06-19T07:36:19Z</time>
      </trkpt>
      <trkpt lat="46.55494" lon="-0.74133">
        <ele>53</ele>
        <time>2022-06-19T07:36:21Z</time>
      </trkpt>
      <trkpt lat="46.55499" lon="-0.74142">
        <ele>53.8</ele>
        <time>2022-06-19T07:36:24Z</time>
      </trkpt>
      <trkpt lat="46.55497" lon="-0.74148">
        <ele>54.6</ele>
        <time>2022-06-19T07:36:26Z</time>
      </trkpt>
      <trkpt lat="46.55496" lon="-0.74151">
        <ele>54.8</ele>
        <time>2022-06-19T07:36:27Z</time>
      </trkpt>
      <trkpt lat="46.55487" lon="-0.74161">
        <ele>55</ele>
        <time>2022-06-19T07:36:31Z</time>
      </trkpt>
      <trkpt lat="46.55468" lon="-0.74182">
        <ele>54.6</ele>
        <time>2022-06-19T07:36:37Z</time>
      </trkpt>
      <trkpt lat="46.55454" lon="-0.74196">
        <ele>56</ele>
        <time>2022-06-19T07:36:43Z</time>
      </trkpt>
      <trkpt lat="46.55436" lon="-0.74208">
        <ele>55.6</ele>
        <time>2022-06-19T07:36:49Z</time>
      </trkpt>
      <trkpt lat="46.55429" lon="-0.74217">
        <ele>55.4</ele>
        <time>2022-06-19T07:36:52Z</time>
      </trkpt>
      <trkpt lat="46.55425" lon="-0.74225">
        <ele>55.4</ele>
        <time>2022-06-19T07:36:54Z</time>
      </trkpt>
      <trkpt lat="46.55421" lon="-0.74238">
        <ele>54.8</ele>
        <time>2022-06-19T07:36:57Z</time>
      </trkpt>
      <trkpt lat="46.5542" lon="-0.74242">
        <ele>54.4</ele>
        <time>2022-06-19T07:36:58Z</time>
      </trkpt>
      <trkpt lat="46.55419" lon="-0.74252">
        <ele>53.6</ele>
        <time>2022-06-19T07:37:00Z</time>
      </trkpt>
      <trkpt lat="46.55418" lon="-0.74256">
        <ele>53.2</ele>
        <time>2022-06-19T07:37:01Z</time>
      </trkpt>
      <trkpt lat="46.55419" lon="-0.74264">
        <ele>53</ele>
        <time>2022-06-19T07:37:03Z</time>
      </trkpt>
      <trkpt lat="46.55422" lon="-0.74271">
        <ele>53</ele>
        <time>2022-06-19T07:37:05Z</time>
      </trkpt>
      <trkpt lat="46.55428" lon="-0.74283">
        <ele>52.6</ele>
        <time>2022-06-19T07:37:09Z</time>
      </trkpt>
      <trkpt lat="46.55428" lon="-0.74286">
        <ele>52.4</ele>
        <time>2022-06-19T07:37:10Z</time>
      </trkpt>
      <trkpt lat="46.55428" lon="-0.74289">
        <ele>52.2</ele>
        <time>2022-06-19T07:37:11Z</time>
      </trkpt>
      <trkpt lat="46.55421" lon="-0.74297">
        <ele>51.6</ele>
        <time>2022-06-19T07:37:14Z</time>
      </trkpt>
      <trkpt lat="46.55417" lon="-0.74299">
        <ele>51</ele>
        <time>2022-06-19T07:37:15Z</time>
      </trkpt>
      <trkpt lat="46.55402" lon="-0.74308">
        <ele>50.4</ele>
        <time>2022-06-19T07:37:18Z</time>
      </trkpt>
      <trkpt lat="46.55397" lon="-0.74311">
        <ele>50.4</ele>
        <time>2022-06-19T07:37:19Z</time>
      </trkpt>
      <trkpt lat="46.55372" lon="-0.74322">
        <ele>50.6</ele>
        <time>2022-06-19T07:37:24Z</time>
      </trkpt>
      <trkpt lat="46.55366" lon="-0.74325">
        <ele>51</ele>
        <time>2022-06-19T07:37:25Z</time>
      </trkpt>
      <trkpt lat="46.55361" lon="-0.74329">
        <ele>50.6</ele>
        <time>2022-06-19T07:37:26Z</time>
      </trkpt>
      <trkpt lat="46.55352" lon="-0.74338">
        <ele>50.2</ele>
        <time>2022-06-19T07:37:28Z</time>
      </trkpt>
      <trkpt lat="46.55342" lon="-0.74345">
        <ele>50</ele>
        <time>2022-06-19T07:37:29Z</time>
      </trkpt>
      <trkpt lat="46.55332" lon="-0.74355">
        <ele>50</ele>
        <time>2022-06-19T07:37:32Z</time>
      </trkpt>
      <trkpt lat="46.55323" lon="-0.74367">
        <ele>50</ele>
        <time>2022-06-19T07:37:34Z</time>
      </trkpt>
      <trkpt lat="46.55319" lon="-0.74373">
        <ele>50.2</ele>
        <time>2022-06-19T07:37:35Z</time>
      </trkpt>
      <trkpt lat="46.55312" lon="-0.74386">
        <ele>50.4</ele>
        <time>2022-06-19T07:37:37Z</time>
      </trkpt>
      <trkpt lat="46.55309" lon="-0.74398">
        <ele>50.6</ele>
        <time>2022-06-19T07:37:39Z</time>
      </trkpt>
      <trkpt lat="46.55312" lon="-0.74409">
        <ele>50.8</ele>
        <time>2022-06-19T07:37:41Z</time>
      </trkpt>
      <trkpt lat="46.55314" lon="-0.74414">
        <ele>50.8</ele>
        <time>2022-06-19T07:37:42Z</time>
      </trkpt>
      <trkpt lat="46.55318" lon="-0.74419">
        <ele>50.8</ele>
        <time>2022-06-19T07:37:43Z</time>
      </trkpt>
      <trkpt lat="46.55322" lon="-0.74424">
        <ele>51.2</ele>
        <time>2022-06-19T07:37:44Z</time>
      </trkpt>
      <trkpt lat="46.55333" lon="-0.74438">
        <ele>51.8</ele>
        <time>2022-06-19T07:37:47Z</time>
      </trkpt>
      <trkpt lat="46.55339" lon="-0.74447">
        <ele>52.2</ele>
        <time>2022-06-19T07:37:49Z</time>
      </trkpt>
      <trkpt lat="46.55355" lon="-0.74468">
        <ele>53.2</ele>
        <time>2022-06-19T07:37:54Z</time>
      </trkpt>
      <trkpt lat="46.55369" lon="-0.74485">
        <ele>54.4</ele>
        <time>2022-06-19T07:37:59Z</time>
      </trkpt>
      <trkpt lat="46.55374" lon="-0.74492">
        <ele>54.8</ele>
        <time>2022-06-19T07:38:01Z</time>
      </trkpt>
      <trkpt lat="46.55384" lon="-0.74506">
        <ele>55.2</ele>
        <time>2022-06-19T07:38:07Z</time>
      </trkpt>
      <trkpt lat="46.55387" lon="-0.74513">
        <ele>55.6</ele>
        <time>2022-06-19T07:38:10Z</time>
      </trkpt>
      <trkpt lat="46.55388" lon="-0.74519">
        <ele>55.8</ele>
        <time>2022-06-19T07:38:12Z</time>
      </trkpt>
      <trkpt lat="46.55379" lon="-0.74534">
        <ele>55.8</ele>
        <time>2022-06-19T07:38:16Z</time>
      </trkpt>
      <trkpt lat="46.55357" lon="-0.7455">
        <ele>55.6</ele>
        <time>2022-06-19T07:38:22Z</time>
      </trkpt>
      <trkpt lat="46.5533" lon="-0.74571">
        <ele>56.4</ele>
        <time>2022-06-19T07:38:29Z</time>
      </trkpt>
      <trkpt lat="46.55313" lon="-0.74582">
        <ele>56.6</ele>
        <time>2022-06-19T07:38:34Z</time>
      </trkpt>
      <trkpt lat="46.55309" lon="-0.74585">
        <ele>56.8</ele>
        <time>2022-06-19T07:38:35Z</time>
      </trkpt>
      <trkpt lat="46.55285" lon="-0.74603">
        <ele>57.8</ele>
        <time>2022-06-19T07:38:41Z</time>
      </trkpt>
      <trkpt lat="46.55281" lon="-0.74607">
        <ele>57.8</ele>
        <time>2022-06-19T07:38:42Z</time>
      </trkpt>
      <trkpt lat="46.55275" lon="-0.74617">
        <ele>58</ele>
        <time>2022-06-19T07:38:44Z</time>
      </trkpt>
      <trkpt lat="46.55272" lon="-0.74622">
        <ele>58</ele>
        <time>2022-06-19T07:38:45Z</time>
      </trkpt>
      <trkpt lat="46.55266" lon="-0.74634">
        <ele>58</ele>
        <time>2022-06-19T07:38:47Z</time>
      </trkpt>
      <trkpt lat="46.55253" lon="-0.74652">
        <ele>57.2</ele>
        <time>2022-06-19T07:38:50Z</time>
      </trkpt>
      <trkpt lat="46.55247" lon="-0.74658">
        <ele>56.4</ele>
        <time>2022-06-19T07:38:51Z</time>
      </trkpt>
      <trkpt lat="46.5523" lon="-0.74672">
        <ele>55.6</ele>
        <time>2022-06-19T07:38:54Z</time>
      </trkpt>
      <trkpt lat="46.55224" lon="-0.74677">
        <ele>55.4</ele>
        <time>2022-06-19T07:38:55Z</time>
      </trkpt>
      <trkpt lat="46.55219" lon="-0.74682">
        <ele>55.4</ele>
        <time>2022-06-19T07:38:56Z</time>
      </trkpt>
      <trkpt lat="46.55203" lon="-0.74696">
        <ele>55.2</ele>
        <time>2022-06-19T07:38:59Z</time>
      </trkpt>
      <trkpt lat="46.55194" lon="-0.74701">
        <ele>55.4</ele>
        <time>2022-06-19T07:39:01Z</time>
      </trkpt>
      <trkpt lat="46.55178" lon="-0.74713">
        <ele>56</ele>
        <time>2022-06-19T07:39:06Z</time>
      </trkpt>
      <trkpt lat="46.55176" lon="-0.7472">
        <ele>56.2</ele>
        <time>2022-06-19T07:39:08Z</time>
      </trkpt>
      <trkpt lat="46.55177" lon="-0.74727">
        <ele>56.6</ele>
        <time>2022-06-19T07:39:10Z</time>
      </trkpt>
      <trkpt lat="46.55184" lon="-0.74754">
        <ele>57.6</ele>
        <time>2022-06-19T07:39:16Z</time>
      </trkpt>
      <trkpt lat="46.5519" lon="-0.74785">
        <ele>58.6</ele>
        <time>2022-06-19T07:39:23Z</time>
      </trkpt>
      <trkpt lat="46.5519" lon="-0.74801">
        <ele>59.8</ele>
        <time>2022-06-19T07:39:27Z</time>
      </trkpt>
      <trkpt lat="46.55189" lon="-0.7481">
        <ele>60</ele>
        <time>2022-06-19T07:39:29Z</time>
      </trkpt>
      <trkpt lat="46.55185" lon="-0.74838">
        <ele>60.8</ele>
        <time>2022-06-19T07:39:36Z</time>
      </trkpt>
      <trkpt lat="46.55184" lon="-0.74842">
        <ele>61</ele>
        <time>2022-06-19T07:39:37Z</time>
      </trkpt>
      <trkpt lat="46.5518" lon="-0.74861">
        <ele>62</ele>
        <time>2022-06-19T07:39:43Z</time>
      </trkpt>
      <trkpt lat="46.55178" lon="-0.74866">
        <ele>62.2</ele>
        <time>2022-06-19T07:39:44Z</time>
      </trkpt>
      <trkpt lat="46.5517" lon="-0.74889">
        <ele>62.6</ele>
        <time>2022-06-19T07:39:51Z</time>
      </trkpt>
      <trkpt lat="46.55166" lon="-0.74899">
        <ele>63.2</ele>
        <time>2022-06-19T07:39:53Z</time>
      </trkpt>
      <trkpt lat="46.55158" lon="-0.74922">
        <ele>63.4</ele>
        <time>2022-06-19T07:39:58Z</time>
      </trkpt>
      <trkpt lat="46.55155" lon="-0.74947">
        <ele>64</ele>
        <time>2022-06-19T07:40:04Z</time>
      </trkpt>
      <trkpt lat="46.55154" lon="-0.74952">
        <ele>64.2</ele>
        <time>2022-06-19T07:40:05Z</time>
      </trkpt>
      <trkpt lat="46.55147" lon="-0.74977">
        <ele>64.2</ele>
        <time>2022-06-19T07:40:10Z</time>
      </trkpt>
      <trkpt lat="46.55143" lon="-0.75005">
        <ele>64.4</ele>
        <time>2022-06-19T07:40:16Z</time>
      </trkpt>
      <trkpt lat="46.55135" lon="-0.75029">
        <ele>65.2</ele>
        <time>2022-06-19T07:40:21Z</time>
      </trkpt>
      <trkpt lat="46.55134" lon="-0.75034">
        <ele>65.4</ele>
        <time>2022-06-19T07:40:22Z</time>
      </trkpt>
      <trkpt lat="46.55128" lon="-0.75061">
        <ele>65.8</ele>
        <time>2022-06-19T07:40:27Z</time>
      </trkpt>
      <trkpt lat="46.55126" lon="-0.75069">
        <ele>66.2</ele>
        <time>2022-06-19T07:40:29Z</time>
      </trkpt>
      <trkpt lat="46.55126" lon="-0.75073">
        <ele>66.2</ele>
        <time>2022-06-19T07:40:30Z</time>
      </trkpt>
      <trkpt lat="46.55122" lon="-0.75103">
        <ele>66.2</ele>
        <time>2022-06-19T07:40:36Z</time>
      </trkpt>
      <trkpt lat="46.55118" lon="-0.7514">
        <ele>65.8</ele>
        <time>2022-06-19T07:40:43Z</time>
      </trkpt>
      <trkpt lat="46.55115" lon="-0.75163">
        <ele>65</ele>
        <time>2022-06-19T07:40:47Z</time>
      </trkpt>
      <trkpt lat="46.55114" lon="-0.75175">
        <ele>64.2</ele>
        <time>2022-06-19T07:40:49Z</time>
      </trkpt>
      <trkpt lat="46.55115" lon="-0.75179">
        <ele>64</ele>
        <time>2022-06-19T07:40:50Z</time>
      </trkpt>
      <trkpt lat="46.55115" lon="-0.75184">
        <ele>63.8</ele>
        <time>2022-06-19T07:40:51Z</time>
      </trkpt>
      <trkpt lat="46.55117" lon="-0.75193">
        <ele>63.8</ele>
        <time>2022-06-19T07:40:53Z</time>
      </trkpt>
      <trkpt lat="46.5512" lon="-0.75201">
        <ele>63.8</ele>
        <time>2022-06-19T07:40:55Z</time>
      </trkpt>
      <trkpt lat="46.55127" lon="-0.75211">
        <ele>64.4</ele>
        <time>2022-06-19T07:40:58Z</time>
      </trkpt>
      <trkpt lat="46.55133" lon="-0.75217">
        <ele>64.8</ele>
        <time>2022-06-19T07:41:00Z</time>
      </trkpt>
      <trkpt lat="46.55136" lon="-0.75219">
        <ele>64.8</ele>
        <time>2022-06-19T07:41:01Z</time>
      </trkpt>
      <trkpt lat="46.55158" lon="-0.75242">
        <ele>65.4</ele>
        <time>2022-06-19T07:41:08Z</time>
      </trkpt>
      <trkpt lat="46.55176" lon="-0.75258">
        <ele>66</ele>
        <time>2022-06-19T07:41:13Z</time>
      </trkpt>
      <trkpt lat="46.5518" lon="-0.75261">
        <ele>66.2</ele>
        <time>2022-06-19T07:41:14Z</time>
      </trkpt>
      <trkpt lat="46.55183" lon="-0.75264">
        <ele>66.4</ele>
        <time>2022-06-19T07:41:15Z</time>
      </trkpt>
      <trkpt lat="46.55187" lon="-0.75268">
        <ele>66.4</ele>
        <time>2022-06-19T07:41:16Z</time>
      </trkpt>
      <trkpt lat="46.55193" lon="-0.75274">
        <ele>67</ele>
        <time>2022-06-19T07:41:18Z</time>
      </trkpt>
      <trkpt lat="46.55202" lon="-0.75282">
        <ele>67.2</ele>
        <time>2022-06-19T07:41:20Z</time>
      </trkpt>
      <trkpt lat="46.55211" lon="-0.75286">
        <ele>67.4</ele>
        <time>2022-06-19T07:41:22Z</time>
      </trkpt>
      <trkpt lat="46.55224" lon="-0.75291">
        <ele>67.4</ele>
        <time>2022-06-19T07:41:25Z</time>
      </trkpt>
      <trkpt lat="46.55232" lon="-0.75294">
        <ele>67.6</ele>
        <time>2022-06-19T07:41:27Z</time>
      </trkpt>
      <trkpt lat="46.55237" lon="-0.75297">
        <ele>67.6</ele>
        <time>2022-06-19T07:41:28Z</time>
      </trkpt>
      <trkpt lat="46.55262" lon="-0.753">
        <ele>67.6</ele>
        <time>2022-06-19T07:41:33Z</time>
      </trkpt>
      <trkpt lat="46.55268" lon="-0.75301">
        <ele>67.8</ele>
        <time>2022-06-19T07:41:34Z</time>
      </trkpt>
      <trkpt lat="46.55295" lon="-0.75302">
        <ele>67.8</ele>
        <time>2022-06-19T07:41:39Z</time>
      </trkpt>
      <trkpt lat="46.55305" lon="-0.75303">
        <ele>68</ele>
        <time>2022-06-19T07:41:41Z</time>
      </trkpt>
      <trkpt lat="46.55318" lon="-0.75308">
        <ele>68</ele>
        <time>2022-06-19T07:41:44Z</time>
      </trkpt>
      <trkpt lat="46.55334" lon="-0.75311">
        <ele>67.8</ele>
        <time>2022-06-19T07:41:47Z</time>
      </trkpt>
      <trkpt lat="46.5537" lon="-0.75318">
        <ele>68.2</ele>
        <time>2022-06-19T07:41:54Z</time>
      </trkpt>
      <trkpt lat="46.55385" lon="-0.75326">
        <ele>68.4</ele>
        <time>2022-06-19T07:41:58Z</time>
      </trkpt>
      <trkpt lat="46.55386" lon="-0.75329">
        <ele>68.4</ele>
        <time>2022-06-19T07:41:59Z</time>
      </trkpt>
      <trkpt lat="46.55387" lon="-0.75333">
        <ele>68.4</ele>
        <time>2022-06-19T07:42:00Z</time>
      </trkpt>
      <trkpt lat="46.55387" lon="-0.75343">
        <ele>68</ele>
        <time>2022-06-19T07:42:02Z</time>
      </trkpt>
      <trkpt lat="46.55386" lon="-0.75354">
        <ele>67.6</ele>
        <time>2022-06-19T07:42:04Z</time>
      </trkpt>
      <trkpt lat="46.55386" lon="-0.7536">
        <ele>67.4</ele>
        <time>2022-06-19T07:42:05Z</time>
      </trkpt>
      <trkpt lat="46.55386" lon="-0.75374">
        <ele>67</ele>
        <time>2022-06-19T07:42:07Z</time>
      </trkpt>
      <trkpt lat="46.55385" lon="-0.75382">
        <ele>66.8</ele>
        <time>2022-06-19T07:42:08Z</time>
      </trkpt>
      <trkpt lat="46.55381" lon="-0.75415">
        <ele>65.4</ele>
        <time>2022-06-19T07:42:12Z</time>
      </trkpt>
      <trkpt lat="46.5538" lon="-0.75424">
        <ele>65</ele>
        <time>2022-06-19T07:42:13Z</time>
      </trkpt>
      <trkpt lat="46.55377" lon="-0.75432">
        <ele>64.8</ele>
        <time>2022-06-19T07:42:14Z</time>
      </trkpt>
      <trkpt lat="46.55375" lon="-0.7544">
        <ele>64.2</ele>
        <time>2022-06-19T07:42:15Z</time>
      </trkpt>
      <trkpt lat="46.5537" lon="-0.75454">
        <ele>62.8</ele>
        <time>2022-06-19T07:42:17Z</time>
      </trkpt>
      <trkpt lat="46.55367" lon="-0.75466">
        <ele>61.6</ele>
        <time>2022-06-19T07:42:19Z</time>
      </trkpt>
      <trkpt lat="46.55366" lon="-0.7547">
        <ele>61.2</ele>
        <time>2022-06-19T07:42:20Z</time>
      </trkpt>
      <trkpt lat="46.5536" lon="-0.7548">
        <ele>60.2</ele>
        <time>2022-06-19T07:42:22Z</time>
      </trkpt>
      <trkpt lat="46.55354" lon="-0.75491">
        <ele>59.8</ele>
        <time>2022-06-19T07:42:26Z</time>
      </trkpt>
      <trkpt lat="46.55346" lon="-0.75512">
        <ele>61.2</ele>
        <time>2022-06-19T07:42:32Z</time>
      </trkpt>
      <trkpt lat="46.55344" lon="-0.75515">
        <ele>61.4</ele>
        <time>2022-06-19T07:42:33Z</time>
      </trkpt>
      <trkpt lat="46.55327" lon="-0.75534">
        <ele>62.4</ele>
        <time>2022-06-19T07:42:39Z</time>
      </trkpt>
      <trkpt lat="46.55325" lon="-0.75539">
        <ele>62.6</ele>
        <time>2022-06-19T07:42:40Z</time>
      </trkpt>
      <trkpt lat="46.55317" lon="-0.75551">
        <ele>63.6</ele>
        <time>2022-06-19T07:42:44Z</time>
      </trkpt>
      <trkpt lat="46.55302" lon="-0.75568">
        <ele>64</ele>
        <time>2022-06-19T07:42:49Z</time>
      </trkpt>
      <trkpt lat="46.55278" lon="-0.75586">
        <ele>64.4</ele>
        <time>2022-06-19T07:42:56Z</time>
      </trkpt>
      <trkpt lat="46.5527" lon="-0.7559">
        <ele>64.6</ele>
        <time>2022-06-19T07:42:58Z</time>
      </trkpt>
      <trkpt lat="46.55247" lon="-0.75601">
        <ele>64.6</ele>
        <time>2022-06-19T07:43:04Z</time>
      </trkpt>
      <trkpt lat="46.55224" lon="-0.75617">
        <ele>65</ele>
        <time>2022-06-19T07:43:10Z</time>
      </trkpt>
      <trkpt lat="46.55216" lon="-0.75625">
        <ele>65</ele>
        <time>2022-06-19T07:43:12Z</time>
      </trkpt>
      <trkpt lat="46.55205" lon="-0.75642">
        <ele>65</ele>
        <time>2022-06-19T07:43:15Z</time>
      </trkpt>
      <trkpt lat="46.55182" lon="-0.75679">
        <ele>64.8</ele>
        <time>2022-06-19T07:43:21Z</time>
      </trkpt>
      <trkpt lat="46.55178" lon="-0.75686">
        <ele>64.8</ele>
        <time>2022-06-19T07:43:22Z</time>
      </trkpt>
      <trkpt lat="46.55175" lon="-0.75694">
        <ele>64.8</ele>
        <time>2022-06-19T07:43:23Z</time>
      </trkpt>
      <trkpt lat="46.55166" lon="-0.75724">
        <ele>64.4</ele>
        <time>2022-06-19T07:43:27Z</time>
      </trkpt>
      <trkpt lat="46.55166" lon="-0.75724">
        <ele>63.2</ele>
        <time>2022-06-19T07:43:31Z</time>
      </trkpt>
      <trkpt lat="46.55149" lon="-0.75771">
        <ele>63</ele>
        <time>2022-06-19T07:43:34Z</time>
      </trkpt>
      <trkpt lat="46.55145" lon="-0.75781">
        <ele>62.8</ele>
        <time>2022-06-19T07:43:36Z</time>
      </trkpt>
      <trkpt lat="46.55137" lon="-0.75797">
        <ele>62</ele>
        <time>2022-06-19T07:43:39Z</time>
      </trkpt>
      <trkpt lat="46.55134" lon="-0.75802">
        <ele>61.8</ele>
        <time>2022-06-19T07:43:40Z</time>
      </trkpt>
      <trkpt lat="46.55126" lon="-0.75811">
        <ele>61</ele>
        <time>2022-06-19T07:43:44Z</time>
      </trkpt>
      <trkpt lat="46.55116" lon="-0.75818">
        <ele>60.4</ele>
        <time>2022-06-19T07:43:47Z</time>
      </trkpt>
      <trkpt lat="46.5511" lon="-0.7582">
        <ele>59.8</ele>
        <time>2022-06-19T07:43:49Z</time>
      </trkpt>
      <trkpt lat="46.55098" lon="-0.75825">
        <ele>58.8</ele>
        <time>2022-06-19T07:43:53Z</time>
      </trkpt>
      <trkpt lat="46.55086" lon="-0.75833">
        <ele>58.8</ele>
        <time>2022-06-19T07:43:59Z</time>
      </trkpt>
      <trkpt lat="46.55076" lon="-0.75843">
        <ele>59.6</ele>
        <time>2022-06-19T07:44:06Z</time>
      </trkpt>
      <trkpt lat="46.55073" lon="-0.75847">
        <ele>59.6</ele>
        <time>2022-06-19T07:44:09Z</time>
      </trkpt>
      <trkpt lat="46.55068" lon="-0.75851">
        <ele>59.6</ele>
        <time>2022-06-19T07:44:12Z</time>
      </trkpt>
      <trkpt lat="46.55064" lon="-0.75853">
        <ele>59.8</ele>
        <time>2022-06-19T07:44:14Z</time>
      </trkpt>
      <trkpt lat="46.55054" lon="-0.75861">
        <ele>60.2</ele>
        <time>2022-06-19T07:44:19Z</time>
      </trkpt>
      <trkpt lat="46.55044" lon="-0.75869">
        <ele>60.8</ele>
        <time>2022-06-19T07:44:23Z</time>
      </trkpt>
      <trkpt lat="46.55039" lon="-0.75873">
        <ele>61.6</ele>
        <time>2022-06-19T07:44:25Z</time>
      </trkpt>
      <trkpt lat="46.55037" lon="-0.75875">
        <ele>61.8</ele>
        <time>2022-06-19T07:44:26Z</time>
      </trkpt>
      <trkpt lat="46.55028" lon="-0.75884">
        <ele>62.8</ele>
        <time>2022-06-19T07:44:31Z</time>
      </trkpt>
      <trkpt lat="46.55027" lon="-0.75887">
        <ele>63</ele>
        <time>2022-06-19T07:44:32Z</time>
      </trkpt>
      <trkpt lat="46.55016" lon="-0.75908">
        <ele>63.4</ele>
        <time>2022-06-19T07:44:39Z</time>
      </trkpt>
      <trkpt lat="46.55008" lon="-0.75924">
        <ele>64</ele>
        <time>2022-06-19T07:44:44Z</time>
      </trkpt>
      <trkpt lat="46.55003" lon="-0.75932">
        <ele>64</ele>
        <time>2022-06-19T07:44:47Z</time>
      </trkpt>
      <trkpt lat="46.54995" lon="-0.75948">
        <ele>65.2</ele>
        <time>2022-06-19T07:44:52Z</time>
      </trkpt>
      <trkpt lat="46.54993" lon="-0.75952">
        <ele>65.4</ele>
        <time>2022-06-19T07:44:53Z</time>
      </trkpt>
      <trkpt lat="46.54981" lon="-0.7598">
        <ele>65.6</ele>
        <time>2022-06-19T07:44:59Z</time>
      </trkpt>
      <trkpt lat="46.54978" lon="-0.75985">
        <ele>65.8</ele>
        <time>2022-06-19T07:45:00Z</time>
      </trkpt>
      <trkpt lat="46.54969" lon="-0.76004">
        <ele>66</ele>
        <time>2022-06-19T07:45:03Z</time>
      </trkpt>
      <trkpt lat="46.54967" lon="-0.7601">
        <ele>66.2</ele>
        <time>2022-06-19T07:45:04Z</time>
      </trkpt>
      <trkpt lat="46.54957" lon="-0.76032">
        <ele>66.4</ele>
        <time>2022-06-19T07:45:08Z</time>
      </trkpt>
      <trkpt lat="46.54955" lon="-0.76038">
        <ele>66.4</ele>
        <time>2022-06-19T07:45:09Z</time>
      </trkpt>
      <trkpt lat="46.54945" lon="-0.7606">
        <ele>66.8</ele>
        <time>2022-06-19T07:45:14Z</time>
      </trkpt>
      <trkpt lat="46.54939" lon="-0.76074">
        <ele>67.4</ele>
        <time>2022-06-19T07:45:17Z</time>
      </trkpt>
      <trkpt lat="46.54932" lon="-0.7609">
        <ele>68</ele>
        <time>2022-06-19T07:45:21Z</time>
      </trkpt>
      <trkpt lat="46.54927" lon="-0.76096">
        <ele>68.4</ele>
        <time>2022-06-19T07:45:23Z</time>
      </trkpt>
      <trkpt lat="46.54917" lon="-0.7611">
        <ele>69.4</ele>
        <time>2022-06-19T07:45:27Z</time>
      </trkpt>
      <trkpt lat="46.54914" lon="-0.76113">
        <ele>69.6</ele>
        <time>2022-06-19T07:45:28Z</time>
      </trkpt>
      <trkpt lat="46.54903" lon="-0.76129">
        <ele>70.6</ele>
        <time>2022-06-19T07:45:33Z</time>
      </trkpt>
      <trkpt lat="46.54895" lon="-0.76142">
        <ele>71.8</ele>
        <time>2022-06-19T07:45:37Z</time>
      </trkpt>
      <trkpt lat="46.5489" lon="-0.76147">
        <ele>72.2</ele>
        <time>2022-06-19T07:45:39Z</time>
      </trkpt>
      <trkpt lat="46.54883" lon="-0.76154">
        <ele>72.8</ele>
        <time>2022-06-19T07:45:42Z</time>
      </trkpt>
      <trkpt lat="46.54873" lon="-0.76168">
        <ele>73.6</ele>
        <time>2022-06-19T07:45:48Z</time>
      </trkpt>
      <trkpt lat="46.54871" lon="-0.76171">
        <ele>73.8</ele>
        <time>2022-06-19T07:45:49Z</time>
      </trkpt>
      <trkpt lat="46.54864" lon="-0.76191">
        <ele>74.8</ele>
        <time>2022-06-19T07:45:55Z</time>
      </trkpt>
      <trkpt lat="46.54861" lon="-0.76216">
        <ele>74.8</ele>
        <time>2022-06-19T07:46:00Z</time>
      </trkpt>
      <trkpt lat="46.54861" lon="-0.7622">
        <ele>74.8</ele>
        <time>2022-06-19T07:46:01Z</time>
      </trkpt>
      <trkpt lat="46.5486" lon="-0.76236">
        <ele>75.2</ele>
        <time>2022-06-19T07:46:05Z</time>
      </trkpt>
      <trkpt lat="46.54859" lon="-0.76246">
        <ele>75.2</ele>
        <time>2022-06-19T07:46:07Z</time>
      </trkpt>
      <trkpt lat="46.54858" lon="-0.76255">
        <ele>75.2</ele>
        <time>2022-06-19T07:46:09Z</time>
      </trkpt>
      <trkpt lat="46.54857" lon="-0.76264">
        <ele>75.2</ele>
        <time>2022-06-19T07:46:11Z</time>
      </trkpt>
      <trkpt lat="46.54856" lon="-0.76284">
        <ele>74.6</ele>
        <time>2022-06-19T07:46:15Z</time>
      </trkpt>
      <trkpt lat="46.54855" lon="-0.76303">
        <ele>74.2</ele>
        <time>2022-06-19T07:46:18Z</time>
      </trkpt>
      <trkpt lat="46.54854" lon="-0.76311">
        <ele>73.8</ele>
        <time>2022-06-19T07:46:19Z</time>
      </trkpt>
      <trkpt lat="46.54852" lon="-0.76318">
        <ele>73.4</ele>
        <time>2022-06-19T07:46:20Z</time>
      </trkpt>
      <trkpt lat="46.54847" lon="-0.76334">
        <ele>73</ele>
        <time>2022-06-19T07:46:22Z</time>
      </trkpt>
      <trkpt lat="46.5484" lon="-0.76357">
        <ele>72.8</ele>
        <time>2022-06-19T07:46:24Z</time>
      </trkpt>
      <trkpt lat="46.54835" lon="-0.76378">
        <ele>71.6</ele>
        <time>2022-06-19T07:46:26Z</time>
      </trkpt>
      <trkpt lat="46.54821" lon="-0.76428">
        <ele>70.6</ele>
        <time>2022-06-19T07:46:31Z</time>
      </trkpt>
      <trkpt lat="46.54819" lon="-0.76436">
        <ele>70.2</ele>
        <time>2022-06-19T07:46:32Z</time>
      </trkpt>
      <trkpt lat="46.54812" lon="-0.76456">
        <ele>69.6</ele>
        <time>2022-06-19T07:46:34Z</time>
      </trkpt>
      <trkpt lat="46.54807" lon="-0.76466">
        <ele>69.4</ele>
        <time>2022-06-19T07:46:35Z</time>
      </trkpt>
      <trkpt lat="46.54801" lon="-0.76474">
        <ele>69</ele>
        <time>2022-06-19T07:46:36Z</time>
      </trkpt>
      <trkpt lat="46.5479" lon="-0.76499">
        <ele>69.2</ele>
        <time>2022-06-19T07:46:39Z</time>
      </trkpt>
      <trkpt lat="46.54786" lon="-0.76514">
        <ele>68.6</ele>
        <time>2022-06-19T07:46:41Z</time>
      </trkpt>
      <trkpt lat="46.54785" lon="-0.76522">
        <ele>68.2</ele>
        <time>2022-06-19T07:46:42Z</time>
      </trkpt>
      <trkpt lat="46.54784" lon="-0.76547">
        <ele>67.2</ele>
        <time>2022-06-19T07:46:45Z</time>
      </trkpt>
      <trkpt lat="46.54784" lon="-0.76556">
        <ele>67</ele>
        <time>2022-06-19T07:46:46Z</time>
      </trkpt>
      <trkpt lat="46.54785" lon="-0.76576">
        <ele>66.4</ele>
        <time>2022-06-19T07:46:49Z</time>
      </trkpt>
      <trkpt lat="46.54785" lon="-0.76586">
        <ele>65.8</ele>
        <time>2022-06-19T07:46:51Z</time>
      </trkpt>
      <trkpt lat="46.54781" lon="-0.76602">
        <ele>65</ele>
        <time>2022-06-19T07:46:55Z</time>
      </trkpt>
      <trkpt lat="46.5478" lon="-0.7661">
        <ele>64.8</ele>
        <time>2022-06-19T07:46:57Z</time>
      </trkpt>
      <trkpt lat="46.54777" lon="-0.76622">
        <ele>64.2</ele>
        <time>2022-06-19T07:47:00Z</time>
      </trkpt>
      <trkpt lat="46.54778" lon="-0.76638">
        <ele>63.6</ele>
        <time>2022-06-19T07:47:04Z</time>
      </trkpt>
      <trkpt lat="46.54778" lon="-0.76642">
        <ele>63.6</ele>
        <time>2022-06-19T07:47:05Z</time>
      </trkpt>
      <trkpt lat="46.54779" lon="-0.76653">
        <ele>63.8</ele>
        <time>2022-06-19T07:47:07Z</time>
      </trkpt>
      <trkpt lat="46.54777" lon="-0.76688">
        <ele>64.2</ele>
        <time>2022-06-19T07:47:14Z</time>
      </trkpt>
      <trkpt lat="46.54777" lon="-0.76706">
        <ele>63.8</ele>
        <time>2022-06-19T07:47:18Z</time>
      </trkpt>
      <trkpt lat="46.54775" lon="-0.76715">
        <ele>63.8</ele>
        <time>2022-06-19T07:47:20Z</time>
      </trkpt>
      <trkpt lat="46.54767" lon="-0.76739">
        <ele>63.6</ele>
        <time>2022-06-19T07:47:24Z</time>
      </trkpt>
      <trkpt lat="46.54763" lon="-0.76755">
        <ele>63.4</ele>
        <time>2022-06-19T07:47:27Z</time>
      </trkpt>
      <trkpt lat="46.54751" lon="-0.76799">
        <ele>62.4</ele>
        <time>2022-06-19T07:47:34Z</time>
      </trkpt>
      <trkpt lat="46.54744" lon="-0.76821">
        <ele>61.4</ele>
        <time>2022-06-19T07:47:37Z</time>
      </trkpt>
      <trkpt lat="46.5474" lon="-0.76831">
        <ele>61.2</ele>
        <time>2022-06-19T07:47:39Z</time>
      </trkpt>
      <trkpt lat="46.54734" lon="-0.76848">
        <ele>61.2</ele>
        <time>2022-06-19T07:47:42Z</time>
      </trkpt>
      <trkpt lat="46.5473" lon="-0.76862">
        <ele>61.4</ele>
        <time>2022-06-19T07:47:44Z</time>
      </trkpt>
      <trkpt lat="46.54726" lon="-0.76881">
        <ele>61.6</ele>
        <time>2022-06-19T07:47:47Z</time>
      </trkpt>
      <trkpt lat="46.54724" lon="-0.76895">
        <ele>61.8</ele>
        <time>2022-06-19T07:47:49Z</time>
      </trkpt>
      <trkpt lat="46.54723" lon="-0.76901">
        <ele>62</ele>
        <time>2022-06-19T07:47:50Z</time>
      </trkpt>
      <trkpt lat="46.54721" lon="-0.76907">
        <ele>62</ele>
        <time>2022-06-19T07:47:51Z</time>
      </trkpt>
      <trkpt lat="46.54719" lon="-0.76921">
        <ele>62.2</ele>
        <time>2022-06-19T07:47:54Z</time>
      </trkpt>
      <trkpt lat="46.54718" lon="-0.7693">
        <ele>61.8</ele>
        <time>2022-06-19T07:47:56Z</time>
      </trkpt>
      <trkpt lat="46.54716" lon="-0.76947">
        <ele>60.2</ele>
        <time>2022-06-19T07:48:00Z</time>
      </trkpt>
      <trkpt lat="46.54717" lon="-0.76953">
        <ele>59.4</ele>
        <time>2022-06-19T07:48:02Z</time>
      </trkpt>
      <trkpt lat="46.54717" lon="-0.76955">
        <ele>59</ele>
        <time>2022-06-19T07:48:03Z</time>
      </trkpt>
      <trkpt lat="46.54708" lon="-0.76993">
        <ele>58.4</ele>
        <time>2022-06-19T07:48:08Z</time>
      </trkpt>
      <trkpt lat="46.54705" lon="-0.77004">
        <ele>58.6</ele>
        <time>2022-06-19T07:48:09Z</time>
      </trkpt>
      <trkpt lat="46.54707" lon="-0.77014">
        <ele>58.8</ele>
        <time>2022-06-19T07:48:11Z</time>
      </trkpt>
      <trkpt lat="46.5471" lon="-0.77016">
        <ele>58.8</ele>
        <time>2022-06-19T07:48:12Z</time>
      </trkpt>
      <trkpt lat="46.54712" lon="-0.77019">
        <ele>58.6</ele>
        <time>2022-06-19T07:48:13Z</time>
      </trkpt>
      <trkpt lat="46.54721" lon="-0.77039">
        <ele>58.2</ele>
        <time>2022-06-19T07:48:18Z</time>
      </trkpt>
      <trkpt lat="46.5472" lon="-0.77047">
        <ele>58.2</ele>
        <time>2022-06-19T07:48:19Z</time>
      </trkpt>
      <trkpt lat="46.54728" lon="-0.77058">
        <ele>58</ele>
        <time>2022-06-19T07:48:23Z</time>
      </trkpt>
      <trkpt lat="46.54737" lon="-0.77079">
        <ele>57.6</ele>
        <time>2022-06-19T07:48:27Z</time>
      </trkpt>
      <trkpt lat="46.54745" lon="-0.77088">
        <ele>56.8</ele>
        <time>2022-06-19T07:48:29Z</time>
      </trkpt>
      <trkpt lat="46.54757" lon="-0.771">
        <ele>56.2</ele>
        <time>2022-06-19T07:48:34Z</time>
      </trkpt>
      <trkpt lat="46.54762" lon="-0.77109">
        <ele>55.8</ele>
        <time>2022-06-19T07:48:37Z</time>
      </trkpt>
      <trkpt lat="46.54773" lon="-0.77117">
        <ele>55.2</ele>
        <time>2022-06-19T07:48:40Z</time>
      </trkpt>
      <trkpt lat="46.54791" lon="-0.77122">
        <ele>56</ele>
        <time>2022-06-19T07:48:45Z</time>
      </trkpt>
      <trkpt lat="46.54807" lon="-0.77123">
        <ele>56.2</ele>
        <time>2022-06-19T07:48:50Z</time>
      </trkpt>
      <trkpt lat="46.54819" lon="-0.77121">
        <ele>56.8</ele>
        <time>2022-06-19T07:48:54Z</time>
      </trkpt>
      <trkpt lat="46.54825" lon="-0.77123">
        <ele>57.6</ele>
        <time>2022-06-19T07:48:56Z</time>
      </trkpt>
      <trkpt lat="46.54827" lon="-0.77123">
        <ele>58</ele>
        <time>2022-06-19T07:48:57Z</time>
      </trkpt>
      <trkpt lat="46.54832" lon="-0.77122">
        <ele>59.2</ele>
        <time>2022-06-19T07:48:59Z</time>
      </trkpt>
      <trkpt lat="46.54845" lon="-0.77121">
        <ele>60</ele>
        <time>2022-06-19T07:49:04Z</time>
      </trkpt>
      <trkpt lat="46.54848" lon="-0.77121">
        <ele>60.8</ele>
        <time>2022-06-19T07:49:05Z</time>
      </trkpt>
      <trkpt lat="46.54855" lon="-0.77119">
        <ele>61.8</ele>
        <time>2022-06-19T07:49:08Z</time>
      </trkpt>
      <trkpt lat="46.54871" lon="-0.77113">
        <ele>62.8</ele>
        <time>2022-06-19T07:49:12Z</time>
      </trkpt>
      <trkpt lat="46.54893" lon="-0.77108">
        <ele>64</ele>
        <time>2022-06-19T07:49:17Z</time>
      </trkpt>
      <trkpt lat="46.54913" lon="-0.771">
        <ele>65.2</ele>
        <time>2022-06-19T07:49:23Z</time>
      </trkpt>
      <trkpt lat="46.54928" lon="-0.77093">
        <ele>66.2</ele>
        <time>2022-06-19T07:49:28Z</time>
      </trkpt>
      <trkpt lat="46.5493" lon="-0.77094">
        <ele>66.4</ele>
        <time>2022-06-19T07:49:29Z</time>
      </trkpt>
      <trkpt lat="46.54935" lon="-0.77106">
        <ele>66.4</ele>
        <time>2022-06-19T07:49:33Z</time>
      </trkpt>
      <trkpt lat="46.54936" lon="-0.77115">
        <ele>66.2</ele>
        <time>2022-06-19T07:49:34Z</time>
      </trkpt>
      <trkpt lat="46.54935" lon="-0.77124">
        <ele>66</ele>
        <time>2022-06-19T07:49:37Z</time>
      </trkpt>
      <trkpt lat="46.54936" lon="-0.7713">
        <ele>65.6</ele>
        <time>2022-06-19T07:49:39Z</time>
      </trkpt>
      <trkpt lat="46.54938" lon="-0.77132">
        <ele>65.4</ele>
        <time>2022-06-19T07:49:40Z</time>
      </trkpt>
      <trkpt lat="46.5494" lon="-0.77134">
        <ele>65.4</ele>
        <time>2022-06-19T07:49:42Z</time>
      </trkpt>
      <trkpt lat="46.54943" lon="-0.77135">
        <ele>65.4</ele>
        <time>2022-06-19T07:49:44Z</time>
      </trkpt>
      <trkpt lat="46.54958" lon="-0.77131">
        <ele>67</ele>
        <time>2022-06-19T07:49:52Z</time>
      </trkpt>
      <trkpt lat="46.54967" lon="-0.77127">
        <ele>67.4</ele>
        <time>2022-06-19T07:49:55Z</time>
      </trkpt>
      <trkpt lat="46.54977" lon="-0.77122">
        <ele>67.8</ele>
        <time>2022-06-19T07:49:59Z</time>
      </trkpt>
      <trkpt lat="46.54991" lon="-0.77118">
        <ele>68.4</ele>
        <time>2022-06-19T07:50:03Z</time>
      </trkpt>
      <trkpt lat="46.55" lon="-0.77115">
        <ele>68.6</ele>
        <time>2022-06-19T07:50:06Z</time>
      </trkpt>
      <trkpt lat="46.55012" lon="-0.7711">
        <ele>69.4</ele>
        <time>2022-06-19T07:50:10Z</time>
      </trkpt>
      <trkpt lat="46.55026" lon="-0.77103">
        <ele>69.8</ele>
        <time>2022-06-19T07:50:14Z</time>
      </trkpt>
      <trkpt lat="46.55041" lon="-0.77098">
        <ele>70.4</ele>
        <time>2022-06-19T07:50:18Z</time>
      </trkpt>
      <trkpt lat="46.55049" lon="-0.77096">
        <ele>70.4</ele>
        <time>2022-06-19T07:50:20Z</time>
      </trkpt>
      <trkpt lat="46.55065" lon="-0.77101">
        <ele>70.6</ele>
        <time>2022-06-19T07:50:24Z</time>
      </trkpt>
      <trkpt lat="46.55091" lon="-0.77106">
        <ele>71</ele>
        <time>2022-06-19T07:50:30Z</time>
      </trkpt>
      <trkpt lat="46.55096" lon="-0.77105">
        <ele>71</ele>
        <time>2022-06-19T07:50:31Z</time>
      </trkpt>
      <trkpt lat="46.55115" lon="-0.771">
        <ele>70.6</ele>
        <time>2022-06-19T07:50:35Z</time>
      </trkpt>
      <trkpt lat="46.55125" lon="-0.77096">
        <ele>70.4</ele>
        <time>2022-06-19T07:50:37Z</time>
      </trkpt>
      <trkpt lat="46.55129" lon="-0.77096">
        <ele>70</ele>
        <time>2022-06-19T07:50:38Z</time>
      </trkpt>
      <trkpt lat="46.55149" lon="-0.77096">
        <ele>69.6</ele>
        <time>2022-06-19T07:50:42Z</time>
      </trkpt>
      <trkpt lat="46.55153" lon="-0.77097">
        <ele>69.2</ele>
        <time>2022-06-19T07:50:43Z</time>
      </trkpt>
      <trkpt lat="46.55158" lon="-0.77097">
        <ele>69.2</ele>
        <time>2022-06-19T07:50:44Z</time>
      </trkpt>
      <trkpt lat="46.55172" lon="-0.77093">
        <ele>69</ele>
        <time>2022-06-19T07:50:47Z</time>
      </trkpt>
      <trkpt lat="46.55198" lon="-0.77086">
        <ele>69</ele>
        <time>2022-06-19T07:50:53Z</time>
      </trkpt>
      <trkpt lat="46.55208" lon="-0.77087">
        <ele>68.6</ele>
        <time>2022-06-19T07:50:55Z</time>
      </trkpt>
      <trkpt lat="46.55223" lon="-0.77088">
        <ele>68.6</ele>
        <time>2022-06-19T07:50:57Z</time>
      </trkpt>
      <trkpt lat="46.55243" lon="-0.77085">
        <ele>68.4</ele>
        <time>2022-06-19T07:51:00Z</time>
      </trkpt>
      <trkpt lat="46.55258" lon="-0.7708">
        <ele>68.2</ele>
        <time>2022-06-19T07:51:02Z</time>
      </trkpt>
      <trkpt lat="46.55275" lon="-0.77073">
        <ele>67.4</ele>
        <time>2022-06-19T07:51:05Z</time>
      </trkpt>
      <trkpt lat="46.55281" lon="-0.77072">
        <ele>67</ele>
        <time>2022-06-19T07:51:06Z</time>
      </trkpt>
      <trkpt lat="46.55287" lon="-0.77072">
        <ele>66.6</ele>
        <time>2022-06-19T07:51:07Z</time>
      </trkpt>
      <trkpt lat="46.5531" lon="-0.77068">
        <ele>65.8</ele>
        <time>2022-06-19T07:51:11Z</time>
      </trkpt>
      <trkpt lat="46.55326" lon="-0.77067">
        <ele>65.4</ele>
        <time>2022-06-19T07:51:14Z</time>
      </trkpt>
      <trkpt lat="46.55335" lon="-0.77065">
        <ele>64.6</ele>
        <time>2022-06-19T07:51:16Z</time>
      </trkpt>
      <trkpt lat="46.55343" lon="-0.77063">
        <ele>64</ele>
        <time>2022-06-19T07:51:18Z</time>
      </trkpt>
      <trkpt lat="46.55347" lon="-0.77061">
        <ele>63.8</ele>
        <time>2022-06-19T07:51:19Z</time>
      </trkpt>
      <trkpt lat="46.55363" lon="-0.77057">
        <ele>64</ele>
        <time>2022-06-19T07:51:23Z</time>
      </trkpt>
      <trkpt lat="46.55374" lon="-0.77055">
        <ele>64</ele>
        <time>2022-06-19T07:51:25Z</time>
      </trkpt>
      <trkpt lat="46.55379" lon="-0.77056">
        <ele>64</ele>
        <time>2022-06-19T07:51:26Z</time>
      </trkpt>
      <trkpt lat="46.55384" lon="-0.77055">
        <ele>63.8</ele>
        <time>2022-06-19T07:51:27Z</time>
      </trkpt>
      <trkpt lat="46.55395" lon="-0.77055">
        <ele>63.6</ele>
        <time>2022-06-19T07:51:29Z</time>
      </trkpt>
      <trkpt lat="46.55409" lon="-0.77054">
        <ele>62.6</ele>
        <time>2022-06-19T07:51:31Z</time>
      </trkpt>
      <trkpt lat="46.55443" lon="-0.77048">
        <ele>61.6</ele>
        <time>2022-06-19T07:51:36Z</time>
      </trkpt>
      <trkpt lat="46.55452" lon="-0.77046">
        <ele>61.2</ele>
        <time>2022-06-19T07:51:37Z</time>
      </trkpt>
      <trkpt lat="46.55477" lon="-0.77044">
        <ele>60.4</ele>
        <time>2022-06-19T07:51:40Z</time>
      </trkpt>
      <trkpt lat="46.55492" lon="-0.77043">
        <ele>59.4</ele>
        <time>2022-06-19T07:51:42Z</time>
      </trkpt>
      <trkpt lat="46.55499" lon="-0.77042">
        <ele>58.8</ele>
        <time>2022-06-19T07:51:43Z</time>
      </trkpt>
      <trkpt lat="46.55508" lon="-0.77042">
        <ele>57</ele>
        <time>2022-06-19T07:51:45Z</time>
      </trkpt>
      <trkpt lat="46.55511" lon="-0.77043">
        <ele>56.6</ele>
        <time>2022-06-19T07:51:46Z</time>
      </trkpt>
      <trkpt lat="46.55514" lon="-0.77053">
        <ele>56.2</ele>
        <time>2022-06-19T07:51:50Z</time>
      </trkpt>
      <trkpt lat="46.55509" lon="-0.77076">
        <ele>56.6</ele>
        <time>2022-06-19T07:51:56Z</time>
      </trkpt>
      <trkpt lat="46.55505" lon="-0.77094">
        <ele>56.8</ele>
        <time>2022-06-19T07:52:00Z</time>
      </trkpt>
      <trkpt lat="46.55501" lon="-0.77103">
        <ele>56.2</ele>
        <time>2022-06-19T07:52:02Z</time>
      </trkpt>
      <trkpt lat="46.55497" lon="-0.77107">
        <ele>56</ele>
        <time>2022-06-19T07:52:03Z</time>
      </trkpt>
      <trkpt lat="46.55493" lon="-0.77112">
        <ele>55.8</ele>
        <time>2022-06-19T07:52:04Z</time>
      </trkpt>
      <trkpt lat="46.55481" lon="-0.77124">
        <ele>55.8</ele>
        <time>2022-06-19T07:52:07Z</time>
      </trkpt>
      <trkpt lat="46.55475" lon="-0.77131">
        <ele>56</ele>
        <time>2022-06-19T07:52:09Z</time>
      </trkpt>
      <trkpt lat="46.55467" lon="-0.77139">
        <ele>57.2</ele>
        <time>2022-06-19T07:52:11Z</time>
      </trkpt>
      <trkpt lat="46.55461" lon="-0.77145">
        <ele>57.6</ele>
        <time>2022-06-19T07:52:13Z</time>
      </trkpt>
      <trkpt lat="46.55437" lon="-0.7717">
        <ele>57.4</ele>
        <time>2022-06-19T07:52:19Z</time>
      </trkpt>
      <trkpt lat="46.55415" lon="-0.77186">
        <ele>56.8</ele>
        <time>2022-06-19T07:52:24Z</time>
      </trkpt>
      <trkpt lat="46.55398" lon="-0.77205">
        <ele>57.8</ele>
        <time>2022-06-19T07:52:30Z</time>
      </trkpt>
      <trkpt lat="46.55394" lon="-0.77209">
        <ele>58.4</ele>
        <time>2022-06-19T07:52:32Z</time>
      </trkpt>
      <trkpt lat="46.55391" lon="-0.77211">
        <ele>59.4</ele>
        <time>2022-06-19T07:52:33Z</time>
      </trkpt>
      <trkpt lat="46.55386" lon="-0.77217">
        <ele>60.6</ele>
        <time>2022-06-19T07:52:35Z</time>
      </trkpt>
      <trkpt lat="46.55383" lon="-0.77219">
        <ele>60.8</ele>
        <time>2022-06-19T07:52:36Z</time>
      </trkpt>
      <trkpt lat="46.5537" lon="-0.77225">
        <ele>61.6</ele>
        <time>2022-06-19T07:52:42Z</time>
      </trkpt>
      <trkpt lat="46.55368" lon="-0.77225">
        <ele>61.6</ele>
        <time>2022-06-19T07:52:43Z</time>
      </trkpt>
      <trkpt lat="46.55355" lon="-0.77227">
        <ele>62.4</ele>
        <time>2022-06-19T07:52:49Z</time>
      </trkpt>
      <trkpt lat="46.55336" lon="-0.7723">
        <ele>62.4</ele>
        <time>2022-06-19T07:52:56Z</time>
      </trkpt>
      <trkpt lat="46.55325" lon="-0.7723">
        <ele>62.8</ele>
        <time>2022-06-19T07:53:00Z</time>
      </trkpt>
      <trkpt lat="46.55315" lon="-0.7723">
        <ele>62.8</ele>
        <time>2022-06-19T07:53:04Z</time>
      </trkpt>
      <trkpt lat="46.55298" lon="-0.77235">
        <ele>62.8</ele>
        <time>2022-06-19T07:53:10Z</time>
      </trkpt>
      <trkpt lat="46.5528" lon="-0.77245">
        <ele>63.2</ele>
        <time>2022-06-19T07:53:17Z</time>
      </trkpt>
      <trkpt lat="46.5526" lon="-0.77257">
        <ele>63.2</ele>
        <time>2022-06-19T07:53:23Z</time>
      </trkpt>
      <trkpt lat="46.5524" lon="-0.77277">
        <ele>62.8</ele>
        <time>2022-06-19T07:53:29Z</time>
      </trkpt>
      <trkpt lat="46.55226" lon="-0.77293">
        <ele>61.4</ele>
        <time>2022-06-19T07:53:33Z</time>
      </trkpt>
      <trkpt lat="46.55219" lon="-0.77302">
        <ele>61</ele>
        <time>2022-06-19T07:53:35Z</time>
      </trkpt>
      <trkpt lat="46.5521" lon="-0.77312">
        <ele>60.8</ele>
        <time>2022-06-19T07:53:37Z</time>
      </trkpt>
      <trkpt lat="46.55199" lon="-0.7732">
        <ele>60.8</ele>
        <time>2022-06-19T07:53:39Z</time>
      </trkpt>
      <trkpt lat="46.55181" lon="-0.77329">
        <ele>60.4</ele>
        <time>2022-06-19T07:53:42Z</time>
      </trkpt>
      <trkpt lat="46.55165" lon="-0.7734">
        <ele>59.2</ele>
        <time>2022-06-19T07:53:45Z</time>
      </trkpt>
      <trkpt lat="46.55156" lon="-0.77352">
        <ele>58.4</ele>
        <time>2022-06-19T07:53:48Z</time>
      </trkpt>
      <trkpt lat="46.55152" lon="-0.77357">
        <ele>58</ele>
        <time>2022-06-19T07:53:49Z</time>
      </trkpt>
      <trkpt lat="46.55149" lon="-0.77362">
        <ele>57.8</ele>
        <time>2022-06-19T07:53:50Z</time>
      </trkpt>
      <trkpt lat="46.55142" lon="-0.77372">
        <ele>57</ele>
        <time>2022-06-19T07:53:52Z</time>
      </trkpt>
      <trkpt lat="46.55126" lon="-0.7739">
        <ele>55.4</ele>
        <time>2022-06-19T07:53:55Z</time>
      </trkpt>
      <trkpt lat="46.55121" lon="-0.77394">
        <ele>55</ele>
        <time>2022-06-19T07:53:56Z</time>
      </trkpt>
      <trkpt lat="46.55116" lon="-0.77396">
        <ele>54.8</ele>
        <time>2022-06-19T07:53:57Z</time>
      </trkpt>
      <trkpt lat="46.55111" lon="-0.77397">
        <ele>54.8</ele>
        <time>2022-06-19T07:53:59Z</time>
      </trkpt>
      <trkpt lat="46.55096" lon="-0.774">
        <ele>55.8</ele>
        <time>2022-06-19T07:54:04Z</time>
      </trkpt>
      <trkpt lat="46.55081" lon="-0.77396">
        <ele>56.6</ele>
        <time>2022-06-19T07:54:08Z</time>
      </trkpt>
      <trkpt lat="46.5507" lon="-0.77396">
        <ele>57.2</ele>
        <time>2022-06-19T07:54:11Z</time>
      </trkpt>
      <trkpt lat="46.5506" lon="-0.77395">
        <ele>57.6</ele>
        <time>2022-06-19T07:54:14Z</time>
      </trkpt>
      <trkpt lat="46.55047" lon="-0.77393">
        <ele>59</ele>
        <time>2022-06-19T07:54:18Z</time>
      </trkpt>
      <trkpt lat="46.55044" lon="-0.77392">
        <ele>59.2</ele>
        <time>2022-06-19T07:54:19Z</time>
      </trkpt>
      <trkpt lat="46.55031" lon="-0.77389">
        <ele>60</ele>
        <time>2022-06-19T07:54:23Z</time>
      </trkpt>
      <trkpt lat="46.5502" lon="-0.77388">
        <ele>60.4</ele>
        <time>2022-06-19T07:54:26Z</time>
      </trkpt>
      <trkpt lat="46.55006" lon="-0.77384">
        <ele>61.2</ele>
        <time>2022-06-19T07:54:30Z</time>
      </trkpt>
      <trkpt lat="46.54997" lon="-0.77381">
        <ele>61.2</ele>
        <time>2022-06-19T07:54:33Z</time>
      </trkpt>
      <trkpt lat="46.54989" lon="-0.77379">
        <ele>61.4</ele>
        <time>2022-06-19T07:54:35Z</time>
      </trkpt>
      <trkpt lat="46.54971" lon="-0.77375">
        <ele>61.4</ele>
        <time>2022-06-19T07:54:39Z</time>
      </trkpt>
      <trkpt lat="46.54935" lon="-0.77365">
        <ele>60.6</ele>
        <time>2022-06-19T07:54:46Z</time>
      </trkpt>
      <trkpt lat="46.54924" lon="-0.77361">
        <ele>60</ele>
        <time>2022-06-19T07:54:48Z</time>
      </trkpt>
      <trkpt lat="46.54913" lon="-0.77357">
        <ele>58.6</ele>
        <time>2022-06-19T07:54:50Z</time>
      </trkpt>
      <trkpt lat="46.54902" lon="-0.77353">
        <ele>57</ele>
        <time>2022-06-19T07:54:52Z</time>
      </trkpt>
      <trkpt lat="46.54896" lon="-0.77351">
        <ele>56</ele>
        <time>2022-06-19T07:54:53Z</time>
      </trkpt>
      <trkpt lat="46.54884" lon="-0.77347">
        <ele>53.8</ele>
        <time>2022-06-19T07:54:55Z</time>
      </trkpt>
      <trkpt lat="46.54874" lon="-0.77344">
        <ele>52.2</ele>
        <time>2022-06-19T07:54:57Z</time>
      </trkpt>
      <trkpt lat="46.54871" lon="-0.77344">
        <ele>52</ele>
        <time>2022-06-19T07:54:58Z</time>
      </trkpt>
      <trkpt lat="46.5486" lon="-0.77341">
        <ele>52.4</ele>
        <time>2022-06-19T07:55:03Z</time>
      </trkpt>
      <trkpt lat="46.54856" lon="-0.77339">
        <ele>53.4</ele>
        <time>2022-06-19T07:55:06Z</time>
      </trkpt>
      <trkpt lat="46.54851" lon="-0.77338">
        <ele>54.6</ele>
        <time>2022-06-19T07:55:09Z</time>
      </trkpt>
      <trkpt lat="46.54849" lon="-0.77337">
        <ele>55</ele>
        <time>2022-06-19T07:55:10Z</time>
      </trkpt>
      <trkpt lat="46.54845" lon="-0.77335">
        <ele>56</ele>
        <time>2022-06-19T07:55:12Z</time>
      </trkpt>
      <trkpt lat="46.54837" lon="-0.77332">
        <ele>57.2</ele>
        <time>2022-06-19T07:55:15Z</time>
      </trkpt>
      <trkpt lat="46.54833" lon="-0.7733">
        <ele>58.2</ele>
        <time>2022-06-19T07:55:17Z</time>
      </trkpt>
      <trkpt lat="46.5483" lon="-0.77329">
        <ele>58.4</ele>
        <time>2022-06-19T07:55:18Z</time>
      </trkpt>
      <trkpt lat="46.54824" lon="-0.77328">
        <ele>59.8</ele>
        <time>2022-06-19T07:55:21Z</time>
      </trkpt>
      <trkpt lat="46.54817" lon="-0.77326">
        <ele>60.6</ele>
        <time>2022-06-19T07:55:24Z</time>
      </trkpt>
      <trkpt lat="46.54814" lon="-0.77325">
        <ele>60.8</ele>
        <time>2022-06-19T07:55:25Z</time>
      </trkpt>
      <trkpt lat="46.54799" lon="-0.77319">
        <ele>62</ele>
        <time>2022-06-19T07:55:31Z</time>
      </trkpt>
      <trkpt lat="46.54788" lon="-0.77315">
        <ele>63</ele>
        <time>2022-06-19T07:55:35Z</time>
      </trkpt>
      <trkpt lat="46.54781" lon="-0.77312">
        <ele>64</ele>
        <time>2022-06-19T07:55:38Z</time>
      </trkpt>
      <trkpt lat="46.54779" lon="-0.77312">
        <ele>64.2</ele>
        <time>2022-06-19T07:55:39Z</time>
      </trkpt>
      <trkpt lat="46.54768" lon="-0.77308">
        <ele>65.2</ele>
        <time>2022-06-19T07:55:44Z</time>
      </trkpt>
      <trkpt lat="46.54764" lon="-0.77307">
        <ele>65.8</ele>
        <time>2022-06-19T07:55:46Z</time>
      </trkpt>
      <trkpt lat="46.54755" lon="-0.77304">
        <ele>66.4</ele>
        <time>2022-06-19T07:55:50Z</time>
      </trkpt>
      <trkpt lat="46.54745" lon="-0.77302">
        <ele>67.4</ele>
        <time>2022-06-19T07:55:55Z</time>
      </trkpt>
      <trkpt lat="46.54733" lon="-0.77299">
        <ele>68.6</ele>
        <time>2022-06-19T07:56:01Z</time>
      </trkpt>
      <trkpt lat="46.5473" lon="-0.77298">
        <ele>68.8</ele>
        <time>2022-06-19T07:56:02Z</time>
      </trkpt>
      <trkpt lat="46.5472" lon="-0.77295">
        <ele>69.8</ele>
        <time>2022-06-19T07:56:06Z</time>
      </trkpt>
      <trkpt lat="46.54713" lon="-0.77293">
        <ele>70.4</ele>
        <time>2022-06-19T07:56:09Z</time>
      </trkpt>
      <trkpt lat="46.54707" lon="-0.7729">
        <ele>70.8</ele>
        <time>2022-06-19T07:56:12Z</time>
      </trkpt>
      <trkpt lat="46.54699" lon="-0.77287">
        <ele>71.6</ele>
        <time>2022-06-19T07:56:16Z</time>
      </trkpt>
      <trkpt lat="46.54693" lon="-0.77286">
        <ele>71.8</ele>
        <time>2022-06-19T07:56:19Z</time>
      </trkpt>
      <trkpt lat="46.54679" lon="-0.77285">
        <ele>73</ele>
        <time>2022-06-19T07:56:24Z</time>
      </trkpt>
      <trkpt lat="46.54663" lon="-0.77279">
        <ele>73.4</ele>
        <time>2022-06-19T07:56:30Z</time>
      </trkpt>
      <trkpt lat="46.54645" lon="-0.77271">
        <ele>74</ele>
        <time>2022-06-19T07:56:37Z</time>
      </trkpt>
      <trkpt lat="46.54643" lon="-0.7727">
        <ele>74.2</ele>
        <time>2022-06-19T07:56:38Z</time>
      </trkpt>
      <trkpt lat="46.54625" lon="-0.77262">
        <ele>74.4</ele>
        <time>2022-06-19T07:56:44Z</time>
      </trkpt>
      <trkpt lat="46.54612" lon="-0.77257">
        <ele>75</ele>
        <time>2022-06-19T07:56:48Z</time>
      </trkpt>
      <trkpt lat="46.54604" lon="-0.77257">
        <ele>75.2</ele>
        <time>2022-06-19T07:56:50Z</time>
      </trkpt>
      <trkpt lat="46.54601" lon="-0.77259">
        <ele>75.2</ele>
        <time>2022-06-19T07:56:51Z</time>
      </trkpt>
      <trkpt lat="46.54599" lon="-0.77267">
        <ele>75.2</ele>
        <time>2022-06-19T07:56:53Z</time>
      </trkpt>
      <trkpt lat="46.54606" lon="-0.77289">
        <ele>75.6</ele>
        <time>2022-06-19T07:56:58Z</time>
      </trkpt>
      <trkpt lat="46.54619" lon="-0.77313">
        <ele>76</ele>
        <time>2022-06-19T07:57:04Z</time>
      </trkpt>
      <trkpt lat="46.5462" lon="-0.77318">
        <ele>76</ele>
        <time>2022-06-19T07:57:05Z</time>
      </trkpt>
      <trkpt lat="46.54624" lon="-0.7734">
        <ele>76.6</ele>
        <time>2022-06-19T07:57:09Z</time>
      </trkpt>
      <trkpt lat="46.54627" lon="-0.77375">
        <ele>76.8</ele>
        <time>2022-06-19T07:57:15Z</time>
      </trkpt>
      <trkpt lat="46.54631" lon="-0.77419">
        <ele>76.4</ele>
        <time>2022-06-19T07:57:22Z</time>
      </trkpt>
      <trkpt lat="46.54642" lon="-0.77463">
        <ele>75.2</ele>
        <time>2022-06-19T07:57:27Z</time>
      </trkpt>
      <trkpt lat="46.54645" lon="-0.77472">
        <ele>75</ele>
        <time>2022-06-19T07:57:28Z</time>
      </trkpt>
      <trkpt lat="46.54653" lon="-0.77502">
        <ele>73.6</ele>
        <time>2022-06-19T07:57:31Z</time>
      </trkpt>
      <trkpt lat="46.54653" lon="-0.77512">
        <ele>73.4</ele>
        <time>2022-06-19T07:57:32Z</time>
      </trkpt>
      <trkpt lat="46.54654" lon="-0.77523">
        <ele>73</ele>
        <time>2022-06-19T07:57:33Z</time>
      </trkpt>
      <trkpt lat="46.54653" lon="-0.77534">
        <ele>72.6</ele>
        <time>2022-06-19T07:57:34Z</time>
      </trkpt>
      <trkpt lat="46.54653" lon="-0.77554">
        <ele>72.2</ele>
        <time>2022-06-19T07:57:36Z</time>
      </trkpt>
      <trkpt lat="46.54654" lon="-0.77573">
        <ele>71.8</ele>
        <time>2022-06-19T07:57:38Z</time>
      </trkpt>
      <trkpt lat="46.54652" lon="-0.7759">
        <ele>71.4</ele>
        <time>2022-06-19T07:57:40Z</time>
      </trkpt>
      <trkpt lat="46.54645" lon="-0.77613">
        <ele>70.4</ele>
        <time>2022-06-19T07:57:43Z</time>
      </trkpt>
      <trkpt lat="46.5464" lon="-0.77624">
        <ele>70.2</ele>
        <time>2022-06-19T07:57:45Z</time>
      </trkpt>
      <trkpt lat="46.54632" lon="-0.77664">
        <ele>70</ele>
        <time>2022-06-19T07:57:51Z</time>
      </trkpt>
      <trkpt lat="46.54628" lon="-0.7771">
        <ele>69.4</ele>
        <time>2022-06-19T07:57:57Z</time>
      </trkpt>
      <trkpt lat="46.54619" lon="-0.77751">
        <ele>68.6</ele>
        <time>2022-06-19T07:58:02Z</time>
      </trkpt>
      <trkpt lat="46.54615" lon="-0.77759">
        <ele>68</ele>
        <time>2022-06-19T07:58:03Z</time>
      </trkpt>
      <trkpt lat="46.5461" lon="-0.77766">
        <ele>67.4</ele>
        <time>2022-06-19T07:58:04Z</time>
      </trkpt>
      <trkpt lat="46.54598" lon="-0.7778">
        <ele>67</ele>
        <time>2022-06-19T07:58:06Z</time>
      </trkpt>
      <trkpt lat="46.54593" lon="-0.77788">
        <ele>66.4</ele>
        <time>2022-06-19T07:58:07Z</time>
      </trkpt>
      <trkpt lat="46.54588" lon="-0.77797">
        <ele>66.2</ele>
        <time>2022-06-19T07:58:08Z</time>
      </trkpt>
      <trkpt lat="46.54584" lon="-0.77807">
        <ele>65.8</ele>
        <time>2022-06-19T07:58:09Z</time>
      </trkpt>
      <trkpt lat="46.54578" lon="-0.77827">
        <ele>65</ele>
        <time>2022-06-19T07:58:11Z</time>
      </trkpt>
      <trkpt lat="46.54576" lon="-0.77836">
        <ele>64.2</ele>
        <time>2022-06-19T07:58:12Z</time>
      </trkpt>
      <trkpt lat="46.54569" lon="-0.77863">
        <ele>63.4</ele>
        <time>2022-06-19T07:58:15Z</time>
      </trkpt>
      <trkpt lat="46.54565" lon="-0.7787">
        <ele>63.2</ele>
        <time>2022-06-19T07:58:16Z</time>
      </trkpt>
      <trkpt lat="46.54562" lon="-0.77876">
        <ele>62.6</ele>
        <time>2022-06-19T07:58:17Z</time>
      </trkpt>
      <trkpt lat="46.54552" lon="-0.77902">
        <ele>62</ele>
        <time>2022-06-19T07:58:21Z</time>
      </trkpt>
      <trkpt lat="46.5455" lon="-0.7791">
        <ele>61.8</ele>
        <time>2022-06-19T07:58:22Z</time>
      </trkpt>
      <trkpt lat="46.54549" lon="-0.77918">
        <ele>61.8</ele>
        <time>2022-06-19T07:58:23Z</time>
      </trkpt>
      <trkpt lat="46.54548" lon="-0.77934">
        <ele>61.6</ele>
        <time>2022-06-19T07:58:25Z</time>
      </trkpt>
      <trkpt lat="46.54549" lon="-0.77943">
        <ele>61.4</ele>
        <time>2022-06-19T07:58:26Z</time>
      </trkpt>
      <trkpt lat="46.5455" lon="-0.77952">
        <ele>61.4</ele>
        <time>2022-06-19T07:58:27Z</time>
      </trkpt>
      <trkpt lat="46.54559" lon="-0.7799">
        <ele>60.2</ele>
        <time>2022-06-19T07:58:31Z</time>
      </trkpt>
      <trkpt lat="46.54561" lon="-0.78">
        <ele>59.8</ele>
        <time>2022-06-19T07:58:32Z</time>
      </trkpt>
      <trkpt lat="46.54567" lon="-0.78019">
        <ele>59.4</ele>
        <time>2022-06-19T07:58:34Z</time>
      </trkpt>
      <trkpt lat="46.5457" lon="-0.78028">
        <ele>59.2</ele>
        <time>2022-06-19T07:58:35Z</time>
      </trkpt>
      <trkpt lat="46.54573" lon="-0.78036">
        <ele>57.4</ele>
        <time>2022-06-19T07:58:36Z</time>
      </trkpt>
      <trkpt lat="46.54577" lon="-0.78043">
        <ele>56.2</ele>
        <time>2022-06-19T07:58:37Z</time>
      </trkpt>
      <trkpt lat="46.54582" lon="-0.78056">
        <ele>54.2</ele>
        <time>2022-06-19T07:58:39Z</time>
      </trkpt>
      <trkpt lat="46.54584" lon="-0.78062">
        <ele>53</ele>
        <time>2022-06-19T07:58:40Z</time>
      </trkpt>
      <trkpt lat="46.54588" lon="-0.78072">
        <ele>52</ele>
        <time>2022-06-19T07:58:41Z</time>
      </trkpt>
      <trkpt lat="46.54592" lon="-0.78085">
        <ele>50.8</ele>
        <time>2022-06-19T07:58:45Z</time>
      </trkpt>
      <trkpt lat="46.54596" lon="-0.78097">
        <ele>49.2</ele>
        <time>2022-06-19T07:58:47Z</time>
      </trkpt>
      <trkpt lat="46.54599" lon="-0.78109">
        <ele>48.2</ele>
        <time>2022-06-19T07:58:49Z</time>
      </trkpt>
      <trkpt lat="46.54602" lon="-0.78122">
        <ele>46.8</ele>
        <time>2022-06-19T07:58:51Z</time>
      </trkpt>
      <trkpt lat="46.54604" lon="-0.78126">
        <ele>45.8</ele>
        <time>2022-06-19T07:58:52Z</time>
      </trkpt>
      <trkpt lat="46.54605" lon="-0.7813">
        <ele>44.8</ele>
        <time>2022-06-19T07:58:53Z</time>
      </trkpt>
      <trkpt lat="46.54609" lon="-0.78135">
        <ele>43.6</ele>
        <time>2022-06-19T07:58:55Z</time>
      </trkpt>
      <trkpt lat="46.5461" lon="-0.78137">
        <ele>43</ele>
        <time>2022-06-19T07:58:56Z</time>
      </trkpt>
      <trkpt lat="46.54611" lon="-0.7814">
        <ele>42.6</ele>
        <time>2022-06-19T07:58:57Z</time>
      </trkpt>
      <trkpt lat="46.5461" lon="-0.78145">
        <ele>41.8</ele>
        <time>2022-06-19T07:58:59Z</time>
      </trkpt>
      <trkpt lat="46.54609" lon="-0.78146">
        <ele>41.4</ele>
        <time>2022-06-19T07:59:00Z</time>
      </trkpt>
      <trkpt lat="46.54605" lon="-0.78151">
        <ele>41</ele>
        <time>2022-06-19T07:59:03Z</time>
      </trkpt>
      <trkpt lat="46.546" lon="-0.78153">
        <ele>40.8</ele>
        <time>2022-06-19T07:59:05Z</time>
      </trkpt>
      <trkpt lat="46.54578" lon="-0.78167">
        <ele>41.4</ele>
        <time>2022-06-19T07:59:12Z</time>
      </trkpt>
      <trkpt lat="46.54558" lon="-0.78178">
        <ele>41.6</ele>
        <time>2022-06-19T07:59:17Z</time>
      </trkpt>
      <trkpt lat="46.54554" lon="-0.78178">
        <ele>41.8</ele>
        <time>2022-06-19T07:59:18Z</time>
      </trkpt>
      <trkpt lat="46.54533" lon="-0.78187">
        <ele>41.8</ele>
        <time>2022-06-19T07:59:23Z</time>
      </trkpt>
      <trkpt lat="46.54529" lon="-0.78188">
        <ele>41.8</ele>
        <time>2022-06-19T07:59:24Z</time>
      </trkpt>
      <trkpt lat="46.54507" lon="-0.78197">
        <ele>42</ele>
        <time>2022-06-19T07:59:29Z</time>
      </trkpt>
      <trkpt lat="46.54492" lon="-0.78202">
        <ele>42.2</ele>
        <time>2022-06-19T07:59:32Z</time>
      </trkpt>
      <trkpt lat="46.54471" lon="-0.78204">
        <ele>42</ele>
        <time>2022-06-19T07:59:36Z</time>
      </trkpt>
      <trkpt lat="46.54462" lon="-0.78202">
        <ele>42</ele>
        <time>2022-06-19T07:59:38Z</time>
      </trkpt>
      <trkpt lat="46.54459" lon="-0.782">
        <ele>42</ele>
        <time>2022-06-19T07:59:39Z</time>
      </trkpt>
      <trkpt lat="46.54452" lon="-0.78195">
        <ele>41.8</ele>
        <time>2022-06-19T07:59:41Z</time>
      </trkpt>
      <trkpt lat="46.54445" lon="-0.78189">
        <ele>41.8</ele>
        <time>2022-06-19T07:59:43Z</time>
      </trkpt>
      <trkpt lat="46.54433" lon="-0.78171">
        <ele>41.8</ele>
        <time>2022-06-19T07:59:47Z</time>
      </trkpt>
      <trkpt lat="46.5443" lon="-0.78167">
        <ele>41.8</ele>
        <time>2022-06-19T07:59:48Z</time>
      </trkpt>
      <trkpt lat="46.54422" lon="-0.78154">
        <ele>41.8</ele>
        <time>2022-06-19T07:59:51Z</time>
      </trkpt>
      <trkpt lat="46.54417" lon="-0.78141">
        <ele>42.2</ele>
        <time>2022-06-19T07:59:54Z</time>
      </trkpt>
      <trkpt lat="46.54416" lon="-0.78132">
        <ele>42.6</ele>
        <time>2022-06-19T07:59:57Z</time>
      </trkpt>
      <trkpt lat="46.54416" lon="-0.7813">
        <ele>42.6</ele>
        <time>2022-06-19T07:59:58Z</time>
      </trkpt>
      <trkpt lat="46.54411" lon="-0.78125">
        <ele>43</ele>
        <time>2022-06-19T08:00:01Z</time>
      </trkpt>
      <trkpt lat="46.54405" lon="-0.78123">
        <ele>43</ele>
        <time>2022-06-19T08:00:03Z</time>
      </trkpt>
      <trkpt lat="46.54377" lon="-0.78121">
        <ele>43</ele>
        <time>2022-06-19T08:00:10Z</time>
      </trkpt>
      <trkpt lat="46.54333" lon="-0.78122">
        <ele>43.6</ele>
        <time>2022-06-19T08:00:21Z</time>
      </trkpt>
      <trkpt lat="46.54304" lon="-0.78114">
        <ele>43.4</ele>
        <time>2022-06-19T08:00:28Z</time>
      </trkpt>
      <trkpt lat="46.54288" lon="-0.78107">
        <ele>43.4</ele>
        <time>2022-06-19T08:00:32Z</time>
      </trkpt>
      <trkpt lat="46.5428" lon="-0.7811">
        <ele>43.6</ele>
        <time>2022-06-19T08:00:34Z</time>
      </trkpt>
      <trkpt lat="46.54277" lon="-0.78114">
        <ele>43.6</ele>
        <time>2022-06-19T08:00:35Z</time>
      </trkpt>
      <trkpt lat="46.54276" lon="-0.78118">
        <ele>43.8</ele>
        <time>2022-06-19T08:00:36Z</time>
      </trkpt>
      <trkpt lat="46.54276" lon="-0.78123">
        <ele>44</ele>
        <time>2022-06-19T08:00:37Z</time>
      </trkpt>
      <trkpt lat="46.5428" lon="-0.7814">
        <ele>44.8</ele>
        <time>2022-06-19T08:00:41Z</time>
      </trkpt>
      <trkpt lat="46.54281" lon="-0.78144">
        <ele>45</ele>
        <time>2022-06-19T08:00:42Z</time>
      </trkpt>
      <trkpt lat="46.54285" lon="-0.78169">
        <ele>45.8</ele>
        <time>2022-06-19T08:00:47Z</time>
      </trkpt>
      <trkpt lat="46.54286" lon="-0.78185">
        <ele>46.2</ele>
        <time>2022-06-19T08:00:50Z</time>
      </trkpt>
      <trkpt lat="46.54285" lon="-0.78199">
        <ele>47.2</ele>
        <time>2022-06-19T08:00:53Z</time>
      </trkpt>
      <trkpt lat="46.54284" lon="-0.78212">
        <ele>47.8</ele>
        <time>2022-06-19T08:00:56Z</time>
      </trkpt>
      <trkpt lat="46.54283" lon="-0.78219">
        <ele>48.2</ele>
        <time>2022-06-19T08:00:58Z</time>
      </trkpt>
      <trkpt lat="46.54278" lon="-0.78236">
        <ele>49.4</ele>
        <time>2022-06-19T08:01:03Z</time>
      </trkpt>
      <trkpt lat="46.54272" lon="-0.78246">
        <ele>50.4</ele>
        <time>2022-06-19T08:01:07Z</time>
      </trkpt>
      <trkpt lat="46.54266" lon="-0.78254">
        <ele>51.8</ele>
        <time>2022-06-19T08:01:11Z</time>
      </trkpt>
      <trkpt lat="46.54259" lon="-0.78262">
        <ele>52.8</ele>
        <time>2022-06-19T08:01:16Z</time>
      </trkpt>
      <trkpt lat="46.54256" lon="-0.78265">
        <ele>53.6</ele>
        <time>2022-06-19T08:01:19Z</time>
      </trkpt>
      <trkpt lat="46.54254" lon="-0.78266">
        <ele>54</ele>
        <time>2022-06-19T08:01:21Z</time>
      </trkpt>
      <trkpt lat="46.54249" lon="-0.78268">
        <ele>55</ele>
        <time>2022-06-19T08:01:25Z</time>
      </trkpt>
      <trkpt lat="46.54245" lon="-0.78268">
        <ele>55.6</ele>
        <time>2022-06-19T08:01:28Z</time>
      </trkpt>
      <trkpt lat="46.54243" lon="-0.78268">
        <ele>56.2</ele>
        <time>2022-06-19T08:01:30Z</time>
      </trkpt>
      <trkpt lat="46.54241" lon="-0.78269">
        <ele>57.2</ele>
        <time>2022-06-19T08:01:34Z</time>
      </trkpt>
      <trkpt lat="46.54239" lon="-0.78269">
        <ele>57.6</ele>
        <time>2022-06-19T08:01:36Z</time>
      </trkpt>
      <trkpt lat="46.54237" lon="-0.78268">
        <ele>58.4</ele>
        <time>2022-06-19T08:01:39Z</time>
      </trkpt>
      <trkpt lat="46.54234" lon="-0.78267">
        <ele>59.4</ele>
        <time>2022-06-19T08:01:43Z</time>
      </trkpt>
      <trkpt lat="46.5423" lon="-0.78265">
        <ele>60.6</ele>
        <time>2022-06-19T08:01:48Z</time>
      </trkpt>
      <trkpt lat="46.54228" lon="-0.78264">
        <ele>61.4</ele>
        <time>2022-06-19T08:01:51Z</time>
      </trkpt>
      <trkpt lat="46.54227" lon="-0.78264">
        <ele>61.6</ele>
        <time>2022-06-19T08:01:53Z</time>
      </trkpt>
      <trkpt lat="46.54225" lon="-0.78264">
        <ele>62.8</ele>
        <time>2022-06-19T08:01:57Z</time>
      </trkpt>
      <trkpt lat="46.54224" lon="-0.78263">
        <ele>62.8</ele>
        <time>2022-06-19T08:01:58Z</time>
      </trkpt>
      <trkpt lat="46.54223" lon="-0.78262">
        <ele>63.2</ele>
        <time>2022-06-19T08:02:00Z</time>
      </trkpt>
      <trkpt lat="46.54222" lon="-0.78262">
        <ele>63.6</ele>
        <time>2022-06-19T08:02:01Z</time>
      </trkpt>
      <trkpt lat="46.54221" lon="-0.78261">
        <ele>63.8</ele>
        <time>2022-06-19T08:02:02Z</time>
      </trkpt>
      <trkpt lat="46.54219" lon="-0.7826">
        <ele>64.2</ele>
        <time>2022-06-19T08:02:05Z</time>
      </trkpt>
      <trkpt lat="46.54217" lon="-0.78259">
        <ele>65</ele>
        <time>2022-06-19T08:02:10Z</time>
      </trkpt>
      <trkpt lat="46.54214" lon="-0.7826">
        <ele>65</ele>
        <time>2022-06-19T08:02:12Z</time>
      </trkpt>
      <trkpt lat="46.54212" lon="-0.7826">
        <ele>65</ele>
        <time>2022-06-19T08:02:14Z</time>
      </trkpt>
      <trkpt lat="46.54209" lon="-0.7826">
        <ele>65</ele>
        <time>2022-06-19T08:02:16Z</time>
      </trkpt>
      <trkpt lat="46.542" lon="-0.7826">
        <ele>66.2</ele>
        <time>2022-06-19T08:02:23Z</time>
      </trkpt>
      <trkpt lat="46.54198" lon="-0.7826">
        <ele>66.4</ele>
        <time>2022-06-19T08:02:24Z</time>
      </trkpt>
      <trkpt lat="46.54189" lon="-0.78263">
        <ele>67.2</ele>
        <time>2022-06-19T08:02:30Z</time>
      </trkpt>
      <trkpt lat="46.54184" lon="-0.78264">
        <ele>68.2</ele>
        <time>2022-06-19T08:02:34Z</time>
      </trkpt>
      <trkpt lat="46.5418" lon="-0.78264">
        <ele>68.8</ele>
        <time>2022-06-19T08:02:37Z</time>
      </trkpt>
      <trkpt lat="46.54178" lon="-0.78263">
        <ele>69.4</ele>
        <time>2022-06-19T08:02:39Z</time>
      </trkpt>
      <trkpt lat="46.54174" lon="-0.78262">
        <ele>70.6</ele>
        <time>2022-06-19T08:02:43Z</time>
      </trkpt>
      <trkpt lat="46.54167" lon="-0.78262">
        <ele>71.6</ele>
        <time>2022-06-19T08:02:48Z</time>
      </trkpt>
      <trkpt lat="46.54165" lon="-0.78262">
        <ele>72.4</ele>
        <time>2022-06-19T08:02:50Z</time>
      </trkpt>
      <trkpt lat="46.54161" lon="-0.78261">
        <ele>73.2</ele>
        <time>2022-06-19T08:02:53Z</time>
      </trkpt>
      <trkpt lat="46.54155" lon="-0.7826">
        <ele>74.2</ele>
        <time>2022-06-19T08:02:57Z</time>
      </trkpt>
      <trkpt lat="46.54151" lon="-0.78259">
        <ele>75.6</ele>
        <time>2022-06-19T08:03:01Z</time>
      </trkpt>
      <trkpt lat="46.54149" lon="-0.78259">
        <ele>76.4</ele>
        <time>2022-06-19T08:03:04Z</time>
      </trkpt>
      <trkpt lat="46.54146" lon="-0.78259">
        <ele>76.8</ele>
        <time>2022-06-19T08:03:06Z</time>
      </trkpt>
      <trkpt lat="46.54142" lon="-0.78259">
        <ele>77.8</ele>
        <time>2022-06-19T08:03:10Z</time>
      </trkpt>
      <trkpt lat="46.54137" lon="-0.78257">
        <ele>78.8</ele>
        <time>2022-06-19T08:03:14Z</time>
      </trkpt>
      <trkpt lat="46.54135" lon="-0.78255">
        <ele>79.2</ele>
        <time>2022-06-19T08:03:16Z</time>
      </trkpt>
      <trkpt lat="46.5413" lon="-0.78251">
        <ele>80</ele>
        <time>2022-06-19T08:03:21Z</time>
      </trkpt>
      <trkpt lat="46.54122" lon="-0.78248">
        <ele>80.8</ele>
        <time>2022-06-19T08:03:28Z</time>
      </trkpt>
      <trkpt lat="46.5412" lon="-0.78248">
        <ele>81</ele>
        <time>2022-06-19T08:03:31Z</time>
      </trkpt>
      <trkpt lat="46.54117" lon="-0.78247">
        <ele>81</ele>
        <time>2022-06-19T08:03:34Z</time>
      </trkpt>
      <trkpt lat="46.54115" lon="-0.78246">
        <ele>81.4</ele>
        <time>2022-06-19T08:03:40Z</time>
      </trkpt>
      <trkpt lat="46.54115" lon="-0.78244">
        <ele>81.8</ele>
        <time>2022-06-19T08:08:10Z</time>
      </trkpt>
      <trkpt lat="46.54113" lon="-0.78246">
        <ele>81.8</ele>
        <time>2022-06-19T08:08:18Z</time>
      </trkpt>
      <trkpt lat="46.54108" lon="-0.7825">
        <ele>81.8</ele>
        <time>2022-06-19T08:08:23Z</time>
      </trkpt>
      <trkpt lat="46.54107" lon="-0.7825">
        <ele>81.8</ele>
        <time>2022-06-19T08:08:24Z</time>
      </trkpt>
      <trkpt lat="46.54104" lon="-0.78253">
        <ele>81.8</ele>
        <time>2022-06-19T08:08:27Z</time>
      </trkpt>
      <trkpt lat="46.54105" lon="-0.78259">
        <ele>81.4</ele>
        <time>2022-06-19T08:08:31Z</time>
      </trkpt>
      <trkpt lat="46.54106" lon="-0.78266">
        <ele>81.4</ele>
        <time>2022-06-19T08:08:34Z</time>
      </trkpt>
      <trkpt lat="46.5411" lon="-0.78283">
        <ele>81.2</ele>
        <time>2022-06-19T08:08:39Z</time>
      </trkpt>
      <trkpt lat="46.54115" lon="-0.78307">
        <ele>81.6</ele>
        <time>2022-06-19T08:08:45Z</time>
      </trkpt>
      <trkpt lat="46.54112" lon="-0.78324">
        <ele>82</ele>
        <time>2022-06-19T08:08:49Z</time>
      </trkpt>
      <trkpt lat="46.54109" lon="-0.78332">
        <ele>82.2</ele>
        <time>2022-06-19T08:08:51Z</time>
      </trkpt>
      <trkpt lat="46.54108" lon="-0.78336">
        <ele>82.4</ele>
        <time>2022-06-19T08:08:52Z</time>
      </trkpt>
      <trkpt lat="46.54108" lon="-0.78348">
        <ele>82.6</ele>
        <time>2022-06-19T08:08:55Z</time>
      </trkpt>
      <trkpt lat="46.5411" lon="-0.78357">
        <ele>83</ele>
        <time>2022-06-19T08:08:57Z</time>
      </trkpt>
      <trkpt lat="46.54114" lon="-0.78376">
        <ele>83.6</ele>
        <time>2022-06-19T08:09:01Z</time>
      </trkpt>
      <trkpt lat="46.54116" lon="-0.78386">
        <ele>84</ele>
        <time>2022-06-19T08:09:03Z</time>
      </trkpt>
      <trkpt lat="46.54121" lon="-0.78404">
        <ele>84.6</ele>
        <time>2022-06-19T08:09:07Z</time>
      </trkpt>
      <trkpt lat="46.54125" lon="-0.78417">
        <ele>85</ele>
        <time>2022-06-19T08:09:10Z</time>
      </trkpt>
      <trkpt lat="46.54129" lon="-0.78431">
        <ele>85.8</ele>
        <time>2022-06-19T08:09:14Z</time>
      </trkpt>
      <trkpt lat="46.54134" lon="-0.78444">
        <ele>86.2</ele>
        <time>2022-06-19T08:09:15Z</time>
      </trkpt>
      <trkpt lat="46.54142" lon="-0.78458">
        <ele>87.2</ele>
        <time>2022-06-19T08:09:21Z</time>
      </trkpt>
      <trkpt lat="46.54143" lon="-0.78461">
        <ele>87.6</ele>
        <time>2022-06-19T08:09:22Z</time>
      </trkpt>
      <trkpt lat="46.5415" lon="-0.78478">
        <ele>88.4</ele>
        <time>2022-06-19T08:09:27Z</time>
      </trkpt>
      <trkpt lat="46.54154" lon="-0.78497">
        <ele>88.8</ele>
        <time>2022-06-19T08:09:32Z</time>
      </trkpt>
      <trkpt lat="46.54156" lon="-0.78503">
        <ele>89</ele>
        <time>2022-06-19T08:09:33Z</time>
      </trkpt>
      <trkpt lat="46.54171" lon="-0.78534">
        <ele>89.4</ele>
        <time>2022-06-19T08:09:41Z</time>
      </trkpt>
      <trkpt lat="46.54182" lon="-0.78558">
        <ele>89.6</ele>
        <time>2022-06-19T08:09:46Z</time>
      </trkpt>
      <trkpt lat="46.54184" lon="-0.78563">
        <ele>89.8</ele>
        <time>2022-06-19T08:09:47Z</time>
      </trkpt>
      <trkpt lat="46.54184" lon="-0.78568">
        <ele>89.8</ele>
        <time>2022-06-19T08:09:48Z</time>
      </trkpt>
      <trkpt lat="46.54185" lon="-0.78577">
        <ele>89.8</ele>
        <time>2022-06-19T08:09:50Z</time>
      </trkpt>
      <trkpt lat="46.54185" lon="-0.78582">
        <ele>90</ele>
        <time>2022-06-19T08:09:51Z</time>
      </trkpt>
      <trkpt lat="46.54184" lon="-0.78586">
        <ele>90.2</ele>
        <time>2022-06-19T08:09:52Z</time>
      </trkpt>
      <trkpt lat="46.54181" lon="-0.78595">
        <ele>90.2</ele>
        <time>2022-06-19T08:09:54Z</time>
      </trkpt>
      <trkpt lat="46.54175" lon="-0.78612">
        <ele>90.2</ele>
        <time>2022-06-19T08:09:57Z</time>
      </trkpt>
      <trkpt lat="46.54165" lon="-0.78633">
        <ele>90</ele>
        <time>2022-06-19T08:10:00Z</time>
      </trkpt>
      <trkpt lat="46.54158" lon="-0.78649">
        <ele>90</ele>
        <time>2022-06-19T08:10:03Z</time>
      </trkpt>
      <trkpt lat="46.54151" lon="-0.78659">
        <ele>90</ele>
        <time>2022-06-19T08:10:05Z</time>
      </trkpt>
      <trkpt lat="46.54145" lon="-0.7867">
        <ele>90.2</ele>
        <time>2022-06-19T08:10:07Z</time>
      </trkpt>
      <trkpt lat="46.54128" lon="-0.78698">
        <ele>90.6</ele>
        <time>2022-06-19T08:10:12Z</time>
      </trkpt>
      <trkpt lat="46.54121" lon="-0.78709">
        <ele>90.8</ele>
        <time>2022-06-19T08:10:14Z</time>
      </trkpt>
      <trkpt lat="46.54118" lon="-0.78714">
        <ele>91</ele>
        <time>2022-06-19T08:10:15Z</time>
      </trkpt>
      <trkpt lat="46.54094" lon="-0.7875">
        <ele>91.2</ele>
        <time>2022-06-19T08:10:21Z</time>
      </trkpt>
      <trkpt lat="46.54088" lon="-0.78755">
        <ele>91.2</ele>
        <time>2022-06-19T08:10:22Z</time>
      </trkpt>
      <trkpt lat="46.5408" lon="-0.78764">
        <ele>91.4</ele>
        <time>2022-06-19T08:10:24Z</time>
      </trkpt>
      <trkpt lat="46.54075" lon="-0.78769">
        <ele>91.4</ele>
        <time>2022-06-19T08:10:25Z</time>
      </trkpt>
      <trkpt lat="46.54071" lon="-0.78773">
        <ele>91.4</ele>
        <time>2022-06-19T08:10:26Z</time>
      </trkpt>
      <trkpt lat="46.54053" lon="-0.78785">
        <ele>91.8</ele>
        <time>2022-06-19T08:10:30Z</time>
      </trkpt>
      <trkpt lat="46.5404" lon="-0.78797">
        <ele>92</ele>
        <time>2022-06-19T08:10:33Z</time>
      </trkpt>
      <trkpt lat="46.54028" lon="-0.78809">
        <ele>92.4</ele>
        <time>2022-06-19T08:10:36Z</time>
      </trkpt>
      <trkpt lat="46.54022" lon="-0.78818">
        <ele>92.8</ele>
        <time>2022-06-19T08:10:38Z</time>
      </trkpt>
      <trkpt lat="46.54016" lon="-0.78834">
        <ele>93</ele>
        <time>2022-06-19T08:10:41Z</time>
      </trkpt>
      <trkpt lat="46.5401" lon="-0.78851">
        <ele>92.8</ele>
        <time>2022-06-19T08:10:44Z</time>
      </trkpt>
      <trkpt lat="46.54006" lon="-0.78864">
        <ele>92.6</ele>
        <time>2022-06-19T08:10:46Z</time>
      </trkpt>
      <trkpt lat="46.54004" lon="-0.7887">
        <ele>92.8</ele>
        <time>2022-06-19T08:10:47Z</time>
      </trkpt>
      <trkpt lat="46.54001" lon="-0.7888">
        <ele>93.2</ele>
        <time>2022-06-19T08:10:49Z</time>
      </trkpt>
      <trkpt lat="46.53999" lon="-0.78885">
        <ele>93.2</ele>
        <time>2022-06-19T08:10:50Z</time>
      </trkpt>
      <trkpt lat="46.53996" lon="-0.78894">
        <ele>93.2</ele>
        <time>2022-06-19T08:10:52Z</time>
      </trkpt>
      <trkpt lat="46.53988" lon="-0.78916">
        <ele>93.4</ele>
        <time>2022-06-19T08:10:56Z</time>
      </trkpt>
      <trkpt lat="46.53986" lon="-0.78929">
        <ele>93.4</ele>
        <time>2022-06-19T08:10:58Z</time>
      </trkpt>
      <trkpt lat="46.53983" lon="-0.78942">
        <ele>93.2</ele>
        <time>2022-06-19T08:11:00Z</time>
      </trkpt>
      <trkpt lat="46.53979" lon="-0.78954">
        <ele>93.4</ele>
        <time>2022-06-19T08:11:02Z</time>
      </trkpt>
      <trkpt lat="46.53972" lon="-0.78972">
        <ele>93.4</ele>
        <time>2022-06-19T08:11:05Z</time>
      </trkpt>
      <trkpt lat="46.53968" lon="-0.78981">
        <ele>93.8</ele>
        <time>2022-06-19T08:11:07Z</time>
      </trkpt>
      <trkpt lat="46.53966" lon="-0.78986">
        <ele>94</ele>
        <time>2022-06-19T08:11:08Z</time>
      </trkpt>
      <trkpt lat="46.53962" lon="-0.78995">
        <ele>94.2</ele>
        <time>2022-06-19T08:11:10Z</time>
      </trkpt>
      <trkpt lat="46.53954" lon="-0.79014">
        <ele>94.6</ele>
        <time>2022-06-19T08:11:14Z</time>
      </trkpt>
      <trkpt lat="46.53949" lon="-0.79023">
        <ele>95.2</ele>
        <time>2022-06-19T08:11:16Z</time>
      </trkpt>
      <trkpt lat="46.53938" lon="-0.79038">
        <ele>95.8</ele>
        <time>2022-06-19T08:11:20Z</time>
      </trkpt>
      <trkpt lat="46.53929" lon="-0.79051">
        <ele>96.4</ele>
        <time>2022-06-19T08:11:24Z</time>
      </trkpt>
      <trkpt lat="46.53923" lon="-0.79059">
        <ele>96.8</ele>
        <time>2022-06-19T08:11:26Z</time>
      </trkpt>
      <trkpt lat="46.53913" lon="-0.79078">
        <ele>97.6</ele>
        <time>2022-06-19T08:11:30Z</time>
      </trkpt>
      <trkpt lat="46.53905" lon="-0.79089">
        <ele>98</ele>
        <time>2022-06-19T08:11:33Z</time>
      </trkpt>
      <trkpt lat="46.53888" lon="-0.79116">
        <ele>98.6</ele>
        <time>2022-06-19T08:11:40Z</time>
      </trkpt>
      <trkpt lat="46.53885" lon="-0.79131">
        <ele>98.8</ele>
        <time>2022-06-19T08:11:43Z</time>
      </trkpt>
      <trkpt lat="46.53886" lon="-0.79136">
        <ele>98.8</ele>
        <time>2022-06-19T08:11:44Z</time>
      </trkpt>
      <trkpt lat="46.53885" lon="-0.79157">
        <ele>98.8</ele>
        <time>2022-06-19T08:11:48Z</time>
      </trkpt>
      <trkpt lat="46.53885" lon="-0.79173">
        <ele>98.8</ele>
        <time>2022-06-19T08:11:51Z</time>
      </trkpt>
      <trkpt lat="46.53885" lon="-0.79197">
        <ele>98.6</ele>
        <time>2022-06-19T08:11:55Z</time>
      </trkpt>
      <trkpt lat="46.53884" lon="-0.79207">
        <ele>98.6</ele>
        <time>2022-06-19T08:11:57Z</time>
      </trkpt>
      <trkpt lat="46.53884" lon="-0.79232">
        <ele>98.4</ele>
        <time>2022-06-19T08:12:01Z</time>
      </trkpt>
      <trkpt lat="46.53884" lon="-0.79252">
        <ele>98.4</ele>
        <time>2022-06-19T08:12:04Z</time>
      </trkpt>
      <trkpt lat="46.53884" lon="-0.79266">
        <ele>98.6</ele>
        <time>2022-06-19T08:12:06Z</time>
      </trkpt>
      <trkpt lat="46.53883" lon="-0.79282">
        <ele>98.2</ele>
        <time>2022-06-19T08:12:08Z</time>
      </trkpt>
      <trkpt lat="46.53881" lon="-0.79341">
        <ele>98</ele>
        <time>2022-06-19T08:12:14Z</time>
      </trkpt>
      <trkpt lat="46.53877" lon="-0.79394">
        <ele>97.6</ele>
        <time>2022-06-19T08:12:19Z</time>
      </trkpt>
      <trkpt lat="46.53875" lon="-0.79403">
        <ele>97.6</ele>
        <time>2022-06-19T08:12:20Z</time>
      </trkpt>
      <trkpt lat="46.53871" lon="-0.79411">
        <ele>97.4</ele>
        <time>2022-06-19T08:12:22Z</time>
      </trkpt>
      <trkpt lat="46.53869" lon="-0.79412">
        <ele>97.4</ele>
        <time>2022-06-19T08:12:23Z</time>
      </trkpt>
      <trkpt lat="46.53851" lon="-0.79417">
        <ele>97.6</ele>
        <time>2022-06-19T08:12:28Z</time>
      </trkpt>
      <trkpt lat="46.53819" lon="-0.79416">
        <ele>97</ele>
        <time>2022-06-19T08:12:34Z</time>
      </trkpt>
      <trkpt lat="46.538" lon="-0.79418">
        <ele>96.6</ele>
        <time>2022-06-19T08:12:38Z</time>
      </trkpt>
      <trkpt lat="46.53795" lon="-0.79419">
        <ele>96.6</ele>
        <time>2022-06-19T08:12:39Z</time>
      </trkpt>
      <trkpt lat="46.53775" lon="-0.79419">
        <ele>96.6</ele>
        <time>2022-06-19T08:12:44Z</time>
      </trkpt>
      <trkpt lat="46.53771" lon="-0.79419">
        <ele>96.6</ele>
        <time>2022-06-19T08:12:45Z</time>
      </trkpt>
      <trkpt lat="46.53757" lon="-0.79418">
        <ele>96.6</ele>
        <time>2022-06-19T08:12:48Z</time>
      </trkpt>
      <trkpt lat="46.53737" lon="-0.79418">
        <ele>96.2</ele>
        <time>2022-06-19T08:12:52Z</time>
      </trkpt>
      <trkpt lat="46.53716" lon="-0.79417">
        <ele>96.4</ele>
        <time>2022-06-19T08:12:58Z</time>
      </trkpt>
      <trkpt lat="46.53695" lon="-0.79414">
        <ele>97.6</ele>
        <time>2022-06-19T08:13:04Z</time>
      </trkpt>
      <trkpt lat="46.53688" lon="-0.79414">
        <ele>97.8</ele>
        <time>2022-06-19T08:13:06Z</time>
      </trkpt>
      <trkpt lat="46.5367" lon="-0.79415">
        <ele>98.6</ele>
        <time>2022-06-19T08:13:12Z</time>
      </trkpt>
      <trkpt lat="46.53668" lon="-0.79414">
        <ele>98.8</ele>
        <time>2022-06-19T08:13:13Z</time>
      </trkpt>
      <trkpt lat="46.5365" lon="-0.79412">
        <ele>98.8</ele>
        <time>2022-06-19T08:13:19Z</time>
      </trkpt>
      <trkpt lat="46.53629" lon="-0.79413">
        <ele>99.6</ele>
        <time>2022-06-19T08:13:25Z</time>
      </trkpt>
      <trkpt lat="46.53626" lon="-0.79413">
        <ele>99.8</ele>
        <time>2022-06-19T08:13:26Z</time>
      </trkpt>
      <trkpt lat="46.53603" lon="-0.79416">
        <ele>99.6</ele>
        <time>2022-06-19T08:13:32Z</time>
      </trkpt>
      <trkpt lat="46.53594" lon="-0.79418">
        <ele>99.6</ele>
        <time>2022-06-19T08:13:35Z</time>
      </trkpt>
      <trkpt lat="46.53591" lon="-0.79423">
        <ele>99.6</ele>
        <time>2022-06-19T08:13:37Z</time>
      </trkpt>
      <trkpt lat="46.53587" lon="-0.79444">
        <ele>99.6</ele>
        <time>2022-06-19T08:13:42Z</time>
      </trkpt>
      <trkpt lat="46.53587" lon="-0.79457">
        <ele>99.8</ele>
        <time>2022-06-19T08:13:45Z</time>
      </trkpt>
      <trkpt lat="46.53587" lon="-0.79467">
        <ele>99.8</ele>
        <time>2022-06-19T08:13:47Z</time>
      </trkpt>
      <trkpt lat="46.53585" lon="-0.79508">
        <ele>100.4</ele>
        <time>2022-06-19T08:13:54Z</time>
      </trkpt>
      <trkpt lat="46.53585" lon="-0.79524">
        <ele>100.6</ele>
        <time>2022-06-19T08:13:56Z</time>
      </trkpt>
      <trkpt lat="46.53584" lon="-0.79538">
        <ele>100.2</ele>
        <time>2022-06-19T08:13:58Z</time>
      </trkpt>
      <trkpt lat="46.53583" lon="-0.79544">
        <ele>100.2</ele>
        <time>2022-06-19T08:13:59Z</time>
      </trkpt>
      <trkpt lat="46.53582" lon="-0.79558">
        <ele>100.2</ele>
        <time>2022-06-19T08:14:01Z</time>
      </trkpt>
      <trkpt lat="46.53582" lon="-0.79566">
        <ele>100</ele>
        <time>2022-06-19T08:14:02Z</time>
      </trkpt>
      <trkpt lat="46.53581" lon="-0.79611">
        <ele>99.8</ele>
        <time>2022-06-19T08:14:08Z</time>
      </trkpt>
      <trkpt lat="46.53579" lon="-0.79655">
        <ele>98.4</ele>
        <time>2022-06-19T08:14:13Z</time>
      </trkpt>
      <trkpt lat="46.53579" lon="-0.79662">
        <ele>98.2</ele>
        <time>2022-06-19T08:14:14Z</time>
      </trkpt>
      <trkpt lat="46.53581" lon="-0.79667">
        <ele>98.2</ele>
        <time>2022-06-19T08:14:15Z</time>
      </trkpt>
      <trkpt lat="46.53585" lon="-0.79673">
        <ele>98.6</ele>
        <time>2022-06-19T08:14:17Z</time>
      </trkpt>
      <trkpt lat="46.53588" lon="-0.79677">
        <ele>99</ele>
        <time>2022-06-19T08:14:19Z</time>
      </trkpt>
      <trkpt lat="46.53594" lon="-0.7968">
        <ele>99.2</ele>
        <time>2022-06-19T08:14:21Z</time>
      </trkpt>
      <trkpt lat="46.53605" lon="-0.79683">
        <ele>99.4</ele>
        <time>2022-06-19T08:14:24Z</time>
      </trkpt>
      <trkpt lat="46.53624" lon="-0.79688">
        <ele>99.8</ele>
        <time>2022-06-19T08:14:29Z</time>
      </trkpt>
      <trkpt lat="46.53628" lon="-0.79688">
        <ele>100</ele>
        <time>2022-06-19T08:14:30Z</time>
      </trkpt>
      <trkpt lat="46.53651" lon="-0.79693">
        <ele>100.4</ele>
        <time>2022-06-19T08:14:35Z</time>
      </trkpt>
      <trkpt lat="46.53657" lon="-0.79694">
        <ele>100.6</ele>
        <time>2022-06-19T08:14:36Z</time>
      </trkpt>
      <trkpt lat="46.53695" lon="-0.79699">
        <ele>101.2</ele>
        <time>2022-06-19T08:14:44Z</time>
      </trkpt>
      <trkpt lat="46.53717" lon="-0.79701">
        <ele>101.4</ele>
        <time>2022-06-19T08:14:49Z</time>
      </trkpt>
      <trkpt lat="46.53726" lon="-0.79702">
        <ele>101.6</ele>
        <time>2022-06-19T08:14:51Z</time>
      </trkpt>
      <trkpt lat="46.53749" lon="-0.79703">
        <ele>101.6</ele>
        <time>2022-06-19T08:14:56Z</time>
      </trkpt>
      <trkpt lat="46.53774" lon="-0.79706">
        <ele>101.6</ele>
        <time>2022-06-19T08:15:01Z</time>
      </trkpt>
      <trkpt lat="46.53778" lon="-0.79707">
        <ele>101.6</ele>
        <time>2022-06-19T08:15:02Z</time>
      </trkpt>
      <trkpt lat="46.53815" lon="-0.79712">
        <ele>102.2</ele>
        <time>2022-06-19T08:15:10Z</time>
      </trkpt>
      <trkpt lat="46.53842" lon="-0.79714">
        <ele>102</ele>
        <time>2022-06-19T08:15:17Z</time>
      </trkpt>
      <trkpt lat="46.53866" lon="-0.79714">
        <ele>102.6</ele>
        <time>2022-06-19T08:15:22Z</time>
      </trkpt>
      <trkpt lat="46.53904" lon="-0.79717">
        <ele>102.8</ele>
        <time>2022-06-19T08:15:29Z</time>
      </trkpt>
      <trkpt lat="46.53943" lon="-0.79721">
        <ele>102.8</ele>
        <time>2022-06-19T08:15:36Z</time>
      </trkpt>
      <trkpt lat="46.54" lon="-0.79726">
        <ele>103.4</ele>
        <time>2022-06-19T08:15:47Z</time>
      </trkpt>
      <trkpt lat="46.54005" lon="-0.79726">
        <ele>103.6</ele>
        <time>2022-06-19T08:15:48Z</time>
      </trkpt>
      <trkpt lat="46.54011" lon="-0.79727">
        <ele>103.6</ele>
        <time>2022-06-19T08:15:49Z</time>
      </trkpt>
      <trkpt lat="46.54042" lon="-0.7973">
        <ele>103.8</ele>
        <time>2022-06-19T08:15:55Z</time>
      </trkpt>
      <trkpt lat="46.5407" lon="-0.79733">
        <ele>104</ele>
        <time>2022-06-19T08:16:01Z</time>
      </trkpt>
      <trkpt lat="46.54075" lon="-0.79733">
        <ele>104</ele>
        <time>2022-06-19T08:16:02Z</time>
      </trkpt>
      <trkpt lat="46.54093" lon="-0.79735">
        <ele>104.6</ele>
        <time>2022-06-19T08:16:06Z</time>
      </trkpt>
      <trkpt lat="46.54108" lon="-0.79737">
        <ele>105</ele>
        <time>2022-06-19T08:16:09Z</time>
      </trkpt>
      <trkpt lat="46.5415" lon="-0.7974">
        <ele>105.2</ele>
        <time>2022-06-19T08:16:18Z</time>
      </trkpt>
      <trkpt lat="46.54183" lon="-0.79743">
        <ele>105.6</ele>
        <time>2022-06-19T08:16:25Z</time>
      </trkpt>
      <trkpt lat="46.54219" lon="-0.79746">
        <ele>105.2</ele>
        <time>2022-06-19T08:16:32Z</time>
      </trkpt>
      <trkpt lat="46.54274" lon="-0.79751">
        <ele>104.2</ele>
        <time>2022-06-19T08:16:41Z</time>
      </trkpt>
      <trkpt lat="46.54287" lon="-0.79752">
        <ele>103.6</ele>
        <time>2022-06-19T08:16:43Z</time>
      </trkpt>
      <trkpt lat="46.543" lon="-0.79753">
        <ele>102.6</ele>
        <time>2022-06-19T08:16:45Z</time>
      </trkpt>
      <trkpt lat="46.54314" lon="-0.79754">
        <ele>101.8</ele>
        <time>2022-06-19T08:16:47Z</time>
      </trkpt>
      <trkpt lat="46.54342" lon="-0.79755">
        <ele>101.8</ele>
        <time>2022-06-19T08:16:52Z</time>
      </trkpt>
      <trkpt lat="46.54373" lon="-0.79757">
        <ele>102.4</ele>
        <time>2022-06-19T08:16:59Z</time>
      </trkpt>
      <trkpt lat="46.54381" lon="-0.79757">
        <ele>102.8</ele>
        <time>2022-06-19T08:17:01Z</time>
      </trkpt>
      <trkpt lat="46.54396" lon="-0.79759">
        <ele>103.2</ele>
        <time>2022-06-19T08:17:05Z</time>
      </trkpt>
      <trkpt lat="46.54399" lon="-0.79761">
        <ele>103.2</ele>
        <time>2022-06-19T08:17:06Z</time>
      </trkpt>
      <trkpt lat="46.54408" lon="-0.79771">
        <ele>103.4</ele>
        <time>2022-06-19T08:17:09Z</time>
      </trkpt>
      <trkpt lat="46.54414" lon="-0.7978">
        <ele>103.6</ele>
        <time>2022-06-19T08:17:11Z</time>
      </trkpt>
      <trkpt lat="46.54418" lon="-0.79791">
        <ele>103.8</ele>
        <time>2022-06-19T08:17:13Z</time>
      </trkpt>
      <trkpt lat="46.54421" lon="-0.79795">
        <ele>104</ele>
        <time>2022-06-19T08:17:14Z</time>
      </trkpt>
      <trkpt lat="46.54433" lon="-0.79818">
        <ele>104.2</ele>
        <time>2022-06-19T08:17:19Z</time>
      </trkpt>
      <trkpt lat="46.54434" lon="-0.7983">
        <ele>104.2</ele>
        <time>2022-06-19T08:17:21Z</time>
      </trkpt>
      <trkpt lat="46.54438" lon="-0.79839">
        <ele>104</ele>
        <time>2022-06-19T08:17:23Z</time>
      </trkpt>
      <trkpt lat="46.54443" lon="-0.79849">
        <ele>103.8</ele>
        <time>2022-06-19T08:17:25Z</time>
      </trkpt>
      <trkpt lat="46.54447" lon="-0.79862">
        <ele>103.6</ele>
        <time>2022-06-19T08:17:27Z</time>
      </trkpt>
      <trkpt lat="46.54448" lon="-0.79867">
        <ele>103.6</ele>
        <time>2022-06-19T08:17:28Z</time>
      </trkpt>
      <trkpt lat="46.5445" lon="-0.79872">
        <ele>103.6</ele>
        <time>2022-06-19T08:17:29Z</time>
      </trkpt>
      <trkpt lat="46.54455" lon="-0.79882">
        <ele>103.6</ele>
        <time>2022-06-19T08:17:31Z</time>
      </trkpt>
      <trkpt lat="46.54458" lon="-0.79887">
        <ele>103.4</ele>
        <time>2022-06-19T08:17:32Z</time>
      </trkpt>
      <trkpt lat="46.54464" lon="-0.79897">
        <ele>103.2</ele>
        <time>2022-06-19T08:17:34Z</time>
      </trkpt>
      <trkpt lat="46.54472" lon="-0.79918">
        <ele>103</ele>
        <time>2022-06-19T08:17:37Z</time>
      </trkpt>
      <trkpt lat="46.54481" lon="-0.79946">
        <ele>103.2</ele>
        <time>2022-06-19T08:17:41Z</time>
      </trkpt>
      <trkpt lat="46.54483" lon="-0.79962">
        <ele>103.8</ele>
        <time>2022-06-19T08:17:43Z</time>
      </trkpt>
      <trkpt lat="46.54484" lon="-0.7998">
        <ele>104</ele>
        <time>2022-06-19T08:17:45Z</time>
      </trkpt>
      <trkpt lat="46.54485" lon="-0.79996">
        <ele>104</ele>
        <time>2022-06-19T08:17:47Z</time>
      </trkpt>
      <trkpt lat="46.54484" lon="-0.80003">
        <ele>104</ele>
        <time>2022-06-19T08:17:48Z</time>
      </trkpt>
      <trkpt lat="46.54484" lon="-0.80011">
        <ele>104</ele>
        <time>2022-06-19T08:17:49Z</time>
      </trkpt>
      <trkpt lat="46.54482" lon="-0.80034">
        <ele>104.2</ele>
        <time>2022-06-19T08:17:52Z</time>
      </trkpt>
      <trkpt lat="46.54482" lon="-0.80042">
        <ele>104.4</ele>
        <time>2022-06-19T08:17:53Z</time>
      </trkpt>
      <trkpt lat="46.54482" lon="-0.80051">
        <ele>104.4</ele>
        <time>2022-06-19T08:17:54Z</time>
      </trkpt>
      <trkpt lat="46.54481" lon="-0.80077">
        <ele>104.8</ele>
        <time>2022-06-19T08:17:57Z</time>
      </trkpt>
      <trkpt lat="46.54479" lon="-0.80084">
        <ele>104.8</ele>
        <time>2022-06-19T08:17:58Z</time>
      </trkpt>
      <trkpt lat="46.54476" lon="-0.80097">
        <ele>105</ele>
        <time>2022-06-19T08:18:00Z</time>
      </trkpt>
      <trkpt lat="46.54473" lon="-0.80107">
        <ele>105.4</ele>
        <time>2022-06-19T08:18:02Z</time>
      </trkpt>
      <trkpt lat="46.54471" lon="-0.80113">
        <ele>105.6</ele>
        <time>2022-06-19T08:18:03Z</time>
      </trkpt>
      <trkpt lat="46.54467" lon="-0.80123">
        <ele>105.8</ele>
        <time>2022-06-19T08:18:05Z</time>
      </trkpt>
      <trkpt lat="46.54458" lon="-0.80148">
        <ele>105.8</ele>
        <time>2022-06-19T08:18:09Z</time>
      </trkpt>
      <trkpt lat="46.54451" lon="-0.80172">
        <ele>105.6</ele>
        <time>2022-06-19T08:18:13Z</time>
      </trkpt>
      <trkpt lat="46.54449" lon="-0.80184">
        <ele>105.6</ele>
        <time>2022-06-19T08:18:15Z</time>
      </trkpt>
      <trkpt lat="46.54448" lon="-0.80198">
        <ele>105.6</ele>
        <time>2022-06-19T08:18:17Z</time>
      </trkpt>
      <trkpt lat="46.54443" lon="-0.80212">
        <ele>106.2</ele>
        <time>2022-06-19T08:18:19Z</time>
      </trkpt>
      <trkpt lat="46.54434" lon="-0.80229">
        <ele>106.4</ele>
        <time>2022-06-19T08:18:22Z</time>
      </trkpt>
      <trkpt lat="46.54427" lon="-0.80241">
        <ele>106.4</ele>
        <time>2022-06-19T08:18:24Z</time>
      </trkpt>
      <trkpt lat="46.54422" lon="-0.80246">
        <ele>106.4</ele>
        <time>2022-06-19T08:18:25Z</time>
      </trkpt>
      <trkpt lat="46.54416" lon="-0.80249">
        <ele>106.4</ele>
        <time>2022-06-19T08:18:26Z</time>
      </trkpt>
      <trkpt lat="46.54389" lon="-0.80261">
        <ele>105.8</ele>
        <time>2022-06-19T08:18:30Z</time>
      </trkpt>
      <trkpt lat="46.54369" lon="-0.80268">
        <ele>105.4</ele>
        <time>2022-06-19T08:18:33Z</time>
      </trkpt>
      <trkpt lat="46.54355" lon="-0.80267">
        <ele>105</ele>
        <time>2022-06-19T08:18:35Z</time>
      </trkpt>
      <trkpt lat="46.54349" lon="-0.80265">
        <ele>104.8</ele>
        <time>2022-06-19T08:18:36Z</time>
      </trkpt>
      <trkpt lat="46.54344" lon="-0.80264">
        <ele>104.4</ele>
        <time>2022-06-19T08:18:37Z</time>
      </trkpt>
      <trkpt lat="46.54329" lon="-0.80266">
        <ele>104</ele>
        <time>2022-06-19T08:18:39Z</time>
      </trkpt>
      <trkpt lat="46.54323" lon="-0.80265">
        <ele>104</ele>
        <time>2022-06-19T08:18:40Z</time>
      </trkpt>
      <trkpt lat="46.54304" lon="-0.80264">
        <ele>103.2</ele>
        <time>2022-06-19T08:18:43Z</time>
      </trkpt>
      <trkpt lat="46.54289" lon="-0.80269">
        <ele>102.6</ele>
        <time>2022-06-19T08:18:45Z</time>
      </trkpt>
      <trkpt lat="46.54283" lon="-0.80272">
        <ele>102.6</ele>
        <time>2022-06-19T08:18:46Z</time>
      </trkpt>
      <trkpt lat="46.54277" lon="-0.80274">
        <ele>102.4</ele>
        <time>2022-06-19T08:18:47Z</time>
      </trkpt>
      <trkpt lat="46.54262" lon="-0.80275">
        <ele>102</ele>
        <time>2022-06-19T08:18:49Z</time>
      </trkpt>
      <trkpt lat="46.54255" lon="-0.80274">
        <ele>102</ele>
        <time>2022-06-19T08:18:50Z</time>
      </trkpt>
      <trkpt lat="46.54238" lon="-0.80275">
        <ele>101</ele>
        <time>2022-06-19T08:18:52Z</time>
      </trkpt>
      <trkpt lat="46.54213" lon="-0.80279">
        <ele>99.8</ele>
        <time>2022-06-19T08:18:55Z</time>
      </trkpt>
      <trkpt lat="46.54198" lon="-0.80282">
        <ele>98.8</ele>
        <time>2022-06-19T08:18:57Z</time>
      </trkpt>
      <trkpt lat="46.54189" lon="-0.80282">
        <ele>98</ele>
        <time>2022-06-19T08:18:59Z</time>
      </trkpt>
      <trkpt lat="46.54188" lon="-0.8028">
        <ele>97.6</ele>
        <time>2022-06-19T08:19:00Z</time>
      </trkpt>
      <trkpt lat="46.54187" lon="-0.80278">
        <ele>97.2</ele>
        <time>2022-06-19T08:19:01Z</time>
      </trkpt>
      <trkpt lat="46.54186" lon="-0.80274">
        <ele>97</ele>
        <time>2022-06-19T08:19:02Z</time>
      </trkpt>
      <trkpt lat="46.54186" lon="-0.80271">
        <ele>96.8</ele>
        <time>2022-06-19T08:19:03Z</time>
      </trkpt>
      <trkpt lat="46.54186" lon="-0.80266">
        <ele>96.4</ele>
        <time>2022-06-19T08:19:04Z</time>
      </trkpt>
      <trkpt lat="46.54187" lon="-0.80261">
        <ele>96.4</ele>
        <time>2022-06-19T08:19:05Z</time>
      </trkpt>
      <trkpt lat="46.54187" lon="-0.80254">
        <ele>96.4</ele>
        <time>2022-06-19T08:19:06Z</time>
      </trkpt>
      <trkpt lat="46.5419" lon="-0.80238">
        <ele>95.2</ele>
        <time>2022-06-19T08:19:09Z</time>
      </trkpt>
      <trkpt lat="46.54191" lon="-0.8023">
        <ele>94.6</ele>
        <time>2022-06-19T08:19:11Z</time>
      </trkpt>
      <trkpt lat="46.54191" lon="-0.80224">
        <ele>94</ele>
        <time>2022-06-19T08:19:13Z</time>
      </trkpt>
      <trkpt lat="46.54186" lon="-0.80212">
        <ele>94.2</ele>
        <time>2022-06-19T08:19:17Z</time>
      </trkpt>
      <trkpt lat="46.54187" lon="-0.80196">
        <ele>94.8</ele>
        <time>2022-06-19T08:19:23Z</time>
      </trkpt>
      <trkpt lat="46.54188" lon="-0.80188">
        <ele>95</ele>
        <time>2022-06-19T08:19:25Z</time>
      </trkpt>
      <trkpt lat="46.54189" lon="-0.80174">
        <ele>96</ele>
        <time>2022-06-19T08:19:29Z</time>
      </trkpt>
      <trkpt lat="46.54189" lon="-0.8017">
        <ele>96.4</ele>
        <time>2022-06-19T08:19:30Z</time>
      </trkpt>
      <trkpt lat="46.54187" lon="-0.8015">
        <ele>97.6</ele>
        <time>2022-06-19T08:19:35Z</time>
      </trkpt>
      <trkpt lat="46.54186" lon="-0.80147">
        <ele>97.8</ele>
        <time>2022-06-19T08:19:36Z</time>
      </trkpt>
      <trkpt lat="46.54186" lon="-0.80131">
        <ele>98.8</ele>
        <time>2022-06-19T08:19:40Z</time>
      </trkpt>
      <trkpt lat="46.54186" lon="-0.8012">
        <ele>99.4</ele>
        <time>2022-06-19T08:19:43Z</time>
      </trkpt>
      <trkpt lat="46.54186" lon="-0.80112">
        <ele>99.8</ele>
        <time>2022-06-19T08:19:45Z</time>
      </trkpt>
      <trkpt lat="46.54191" lon="-0.80086">
        <ele>100.6</ele>
        <time>2022-06-19T08:19:51Z</time>
      </trkpt>
      <trkpt lat="46.54191" lon="-0.80071">
        <ele>100.8</ele>
        <time>2022-06-19T08:19:54Z</time>
      </trkpt>
      <trkpt lat="46.54191" lon="-0.80057">
        <ele>101.2</ele>
        <time>2022-06-19T08:19:57Z</time>
      </trkpt>
      <trkpt lat="46.54193" lon="-0.80028">
        <ele>102</ele>
        <time>2022-06-19T08:20:02Z</time>
      </trkpt>
      <trkpt lat="46.54194" lon="-0.80017">
        <ele>102.2</ele>
        <time>2022-06-19T08:20:04Z</time>
      </trkpt>
      <trkpt lat="46.54193" lon="-0.79981">
        <ele>103.2</ele>
        <time>2022-06-19T08:20:10Z</time>
      </trkpt>
      <trkpt lat="46.54194" lon="-0.79969">
        <ele>103.2</ele>
        <time>2022-06-19T08:20:12Z</time>
      </trkpt>
      <trkpt lat="46.54195" lon="-0.79953">
        <ele>103.4</ele>
        <time>2022-06-19T08:20:15Z</time>
      </trkpt>
      <trkpt lat="46.54193" lon="-0.79952">
        <ele>103.6</ele>
        <time>2022-06-19T08:20:16Z</time>
      </trkpt>
      <trkpt lat="46.54179" lon="-0.79949">
        <ele>103.6</ele>
        <time>2022-06-19T08:20:20Z</time>
      </trkpt>
      <trkpt lat="46.54167" lon="-0.79948">
        <ele>103.4</ele>
        <time>2022-06-19T08:20:23Z</time>
      </trkpt>
      <trkpt lat="46.54161" lon="-0.7995">
        <ele>103</ele>
        <time>2022-06-19T08:20:25Z</time>
      </trkpt>
      <trkpt lat="46.54157" lon="-0.79951">
        <ele>103</ele>
        <time>2022-06-19T08:20:26Z</time>
      </trkpt>
      <trkpt lat="46.54153" lon="-0.79951">
        <ele>102.8</ele>
        <time>2022-06-19T08:20:27Z</time>
      </trkpt>
      <trkpt lat="46.54136" lon="-0.79951">
        <ele>102.2</ele>
        <time>2022-06-19T08:20:30Z</time>
      </trkpt>
      <trkpt lat="46.5413" lon="-0.7995">
        <ele>102</ele>
        <time>2022-06-19T08:20:31Z</time>
      </trkpt>
      <trkpt lat="46.54109" lon="-0.79947">
        <ele>101.8</ele>
        <time>2022-06-19T08:20:34Z</time>
      </trkpt>
      <trkpt lat="46.54102" lon="-0.79946">
        <ele>101.8</ele>
        <time>2022-06-19T08:20:35Z</time>
      </trkpt>
      <trkpt lat="46.54073" lon="-0.79943">
        <ele>101.6</ele>
        <time>2022-06-19T08:20:40Z</time>
      </trkpt>
      <trkpt lat="46.54032" lon="-0.79944">
        <ele>101.4</ele>
        <time>2022-06-19T08:20:47Z</time>
      </trkpt>
      <trkpt lat="46.54014" lon="-0.79944">
        <ele>101.2</ele>
        <time>2022-06-19T08:20:50Z</time>
      </trkpt>
      <trkpt lat="46.53992" lon="-0.79939">
        <ele>101.2</ele>
        <time>2022-06-19T08:20:53Z</time>
      </trkpt>
      <trkpt lat="46.53957" lon="-0.79936">
        <ele>101.4</ele>
        <time>2022-06-19T08:20:58Z</time>
      </trkpt>
      <trkpt lat="46.53937" lon="-0.79935">
        <ele>100.6</ele>
        <time>2022-06-19T08:21:01Z</time>
      </trkpt>
      <trkpt lat="46.53914" lon="-0.79934">
        <ele>100</ele>
        <time>2022-06-19T08:21:05Z</time>
      </trkpt>
      <trkpt lat="46.53873" lon="-0.79935">
        <ele>101</ele>
        <time>2022-06-19T08:21:13Z</time>
      </trkpt>
      <trkpt lat="46.53869" lon="-0.79935">
        <ele>101</ele>
        <time>2022-06-19T08:21:14Z</time>
      </trkpt>
      <trkpt lat="46.53862" lon="-0.79936">
        <ele>101.4</ele>
        <time>2022-06-19T08:21:16Z</time>
      </trkpt>
      <trkpt lat="46.53853" lon="-0.79936">
        <ele>101.4</ele>
        <time>2022-06-19T08:21:18Z</time>
      </trkpt>
      <trkpt lat="46.53848" lon="-0.79936">
        <ele>101.8</ele>
        <time>2022-06-19T08:21:19Z</time>
      </trkpt>
      <trkpt lat="46.53816" lon="-0.79932">
        <ele>102.8</ele>
        <time>2022-06-19T08:21:25Z</time>
      </trkpt>
      <trkpt lat="46.53808" lon="-0.79932">
        <ele>102.8</ele>
        <time>2022-06-19T08:21:27Z</time>
      </trkpt>
      <trkpt lat="46.53773" lon="-0.79928">
        <ele>103.2</ele>
        <time>2022-06-19T08:21:34Z</time>
      </trkpt>
      <trkpt lat="46.53761" lon="-0.7993">
        <ele>103</ele>
        <time>2022-06-19T08:21:37Z</time>
      </trkpt>
      <trkpt lat="46.53751" lon="-0.7993">
        <ele>103</ele>
        <time>2022-06-19T08:21:39Z</time>
      </trkpt>
      <trkpt lat="46.5371" lon="-0.79925">
        <ele>103</ele>
        <time>2022-06-19T08:21:46Z</time>
      </trkpt>
      <trkpt lat="46.5367" lon="-0.79927">
        <ele>102.6</ele>
        <time>2022-06-19T08:21:52Z</time>
      </trkpt>
      <trkpt lat="46.53647" lon="-0.79927">
        <ele>102.4</ele>
        <time>2022-06-19T08:21:55Z</time>
      </trkpt>
      <trkpt lat="46.53623" lon="-0.7992">
        <ele>101.8</ele>
        <time>2022-06-19T08:21:58Z</time>
      </trkpt>
      <trkpt lat="46.53615" lon="-0.79917">
        <ele>101.8</ele>
        <time>2022-06-19T08:21:59Z</time>
      </trkpt>
      <trkpt lat="46.53593" lon="-0.79915">
        <ele>100.6</ele>
        <time>2022-06-19T08:22:02Z</time>
      </trkpt>
      <trkpt lat="46.53578" lon="-0.79915">
        <ele>100.6</ele>
        <time>2022-06-19T08:22:04Z</time>
      </trkpt>
      <trkpt lat="46.53533" lon="-0.79912">
        <ele>99.2</ele>
        <time>2022-06-19T08:22:10Z</time>
      </trkpt>
      <trkpt lat="46.53492" lon="-0.79907">
        <ele>98</ele>
        <time>2022-06-19T08:22:16Z</time>
      </trkpt>
      <trkpt lat="46.53456" lon="-0.79899">
        <ele>98</ele>
        <time>2022-06-19T08:22:22Z</time>
      </trkpt>
      <trkpt lat="46.53415" lon="-0.79898">
        <ele>96.8</ele>
        <time>2022-06-19T08:22:29Z</time>
      </trkpt>
      <trkpt lat="46.53387" lon="-0.79895">
        <ele>95.8</ele>
        <time>2022-06-19T08:22:34Z</time>
      </trkpt>
      <trkpt lat="46.53381" lon="-0.79896">
        <ele>95.4</ele>
        <time>2022-06-19T08:22:35Z</time>
      </trkpt>
      <trkpt lat="46.5337" lon="-0.799">
        <ele>95</ele>
        <time>2022-06-19T08:22:38Z</time>
      </trkpt>
      <trkpt lat="46.53369" lon="-0.79904">
        <ele>94.8</ele>
        <time>2022-06-19T08:22:39Z</time>
      </trkpt>
      <trkpt lat="46.53369" lon="-0.79909">
        <ele>94.4</ele>
        <time>2022-06-19T08:22:40Z</time>
      </trkpt>
      <trkpt lat="46.53367" lon="-0.79936">
        <ele>94.4</ele>
        <time>2022-06-19T08:22:44Z</time>
      </trkpt>
      <trkpt lat="46.53367" lon="-0.79944">
        <ele>94.4</ele>
        <time>2022-06-19T08:22:45Z</time>
      </trkpt>
      <trkpt lat="46.53364" lon="-0.79977">
        <ele>94.6</ele>
        <time>2022-06-19T08:22:49Z</time>
      </trkpt>
      <trkpt lat="46.5336" lon="-0.80026">
        <ele>94.2</ele>
        <time>2022-06-19T08:22:55Z</time>
      </trkpt>
      <trkpt lat="46.53359" lon="-0.80051">
        <ele>93.6</ele>
        <time>2022-06-19T08:22:58Z</time>
      </trkpt>
      <trkpt lat="46.53359" lon="-0.80075">
        <ele>93.4</ele>
        <time>2022-06-19T08:23:01Z</time>
      </trkpt>
      <trkpt lat="46.53362" lon="-0.80083">
        <ele>93.4</ele>
        <time>2022-06-19T08:23:03Z</time>
      </trkpt>
      <trkpt lat="46.53363" lon="-0.80085">
        <ele>93.2</ele>
        <time>2022-06-19T08:23:04Z</time>
      </trkpt>
      <trkpt lat="46.53366" lon="-0.80086">
        <ele>93.2</ele>
        <time>2022-06-19T08:23:05Z</time>
      </trkpt>
      <trkpt lat="46.53378" lon="-0.80089">
        <ele>93.2</ele>
        <time>2022-06-19T08:23:08Z</time>
      </trkpt>
      <trkpt lat="46.53416" lon="-0.80093">
        <ele>93.2</ele>
        <time>2022-06-19T08:23:16Z</time>
      </trkpt>
      <trkpt lat="46.53445" lon="-0.80093">
        <ele>93</ele>
        <time>2022-06-19T08:23:22Z</time>
      </trkpt>
      <trkpt lat="46.53468" lon="-0.80093">
        <ele>93.2</ele>
        <time>2022-06-19T08:23:28Z</time>
      </trkpt>
      <trkpt lat="46.5348" lon="-0.80095">
        <ele>94</ele>
        <time>2022-06-19T08:23:31Z</time>
      </trkpt>
      <trkpt lat="46.53496" lon="-0.80096">
        <ele>94.4</ele>
        <time>2022-06-19T08:23:35Z</time>
      </trkpt>
      <trkpt lat="46.53507" lon="-0.80097">
        <ele>94.8</ele>
        <time>2022-06-19T08:23:38Z</time>
      </trkpt>
      <trkpt lat="46.53519" lon="-0.80099">
        <ele>95.4</ele>
        <time>2022-06-19T08:23:41Z</time>
      </trkpt>
      <trkpt lat="46.53552" lon="-0.80104">
        <ele>95.8</ele>
        <time>2022-06-19T08:23:49Z</time>
      </trkpt>
      <trkpt lat="46.53582" lon="-0.80107">
        <ele>96.6</ele>
        <time>2022-06-19T08:23:56Z</time>
      </trkpt>
      <trkpt lat="46.53593" lon="-0.80108">
        <ele>97</ele>
        <time>2022-06-19T08:23:59Z</time>
      </trkpt>
      <trkpt lat="46.53607" lon="-0.80109">
        <ele>97.2</ele>
        <time>2022-06-19T08:24:02Z</time>
      </trkpt>
      <trkpt lat="46.53631" lon="-0.80111">
        <ele>97.4</ele>
        <time>2022-06-19T08:24:08Z</time>
      </trkpt>
      <trkpt lat="46.53656" lon="-0.80114">
        <ele>97.8</ele>
        <time>2022-06-19T08:24:14Z</time>
      </trkpt>
      <trkpt lat="46.53669" lon="-0.80114">
        <ele>98</ele>
        <time>2022-06-19T08:24:17Z</time>
      </trkpt>
      <trkpt lat="46.53689" lon="-0.80114">
        <ele>99</ele>
        <time>2022-06-19T08:24:22Z</time>
      </trkpt>
      <trkpt lat="46.53691" lon="-0.80114">
        <ele>99.2</ele>
        <time>2022-06-19T08:24:23Z</time>
      </trkpt>
      <trkpt lat="46.5371" lon="-0.80115">
        <ele>99.4</ele>
        <time>2022-06-19T08:24:28Z</time>
      </trkpt>
      <trkpt lat="46.53744" lon="-0.80114">
        <ele>99.6</ele>
        <time>2022-06-19T08:24:37Z</time>
      </trkpt>
      <trkpt lat="46.53777" lon="-0.80114">
        <ele>99.4</ele>
        <time>2022-06-19T08:24:45Z</time>
      </trkpt>
      <trkpt lat="46.53797" lon="-0.80118">
        <ele>99</ele>
        <time>2022-06-19T08:24:51Z</time>
      </trkpt>
      <trkpt lat="46.53823" lon="-0.8012">
        <ele>98.2</ele>
        <time>2022-06-19T08:24:58Z</time>
      </trkpt>
      <trkpt lat="46.53835" lon="-0.80121">
        <ele>98.2</ele>
        <time>2022-06-19T08:25:01Z</time>
      </trkpt>
      <trkpt lat="46.53849" lon="-0.80121">
        <ele>98.6</ele>
        <time>2022-06-19T08:25:04Z</time>
      </trkpt>
      <trkpt lat="46.53855" lon="-0.80121">
        <ele>98.4</ele>
        <time>2022-06-19T08:25:05Z</time>
      </trkpt>
      <trkpt lat="46.53863" lon="-0.80126">
        <ele>98.2</ele>
        <time>2022-06-19T08:25:07Z</time>
      </trkpt>
      <trkpt lat="46.53866" lon="-0.8013">
        <ele>98</ele>
        <time>2022-06-19T08:25:08Z</time>
      </trkpt>
      <trkpt lat="46.53868" lon="-0.80134">
        <ele>98</ele>
        <time>2022-06-19T08:25:09Z</time>
      </trkpt>
      <trkpt lat="46.53871" lon="-0.8014">
        <ele>98</ele>
        <time>2022-06-19T08:25:10Z</time>
      </trkpt>
      <trkpt lat="46.53879" lon="-0.80168">
        <ele>98</ele>
        <time>2022-06-19T08:25:14Z</time>
      </trkpt>
      <trkpt lat="46.53884" lon="-0.80201">
        <ele>97.6</ele>
        <time>2022-06-19T08:25:18Z</time>
      </trkpt>
      <trkpt lat="46.53886" lon="-0.80219">
        <ele>97</ele>
        <time>2022-06-19T08:25:20Z</time>
      </trkpt>
      <trkpt lat="46.53888" lon="-0.80261">
        <ele>95.8</ele>
        <time>2022-06-19T08:25:25Z</time>
      </trkpt>
      <trkpt lat="46.53885" lon="-0.80274">
        <ele>95.4</ele>
        <time>2022-06-19T08:25:27Z</time>
      </trkpt>
      <trkpt lat="46.53882" lon="-0.80276">
        <ele>95</ele>
        <time>2022-06-19T08:25:28Z</time>
      </trkpt>
      <trkpt lat="46.53879" lon="-0.80278">
        <ele>94.6</ele>
        <time>2022-06-19T08:25:29Z</time>
      </trkpt>
      <trkpt lat="46.53865" lon="-0.8028">
        <ele>94.8</ele>
        <time>2022-06-19T08:25:32Z</time>
      </trkpt>
      <trkpt lat="46.53846" lon="-0.80278">
        <ele>95.2</ele>
        <time>2022-06-19T08:25:36Z</time>
      </trkpt>
      <trkpt lat="46.53841" lon="-0.80278">
        <ele>95</ele>
        <time>2022-06-19T08:25:37Z</time>
      </trkpt>
      <trkpt lat="46.53814" lon="-0.80282">
        <ele>96.2</ele>
        <time>2022-06-19T08:25:42Z</time>
      </trkpt>
      <trkpt lat="46.53788" lon="-0.80293">
        <ele>97</ele>
        <time>2022-06-19T08:25:47Z</time>
      </trkpt>
      <trkpt lat="46.53783" lon="-0.80295">
        <ele>97</ele>
        <time>2022-06-19T08:25:48Z</time>
      </trkpt>
      <trkpt lat="46.53763" lon="-0.80305">
        <ele>96.6</ele>
        <time>2022-06-19T08:25:52Z</time>
      </trkpt>
      <trkpt lat="46.53725" lon="-0.80321">
        <ele>96.2</ele>
        <time>2022-06-19T08:25:58Z</time>
      </trkpt>
      <trkpt lat="46.53719" lon="-0.80323">
        <ele>96.2</ele>
        <time>2022-06-19T08:25:59Z</time>
      </trkpt>
      <trkpt lat="46.53676" lon="-0.8033">
        <ele>95.2</ele>
        <time>2022-06-19T08:26:05Z</time>
      </trkpt>
      <trkpt lat="46.53669" lon="-0.80331">
        <ele>95.2</ele>
        <time>2022-06-19T08:26:06Z</time>
      </trkpt>
      <trkpt lat="46.53655" lon="-0.80332">
        <ele>94.6</ele>
        <time>2022-06-19T08:26:08Z</time>
      </trkpt>
      <trkpt lat="46.5365" lon="-0.80331">
        <ele>94.4</ele>
        <time>2022-06-19T08:26:09Z</time>
      </trkpt>
      <trkpt lat="46.53631" lon="-0.80327">
        <ele>94</ele>
        <time>2022-06-19T08:26:12Z</time>
      </trkpt>
      <trkpt lat="46.53613" lon="-0.80321">
        <ele>93.6</ele>
        <time>2022-06-19T08:26:15Z</time>
      </trkpt>
      <trkpt lat="46.53582" lon="-0.80307">
        <ele>93</ele>
        <time>2022-06-19T08:26:20Z</time>
      </trkpt>
      <trkpt lat="46.53577" lon="-0.80305">
        <ele>92.8</ele>
        <time>2022-06-19T08:26:21Z</time>
      </trkpt>
      <trkpt lat="46.53557" lon="-0.80302">
        <ele>91.6</ele>
        <time>2022-06-19T08:26:24Z</time>
      </trkpt>
      <trkpt lat="46.53551" lon="-0.80301">
        <ele>91.4</ele>
        <time>2022-06-19T08:26:25Z</time>
      </trkpt>
      <trkpt lat="46.53538" lon="-0.80301">
        <ele>90.6</ele>
        <time>2022-06-19T08:26:27Z</time>
      </trkpt>
      <trkpt lat="46.53518" lon="-0.80302">
        <ele>90.6</ele>
        <time>2022-06-19T08:26:30Z</time>
      </trkpt>
      <trkpt lat="46.53485" lon="-0.80302">
        <ele>90.4</ele>
        <time>2022-06-19T08:26:35Z</time>
      </trkpt>
      <trkpt lat="46.53471" lon="-0.80305">
        <ele>90.2</ele>
        <time>2022-06-19T08:26:37Z</time>
      </trkpt>
      <trkpt lat="46.53455" lon="-0.80311">
        <ele>89.8</ele>
        <time>2022-06-19T08:26:39Z</time>
      </trkpt>
      <trkpt lat="46.53449" lon="-0.80316">
        <ele>89.6</ele>
        <time>2022-06-19T08:26:40Z</time>
      </trkpt>
      <trkpt lat="46.53436" lon="-0.80326">
        <ele>88.6</ele>
        <time>2022-06-19T08:26:42Z</time>
      </trkpt>
      <trkpt lat="46.53425" lon="-0.80336">
        <ele>88.2</ele>
        <time>2022-06-19T08:26:44Z</time>
      </trkpt>
      <trkpt lat="46.53412" lon="-0.80346">
        <ele>88</ele>
        <time>2022-06-19T08:26:46Z</time>
      </trkpt>
      <trkpt lat="46.53398" lon="-0.80354">
        <ele>88</ele>
        <time>2022-06-19T08:26:48Z</time>
      </trkpt>
      <trkpt lat="46.53382" lon="-0.80362">
        <ele>88.2</ele>
        <time>2022-06-19T08:26:50Z</time>
      </trkpt>
      <trkpt lat="46.53366" lon="-0.80365">
        <ele>88.2</ele>
        <time>2022-06-19T08:26:52Z</time>
      </trkpt>
      <trkpt lat="46.53327" lon="-0.80368">
        <ele>88.6</ele>
        <time>2022-06-19T08:26:58Z</time>
      </trkpt>
      <trkpt lat="46.5332" lon="-0.8037">
        <ele>88.8</ele>
        <time>2022-06-19T08:27:00Z</time>
      </trkpt>
      <trkpt lat="46.53317" lon="-0.80369">
        <ele>88.8</ele>
        <time>2022-06-19T08:27:01Z</time>
      </trkpt>
      <trkpt lat="46.53316" lon="-0.80367">
        <ele>89</ele>
        <time>2022-06-19T08:27:02Z</time>
      </trkpt>
      <trkpt lat="46.53309" lon="-0.8036">
        <ele>88.8</ele>
        <time>2022-06-19T08:27:05Z</time>
      </trkpt>
      <trkpt lat="46.53295" lon="-0.80359">
        <ele>88.8</ele>
        <time>2022-06-19T08:27:08Z</time>
      </trkpt>
      <trkpt lat="46.53288" lon="-0.80358">
        <ele>89</ele>
        <time>2022-06-19T08:27:10Z</time>
      </trkpt>
      <trkpt lat="46.53278" lon="-0.80361">
        <ele>89.4</ele>
        <time>2022-06-19T08:27:13Z</time>
      </trkpt>
      <trkpt lat="46.53272" lon="-0.8036">
        <ele>89.4</ele>
        <time>2022-06-19T08:27:15Z</time>
      </trkpt>
      <trkpt lat="46.53265" lon="-0.80356">
        <ele>89.4</ele>
        <time>2022-06-19T08:27:17Z</time>
      </trkpt>
      <trkpt lat="46.53255" lon="-0.80356">
        <ele>89.2</ele>
        <time>2022-06-19T08:27:20Z</time>
      </trkpt>
      <trkpt lat="46.53252" lon="-0.80354">
        <ele>89.2</ele>
        <time>2022-06-19T08:27:21Z</time>
      </trkpt>
      <trkpt lat="46.53251" lon="-0.80351">
        <ele>89.4</ele>
        <time>2022-06-19T08:27:22Z</time>
      </trkpt>
      <trkpt lat="46.53251" lon="-0.80348">
        <ele>89.6</ele>
        <time>2022-06-19T08:27:23Z</time>
      </trkpt>
      <trkpt lat="46.53252" lon="-0.80343">
        <ele>89.8</ele>
        <time>2022-06-19T08:27:24Z</time>
      </trkpt>
      <trkpt lat="46.53249" lon="-0.80335">
        <ele>89.8</ele>
        <time>2022-06-19T08:27:25Z</time>
      </trkpt>
      <trkpt lat="46.53241" lon="-0.80329">
        <ele>89.8</ele>
        <time>2022-06-19T08:27:28Z</time>
      </trkpt>
      <trkpt lat="46.53231" lon="-0.80326">
        <ele>89.6</ele>
        <time>2022-06-19T08:27:30Z</time>
      </trkpt>
      <trkpt lat="46.53225" lon="-0.80326">
        <ele>89.6</ele>
        <time>2022-06-19T08:27:31Z</time>
      </trkpt>
      <trkpt lat="46.5318" lon="-0.80318">
        <ele>89</ele>
        <time>2022-06-19T08:27:38Z</time>
      </trkpt>
      <trkpt lat="46.53166" lon="-0.80317">
        <ele>88.4</ele>
        <time>2022-06-19T08:27:40Z</time>
      </trkpt>
      <trkpt lat="46.53139" lon="-0.80314">
        <ele>87.2</ele>
        <time>2022-06-19T08:27:44Z</time>
      </trkpt>
      <trkpt lat="46.53132" lon="-0.80313">
        <ele>87.2</ele>
        <time>2022-06-19T08:27:45Z</time>
      </trkpt>
      <trkpt lat="46.53117" lon="-0.8031">
        <ele>86.6</ele>
        <time>2022-06-19T08:27:47Z</time>
      </trkpt>
      <trkpt lat="46.53091" lon="-0.80308">
        <ele>86</ele>
        <time>2022-06-19T08:27:50Z</time>
      </trkpt>
      <trkpt lat="46.53065" lon="-0.80305">
        <ele>84.8</ele>
        <time>2022-06-19T08:27:53Z</time>
      </trkpt>
      <trkpt lat="46.53041" lon="-0.80304">
        <ele>84</ele>
        <time>2022-06-19T08:27:56Z</time>
      </trkpt>
      <trkpt lat="46.53033" lon="-0.80304">
        <ele>83.4</ele>
        <time>2022-06-19T08:27:57Z</time>
      </trkpt>
      <trkpt lat="46.53011" lon="-0.80304">
        <ele>82.2</ele>
        <time>2022-06-19T08:28:00Z</time>
      </trkpt>
      <trkpt lat="46.53006" lon="-0.80303">
        <ele>81.6</ele>
        <time>2022-06-19T08:28:01Z</time>
      </trkpt>
      <trkpt lat="46.52997" lon="-0.80301">
        <ele>81</ele>
        <time>2022-06-19T08:28:03Z</time>
      </trkpt>
      <trkpt lat="46.52988" lon="-0.80302">
        <ele>80.6</ele>
        <time>2022-06-19T08:28:05Z</time>
      </trkpt>
      <trkpt lat="46.52978" lon="-0.80301">
        <ele>80.6</ele>
        <time>2022-06-19T08:28:07Z</time>
      </trkpt>
      <trkpt lat="46.52968" lon="-0.803">
        <ele>80.4</ele>
        <time>2022-06-19T08:28:09Z</time>
      </trkpt>
      <trkpt lat="46.52964" lon="-0.803">
        <ele>80.4</ele>
        <time>2022-06-19T08:28:10Z</time>
      </trkpt>
      <trkpt lat="46.52949" lon="-0.80299">
        <ele>79.4</ele>
        <time>2022-06-19T08:28:13Z</time>
      </trkpt>
      <trkpt lat="46.52932" lon="-0.80297">
        <ele>78.2</ele>
        <time>2022-06-19T08:28:16Z</time>
      </trkpt>
      <trkpt lat="46.52911" lon="-0.80294">
        <ele>77.8</ele>
        <time>2022-06-19T08:28:21Z</time>
      </trkpt>
      <trkpt lat="46.52891" lon="-0.80291">
        <ele>78.6</ele>
        <time>2022-06-19T08:28:27Z</time>
      </trkpt>
      <trkpt lat="46.52875" lon="-0.80291">
        <ele>79.4</ele>
        <time>2022-06-19T08:28:31Z</time>
      </trkpt>
      <trkpt lat="46.52866" lon="-0.8029">
        <ele>79.8</ele>
        <time>2022-06-19T08:28:33Z</time>
      </trkpt>
      <trkpt lat="46.52853" lon="-0.80288">
        <ele>80.6</ele>
        <time>2022-06-19T08:28:36Z</time>
      </trkpt>
      <trkpt lat="46.52843" lon="-0.80287">
        <ele>80.8</ele>
        <time>2022-06-19T08:28:38Z</time>
      </trkpt>
      <trkpt lat="46.52837" lon="-0.80287">
        <ele>81</ele>
        <time>2022-06-19T08:28:39Z</time>
      </trkpt>
      <trkpt lat="46.52803" lon="-0.80286">
        <ele>80.6</ele>
        <time>2022-06-19T08:28:44Z</time>
      </trkpt>
      <trkpt lat="46.52796" lon="-0.80284">
        <ele>80.6</ele>
        <time>2022-06-19T08:28:45Z</time>
      </trkpt>
      <trkpt lat="46.52761" lon="-0.8028">
        <ele>79.8</ele>
        <time>2022-06-19T08:28:50Z</time>
      </trkpt>
      <trkpt lat="46.52754" lon="-0.8028">
        <ele>79.6</ele>
        <time>2022-06-19T08:28:51Z</time>
      </trkpt>
      <trkpt lat="46.52742" lon="-0.80279">
        <ele>79.6</ele>
        <time>2022-06-19T08:28:53Z</time>
      </trkpt>
      <trkpt lat="46.52722" lon="-0.80275">
        <ele>80</ele>
        <time>2022-06-19T08:28:56Z</time>
      </trkpt>
      <trkpt lat="46.52697" lon="-0.80273">
        <ele>80.2</ele>
        <time>2022-06-19T08:29:01Z</time>
      </trkpt>
      <trkpt lat="46.52691" lon="-0.8027">
        <ele>80.4</ele>
        <time>2022-06-19T08:29:03Z</time>
      </trkpt>
      <trkpt lat="46.52688" lon="-0.80264">
        <ele>80.6</ele>
        <time>2022-06-19T08:29:05Z</time>
      </trkpt>
      <trkpt lat="46.52693" lon="-0.80247">
        <ele>81.4</ele>
        <time>2022-06-19T08:29:09Z</time>
      </trkpt>
      <trkpt lat="46.52696" lon="-0.80235">
        <ele>81.6</ele>
        <time>2022-06-19T08:29:11Z</time>
      </trkpt>
      <trkpt lat="46.52698" lon="-0.80229">
        <ele>81.6</ele>
        <time>2022-06-19T08:29:12Z</time>
      </trkpt>
      <trkpt lat="46.52705" lon="-0.80213">
        <ele>81.8</ele>
        <time>2022-06-19T08:29:15Z</time>
      </trkpt>
      <trkpt lat="46.52707" lon="-0.80207">
        <ele>81.8</ele>
        <time>2022-06-19T08:29:16Z</time>
      </trkpt>
      <trkpt lat="46.52708" lon="-0.80194">
        <ele>82.2</ele>
        <time>2022-06-19T08:29:18Z</time>
      </trkpt>
      <trkpt lat="46.52707" lon="-0.80188">
        <ele>82.4</ele>
        <time>2022-06-19T08:29:19Z</time>
      </trkpt>
      <trkpt lat="46.52705" lon="-0.80169">
        <ele>82.8</ele>
        <time>2022-06-19T08:29:22Z</time>
      </trkpt>
      <trkpt lat="46.52701" lon="-0.80152">
        <ele>83</ele>
        <time>2022-06-19T08:29:25Z</time>
      </trkpt>
      <trkpt lat="46.527" lon="-0.80142">
        <ele>83.4</ele>
        <time>2022-06-19T08:29:27Z</time>
      </trkpt>
      <trkpt lat="46.52699" lon="-0.80128">
        <ele>83.8</ele>
        <time>2022-06-19T08:29:30Z</time>
      </trkpt>
      <trkpt lat="46.52697" lon="-0.80123">
        <ele>83.8</ele>
        <time>2022-06-19T08:29:31Z</time>
      </trkpt>
      <trkpt lat="46.52697" lon="-0.80114">
        <ele>84</ele>
        <time>2022-06-19T08:29:33Z</time>
      </trkpt>
      <trkpt lat="46.52694" lon="-0.80096">
        <ele>84.2</ele>
        <time>2022-06-19T08:29:36Z</time>
      </trkpt>
      <trkpt lat="46.52693" lon="-0.8009">
        <ele>84.4</ele>
        <time>2022-06-19T08:29:37Z</time>
      </trkpt>
      <trkpt lat="46.5269" lon="-0.80073">
        <ele>84.8</ele>
        <time>2022-06-19T08:29:40Z</time>
      </trkpt>
      <trkpt lat="46.52688" lon="-0.80063">
        <ele>85</ele>
        <time>2022-06-19T08:29:42Z</time>
      </trkpt>
      <trkpt lat="46.52688" lon="-0.80055">
        <ele>85.2</ele>
        <time>2022-06-19T08:29:44Z</time>
      </trkpt>
      <trkpt lat="46.5268" lon="-0.80031">
        <ele>86</ele>
        <time>2022-06-19T08:29:49Z</time>
      </trkpt>
      <trkpt lat="46.52679" lon="-0.80028">
        <ele>86.2</ele>
        <time>2022-06-19T08:29:50Z</time>
      </trkpt>
      <trkpt lat="46.52678" lon="-0.80011">
        <ele>87.4</ele>
        <time>2022-06-19T08:29:54Z</time>
      </trkpt>
      <trkpt lat="46.52677" lon="-0.80008">
        <ele>87.6</ele>
        <time>2022-06-19T08:29:55Z</time>
      </trkpt>
      <trkpt lat="46.52673" lon="-0.79985">
        <ele>88.4</ele>
        <time>2022-06-19T08:30:01Z</time>
      </trkpt>
      <trkpt lat="46.52666" lon="-0.79969">
        <ele>89</ele>
        <time>2022-06-19T08:30:04Z</time>
      </trkpt>
      <trkpt lat="46.52663" lon="-0.79959">
        <ele>89.4</ele>
        <time>2022-06-19T08:30:06Z</time>
      </trkpt>
      <trkpt lat="46.52658" lon="-0.79937">
        <ele>90.4</ele>
        <time>2022-06-19T08:30:10Z</time>
      </trkpt>
      <trkpt lat="46.52656" lon="-0.79913">
        <ele>91.6</ele>
        <time>2022-06-19T08:30:14Z</time>
      </trkpt>
      <trkpt lat="46.52653" lon="-0.79901">
        <ele>91.8</ele>
        <time>2022-06-19T08:30:16Z</time>
      </trkpt>
      <trkpt lat="46.5265" lon="-0.79882">
        <ele>92.8</ele>
        <time>2022-06-19T08:30:20Z</time>
      </trkpt>
      <trkpt lat="46.52649" lon="-0.7987">
        <ele>93</ele>
        <time>2022-06-19T08:30:22Z</time>
      </trkpt>
      <trkpt lat="46.5264" lon="-0.79831">
        <ele>93.4</ele>
        <time>2022-06-19T08:30:28Z</time>
      </trkpt>
      <trkpt lat="46.52638" lon="-0.79815">
        <ele>93.8</ele>
        <time>2022-06-19T08:30:30Z</time>
      </trkpt>
      <trkpt lat="46.52631" lon="-0.79771">
        <ele>94</ele>
        <time>2022-06-19T08:30:36Z</time>
      </trkpt>
      <trkpt lat="46.52623" lon="-0.79723">
        <ele>94.4</ele>
        <time>2022-06-19T08:30:42Z</time>
      </trkpt>
      <trkpt lat="46.52622" lon="-0.79715">
        <ele>94.4</ele>
        <time>2022-06-19T08:30:43Z</time>
      </trkpt>
      <trkpt lat="46.52611" lon="-0.79656">
        <ele>92.8</ele>
        <time>2022-06-19T08:30:50Z</time>
      </trkpt>
      <trkpt lat="46.5261" lon="-0.79647">
        <ele>92.6</ele>
        <time>2022-06-19T08:30:51Z</time>
      </trkpt>
      <trkpt lat="46.52605" lon="-0.79609">
        <ele>92.2</ele>
        <time>2022-06-19T08:30:55Z</time>
      </trkpt>
      <trkpt lat="46.52598" lon="-0.79551">
        <ele>91.6</ele>
        <time>2022-06-19T08:31:01Z</time>
      </trkpt>
      <trkpt lat="46.52592" lon="-0.7951">
        <ele>90.2</ele>
        <time>2022-06-19T08:31:05Z</time>
      </trkpt>
      <trkpt lat="46.52589" lon="-0.79494">
        <ele>90</ele>
        <time>2022-06-19T08:31:07Z</time>
      </trkpt>
      <trkpt lat="46.52587" lon="-0.7948">
        <ele>89.6</ele>
        <time>2022-06-19T08:31:09Z</time>
      </trkpt>
      <trkpt lat="46.52585" lon="-0.7947">
        <ele>89.4</ele>
        <time>2022-06-19T08:31:11Z</time>
      </trkpt>
      <trkpt lat="46.52584" lon="-0.79463">
        <ele>89</ele>
        <time>2022-06-19T08:31:12Z</time>
      </trkpt>
      <trkpt lat="46.5258" lon="-0.79439">
        <ele>88.6</ele>
        <time>2022-06-19T08:31:15Z</time>
      </trkpt>
      <trkpt lat="46.52568" lon="-0.7938">
        <ele>88</ele>
        <time>2022-06-19T08:31:21Z</time>
      </trkpt>
      <trkpt lat="46.52564" lon="-0.79362">
        <ele>87.6</ele>
        <time>2022-06-19T08:31:23Z</time>
      </trkpt>
      <trkpt lat="46.52561" lon="-0.79349">
        <ele>87</ele>
        <time>2022-06-19T08:31:25Z</time>
      </trkpt>
      <trkpt lat="46.52556" lon="-0.79346">
        <ele>86.4</ele>
        <time>2022-06-19T08:31:27Z</time>
      </trkpt>
      <trkpt lat="46.52554" lon="-0.79347">
        <ele>86.2</ele>
        <time>2022-06-19T08:31:28Z</time>
      </trkpt>
      <trkpt lat="46.5254" lon="-0.79355">
        <ele>86</ele>
        <time>2022-06-19T08:31:31Z</time>
      </trkpt>
      <trkpt lat="46.52508" lon="-0.79368">
        <ele>86.6</ele>
        <time>2022-06-19T08:31:38Z</time>
      </trkpt>
      <trkpt lat="46.52461" lon="-0.79386">
        <ele>87</ele>
        <time>2022-06-19T08:31:48Z</time>
      </trkpt>
      <trkpt lat="46.52433" lon="-0.79397">
        <ele>86.8</ele>
        <time>2022-06-19T08:31:54Z</time>
      </trkpt>
      <trkpt lat="46.52428" lon="-0.79397">
        <ele>86.8</ele>
        <time>2022-06-19T08:31:55Z</time>
      </trkpt>
      <trkpt lat="46.52419" lon="-0.79397">
        <ele>86.8</ele>
        <time>2022-06-19T08:31:57Z</time>
      </trkpt>
      <trkpt lat="46.52411" lon="-0.79401">
        <ele>86.8</ele>
        <time>2022-06-19T08:31:59Z</time>
      </trkpt>
      <trkpt lat="46.52407" lon="-0.79404">
        <ele>86.8</ele>
        <time>2022-06-19T08:32:00Z</time>
      </trkpt>
      <trkpt lat="46.52404" lon="-0.79406">
        <ele>86.6</ele>
        <time>2022-06-19T08:32:01Z</time>
      </trkpt>
      <trkpt lat="46.52396" lon="-0.7941">
        <ele>86.6</ele>
        <time>2022-06-19T08:32:03Z</time>
      </trkpt>
      <trkpt lat="46.52388" lon="-0.79411">
        <ele>86.6</ele>
        <time>2022-06-19T08:32:05Z</time>
      </trkpt>
      <trkpt lat="46.52366" lon="-0.79421">
        <ele>86.4</ele>
        <time>2022-06-19T08:32:10Z</time>
      </trkpt>
      <trkpt lat="46.52361" lon="-0.79422">
        <ele>86.4</ele>
        <time>2022-06-19T08:32:11Z</time>
      </trkpt>
      <trkpt lat="46.52347" lon="-0.79427">
        <ele>86.2</ele>
        <time>2022-06-19T08:32:14Z</time>
      </trkpt>
      <trkpt lat="46.52333" lon="-0.79431">
        <ele>85.6</ele>
        <time>2022-06-19T08:32:17Z</time>
      </trkpt>
      <trkpt lat="46.52328" lon="-0.79433">
        <ele>85.4</ele>
        <time>2022-06-19T08:32:18Z</time>
      </trkpt>
      <trkpt lat="46.5229" lon="-0.79443">
        <ele>84.6</ele>
        <time>2022-06-19T08:32:25Z</time>
      </trkpt>
      <trkpt lat="46.52256" lon="-0.79457">
        <ele>84.2</ele>
        <time>2022-06-19T08:32:31Z</time>
      </trkpt>
      <trkpt lat="46.52251" lon="-0.7946">
        <ele>83.4</ele>
        <time>2022-06-19T08:32:33Z</time>
      </trkpt>
      <trkpt lat="46.52248" lon="-0.79462">
        <ele>83.2</ele>
        <time>2022-06-19T08:32:35Z</time>
      </trkpt>
      <trkpt lat="46.52229" lon="-0.7947">
        <ele>81.6</ele>
        <time>2022-06-19T08:36:41Z</time>
      </trkpt>
      <trkpt lat="46.52231" lon="-0.79472">
        <ele>81.6</ele>
        <time>2022-06-19T08:36:46Z</time>
      </trkpt>
      <trkpt lat="46.52233" lon="-0.79477">
        <ele>81.6</ele>
        <time>2022-06-19T08:36:51Z</time>
      </trkpt>
      <trkpt lat="46.52235" lon="-0.79484">
        <ele>81.6</ele>
        <time>2022-06-19T08:36:54Z</time>
      </trkpt>
      <trkpt lat="46.52237" lon="-0.79488">
        <ele>84.2</ele>
        <time>2022-06-19T08:36:56Z</time>
      </trkpt>
      <trkpt lat="46.52244" lon="-0.79503">
        <ele>83</ele>
        <time>2022-06-19T08:37:01Z</time>
      </trkpt>
      <trkpt lat="46.52251" lon="-0.79532">
        <ele>82.6</ele>
        <time>2022-06-19T08:37:07Z</time>
      </trkpt>
      <trkpt lat="46.52257" lon="-0.79562">
        <ele>83</ele>
        <time>2022-06-19T08:37:13Z</time>
      </trkpt>
      <trkpt lat="46.52263" lon="-0.79585">
        <ele>83</ele>
        <time>2022-06-19T08:37:18Z</time>
      </trkpt>
      <trkpt lat="46.52267" lon="-0.79611">
        <ele>82.8</ele>
        <time>2022-06-19T08:37:23Z</time>
      </trkpt>
      <trkpt lat="46.52271" lon="-0.79628">
        <ele>82.2</ele>
        <time>2022-06-19T08:37:26Z</time>
      </trkpt>
      <trkpt lat="46.52273" lon="-0.79639">
        <ele>82</ele>
        <time>2022-06-19T08:37:28Z</time>
      </trkpt>
      <trkpt lat="46.52275" lon="-0.79644">
        <ele>82</ele>
        <time>2022-06-19T08:37:29Z</time>
      </trkpt>
      <trkpt lat="46.52284" lon="-0.79689">
        <ele>82.6</ele>
        <time>2022-06-19T08:37:36Z</time>
      </trkpt>
      <trkpt lat="46.52292" lon="-0.79727">
        <ele>81.4</ele>
        <time>2022-06-19T08:37:42Z</time>
      </trkpt>
      <trkpt lat="46.52294" lon="-0.79732">
        <ele>81.2</ele>
        <time>2022-06-19T08:37:43Z</time>
      </trkpt>
      <trkpt lat="46.52296" lon="-0.79745">
        <ele>80.8</ele>
        <time>2022-06-19T08:37:45Z</time>
      </trkpt>
      <trkpt lat="46.523" lon="-0.79757">
        <ele>80.8</ele>
        <time>2022-06-19T08:37:47Z</time>
      </trkpt>
      <trkpt lat="46.5231" lon="-0.79799">
        <ele>81.6</ele>
        <time>2022-06-19T08:37:55Z</time>
      </trkpt>
      <trkpt lat="46.52311" lon="-0.79804">
        <ele>82.4</ele>
        <time>2022-06-19T08:37:56Z</time>
      </trkpt>
      <trkpt lat="46.52312" lon="-0.79829">
        <ele>82.6</ele>
        <time>2022-06-19T08:38:01Z</time>
      </trkpt>
      <trkpt lat="46.52314" lon="-0.79856">
        <ele>83.4</ele>
        <time>2022-06-19T08:38:06Z</time>
      </trkpt>
      <trkpt lat="46.52315" lon="-0.79867">
        <ele>83.6</ele>
        <time>2022-06-19T08:38:08Z</time>
      </trkpt>
      <trkpt lat="46.52317" lon="-0.79894">
        <ele>84</ele>
        <time>2022-06-19T08:38:14Z</time>
      </trkpt>
      <trkpt lat="46.52319" lon="-0.79922">
        <ele>83.8</ele>
        <time>2022-06-19T08:38:20Z</time>
      </trkpt>
      <trkpt lat="46.52313" lon="-0.79928">
        <ele>83.6</ele>
        <time>2022-06-19T08:38:22Z</time>
      </trkpt>
      <trkpt lat="46.52309" lon="-0.7993">
        <ele>83.6</ele>
        <time>2022-06-19T08:38:23Z</time>
      </trkpt>
      <trkpt lat="46.52281" lon="-0.79942">
        <ele>83.6</ele>
        <time>2022-06-19T08:38:29Z</time>
      </trkpt>
      <trkpt lat="46.52252" lon="-0.7996">
        <ele>83</ele>
        <time>2022-06-19T08:38:35Z</time>
      </trkpt>
      <trkpt lat="46.52247" lon="-0.79963">
        <ele>83</ele>
        <time>2022-06-19T08:38:36Z</time>
      </trkpt>
      <trkpt lat="46.52233" lon="-0.79973">
        <ele>82.6</ele>
        <time>2022-06-19T08:38:39Z</time>
      </trkpt>
      <trkpt lat="46.52228" lon="-0.79977">
        <ele>82.2</ele>
        <time>2022-06-19T08:38:40Z</time>
      </trkpt>
      <trkpt lat="46.52224" lon="-0.79981">
        <ele>82</ele>
        <time>2022-06-19T08:38:41Z</time>
      </trkpt>
      <trkpt lat="46.5222" lon="-0.79986">
        <ele>82</ele>
        <time>2022-06-19T08:38:42Z</time>
      </trkpt>
      <trkpt lat="46.52212" lon="-0.79997">
        <ele>81.8</ele>
        <time>2022-06-19T08:38:44Z</time>
      </trkpt>
      <trkpt lat="46.52208" lon="-0.8">
        <ele>81.6</ele>
        <time>2022-06-19T08:38:45Z</time>
      </trkpt>
      <trkpt lat="46.52204" lon="-0.80004">
        <ele>81.6</ele>
        <time>2022-06-19T08:38:46Z</time>
      </trkpt>
      <trkpt lat="46.52197" lon="-0.80013">
        <ele>81.6</ele>
        <time>2022-06-19T08:38:48Z</time>
      </trkpt>
      <trkpt lat="46.52191" lon="-0.80016">
        <ele>81.6</ele>
        <time>2022-06-19T08:38:49Z</time>
      </trkpt>
      <trkpt lat="46.52186" lon="-0.80017">
        <ele>81.6</ele>
        <time>2022-06-19T08:38:50Z</time>
      </trkpt>
      <trkpt lat="46.52175" lon="-0.80015">
        <ele>81.8</ele>
        <time>2022-06-19T08:38:52Z</time>
      </trkpt>
      <trkpt lat="46.52171" lon="-0.80013">
        <ele>81.8</ele>
        <time>2022-06-19T08:38:53Z</time>
      </trkpt>
      <trkpt lat="46.52166" lon="-0.8001">
        <ele>81.8</ele>
        <time>2022-06-19T08:38:54Z</time>
      </trkpt>
      <trkpt lat="46.52147" lon="-0.79995">
        <ele>81.6</ele>
        <time>2022-06-19T08:38:58Z</time>
      </trkpt>
      <trkpt lat="46.52132" lon="-0.7998">
        <ele>81.2</ele>
        <time>2022-06-19T08:39:01Z</time>
      </trkpt>
      <trkpt lat="46.52116" lon="-0.79964">
        <ele>80.4</ele>
        <time>2022-06-19T08:39:04Z</time>
      </trkpt>
      <trkpt lat="46.52108" lon="-0.79954">
        <ele>79.8</ele>
        <time>2022-06-19T08:39:06Z</time>
      </trkpt>
      <trkpt lat="46.52105" lon="-0.79949">
        <ele>79.6</ele>
        <time>2022-06-19T08:39:08Z</time>
      </trkpt>
      <trkpt lat="46.52104" lon="-0.79947">
        <ele>79.4</ele>
        <time>2022-06-19T08:39:09Z</time>
      </trkpt>
      <trkpt lat="46.52104" lon="-0.79945">
        <ele>79</ele>
        <time>2022-06-19T08:39:12Z</time>
      </trkpt>
      <trkpt lat="46.52105" lon="-0.79943">
        <ele>78.8</ele>
        <time>2022-06-19T08:39:14Z</time>
      </trkpt>
      <trkpt lat="46.52112" lon="-0.79937">
        <ele>78.8</ele>
        <time>2022-06-19T08:39:18Z</time>
      </trkpt>
      <trkpt lat="46.52113" lon="-0.79921">
        <ele>78.6</ele>
        <time>2022-06-19T08:39:23Z</time>
      </trkpt>
      <trkpt lat="46.52107" lon="-0.79913">
        <ele>78.8</ele>
        <time>2022-06-19T08:39:27Z</time>
      </trkpt>
      <trkpt lat="46.52089" lon="-0.799">
        <ele>78.4</ele>
        <time>2022-06-19T08:39:34Z</time>
      </trkpt>
      <trkpt lat="46.5208" lon="-0.79877">
        <ele>78.6</ele>
        <time>2022-06-19T08:39:39Z</time>
      </trkpt>
      <trkpt lat="46.52068" lon="-0.79846">
        <ele>78.4</ele>
        <time>2022-06-19T08:39:45Z</time>
      </trkpt>
      <trkpt lat="46.52065" lon="-0.79842">
        <ele>78.4</ele>
        <time>2022-06-19T08:39:46Z</time>
      </trkpt>
      <trkpt lat="46.52056" lon="-0.79818">
        <ele>78.2</ele>
        <time>2022-06-19T08:39:50Z</time>
      </trkpt>
      <trkpt lat="46.52052" lon="-0.79806">
        <ele>78.2</ele>
        <time>2022-06-19T08:39:52Z</time>
      </trkpt>
      <trkpt lat="46.52042" lon="-0.79781">
        <ele>78.2</ele>
        <time>2022-06-19T08:39:56Z</time>
      </trkpt>
      <trkpt lat="46.52039" lon="-0.79774">
        <ele>78.2</ele>
        <time>2022-06-19T08:39:57Z</time>
      </trkpt>
      <trkpt lat="46.52026" lon="-0.79746">
        <ele>77.8</ele>
        <time>2022-06-19T08:40:02Z</time>
      </trkpt>
      <trkpt lat="46.5202" lon="-0.79736">
        <ele>77.8</ele>
        <time>2022-06-19T08:40:04Z</time>
      </trkpt>
      <trkpt lat="46.5201" lon="-0.79717">
        <ele>77.8</ele>
        <time>2022-06-19T08:40:07Z</time>
      </trkpt>
      <trkpt lat="46.52003" lon="-0.79709">
        <ele>78</ele>
        <time>2022-06-19T08:40:09Z</time>
      </trkpt>
      <trkpt lat="46.52" lon="-0.79705">
        <ele>78</ele>
        <time>2022-06-19T08:40:10Z</time>
      </trkpt>
      <trkpt lat="46.51995" lon="-0.79696">
        <ele>79</ele>
        <time>2022-06-19T08:40:12Z</time>
      </trkpt>
      <trkpt lat="46.51984" lon="-0.79678">
        <ele>79</ele>
        <time>2022-06-19T08:40:16Z</time>
      </trkpt>
      <trkpt lat="46.51977" lon="-0.79667">
        <ele>78.8</ele>
        <time>2022-06-19T08:40:18Z</time>
      </trkpt>
      <trkpt lat="46.51973" lon="-0.7966">
        <ele>78.8</ele>
        <time>2022-06-19T08:40:20Z</time>
      </trkpt>
      <trkpt lat="46.51959" lon="-0.79638">
        <ele>79.2</ele>
        <time>2022-06-19T08:40:25Z</time>
      </trkpt>
      <trkpt lat="46.51956" lon="-0.79632">
        <ele>79.2</ele>
        <time>2022-06-19T08:40:26Z</time>
      </trkpt>
      <trkpt lat="46.51952" lon="-0.79627">
        <ele>79.2</ele>
        <time>2022-06-19T08:40:27Z</time>
      </trkpt>
      <trkpt lat="46.51946" lon="-0.79623">
        <ele>79</ele>
        <time>2022-06-19T08:40:29Z</time>
      </trkpt>
      <trkpt lat="46.51936" lon="-0.79622">
        <ele>79</ele>
        <time>2022-06-19T08:40:32Z</time>
      </trkpt>
      <trkpt lat="46.5193" lon="-0.79623">
        <ele>79</ele>
        <time>2022-06-19T08:40:34Z</time>
      </trkpt>
      <trkpt lat="46.51905" lon="-0.79626">
        <ele>79.2</ele>
        <time>2022-06-19T08:40:40Z</time>
      </trkpt>
      <trkpt lat="46.51895" lon="-0.79624">
        <ele>79</ele>
        <time>2022-06-19T08:40:42Z</time>
      </trkpt>
      <trkpt lat="46.5188" lon="-0.79625">
        <ele>78.6</ele>
        <time>2022-06-19T08:40:45Z</time>
      </trkpt>
      <trkpt lat="46.51864" lon="-0.79626">
        <ele>78.2</ele>
        <time>2022-06-19T08:40:48Z</time>
      </trkpt>
      <trkpt lat="46.51853" lon="-0.79628">
        <ele>78</ele>
        <time>2022-06-19T08:40:50Z</time>
      </trkpt>
      <trkpt lat="46.51849" lon="-0.79629">
        <ele>77.8</ele>
        <time>2022-06-19T08:40:51Z</time>
      </trkpt>
      <trkpt lat="46.51843" lon="-0.79636">
        <ele>77.4</ele>
        <time>2022-06-19T08:40:53Z</time>
      </trkpt>
      <trkpt lat="46.51839" lon="-0.79641">
        <ele>77.4</ele>
        <time>2022-06-19T08:40:54Z</time>
      </trkpt>
      <trkpt lat="46.51836" lon="-0.79644">
        <ele>77.2</ele>
        <time>2022-06-19T08:40:55Z</time>
      </trkpt>
      <trkpt lat="46.51828" lon="-0.79649">
        <ele>77</ele>
        <time>2022-06-19T08:40:57Z</time>
      </trkpt>
      <trkpt lat="46.51824" lon="-0.79652">
        <ele>76.8</ele>
        <time>2022-06-19T08:40:58Z</time>
      </trkpt>
      <trkpt lat="46.51819" lon="-0.79656">
        <ele>76.8</ele>
        <time>2022-06-19T08:40:59Z</time>
      </trkpt>
      <trkpt lat="46.51813" lon="-0.79665">
        <ele>76.8</ele>
        <time>2022-06-19T08:41:01Z</time>
      </trkpt>
      <trkpt lat="46.51807" lon="-0.79674">
        <ele>76.6</ele>
        <time>2022-06-19T08:41:03Z</time>
      </trkpt>
      <trkpt lat="46.51803" lon="-0.79678">
        <ele>76.6</ele>
        <time>2022-06-19T08:41:04Z</time>
      </trkpt>
      <trkpt lat="46.51793" lon="-0.79689">
        <ele>76.8</ele>
        <time>2022-06-19T08:41:07Z</time>
      </trkpt>
      <trkpt lat="46.51786" lon="-0.79694">
        <ele>76.8</ele>
        <time>2022-06-19T08:41:09Z</time>
      </trkpt>
      <trkpt lat="46.51783" lon="-0.79696">
        <ele>76.6</ele>
        <time>2022-06-19T08:41:10Z</time>
      </trkpt>
      <trkpt lat="46.51772" lon="-0.79708">
        <ele>76.4</ele>
        <time>2022-06-19T08:41:14Z</time>
      </trkpt>
      <trkpt lat="46.51765" lon="-0.79716">
        <ele>76.8</ele>
        <time>2022-06-19T08:41:16Z</time>
      </trkpt>
      <trkpt lat="46.51753" lon="-0.79729">
        <ele>77.2</ele>
        <time>2022-06-19T08:41:19Z</time>
      </trkpt>
      <trkpt lat="46.51752" lon="-0.79732">
        <ele>77</ele>
        <time>2022-06-19T08:41:20Z</time>
      </trkpt>
      <trkpt lat="46.51748" lon="-0.7974">
        <ele>77.2</ele>
        <time>2022-06-19T08:41:22Z</time>
      </trkpt>
      <trkpt lat="46.51734" lon="-0.79755">
        <ele>77.2</ele>
        <time>2022-06-19T08:41:26Z</time>
      </trkpt>
      <trkpt lat="46.51724" lon="-0.79766">
        <ele>77.2</ele>
        <time>2022-06-19T08:41:28Z</time>
      </trkpt>
      <trkpt lat="46.51704" lon="-0.79778">
        <ele>77.2</ele>
        <time>2022-06-19T08:41:31Z</time>
      </trkpt>
      <trkpt lat="46.51699" lon="-0.79781">
        <ele>77.2</ele>
        <time>2022-06-19T08:41:32Z</time>
      </trkpt>
      <trkpt lat="46.51671" lon="-0.7979">
        <ele>77.6</ele>
        <time>2022-06-19T08:41:37Z</time>
      </trkpt>
      <trkpt lat="46.51649" lon="-0.798">
        <ele>77.2</ele>
        <time>2022-06-19T08:41:41Z</time>
      </trkpt>
      <trkpt lat="46.51637" lon="-0.79807">
        <ele>77.2</ele>
        <time>2022-06-19T08:41:43Z</time>
      </trkpt>
      <trkpt lat="46.51614" lon="-0.79819">
        <ele>77.6</ele>
        <time>2022-06-19T08:41:48Z</time>
      </trkpt>
      <trkpt lat="46.5161" lon="-0.79822">
        <ele>77.6</ele>
        <time>2022-06-19T08:41:49Z</time>
      </trkpt>
      <trkpt lat="46.51605" lon="-0.79825">
        <ele>77.8</ele>
        <time>2022-06-19T08:41:50Z</time>
      </trkpt>
      <trkpt lat="46.5159" lon="-0.79831">
        <ele>77.8</ele>
        <time>2022-06-19T08:41:53Z</time>
      </trkpt>
      <trkpt lat="46.51586" lon="-0.79833">
        <ele>77.6</ele>
        <time>2022-06-19T08:41:54Z</time>
      </trkpt>
      <trkpt lat="46.51581" lon="-0.79836">
        <ele>77.6</ele>
        <time>2022-06-19T08:41:55Z</time>
      </trkpt>
      <trkpt lat="46.51569" lon="-0.79848">
        <ele>77.4</ele>
        <time>2022-06-19T08:41:58Z</time>
      </trkpt>
      <trkpt lat="46.51561" lon="-0.79857">
        <ele>77.2</ele>
        <time>2022-06-19T08:42:00Z</time>
      </trkpt>
      <trkpt lat="46.51557" lon="-0.79861">
        <ele>76.8</ele>
        <time>2022-06-19T08:42:01Z</time>
      </trkpt>
      <trkpt lat="46.51552" lon="-0.79865">
        <ele>76.6</ele>
        <time>2022-06-19T08:42:02Z</time>
      </trkpt>
      <trkpt lat="46.5154" lon="-0.79879">
        <ele>76.2</ele>
        <time>2022-06-19T08:42:05Z</time>
      </trkpt>
      <trkpt lat="46.51531" lon="-0.79889">
        <ele>76</ele>
        <time>2022-06-19T08:42:07Z</time>
      </trkpt>
      <trkpt lat="46.51521" lon="-0.799">
        <ele>75.4</ele>
        <time>2022-06-19T08:42:09Z</time>
      </trkpt>
      <trkpt lat="46.51516" lon="-0.79904">
        <ele>75</ele>
        <time>2022-06-19T08:42:10Z</time>
      </trkpt>
      <trkpt lat="46.51509" lon="-0.79915">
        <ele>74.2</ele>
        <time>2022-06-19T08:42:12Z</time>
      </trkpt>
      <trkpt lat="46.51503" lon="-0.79922">
        <ele>74</ele>
        <time>2022-06-19T08:42:13Z</time>
      </trkpt>
      <trkpt lat="46.51494" lon="-0.7993">
        <ele>74</ele>
        <time>2022-06-19T08:42:15Z</time>
      </trkpt>
      <trkpt lat="46.51489" lon="-0.79933">
        <ele>74.2</ele>
        <time>2022-06-19T08:42:16Z</time>
      </trkpt>
      <trkpt lat="46.51483" lon="-0.79936">
        <ele>74.2</ele>
        <time>2022-06-19T08:42:17Z</time>
      </trkpt>
      <trkpt lat="46.51452" lon="-0.79953">
        <ele>74</ele>
        <time>2022-06-19T08:42:21Z</time>
      </trkpt>
      <trkpt lat="46.51419" lon="-0.7997">
        <ele>73</ele>
        <time>2022-06-19T08:42:25Z</time>
      </trkpt>
      <trkpt lat="46.51407" lon="-0.79976">
        <ele>71.8</ele>
        <time>2022-06-19T08:42:27Z</time>
      </trkpt>
      <trkpt lat="46.51396" lon="-0.79983">
        <ele>70.2</ele>
        <time>2022-06-19T08:42:28Z</time>
      </trkpt>
      <trkpt lat="46.5139" lon="-0.79987">
        <ele>69</ele>
        <time>2022-06-19T08:42:31Z</time>
      </trkpt>
      <trkpt lat="46.5138" lon="-0.79994">
        <ele>68.4</ele>
        <time>2022-06-19T08:42:34Z</time>
      </trkpt>
      <trkpt lat="46.51367" lon="-0.80007">
        <ele>67.6</ele>
        <time>2022-06-19T08:42:38Z</time>
      </trkpt>
      <trkpt lat="46.51364" lon="-0.80011">
        <ele>67.2</ele>
        <time>2022-06-19T08:42:39Z</time>
      </trkpt>
      <trkpt lat="46.51357" lon="-0.80017">
        <ele>66.6</ele>
        <time>2022-06-19T08:42:41Z</time>
      </trkpt>
      <trkpt lat="46.51339" lon="-0.80035">
        <ele>66</ele>
        <time>2022-06-19T08:42:45Z</time>
      </trkpt>
      <trkpt lat="46.51333" lon="-0.80039">
        <ele>66</ele>
        <time>2022-06-19T08:42:46Z</time>
      </trkpt>
      <trkpt lat="46.51321" lon="-0.80048">
        <ele>65.2</ele>
        <time>2022-06-19T08:42:48Z</time>
      </trkpt>
      <trkpt lat="46.51308" lon="-0.80061">
        <ele>64.8</ele>
        <time>2022-06-19T08:42:50Z</time>
      </trkpt>
      <trkpt lat="46.51299" lon="-0.80071">
        <ele>64.4</ele>
        <time>2022-06-19T08:42:52Z</time>
      </trkpt>
      <trkpt lat="46.51295" lon="-0.80074">
        <ele>64.2</ele>
        <time>2022-06-19T08:42:53Z</time>
      </trkpt>
      <trkpt lat="46.51293" lon="-0.80077">
        <ele>64.2</ele>
        <time>2022-06-19T08:42:54Z</time>
      </trkpt>
      <trkpt lat="46.51288" lon="-0.80083">
        <ele>63.2</ele>
        <time>2022-06-19T08:42:56Z</time>
      </trkpt>
      <trkpt lat="46.51284" lon="-0.80087">
        <ele>62.6</ele>
        <time>2022-06-19T08:42:57Z</time>
      </trkpt>
      <trkpt lat="46.51274" lon="-0.80095">
        <ele>62</ele>
        <time>2022-06-19T08:42:59Z</time>
      </trkpt>
      <trkpt lat="46.51264" lon="-0.801">
        <ele>61.2</ele>
        <time>2022-06-19T08:43:01Z</time>
      </trkpt>
      <trkpt lat="46.5126" lon="-0.80102">
        <ele>60.8</ele>
        <time>2022-06-19T08:43:02Z</time>
      </trkpt>
      <trkpt lat="46.51248" lon="-0.80107">
        <ele>60.2</ele>
        <time>2022-06-19T08:43:04Z</time>
      </trkpt>
      <trkpt lat="46.51221" lon="-0.80111">
        <ele>59.8</ele>
        <time>2022-06-19T08:43:08Z</time>
      </trkpt>
      <trkpt lat="46.51215" lon="-0.80111">
        <ele>59.8</ele>
        <time>2022-06-19T08:43:09Z</time>
      </trkpt>
      <trkpt lat="46.51177" lon="-0.80121">
        <ele>58.8</ele>
        <time>2022-06-19T08:43:14Z</time>
      </trkpt>
      <trkpt lat="46.51169" lon="-0.80123">
        <ele>58.6</ele>
        <time>2022-06-19T08:43:15Z</time>
      </trkpt>
      <trkpt lat="46.51147" lon="-0.80129">
        <ele>57.6</ele>
        <time>2022-06-19T08:43:18Z</time>
      </trkpt>
      <trkpt lat="46.51134" lon="-0.80132">
        <ele>55.8</ele>
        <time>2022-06-19T08:43:20Z</time>
      </trkpt>
      <trkpt lat="46.51124" lon="-0.80134">
        <ele>54.4</ele>
        <time>2022-06-19T08:43:22Z</time>
      </trkpt>
      <trkpt lat="46.5112" lon="-0.80135">
        <ele>53.2</ele>
        <time>2022-06-19T08:43:23Z</time>
      </trkpt>
      <trkpt lat="46.51117" lon="-0.80134">
        <ele>52</ele>
        <time>2022-06-19T08:43:24Z</time>
      </trkpt>
      <trkpt lat="46.51114" lon="-0.80134">
        <ele>51.2</ele>
        <time>2022-06-19T08:43:25Z</time>
      </trkpt>
      <trkpt lat="46.51112" lon="-0.80137">
        <ele>50.2</ele>
        <time>2022-06-19T08:43:26Z</time>
      </trkpt>
      <trkpt lat="46.51105" lon="-0.80142">
        <ele>49.2</ele>
        <time>2022-06-19T08:43:28Z</time>
      </trkpt>
      <trkpt lat="46.51095" lon="-0.80148">
        <ele>48.6</ele>
        <time>2022-06-19T08:43:31Z</time>
      </trkpt>
      <trkpt lat="46.51091" lon="-0.80147">
        <ele>48.6</ele>
        <time>2022-06-19T08:43:33Z</time>
      </trkpt>
      <trkpt lat="46.51086" lon="-0.80144">
        <ele>49</ele>
        <time>2022-06-19T08:43:36Z</time>
      </trkpt>
      <trkpt lat="46.51083" lon="-0.80142">
        <ele>50.2</ele>
        <time>2022-06-19T08:43:39Z</time>
      </trkpt>
      <trkpt lat="46.5108" lon="-0.80142">
        <ele>50.4</ele>
        <time>2022-06-19T08:43:40Z</time>
      </trkpt>
      <trkpt lat="46.51075" lon="-0.8014">
        <ele>51</ele>
        <time>2022-06-19T08:43:44Z</time>
      </trkpt>
      <trkpt lat="46.51072" lon="-0.8014">
        <ele>51.6</ele>
        <time>2022-06-19T08:43:46Z</time>
      </trkpt>
      <trkpt lat="46.5107" lon="-0.8014">
        <ele>52.2</ele>
        <time>2022-06-19T08:43:48Z</time>
      </trkpt>
      <trkpt lat="46.51068" lon="-0.8014">
        <ele>52.8</ele>
        <time>2022-06-19T08:43:49Z</time>
      </trkpt>
      <trkpt lat="46.51064" lon="-0.80139">
        <ele>53.6</ele>
        <time>2022-06-19T08:43:51Z</time>
      </trkpt>
      <trkpt lat="46.51062" lon="-0.80138">
        <ele>54</ele>
        <time>2022-06-19T08:43:52Z</time>
      </trkpt>
      <trkpt lat="46.51054" lon="-0.80138">
        <ele>55</ele>
        <time>2022-06-19T08:43:57Z</time>
      </trkpt>
      <trkpt lat="46.51053" lon="-0.80139">
        <ele>55.2</ele>
        <time>2022-06-19T08:43:58Z</time>
      </trkpt>
      <trkpt lat="46.51048" lon="-0.80142">
        <ele>56.2</ele>
        <time>2022-06-19T08:44:03Z</time>
      </trkpt>
      <trkpt lat="46.51046" lon="-0.80143">
        <ele>56.2</ele>
        <time>2022-06-19T08:44:05Z</time>
      </trkpt>
      <trkpt lat="46.51044" lon="-0.80144">
        <ele>56.8</ele>
        <time>2022-06-19T08:44:06Z</time>
      </trkpt>
      <trkpt lat="46.51041" lon="-0.80146">
        <ele>57.2</ele>
        <time>2022-06-19T08:44:08Z</time>
      </trkpt>
      <trkpt lat="46.51037" lon="-0.80149">
        <ele>58.2</ele>
        <time>2022-06-19T08:44:12Z</time>
      </trkpt>
      <trkpt lat="46.51036" lon="-0.8015">
        <ele>58.6</ele>
        <time>2022-06-19T08:44:13Z</time>
      </trkpt>
      <trkpt lat="46.51032" lon="-0.80155">
        <ele>59.6</ele>
        <time>2022-06-19T08:44:17Z</time>
      </trkpt>
      <trkpt lat="46.51031" lon="-0.80156">
        <ele>59.8</ele>
        <time>2022-06-19T08:44:18Z</time>
      </trkpt>
      <trkpt lat="46.51028" lon="-0.80159">
        <ele>61</ele>
        <time>2022-06-19T08:44:21Z</time>
      </trkpt>
      <trkpt lat="46.51025" lon="-0.80163">
        <ele>61.4</ele>
        <time>2022-06-19T08:44:24Z</time>
      </trkpt>
      <trkpt lat="46.51024" lon="-0.80164">
        <ele>61.8</ele>
        <time>2022-06-19T08:44:26Z</time>
      </trkpt>
      <trkpt lat="46.51023" lon="-0.80165">
        <ele>62.2</ele>
        <time>2022-06-19T08:44:27Z</time>
      </trkpt>
      <trkpt lat="46.51019" lon="-0.80171">
        <ele>63.4</ele>
        <time>2022-06-19T08:44:33Z</time>
      </trkpt>
      <trkpt lat="46.51018" lon="-0.80171">
        <ele>63.6</ele>
        <time>2022-06-19T08:44:34Z</time>
      </trkpt>
      <trkpt lat="46.51015" lon="-0.80174">
        <ele>64.2</ele>
        <time>2022-06-19T08:44:39Z</time>
      </trkpt>
      <trkpt lat="46.51013" lon="-0.80176">
        <ele>64.6</ele>
        <time>2022-06-19T08:44:41Z</time>
      </trkpt>
      <trkpt lat="46.5101" lon="-0.8018">
        <ele>65.2</ele>
        <time>2022-06-19T08:44:46Z</time>
      </trkpt>
      <trkpt lat="46.51008" lon="-0.80182">
        <ele>65.6</ele>
        <time>2022-06-19T08:44:48Z</time>
      </trkpt>
      <trkpt lat="46.51" lon="-0.80188">
        <ele>66.2</ele>
        <time>2022-06-19T08:44:54Z</time>
      </trkpt>
      <trkpt lat="46.50996" lon="-0.80192">
        <ele>66.8</ele>
        <time>2022-06-19T08:44:58Z</time>
      </trkpt>
      <trkpt lat="46.50985" lon="-0.80203">
        <ele>67.8</ele>
        <time>2022-06-19T08:45:08Z</time>
      </trkpt>
      <trkpt lat="46.50982" lon="-0.80206">
        <ele>68</ele>
        <time>2022-06-19T08:45:11Z</time>
      </trkpt>
      <trkpt lat="46.50976" lon="-0.8021">
        <ele>68.8</ele>
        <time>2022-06-19T08:45:16Z</time>
      </trkpt>
      <trkpt lat="46.50961" lon="-0.80219">
        <ele>69.6</ele>
        <time>2022-06-19T08:45:25Z</time>
      </trkpt>
      <trkpt lat="46.50953" lon="-0.80224">
        <ele>69.8</ele>
        <time>2022-06-19T08:45:30Z</time>
      </trkpt>
      <trkpt lat="46.50946" lon="-0.80226">
        <ele>70.2</ele>
        <time>2022-06-19T08:45:34Z</time>
      </trkpt>
      <trkpt lat="46.50945" lon="-0.80225">
        <ele>70.4</ele>
        <time>2022-06-19T08:45:35Z</time>
      </trkpt>
      <trkpt lat="46.50935" lon="-0.80222">
        <ele>70.8</ele>
        <time>2022-06-19T08:45:40Z</time>
      </trkpt>
      <trkpt lat="46.50931" lon="-0.80219">
        <ele>71</ele>
        <time>2022-06-19T08:45:42Z</time>
      </trkpt>
      <trkpt lat="46.50913" lon="-0.80211">
        <ele>71.6</ele>
        <time>2022-06-19T08:45:49Z</time>
      </trkpt>
      <trkpt lat="46.50897" lon="-0.80201">
        <ele>71.8</ele>
        <time>2022-06-19T08:45:54Z</time>
      </trkpt>
      <trkpt lat="46.50873" lon="-0.8018">
        <ele>71.2</ele>
        <time>2022-06-19T08:46:02Z</time>
      </trkpt>
      <trkpt lat="46.50864" lon="-0.80168">
        <ele>71.2</ele>
        <time>2022-06-19T08:46:05Z</time>
      </trkpt>
      <trkpt lat="46.50853" lon="-0.80158">
        <ele>71.2</ele>
        <time>2022-06-19T08:46:08Z</time>
      </trkpt>
      <trkpt lat="46.5085" lon="-0.80155">
        <ele>71.2</ele>
        <time>2022-06-19T08:46:09Z</time>
      </trkpt>
      <trkpt lat="46.50833" lon="-0.80139">
        <ele>71.2</ele>
        <time>2022-06-19T08:46:15Z</time>
      </trkpt>
      <trkpt lat="46.50821" lon="-0.80139">
        <ele>72</ele>
        <time>2022-06-19T08:46:21Z</time>
      </trkpt>
      <trkpt lat="46.50819" lon="-0.8014">
        <ele>72.2</ele>
        <time>2022-06-19T08:46:22Z</time>
      </trkpt>
      <trkpt lat="46.50813" lon="-0.80139">
        <ele>73.2</ele>
        <time>2022-06-19T08:46:25Z</time>
      </trkpt>
      <trkpt lat="46.50809" lon="-0.80141">
        <ele>73.8</ele>
        <time>2022-06-19T08:46:27Z</time>
      </trkpt>
      <trkpt lat="46.50804" lon="-0.80144">
        <ele>74.2</ele>
        <time>2022-06-19T08:46:30Z</time>
      </trkpt>
      <trkpt lat="46.50796" lon="-0.8015">
        <ele>75.2</ele>
        <time>2022-06-19T08:46:35Z</time>
      </trkpt>
      <trkpt lat="46.50795" lon="-0.80152">
        <ele>75.6</ele>
        <time>2022-06-19T08:46:36Z</time>
      </trkpt>
      <trkpt lat="46.50785" lon="-0.80159">
        <ele>76.8</ele>
        <time>2022-06-19T08:46:42Z</time>
      </trkpt>
      <trkpt lat="46.50773" lon="-0.80175">
        <ele>77.6</ele>
        <time>2022-06-19T08:46:48Z</time>
      </trkpt>
      <trkpt lat="46.50771" lon="-0.80179">
        <ele>77.8</ele>
        <time>2022-06-19T08:46:49Z</time>
      </trkpt>
      <trkpt lat="46.50764" lon="-0.80192">
        <ele>79</ele>
        <time>2022-06-19T08:46:54Z</time>
      </trkpt>
      <trkpt lat="46.50757" lon="-0.80202">
        <ele>79.2</ele>
        <time>2022-06-19T08:46:58Z</time>
      </trkpt>
      <trkpt lat="46.50748" lon="-0.80213">
        <ele>80</ele>
        <time>2022-06-19T08:47:02Z</time>
      </trkpt>
      <trkpt lat="46.50739" lon="-0.80225">
        <ele>80.2</ele>
        <time>2022-06-19T08:47:06Z</time>
      </trkpt>
      <trkpt lat="46.50727" lon="-0.80242">
        <ele>81</ele>
        <time>2022-06-19T08:47:12Z</time>
      </trkpt>
      <trkpt lat="46.50722" lon="-0.80248">
        <ele>81.2</ele>
        <time>2022-06-19T08:47:14Z</time>
      </trkpt>
      <trkpt lat="46.50702" lon="-0.80264">
        <ele>82</ele>
        <time>2022-06-19T08:47:22Z</time>
      </trkpt>
      <trkpt lat="46.50699" lon="-0.80266">
        <ele>82</ele>
        <time>2022-06-19T08:47:23Z</time>
      </trkpt>
      <trkpt lat="46.50682" lon="-0.80272">
        <ele>82</ele>
        <time>2022-06-19T08:47:28Z</time>
      </trkpt>
      <trkpt lat="46.50648" lon="-0.80278">
        <ele>82</ele>
        <time>2022-06-19T08:47:36Z</time>
      </trkpt>
      <trkpt lat="46.50638" lon="-0.8028">
        <ele>81.4</ele>
        <time>2022-06-19T08:47:38Z</time>
      </trkpt>
      <trkpt lat="46.50627" lon="-0.80285">
        <ele>80.6</ele>
        <time>2022-06-19T08:47:40Z</time>
      </trkpt>
      <trkpt lat="46.50622" lon="-0.80288">
        <ele>80.2</ele>
        <time>2022-06-19T08:47:41Z</time>
      </trkpt>
      <trkpt lat="46.50605" lon="-0.80298">
        <ele>79</ele>
        <time>2022-06-19T08:47:44Z</time>
      </trkpt>
      <trkpt lat="46.50588" lon="-0.80307">
        <ele>78.4</ele>
        <time>2022-06-19T08:47:47Z</time>
      </trkpt>
      <trkpt lat="46.50582" lon="-0.80308">
        <ele>78.4</ele>
        <time>2022-06-19T08:47:48Z</time>
      </trkpt>
      <trkpt lat="46.50576" lon="-0.80308">
        <ele>78.2</ele>
        <time>2022-06-19T08:47:49Z</time>
      </trkpt>
      <trkpt lat="46.50556" lon="-0.80302">
        <ele>78.2</ele>
        <time>2022-06-19T08:47:53Z</time>
      </trkpt>
      <trkpt lat="46.50536" lon="-0.80295">
        <ele>78.2</ele>
        <time>2022-06-19T08:47:57Z</time>
      </trkpt>
      <trkpt lat="46.50522" lon="-0.80291">
        <ele>78.2</ele>
        <time>2022-06-19T08:48:00Z</time>
      </trkpt>
      <trkpt lat="46.50494" lon="-0.80285">
        <ele>78</ele>
        <time>2022-06-19T08:48:06Z</time>
      </trkpt>
      <trkpt lat="46.5049" lon="-0.80284">
        <ele>78</ele>
        <time>2022-06-19T08:48:07Z</time>
      </trkpt>
      <trkpt lat="46.50475" lon="-0.80283">
        <ele>78</ele>
        <time>2022-06-19T08:48:10Z</time>
      </trkpt>
      <trkpt lat="46.50461" lon="-0.80288">
        <ele>77.8</ele>
        <time>2022-06-19T08:48:13Z</time>
      </trkpt>
      <trkpt lat="46.50457" lon="-0.80291">
        <ele>77.4</ele>
        <time>2022-06-19T08:48:14Z</time>
      </trkpt>
      <trkpt lat="46.50444" lon="-0.80302">
        <ele>77</ele>
        <time>2022-06-19T08:48:17Z</time>
      </trkpt>
      <trkpt lat="46.5044" lon="-0.80306">
        <ele>76.8</ele>
        <time>2022-06-19T08:48:18Z</time>
      </trkpt>
      <trkpt lat="46.50407" lon="-0.80335">
        <ele>76</ele>
        <time>2022-06-19T08:48:25Z</time>
      </trkpt>
      <trkpt lat="46.50402" lon="-0.80338">
        <ele>75.8</ele>
        <time>2022-06-19T08:48:26Z</time>
      </trkpt>
      <trkpt lat="46.50373" lon="-0.80349">
        <ele>75</ele>
        <time>2022-06-19T08:48:31Z</time>
      </trkpt>
      <trkpt lat="46.50362" lon="-0.80352">
        <ele>74.8</ele>
        <time>2022-06-19T08:48:33Z</time>
      </trkpt>
      <trkpt lat="46.50352" lon="-0.80358">
        <ele>74.2</ele>
        <time>2022-06-19T08:48:34Z</time>
      </trkpt>
      <trkpt lat="46.50344" lon="-0.80368">
        <ele>73.8</ele>
        <time>2022-06-19T08:48:37Z</time>
      </trkpt>
      <trkpt lat="46.5034" lon="-0.80374">
        <ele>73.6</ele>
        <time>2022-06-19T08:48:38Z</time>
      </trkpt>
      <trkpt lat="46.50325" lon="-0.80412">
        <ele>72.2</ele>
        <time>2022-06-19T08:48:43Z</time>
      </trkpt>
      <trkpt lat="46.50314" lon="-0.80451">
        <ele>70.8</ele>
        <time>2022-06-19T08:48:47Z</time>
      </trkpt>
      <trkpt lat="46.50309" lon="-0.80461">
        <ele>70.4</ele>
        <time>2022-06-19T08:48:48Z</time>
      </trkpt>
      <trkpt lat="46.50304" lon="-0.80469">
        <ele>70</ele>
        <time>2022-06-19T08:48:49Z</time>
      </trkpt>
      <trkpt lat="46.50297" lon="-0.80476">
        <ele>69.6</ele>
        <time>2022-06-19T08:48:50Z</time>
      </trkpt>
      <trkpt lat="46.5029" lon="-0.80482">
        <ele>69.4</ele>
        <time>2022-06-19T08:48:51Z</time>
      </trkpt>
      <trkpt lat="46.50266" lon="-0.80498">
        <ele>68.6</ele>
        <time>2022-06-19T08:48:54Z</time>
      </trkpt>
      <trkpt lat="46.50243" lon="-0.80516">
        <ele>67.6</ele>
        <time>2022-06-19T08:48:57Z</time>
      </trkpt>
      <trkpt lat="46.50221" lon="-0.80535">
        <ele>66.4</ele>
        <time>2022-06-19T08:49:00Z</time>
      </trkpt>
      <trkpt lat="46.50208" lon="-0.80551">
        <ele>65.2</ele>
        <time>2022-06-19T08:49:02Z</time>
      </trkpt>
      <trkpt lat="46.50197" lon="-0.80566">
        <ele>64</ele>
        <time>2022-06-19T08:49:04Z</time>
      </trkpt>
      <trkpt lat="46.50187" lon="-0.80576">
        <ele>63</ele>
        <time>2022-06-19T08:49:06Z</time>
      </trkpt>
      <trkpt lat="46.50175" lon="-0.80578">
        <ele>62.4</ele>
        <time>2022-06-19T08:49:08Z</time>
      </trkpt>
      <trkpt lat="46.5017" lon="-0.80577">
        <ele>62</ele>
        <time>2022-06-19T08:49:09Z</time>
      </trkpt>
      <trkpt lat="46.50164" lon="-0.80575">
        <ele>61.6</ele>
        <time>2022-06-19T08:49:10Z</time>
      </trkpt>
      <trkpt lat="46.50149" lon="-0.80564">
        <ele>61.4</ele>
        <time>2022-06-19T08:49:13Z</time>
      </trkpt>
      <trkpt lat="46.50128" lon="-0.80547">
        <ele>61.2</ele>
        <time>2022-06-19T08:49:18Z</time>
      </trkpt>
      <trkpt lat="46.50124" lon="-0.80544">
        <ele>61.2</ele>
        <time>2022-06-19T08:49:19Z</time>
      </trkpt>
      <trkpt lat="46.50107" lon="-0.80533">
        <ele>60.6</ele>
        <time>2022-06-19T08:49:23Z</time>
      </trkpt>
      <trkpt lat="46.50095" lon="-0.80526">
        <ele>59.6</ele>
        <time>2022-06-19T08:49:25Z</time>
      </trkpt>
      <trkpt lat="46.50083" lon="-0.80516">
        <ele>58</ele>
        <time>2022-06-19T08:49:27Z</time>
      </trkpt>
      <trkpt lat="46.50077" lon="-0.8051">
        <ele>57.8</ele>
        <time>2022-06-19T08:49:28Z</time>
      </trkpt>
      <trkpt lat="46.50071" lon="-0.80504">
        <ele>57.2</ele>
        <time>2022-06-19T08:49:29Z</time>
      </trkpt>
      <trkpt lat="46.50065" lon="-0.805">
        <ele>56.6</ele>
        <time>2022-06-19T08:49:30Z</time>
      </trkpt>
      <trkpt lat="46.5006" lon="-0.80499">
        <ele>55.6</ele>
        <time>2022-06-19T08:49:31Z</time>
      </trkpt>
      <trkpt lat="46.5005" lon="-0.80496">
        <ele>53.4</ele>
        <time>2022-06-19T08:49:33Z</time>
      </trkpt>
      <trkpt lat="46.50041" lon="-0.8049">
        <ele>52</ele>
        <time>2022-06-19T08:49:35Z</time>
      </trkpt>
      <trkpt lat="46.50034" lon="-0.80484">
        <ele>50.8</ele>
        <time>2022-06-19T08:49:37Z</time>
      </trkpt>
      <trkpt lat="46.50018" lon="-0.80472">
        <ele>50</ele>
        <time>2022-06-19T08:49:41Z</time>
      </trkpt>
      <trkpt lat="46.50014" lon="-0.80469">
        <ele>49.8</ele>
        <time>2022-06-19T08:49:42Z</time>
      </trkpt>
      <trkpt lat="46.49988" lon="-0.80451">
        <ele>48.6</ele>
        <time>2022-06-19T08:49:49Z</time>
      </trkpt>
      <trkpt lat="46.49969" lon="-0.80431">
        <ele>48.6</ele>
        <time>2022-06-19T08:49:54Z</time>
      </trkpt>
      <trkpt lat="46.49948" lon="-0.80413">
        <ele>48.2</ele>
        <time>2022-06-19T08:49:59Z</time>
      </trkpt>
      <trkpt lat="46.49943" lon="-0.80409">
        <ele>48.4</ele>
        <time>2022-06-19T08:50:00Z</time>
      </trkpt>
      <trkpt lat="46.49918" lon="-0.80385">
        <ele>48.2</ele>
        <time>2022-06-19T08:50:05Z</time>
      </trkpt>
      <trkpt lat="46.49895" lon="-0.80362">
        <ele>48.2</ele>
        <time>2022-06-19T08:50:10Z</time>
      </trkpt>
      <trkpt lat="46.49886" lon="-0.80354">
        <ele>48.2</ele>
        <time>2022-06-19T08:50:12Z</time>
      </trkpt>
      <trkpt lat="46.49873" lon="-0.80344">
        <ele>47.6</ele>
        <time>2022-06-19T08:50:15Z</time>
      </trkpt>
      <trkpt lat="46.49869" lon="-0.80341">
        <ele>47.4</ele>
        <time>2022-06-19T08:50:16Z</time>
      </trkpt>
      <trkpt lat="46.49852" lon="-0.80328">
        <ele>47.2</ele>
        <time>2022-06-19T08:50:20Z</time>
      </trkpt>
      <trkpt lat="46.49844" lon="-0.80323">
        <ele>47.2</ele>
        <time>2022-06-19T08:50:22Z</time>
      </trkpt>
      <trkpt lat="46.49832" lon="-0.80315">
        <ele>47.2</ele>
        <time>2022-06-19T08:50:25Z</time>
      </trkpt>
      <trkpt lat="46.49818" lon="-0.80309">
        <ele>47</ele>
        <time>2022-06-19T08:50:28Z</time>
      </trkpt>
      <trkpt lat="46.49804" lon="-0.80302">
        <ele>46.6</ele>
        <time>2022-06-19T08:50:31Z</time>
      </trkpt>
      <trkpt lat="46.498" lon="-0.803">
        <ele>46.4</ele>
        <time>2022-06-19T08:50:32Z</time>
      </trkpt>
      <trkpt lat="46.4979" lon="-0.80297">
        <ele>46.2</ele>
        <time>2022-06-19T08:50:34Z</time>
      </trkpt>
      <trkpt lat="46.49763" lon="-0.80292">
        <ele>45.4</ele>
        <time>2022-06-19T08:50:39Z</time>
      </trkpt>
      <trkpt lat="46.49753" lon="-0.80292">
        <ele>45.2</ele>
        <time>2022-06-19T08:50:41Z</time>
      </trkpt>
      <trkpt lat="46.49729" lon="-0.80287">
        <ele>44.6</ele>
        <time>2022-06-19T08:50:45Z</time>
      </trkpt>
      <trkpt lat="46.49717" lon="-0.80279">
        <ele>44.2</ele>
        <time>2022-06-19T08:50:47Z</time>
      </trkpt>
      <trkpt lat="46.49702" lon="-0.80268">
        <ele>43.8</ele>
        <time>2022-06-19T08:50:51Z</time>
      </trkpt>
      <trkpt lat="46.49681" lon="-0.80262">
        <ele>43.4</ele>
        <time>2022-06-19T08:50:57Z</time>
      </trkpt>
      <trkpt lat="46.49677" lon="-0.80261">
        <ele>43.6</ele>
        <time>2022-06-19T08:50:58Z</time>
      </trkpt>
      <trkpt lat="46.49669" lon="-0.8026">
        <ele>43.8</ele>
        <time>2022-06-19T08:51:00Z</time>
      </trkpt>
      <trkpt lat="46.49663" lon="-0.80257">
        <ele>43.4</ele>
        <time>2022-06-19T08:51:02Z</time>
      </trkpt>
      <trkpt lat="46.49659" lon="-0.80254">
        <ele>43</ele>
        <time>2022-06-19T08:51:04Z</time>
      </trkpt>
      <trkpt lat="46.49652" lon="-0.80252">
        <ele>41</ele>
        <time>2022-06-19T08:51:07Z</time>
      </trkpt>
      <trkpt lat="46.4965" lon="-0.8025">
        <ele>39.8</ele>
        <time>2022-06-19T08:51:08Z</time>
      </trkpt>
      <trkpt lat="46.49649" lon="-0.80248">
        <ele>37</ele>
        <time>2022-06-19T08:51:09Z</time>
      </trkpt>
      <trkpt lat="46.4965" lon="-0.8024">
        <ele>35.2</ele>
        <time>2022-06-19T08:51:12Z</time>
      </trkpt>
      <trkpt lat="46.49651" lon="-0.80234">
        <ele>33.4</ele>
        <time>2022-06-19T08:51:14Z</time>
      </trkpt>
      <trkpt lat="46.49652" lon="-0.8023">
        <ele>32.6</ele>
        <time>2022-06-19T08:51:15Z</time>
      </trkpt>
      <trkpt lat="46.49653" lon="-0.80227">
        <ele>31.6</ele>
        <time>2022-06-19T08:51:16Z</time>
      </trkpt>
      <trkpt lat="46.49656" lon="-0.80224">
        <ele>30.8</ele>
        <time>2022-06-19T08:51:17Z</time>
      </trkpt>
      <trkpt lat="46.49659" lon="-0.8022">
        <ele>30.4</ele>
        <time>2022-06-19T08:51:18Z</time>
      </trkpt>
      <trkpt lat="46.49661" lon="-0.80215">
        <ele>29.8</ele>
        <time>2022-06-19T08:51:19Z</time>
      </trkpt>
      <trkpt lat="46.49664" lon="-0.80204">
        <ele>29.4</ele>
        <time>2022-06-19T08:51:21Z</time>
      </trkpt>
      <trkpt lat="46.49665" lon="-0.80198">
        <ele>28.8</ele>
        <time>2022-06-19T08:51:22Z</time>
      </trkpt>
      <trkpt lat="46.49665" lon="-0.80182">
        <ele>27.8</ele>
        <time>2022-06-19T08:51:24Z</time>
      </trkpt>
      <trkpt lat="46.49663" lon="-0.8016">
        <ele>27</ele>
        <time>2022-06-19T08:51:26Z</time>
      </trkpt>
      <trkpt lat="46.49661" lon="-0.8015">
        <ele>26.8</ele>
        <time>2022-06-19T08:51:27Z</time>
      </trkpt>
      <trkpt lat="46.49661" lon="-0.80138">
        <ele>26.6</ele>
        <time>2022-06-19T08:51:28Z</time>
      </trkpt>
      <trkpt lat="46.49663" lon="-0.80113">
        <ele>25.4</ele>
        <time>2022-06-19T08:51:30Z</time>
      </trkpt>
      <trkpt lat="46.49668" lon="-0.80084">
        <ele>24.4</ele>
        <time>2022-06-19T08:51:32Z</time>
      </trkpt>
      <trkpt lat="46.4967" lon="-0.8007">
        <ele>23.2</ele>
        <time>2022-06-19T08:51:33Z</time>
      </trkpt>
      <trkpt lat="46.49673" lon="-0.80058">
        <ele>21</ele>
        <time>2022-06-19T08:51:34Z</time>
      </trkpt>
      <trkpt lat="46.49676" lon="-0.80045">
        <ele>19.6</ele>
        <time>2022-06-19T08:51:35Z</time>
      </trkpt>
      <trkpt lat="46.49679" lon="-0.80034">
        <ele>17.6</ele>
        <time>2022-06-19T08:51:36Z</time>
      </trkpt>
      <trkpt lat="46.49681" lon="-0.80026">
        <ele>16</ele>
        <time>2022-06-19T08:51:37Z</time>
      </trkpt>
      <trkpt lat="46.49683" lon="-0.80018">
        <ele>14.8</ele>
        <time>2022-06-19T08:51:38Z</time>
      </trkpt>
      <trkpt lat="46.49683" lon="-0.80004">
        <ele>13.4</ele>
        <time>2022-06-19T08:51:40Z</time>
      </trkpt>
      <trkpt lat="46.49682" lon="-0.79999">
        <ele>12.4</ele>
        <time>2022-06-19T08:51:41Z</time>
      </trkpt>
      <trkpt lat="46.49681" lon="-0.79994">
        <ele>11.8</ele>
        <time>2022-06-19T08:51:42Z</time>
      </trkpt>
      <trkpt lat="46.49672" lon="-0.79972">
        <ele>10.8</ele>
        <time>2022-06-19T08:51:46Z</time>
      </trkpt>
      <trkpt lat="46.49665" lon="-0.79956">
        <ele>10.2</ele>
        <time>2022-06-19T08:51:48Z</time>
      </trkpt>
      <trkpt lat="46.49662" lon="-0.79945">
        <ele>9.6</ele>
        <time>2022-06-19T08:51:49Z</time>
      </trkpt>
      <trkpt lat="46.49658" lon="-0.79935">
        <ele>9</ele>
        <time>2022-06-19T08:51:50Z</time>
      </trkpt>
      <trkpt lat="46.49654" lon="-0.79923">
        <ele>8.4</ele>
        <time>2022-06-19T08:51:51Z</time>
      </trkpt>
      <trkpt lat="46.49645" lon="-0.79894">
        <ele>7.2</ele>
        <time>2022-06-19T08:51:54Z</time>
      </trkpt>
      <trkpt lat="46.49643" lon="-0.79885">
        <ele>6.4</ele>
        <time>2022-06-19T08:51:55Z</time>
      </trkpt>
      <trkpt lat="46.49643" lon="-0.79877">
        <ele>6</ele>
        <time>2022-06-19T08:51:56Z</time>
      </trkpt>
      <trkpt lat="46.49645" lon="-0.79866">
        <ele>5.6</ele>
        <time>2022-06-19T08:51:58Z</time>
      </trkpt>
      <trkpt lat="46.49655" lon="-0.79841">
        <ele>5</ele>
        <time>2022-06-19T08:52:03Z</time>
      </trkpt>
      <trkpt lat="46.49657" lon="-0.79836">
        <ele>5</ele>
        <time>2022-06-19T08:52:04Z</time>
      </trkpt>
      <trkpt lat="46.49682" lon="-0.798">
        <ele>4.2</ele>
        <time>2022-06-19T08:52:11Z</time>
      </trkpt>
      <trkpt lat="46.49711" lon="-0.79765">
        <ele>4</ele>
        <time>2022-06-19T08:52:18Z</time>
      </trkpt>
      <trkpt lat="46.49718" lon="-0.79755">
        <ele>4</ele>
        <time>2022-06-19T08:52:20Z</time>
      </trkpt>
      <trkpt lat="46.49744" lon="-0.79722">
        <ele>4</ele>
        <time>2022-06-19T08:52:26Z</time>
      </trkpt>
      <trkpt lat="46.49765" lon="-0.79699">
        <ele>3.6</ele>
        <time>2022-06-19T08:52:30Z</time>
      </trkpt>
      <trkpt lat="46.49776" lon="-0.7969">
        <ele>3.8</ele>
        <time>2022-06-19T08:52:32Z</time>
      </trkpt>
      <trkpt lat="46.4978" lon="-0.79685">
        <ele>3.8</ele>
        <time>2022-06-19T08:52:33Z</time>
      </trkpt>
      <trkpt lat="46.49793" lon="-0.7967">
        <ele>3.6</ele>
        <time>2022-06-19T08:52:36Z</time>
      </trkpt>
      <trkpt lat="46.49797" lon="-0.79665">
        <ele>3.6</ele>
        <time>2022-06-19T08:52:37Z</time>
      </trkpt>
      <trkpt lat="46.49805" lon="-0.79654">
        <ele>3.6</ele>
        <time>2022-06-19T08:52:40Z</time>
      </trkpt>
      <trkpt lat="46.4981" lon="-0.79645">
        <ele>3.4</ele>
        <time>2022-06-19T08:52:42Z</time>
      </trkpt>
      <trkpt lat="46.4982" lon="-0.79631">
        <ele>4.2</ele>
        <time>2022-06-19T08:52:45Z</time>
      </trkpt>
      <trkpt lat="46.4983" lon="-0.79617">
        <ele>4.2</ele>
        <time>2022-06-19T08:52:48Z</time>
      </trkpt>
      <trkpt lat="46.49857" lon="-0.79585">
        <ele>4</ele>
        <time>2022-06-19T08:52:55Z</time>
      </trkpt>
      <trkpt lat="46.49861" lon="-0.79581">
        <ele>4.2</ele>
        <time>2022-06-19T08:52:56Z</time>
      </trkpt>
      <trkpt lat="46.49879" lon="-0.79566">
        <ele>4.2</ele>
        <time>2022-06-19T08:53:00Z</time>
      </trkpt>
      <trkpt lat="46.49918" lon="-0.79543">
        <ele>4.4</ele>
        <time>2022-06-19T08:53:06Z</time>
      </trkpt>
      <trkpt lat="46.4993" lon="-0.79538">
        <ele>4.4</ele>
        <time>2022-06-19T08:53:07Z</time>
      </trkpt>
      <trkpt lat="46.4995" lon="-0.79535">
        <ele>4.2</ele>
        <time>2022-06-19T08:53:09Z</time>
      </trkpt>
      <trkpt lat="46.49961" lon="-0.79532">
        <ele>4.2</ele>
        <time>2022-06-19T08:53:10Z</time>
      </trkpt>
      <trkpt lat="46.4997" lon="-0.7953">
        <ele>4</ele>
        <time>2022-06-19T08:53:11Z</time>
      </trkpt>
      <trkpt lat="46.4998" lon="-0.79525">
        <ele>3.6</ele>
        <time>2022-06-19T08:53:13Z</time>
      </trkpt>
      <trkpt lat="46.49984" lon="-0.79521">
        <ele>3.4</ele>
        <time>2022-06-19T08:53:14Z</time>
      </trkpt>
      <trkpt lat="46.49987" lon="-0.79516">
        <ele>3.4</ele>
        <time>2022-06-19T08:53:15Z</time>
      </trkpt>
      <trkpt lat="46.5001" lon="-0.79491">
        <ele>3.8</ele>
        <time>2022-06-19T08:53:20Z</time>
      </trkpt>
      <trkpt lat="46.50021" lon="-0.79477">
        <ele>4</ele>
        <time>2022-06-19T08:53:23Z</time>
      </trkpt>
      <trkpt lat="46.50029" lon="-0.79469">
        <ele>4.2</ele>
        <time>2022-06-19T08:53:25Z</time>
      </trkpt>
      <trkpt lat="46.50033" lon="-0.79465">
        <ele>4.2</ele>
        <time>2022-06-19T08:53:26Z</time>
      </trkpt>
      <trkpt lat="46.50049" lon="-0.79452">
        <ele>3.8</ele>
        <time>2022-06-19T08:53:31Z</time>
      </trkpt>
      <trkpt lat="46.50067" lon="-0.7944">
        <ele>4.2</ele>
        <time>2022-06-19T08:53:36Z</time>
      </trkpt>
      <trkpt lat="46.50076" lon="-0.79435">
        <ele>4.2</ele>
        <time>2022-06-19T08:53:38Z</time>
      </trkpt>
      <trkpt lat="46.50101" lon="-0.79421">
        <ele>4</ele>
        <time>2022-06-19T08:53:44Z</time>
      </trkpt>
      <trkpt lat="46.50117" lon="-0.79413">
        <ele>3.8</ele>
        <time>2022-06-19T08:53:48Z</time>
      </trkpt>
      <trkpt lat="46.50125" lon="-0.79408">
        <ele>3.6</ele>
        <time>2022-06-19T08:53:50Z</time>
      </trkpt>
      <trkpt lat="46.50158" lon="-0.79391">
        <ele>3.6</ele>
        <time>2022-06-19T08:53:57Z</time>
      </trkpt>
      <trkpt lat="46.50165" lon="-0.79387">
        <ele>3.8</ele>
        <time>2022-06-19T08:53:59Z</time>
      </trkpt>
      <trkpt lat="46.50177" lon="-0.79383">
        <ele>3.6</ele>
        <time>2022-06-19T08:54:02Z</time>
      </trkpt>
      <trkpt lat="46.5018" lon="-0.79382">
        <ele>3.6</ele>
        <time>2022-06-19T08:54:03Z</time>
      </trkpt>
      <trkpt lat="46.5019" lon="-0.79378">
        <ele>3.4</ele>
        <time>2022-06-19T08:54:05Z</time>
      </trkpt>
      <trkpt lat="46.50208" lon="-0.79369">
        <ele>3</ele>
        <time>2022-06-19T08:54:08Z</time>
      </trkpt>
      <trkpt lat="46.5023" lon="-0.79363">
        <ele>2.4</ele>
        <time>2022-06-19T08:54:11Z</time>
      </trkpt>
      <trkpt lat="46.50243" lon="-0.79366">
        <ele>2.2</ele>
        <time>2022-06-19T08:54:13Z</time>
      </trkpt>
      <trkpt lat="46.50253" lon="-0.79374">
        <ele>1.8</ele>
        <time>2022-06-19T08:54:15Z</time>
      </trkpt>
      <trkpt lat="46.50259" lon="-0.79376">
        <ele>1.8</ele>
        <time>2022-06-19T08:54:16Z</time>
      </trkpt>
      <trkpt lat="46.50264" lon="-0.79378">
        <ele>1.8</ele>
        <time>2022-06-19T08:54:17Z</time>
      </trkpt>
      <trkpt lat="46.5027" lon="-0.79379">
        <ele>1.6</ele>
        <time>2022-06-19T08:54:18Z</time>
      </trkpt>
      <trkpt lat="46.50284" lon="-0.79377">
        <ele>1.6</ele>
        <time>2022-06-19T08:54:20Z</time>
      </trkpt>
      <trkpt lat="46.50291" lon="-0.79374">
        <ele>1.6</ele>
        <time>2022-06-19T08:54:21Z</time>
      </trkpt>
      <trkpt lat="46.50305" lon="-0.79369">
        <ele>1.4</ele>
        <time>2022-06-19T08:54:23Z</time>
      </trkpt>
      <trkpt lat="46.50321" lon="-0.79357">
        <ele>1.2</ele>
        <time>2022-06-19T08:54:26Z</time>
      </trkpt>
      <trkpt lat="46.50347" lon="-0.79333">
        <ele>1</ele>
        <time>2022-06-19T08:54:30Z</time>
      </trkpt>
      <trkpt lat="46.50356" lon="-0.7932">
        <ele>1</ele>
        <time>2022-06-19T08:54:32Z</time>
      </trkpt>
      <trkpt lat="46.5036" lon="-0.79313">
        <ele>1.2</ele>
        <time>2022-06-19T08:54:33Z</time>
      </trkpt>
      <trkpt lat="46.50368" lon="-0.79293">
        <ele>1.6</ele>
        <time>2022-06-19T08:54:36Z</time>
      </trkpt>
      <trkpt lat="46.50368" lon="-0.79284">
        <ele>1.6</ele>
        <time>2022-06-19T08:54:37Z</time>
      </trkpt>
      <trkpt lat="46.50368" lon="-0.79275">
        <ele>1.8</ele>
        <time>2022-06-19T08:54:38Z</time>
      </trkpt>
      <trkpt lat="46.50367" lon="-0.79237">
        <ele>1.8</ele>
        <time>2022-06-19T08:54:43Z</time>
      </trkpt>
      <trkpt lat="46.50364" lon="-0.79221">
        <ele>1.8</ele>
        <time>2022-06-19T08:54:45Z</time>
      </trkpt>
      <trkpt lat="46.50359" lon="-0.79199">
        <ele>1.8</ele>
        <time>2022-06-19T08:54:48Z</time>
      </trkpt>
      <trkpt lat="46.50348" lon="-0.79147">
        <ele>1.6</ele>
        <time>2022-06-19T08:54:55Z</time>
      </trkpt>
      <trkpt lat="46.50344" lon="-0.79124">
        <ele>1.8</ele>
        <time>2022-06-19T08:54:59Z</time>
      </trkpt>
      <trkpt lat="46.50344" lon="-0.79118">
        <ele>1.8</ele>
        <time>2022-06-19T08:55:00Z</time>
      </trkpt>
      <trkpt lat="46.5034" lon="-0.79097">
        <ele>2</ele>
        <time>2022-06-19T08:55:04Z</time>
      </trkpt>
      <trkpt lat="46.50339" lon="-0.79091">
        <ele>2.2</ele>
        <time>2022-06-19T08:55:05Z</time>
      </trkpt>
      <trkpt lat="46.50337" lon="-0.79085">
        <ele>2.2</ele>
        <time>2022-06-19T08:55:06Z</time>
      </trkpt>
      <trkpt lat="46.50329" lon="-0.79062">
        <ele>2.2</ele>
        <time>2022-06-19T08:55:10Z</time>
      </trkpt>
      <trkpt lat="46.50316" lon="-0.79026">
        <ele>2.2</ele>
        <time>2022-06-19T08:55:16Z</time>
      </trkpt>
      <trkpt lat="46.50311" lon="-0.79006">
        <ele>1.6</ele>
        <time>2022-06-19T08:55:20Z</time>
      </trkpt>
      <trkpt lat="46.50306" lon="-0.78994">
        <ele>1.8</ele>
        <time>2022-06-19T08:55:22Z</time>
      </trkpt>
      <trkpt lat="46.50289" lon="-0.78946">
        <ele>2.6</ele>
        <time>2022-06-19T08:55:29Z</time>
      </trkpt>
      <trkpt lat="46.50281" lon="-0.78916">
        <ele>2.6</ele>
        <time>2022-06-19T08:55:34Z</time>
      </trkpt>
      <trkpt lat="46.50278" lon="-0.78909">
        <ele>2.4</ele>
        <time>2022-06-19T08:55:35Z</time>
      </trkpt>
      <trkpt lat="46.50257" lon="-0.78858">
        <ele>1.8</ele>
        <time>2022-06-19T08:55:42Z</time>
      </trkpt>
      <trkpt lat="46.50241" lon="-0.78808">
        <ele>1.4</ele>
        <time>2022-06-19T08:55:49Z</time>
      </trkpt>
      <trkpt lat="46.50229" lon="-0.78768">
        <ele>1.8</ele>
        <time>2022-06-19T08:55:55Z</time>
      </trkpt>
      <trkpt lat="46.50214" lon="-0.78718">
        <ele>2</ele>
        <time>2022-06-19T08:56:02Z</time>
      </trkpt>
      <trkpt lat="46.50202" lon="-0.78671">
        <ele>2</ele>
        <time>2022-06-19T08:56:09Z</time>
      </trkpt>
      <trkpt lat="46.50203" lon="-0.78646">
        <ele>2.2</ele>
        <time>2022-06-19T08:56:15Z</time>
      </trkpt>
      <trkpt lat="46.50203" lon="-0.78636">
        <ele>2.8</ele>
        <time>2022-06-19T08:56:18Z</time>
      </trkpt>
      <trkpt lat="46.50203" lon="-0.78611">
        <ele>3.6</ele>
        <time>2022-06-19T08:56:24Z</time>
      </trkpt>
      <trkpt lat="46.50199" lon="-0.78598">
        <ele>4</ele>
        <time>2022-06-19T08:56:27Z</time>
      </trkpt>
      <trkpt lat="46.50197" lon="-0.78593">
        <ele>4.4</ele>
        <time>2022-06-19T08:56:29Z</time>
      </trkpt>
      <trkpt lat="46.50183" lon="-0.78577">
        <ele>4.8</ele>
        <time>2022-06-19T08:56:36Z</time>
      </trkpt>
      <trkpt lat="46.50176" lon="-0.78569">
        <ele>4.8</ele>
        <time>2022-06-19T08:56:38Z</time>
      </trkpt>
      <trkpt lat="46.50163" lon="-0.78551">
        <ele>4.6</ele>
        <time>2022-06-19T08:56:42Z</time>
      </trkpt>
      <trkpt lat="46.50154" lon="-0.78538">
        <ele>4.8</ele>
        <time>2022-06-19T08:56:45Z</time>
      </trkpt>
      <trkpt lat="46.50149" lon="-0.78529">
        <ele>5</ele>
        <time>2022-06-19T08:56:47Z</time>
      </trkpt>
      <trkpt lat="46.50147" lon="-0.78524">
        <ele>5</ele>
        <time>2022-06-19T08:56:48Z</time>
      </trkpt>
      <trkpt lat="46.50129" lon="-0.7849">
        <ele>5.2</ele>
        <time>2022-06-19T08:56:55Z</time>
      </trkpt>
      <trkpt lat="46.50126" lon="-0.78485">
        <ele>5.4</ele>
        <time>2022-06-19T08:56:56Z</time>
      </trkpt>
      <trkpt lat="46.50115" lon="-0.78465">
        <ele>5.8</ele>
        <time>2022-06-19T08:57:00Z</time>
      </trkpt>
      <trkpt lat="46.50111" lon="-0.78456">
        <ele>6.2</ele>
        <time>2022-06-19T08:57:02Z</time>
      </trkpt>
      <trkpt lat="46.50104" lon="-0.78444">
        <ele>6.6</ele>
        <time>2022-06-19T08:57:05Z</time>
      </trkpt>
      <trkpt lat="46.50096" lon="-0.78429">
        <ele>7</ele>
        <time>2022-06-19T08:57:08Z</time>
      </trkpt>
      <trkpt lat="46.50087" lon="-0.78417">
        <ele>7</ele>
        <time>2022-06-19T08:57:11Z</time>
      </trkpt>
      <trkpt lat="46.50079" lon="-0.78405">
        <ele>7</ele>
        <time>2022-06-19T08:57:14Z</time>
      </trkpt>
      <trkpt lat="46.50059" lon="-0.78375">
        <ele>6.8</ele>
        <time>2022-06-19T08:57:20Z</time>
      </trkpt>
      <trkpt lat="46.50049" lon="-0.78353">
        <ele>6.8</ele>
        <time>2022-06-19T08:57:23Z</time>
      </trkpt>
      <trkpt lat="46.50046" lon="-0.78339">
        <ele>7</ele>
        <time>2022-06-19T08:57:25Z</time>
      </trkpt>
      <trkpt lat="46.50046" lon="-0.78332">
        <ele>7.2</ele>
        <time>2022-06-19T08:57:26Z</time>
      </trkpt>
      <trkpt lat="46.50046" lon="-0.78318">
        <ele>8</ele>
        <time>2022-06-19T08:57:28Z</time>
      </trkpt>
      <trkpt lat="46.50047" lon="-0.78312">
        <ele>8.4</ele>
        <time>2022-06-19T08:57:29Z</time>
      </trkpt>
      <trkpt lat="46.50047" lon="-0.78307">
        <ele>8.6</ele>
        <time>2022-06-19T08:57:30Z</time>
      </trkpt>
      <trkpt lat="46.50049" lon="-0.78286">
        <ele>9.4</ele>
        <time>2022-06-19T08:57:34Z</time>
      </trkpt>
      <trkpt lat="46.5005" lon="-0.78267">
        <ele>10.6</ele>
        <time>2022-06-19T08:57:38Z</time>
      </trkpt>
      <trkpt lat="46.50051" lon="-0.78262">
        <ele>10.8</ele>
        <time>2022-06-19T08:57:39Z</time>
      </trkpt>
      <trkpt lat="46.50063" lon="-0.7824">
        <ele>11.2</ele>
        <time>2022-06-19T08:57:45Z</time>
      </trkpt>
      <trkpt lat="46.5007" lon="-0.78232">
        <ele>11.6</ele>
        <time>2022-06-19T08:57:48Z</time>
      </trkpt>
      <trkpt lat="46.50075" lon="-0.78225">
        <ele>12</ele>
        <time>2022-06-19T08:57:51Z</time>
      </trkpt>
      <trkpt lat="46.50079" lon="-0.78219">
        <ele>12.8</ele>
        <time>2022-06-19T08:57:54Z</time>
      </trkpt>
      <trkpt lat="46.50083" lon="-0.78218">
        <ele>13.4</ele>
        <time>2022-06-19T08:57:56Z</time>
      </trkpt>
      <trkpt lat="46.50085" lon="-0.78218">
        <ele>13.4</ele>
        <time>2022-06-19T08:57:57Z</time>
      </trkpt>
      <trkpt lat="46.50093" lon="-0.78222">
        <ele>13.4</ele>
        <time>2022-06-19T08:58:01Z</time>
      </trkpt>
      <trkpt lat="46.50094" lon="-0.78221">
        <ele>13.2</ele>
        <time>2022-06-19T08:58:02Z</time>
      </trkpt>
      <trkpt lat="46.50097" lon="-0.78216">
        <ele>13.2</ele>
        <time>2022-06-19T08:58:04Z</time>
      </trkpt>
      <trkpt lat="46.50096" lon="-0.78213">
        <ele>13.2</ele>
        <time>2022-06-19T08:58:05Z</time>
      </trkpt>
      <trkpt lat="46.50094" lon="-0.78209">
        <ele>13.2</ele>
        <time>2022-06-19T08:58:07Z</time>
      </trkpt>
      <trkpt lat="46.50092" lon="-0.78208">
        <ele>13.4</ele>
        <time>2022-06-19T08:58:09Z</time>
      </trkpt>
      <trkpt lat="46.50091" lon="-0.78209">
        <ele>13.4</ele>
        <time>2022-06-19T08:58:10Z</time>
      </trkpt>
      <trkpt lat="46.50093" lon="-0.78213">
        <ele>13.4</ele>
        <time>2022-06-19T08:58:13Z</time>
      </trkpt>
      <trkpt lat="46.50094" lon="-0.78215">
        <ele>13.4</ele>
        <time>2022-06-19T08:58:14Z</time>
      </trkpt>
      <trkpt lat="46.50095" lon="-0.78217">
        <ele>13.6</ele>
        <time>2022-06-19T08:58:15Z</time>
      </trkpt>
      <trkpt lat="46.50095" lon="-0.78227">
        <ele>13.6</ele>
        <time>2022-06-19T08:58:18Z</time>
      </trkpt>
      <trkpt lat="46.50096" lon="-0.78236">
        <ele>14</ele>
        <time>2022-06-19T08:58:21Z</time>
      </trkpt>
      <trkpt lat="46.50097" lon="-0.78239">
        <ele>15.4</ele>
        <time>2022-06-19T08:58:23Z</time>
      </trkpt>
      <trkpt lat="46.50099" lon="-0.78237">
        <ele>16.4</ele>
        <time>2022-06-19T08:58:25Z</time>
      </trkpt>
      <trkpt lat="46.50101" lon="-0.78232">
        <ele>16.8</ele>
        <time>2022-06-19T08:58:27Z</time>
      </trkpt>
      <trkpt lat="46.50109" lon="-0.78224">
        <ele>17.2</ele>
        <time>2022-06-19T08:58:31Z</time>
      </trkpt>
      <trkpt lat="46.50111" lon="-0.78221">
        <ele>17.4</ele>
        <time>2022-06-19T08:58:32Z</time>
      </trkpt>
      <trkpt lat="46.50113" lon="-0.78218">
        <ele>17.8</ele>
        <time>2022-06-19T08:58:33Z</time>
      </trkpt>
      <trkpt lat="46.50123" lon="-0.78211">
        <ele>17.6</ele>
        <time>2022-06-19T08:58:37Z</time>
      </trkpt>
      <trkpt lat="46.50138" lon="-0.78213">
        <ele>18.2</ele>
        <time>2022-06-19T08:58:43Z</time>
      </trkpt>
      <trkpt lat="46.50143" lon="-0.78216">
        <ele>19</ele>
        <time>2022-06-19T08:58:46Z</time>
      </trkpt>
      <trkpt lat="46.50146" lon="-0.7822">
        <ele>20</ele>
        <time>2022-06-19T08:58:49Z</time>
      </trkpt>
      <trkpt lat="46.50152" lon="-0.78224">
        <ele>21.2</ele>
        <time>2022-06-19T08:58:53Z</time>
      </trkpt>
      <trkpt lat="46.50155" lon="-0.78226">
        <ele>21.6</ele>
        <time>2022-06-19T08:58:55Z</time>
      </trkpt>
      <trkpt lat="46.50158" lon="-0.78229">
        <ele>22.4</ele>
        <time>2022-06-19T08:58:57Z</time>
      </trkpt>
      <trkpt lat="46.50163" lon="-0.78235">
        <ele>23.4</ele>
        <time>2022-06-19T08:59:01Z</time>
      </trkpt>
      <trkpt lat="46.50164" lon="-0.78239">
        <ele>24</ele>
        <time>2022-06-19T08:59:03Z</time>
      </trkpt>
      <trkpt lat="46.50165" lon="-0.78241">
        <ele>24.4</ele>
        <time>2022-06-19T08:59:04Z</time>
      </trkpt>
      <trkpt lat="46.50168" lon="-0.78243">
        <ele>25</ele>
        <time>2022-06-19T08:59:07Z</time>
      </trkpt>
      <trkpt lat="46.5017" lon="-0.78245">
        <ele>25.6</ele>
        <time>2022-06-19T08:59:09Z</time>
      </trkpt>
      <trkpt lat="46.50171" lon="-0.78246">
        <ele>25.6</ele>
        <time>2022-06-19T08:59:10Z</time>
      </trkpt>
      <trkpt lat="46.50177" lon="-0.78254">
        <ele>26.6</ele>
        <time>2022-06-19T08:59:15Z</time>
      </trkpt>
      <trkpt lat="46.50179" lon="-0.78261">
        <ele>27.8</ele>
        <time>2022-06-19T08:59:19Z</time>
      </trkpt>
      <trkpt lat="46.50179" lon="-0.78262">
        <ele>28</ele>
        <time>2022-06-19T08:59:20Z</time>
      </trkpt>
      <trkpt lat="46.50179" lon="-0.78266">
        <ele>28.4</ele>
        <time>2022-06-19T08:59:22Z</time>
      </trkpt>
      <trkpt lat="46.50173" lon="-0.78279">
        <ele>28.6</ele>
        <time>2022-06-19T08:59:29Z</time>
      </trkpt>
      <trkpt lat="46.50172" lon="-0.78284">
        <ele>28.6</ele>
        <time>2022-06-19T08:59:31Z</time>
      </trkpt>
      <trkpt lat="46.50174" lon="-0.78292">
        <ele>28.8</ele>
        <time>2022-06-19T08:59:34Z</time>
      </trkpt>
      <trkpt lat="46.50174" lon="-0.78294">
        <ele>29.2</ele>
        <time>2022-06-19T08:59:35Z</time>
      </trkpt>
      <trkpt lat="46.50177" lon="-0.78299">
        <ele>29.8</ele>
        <time>2022-06-19T08:59:39Z</time>
      </trkpt>
      <trkpt lat="46.50177" lon="-0.78299">
        <ele>30.2</ele>
        <time>2022-06-19T08:59:41Z</time>
      </trkpt>
      <trkpt lat="46.50181" lon="-0.78305">
        <ele>31.2</ele>
        <time>2022-06-19T08:59:44Z</time>
      </trkpt>
      <trkpt lat="46.50181" lon="-0.78305">
        <ele>31.6</ele>
        <time>2022-06-19T08:59:45Z</time>
      </trkpt>
      <trkpt lat="46.50182" lon="-0.78306">
        <ele>31.8</ele>
        <time>2022-06-19T08:59:46Z</time>
      </trkpt>
      <trkpt lat="46.50187" lon="-0.78309">
        <ele>32.8</ele>
        <time>2022-06-19T08:59:50Z</time>
      </trkpt>
      <trkpt lat="46.50191" lon="-0.78309">
        <ele>33.4</ele>
        <time>2022-06-19T08:59:54Z</time>
      </trkpt>
      <trkpt lat="46.50196" lon="-0.78309">
        <ele>33.8</ele>
        <time>2022-06-19T08:59:58Z</time>
      </trkpt>
      <trkpt lat="46.50199" lon="-0.78309">
        <ele>33.8</ele>
        <time>2022-06-19T08:59:59Z</time>
      </trkpt>
      <trkpt lat="46.50201" lon="-0.7831">
        <ele>33.8</ele>
        <time>2022-06-19T09:00:00Z</time>
      </trkpt>
      <trkpt lat="46.50214" lon="-0.78324">
        <ele>34.4</ele>
        <time>2022-06-19T09:00:06Z</time>
      </trkpt>
      <trkpt lat="46.50217" lon="-0.78327">
        <ele>35</ele>
        <time>2022-06-19T09:00:08Z</time>
      </trkpt>
      <trkpt lat="46.5022" lon="-0.7833">
        <ele>35.4</ele>
        <time>2022-06-19T09:00:10Z</time>
      </trkpt>
      <trkpt lat="46.50223" lon="-0.78334">
        <ele>36.2</ele>
        <time>2022-06-19T09:00:12Z</time>
      </trkpt>
      <trkpt lat="46.50232" lon="-0.78343">
        <ele>36.8</ele>
        <time>2022-06-19T09:00:18Z</time>
      </trkpt>
      <trkpt lat="46.50238" lon="-0.78351">
        <ele>37.4</ele>
        <time>2022-06-19T09:00:22Z</time>
      </trkpt>
      <trkpt lat="46.50243" lon="-0.78355">
        <ele>37.6</ele>
        <time>2022-06-19T09:00:24Z</time>
      </trkpt>
      <trkpt lat="46.50258" lon="-0.78375">
        <ele>37.6</ele>
        <time>2022-06-19T09:00:30Z</time>
      </trkpt>
      <trkpt lat="46.50267" lon="-0.78389">
        <ele>37.6</ele>
        <time>2022-06-19T09:00:34Z</time>
      </trkpt>
      <trkpt lat="46.50268" lon="-0.78397">
        <ele>37.6</ele>
        <time>2022-06-19T09:00:36Z</time>
      </trkpt>
      <trkpt lat="46.50273" lon="-0.78404">
        <ele>37</ele>
        <time>2022-06-19T09:00:39Z</time>
      </trkpt>
      <trkpt lat="46.50277" lon="-0.78408">
        <ele>36.4</ele>
        <time>2022-06-19T09:00:41Z</time>
      </trkpt>
      <trkpt lat="46.50281" lon="-0.78412">
        <ele>35</ele>
        <time>2022-06-19T09:00:43Z</time>
      </trkpt>
      <trkpt lat="46.50284" lon="-0.78418">
        <ele>33.8</ele>
        <time>2022-06-19T09:00:45Z</time>
      </trkpt>
      <trkpt lat="46.50287" lon="-0.7842">
        <ele>32.4</ele>
        <time>2022-06-19T09:00:47Z</time>
      </trkpt>
      <trkpt lat="46.5029" lon="-0.78423">
        <ele>31.2</ele>
        <time>2022-06-19T09:00:49Z</time>
      </trkpt>
      <trkpt lat="46.50294" lon="-0.78427">
        <ele>29.2</ele>
        <time>2022-06-19T09:00:51Z</time>
      </trkpt>
      <trkpt lat="46.50296" lon="-0.7843">
        <ele>28.2</ele>
        <time>2022-06-19T09:00:52Z</time>
      </trkpt>
      <trkpt lat="46.50299" lon="-0.78434">
        <ele>26.6</ele>
        <time>2022-06-19T09:00:53Z</time>
      </trkpt>
      <trkpt lat="46.50301" lon="-0.78438">
        <ele>25.6</ele>
        <time>2022-06-19T09:00:54Z</time>
      </trkpt>
      <trkpt lat="46.50304" lon="-0.78444">
        <ele>24.8</ele>
        <time>2022-06-19T09:00:55Z</time>
      </trkpt>
      <trkpt lat="46.50306" lon="-0.78448">
        <ele>24.4</ele>
        <time>2022-06-19T09:00:56Z</time>
      </trkpt>
      <trkpt lat="46.50311" lon="-0.78455">
        <ele>24</ele>
        <time>2022-06-19T09:00:58Z</time>
      </trkpt>
      <trkpt lat="46.5032" lon="-0.7846">
        <ele>24</ele>
        <time>2022-06-19T09:01:02Z</time>
      </trkpt>
      <trkpt lat="46.50325" lon="-0.78461">
        <ele>23.6</ele>
        <time>2022-06-19T09:01:05Z</time>
      </trkpt>
      <trkpt lat="46.50326" lon="-0.7846">
        <ele>22.8</ele>
        <time>2022-06-19T09:01:06Z</time>
      </trkpt>
      <trkpt lat="46.50328" lon="-0.78458">
        <ele>22.2</ele>
        <time>2022-06-19T09:01:07Z</time>
      </trkpt>
      <trkpt lat="46.50329" lon="-0.78456">
        <ele>21.8</ele>
        <time>2022-06-19T09:01:08Z</time>
      </trkpt>
      <trkpt lat="46.50331" lon="-0.78454">
        <ele>21.2</ele>
        <time>2022-06-19T09:01:09Z</time>
      </trkpt>
      <trkpt lat="46.50352" lon="-0.78447">
        <ele>20.6</ele>
        <time>2022-06-19T09:01:13Z</time>
      </trkpt>
      <trkpt lat="46.50363" lon="-0.78443">
        <ele>20</ele>
        <time>2022-06-19T09:01:17Z</time>
      </trkpt>
      <trkpt lat="46.50367" lon="-0.78442">
        <ele>19.4</ele>
        <time>2022-06-19T09:01:19Z</time>
      </trkpt>
      <trkpt lat="46.50369" lon="-0.78442">
        <ele>18.8</ele>
        <time>2022-06-19T09:01:20Z</time>
      </trkpt>
      <trkpt lat="46.50372" lon="-0.78444">
        <ele>17.8</ele>
        <time>2022-06-19T09:01:22Z</time>
      </trkpt>
      <trkpt lat="46.50378" lon="-0.7845">
        <ele>16.6</ele>
        <time>2022-06-19T09:01:25Z</time>
      </trkpt>
      <trkpt lat="46.50381" lon="-0.78453">
        <ele>16</ele>
        <time>2022-06-19T09:01:27Z</time>
      </trkpt>
      <trkpt lat="46.50386" lon="-0.78452">
        <ele>15.6</ele>
        <time>2022-06-19T09:01:29Z</time>
      </trkpt>
      <trkpt lat="46.50388" lon="-0.78451">
        <ele>15.4</ele>
        <time>2022-06-19T09:01:30Z</time>
      </trkpt>
      <trkpt lat="46.50394" lon="-0.78449">
        <ele>14.6</ele>
        <time>2022-06-19T09:01:32Z</time>
      </trkpt>
      <trkpt lat="46.50399" lon="-0.78447">
        <ele>13.4</ele>
        <time>2022-06-19T09:01:34Z</time>
      </trkpt>
      <trkpt lat="46.50403" lon="-0.78446">
        <ele>12</ele>
        <time>2022-06-19T09:01:36Z</time>
      </trkpt>
      <trkpt lat="46.50406" lon="-0.78446">
        <ele>11.2</ele>
        <time>2022-06-19T09:01:38Z</time>
      </trkpt>
      <trkpt lat="46.50408" lon="-0.78446">
        <ele>11</ele>
        <time>2022-06-19T09:01:40Z</time>
      </trkpt>
      <trkpt lat="46.50413" lon="-0.78444">
        <ele>10.8</ele>
        <time>2022-06-19T09:01:43Z</time>
      </trkpt>
      <trkpt lat="46.50416" lon="-0.78445">
        <ele>10.6</ele>
        <time>2022-06-19T09:01:52Z</time>
      </trkpt>
      <trkpt lat="46.50417" lon="-0.78445">
        <ele>10.6</ele>
        <time>2022-06-19T09:02:03Z</time>
      </trkpt>
      <trkpt lat="46.50417" lon="-0.78443">
        <ele>10.6</ele>
        <time>2022-06-19T09:02:12Z</time>
      </trkpt>
      <trkpt lat="46.5042" lon="-0.78443">
        <ele>10.4</ele>
        <time>2022-06-19T09:02:21Z</time>
      </trkpt>
      <trkpt lat="46.50427" lon="-0.78441">
        <ele>10.2</ele>
        <time>2022-06-19T09:02:36Z</time>
      </trkpt>
      <trkpt lat="46.50428" lon="-0.7844">
        <ele>9.8</ele>
        <time>2022-06-19T09:02:42Z</time>
      </trkpt>
      <trkpt lat="46.50429" lon="-0.78437">
        <ele>8.6</ele>
        <time>2022-06-19T09:02:51Z</time>
      </trkpt>
      <trkpt lat="46.50428" lon="-0.78431">
        <ele>7.8</ele>
        <time>2022-06-19T09:03:04Z</time>
      </trkpt>
      <trkpt lat="46.50427" lon="-0.7843">
        <ele>7.6</ele>
        <time>2022-06-19T09:03:06Z</time>
      </trkpt>
      <trkpt lat="46.50428" lon="-0.7843">
        <ele>7.2</ele>
        <time>2022-06-19T09:03:08Z</time>
      </trkpt>
      <trkpt lat="46.50428" lon="-0.7843">
        <ele>6.6</ele>
        <time>2022-06-19T09:03:19Z</time>
      </trkpt>
      <trkpt lat="46.50431" lon="-0.78429">
        <ele>5.4</ele>
        <time>2022-06-19T09:03:34Z</time>
      </trkpt>
      <trkpt lat="46.5043" lon="-0.78429">
        <ele>5.4</ele>
        <time>2022-06-19T09:03:35Z</time>
      </trkpt>
      <trkpt lat="46.50432" lon="-0.78425">
        <ele>4.4</ele>
        <time>2022-06-19T09:03:40Z</time>
      </trkpt>
      <trkpt lat="46.50434" lon="-0.78421">
        <ele>3.4</ele>
        <time>2022-06-19T09:03:49Z</time>
      </trkpt>
      <trkpt lat="46.50434" lon="-0.7842">
        <ele>3.4</ele>
        <time>2022-06-19T09:03:50Z</time>
      </trkpt>
      <trkpt lat="46.50436" lon="-0.7842">
        <ele>3.4</ele>
        <time>2022-06-19T09:03:54Z</time>
      </trkpt>
      <trkpt lat="46.50438" lon="-0.78418">
        <ele>3.2</ele>
        <time>2022-06-19T09:03:57Z</time>
      </trkpt>
      <trkpt lat="46.50442" lon="-0.78418">
        <ele>3</ele>
        <time>2022-06-19T09:04:00Z</time>
      </trkpt>
      <trkpt lat="46.50447" lon="-0.78419">
        <ele>3</ele>
        <time>2022-06-19T09:04:04Z</time>
      </trkpt>
      <trkpt lat="46.50453" lon="-0.78415">
        <ele>3.2</ele>
        <time>2022-06-19T09:04:06Z</time>
      </trkpt>
      <trkpt lat="46.50456" lon="-0.78411">
        <ele>3.2</ele>
        <time>2022-06-19T09:04:08Z</time>
      </trkpt>
      <trkpt lat="46.50465" lon="-0.78405">
        <ele>3</ele>
        <time>2022-06-19T09:04:13Z</time>
      </trkpt>
      <trkpt lat="46.50477" lon="-0.78401">
        <ele>2.8</ele>
        <time>2022-06-19T09:04:19Z</time>
      </trkpt>
      <trkpt lat="46.5048" lon="-0.78401">
        <ele>2.8</ele>
        <time>2022-06-19T09:04:20Z</time>
      </trkpt>
      <trkpt lat="46.505" lon="-0.78398">
        <ele>3</ele>
        <time>2022-06-19T09:04:25Z</time>
      </trkpt>
      <trkpt lat="46.50531" lon="-0.78388">
        <ele>3.4</ele>
        <time>2022-06-19T09:04:32Z</time>
      </trkpt>
      <trkpt lat="46.5055" lon="-0.78381">
        <ele>4</ele>
        <time>2022-06-19T09:04:39Z</time>
      </trkpt>
      <trkpt lat="46.50579" lon="-0.78375">
        <ele>3.8</ele>
        <time>2022-06-19T09:04:46Z</time>
      </trkpt>
      <trkpt lat="46.50609" lon="-0.78369">
        <ele>4.4</ele>
        <time>2022-06-19T09:04:53Z</time>
      </trkpt>
      <trkpt lat="46.50614" lon="-0.78369">
        <ele>4.4</ele>
        <time>2022-06-19T09:04:54Z</time>
      </trkpt>
      <trkpt lat="46.50637" lon="-0.78368">
        <ele>4.8</ele>
        <time>2022-06-19T09:05:00Z</time>
      </trkpt>
      <trkpt lat="46.50643" lon="-0.78366">
        <ele>5</ele>
        <time>2022-06-19T09:05:02Z</time>
      </trkpt>
      <trkpt lat="46.50648" lon="-0.78366">
        <ele>5</ele>
        <time>2022-06-19T09:05:04Z</time>
      </trkpt>
      <trkpt lat="46.50655" lon="-0.78365">
        <ele>5</ele>
        <time>2022-06-19T09:05:06Z</time>
      </trkpt>
      <trkpt lat="46.50664" lon="-0.78364">
        <ele>5</ele>
        <time>2022-06-19T09:05:08Z</time>
      </trkpt>
      <trkpt lat="46.50675" lon="-0.78361">
        <ele>4.8</ele>
        <time>2022-06-19T09:05:11Z</time>
      </trkpt>
      <trkpt lat="46.50679" lon="-0.7836">
        <ele>4.8</ele>
        <time>2022-06-19T09:05:12Z</time>
      </trkpt>
      <trkpt lat="46.50689" lon="-0.78358">
        <ele>4.4</ele>
        <time>2022-06-19T09:05:14Z</time>
      </trkpt>
      <trkpt lat="46.507" lon="-0.78353">
        <ele>4.4</ele>
        <time>2022-06-19T09:05:17Z</time>
      </trkpt>
      <trkpt lat="46.50705" lon="-0.7835">
        <ele>4.2</ele>
        <time>2022-06-19T09:05:19Z</time>
      </trkpt>
      <trkpt lat="46.50722" lon="-0.78341">
        <ele>4.2</ele>
        <time>2022-06-19T09:05:25Z</time>
      </trkpt>
      <trkpt lat="46.50736" lon="-0.7833">
        <ele>4</ele>
        <time>2022-06-19T09:05:30Z</time>
      </trkpt>
      <trkpt lat="46.50749" lon="-0.78324">
        <ele>3.8</ele>
        <time>2022-06-19T09:05:32Z</time>
      </trkpt>
      <trkpt lat="46.50772" lon="-0.78312">
        <ele>3.4</ele>
        <time>2022-06-19T09:05:36Z</time>
      </trkpt>
      <trkpt lat="46.50778" lon="-0.78309">
        <ele>3.4</ele>
        <time>2022-06-19T09:05:37Z</time>
      </trkpt>
      <trkpt lat="46.50802" lon="-0.78292">
        <ele>3</ele>
        <time>2022-06-19T09:05:41Z</time>
      </trkpt>
      <trkpt lat="46.50819" lon="-0.78281">
        <ele>3.2</ele>
        <time>2022-06-19T09:05:44Z</time>
      </trkpt>
      <trkpt lat="46.50829" lon="-0.78276">
        <ele>3</ele>
        <time>2022-06-19T09:05:46Z</time>
      </trkpt>
      <trkpt lat="46.50837" lon="-0.78273">
        <ele>3.2</ele>
        <time>2022-06-19T09:05:48Z</time>
      </trkpt>
      <trkpt lat="46.50844" lon="-0.78271">
        <ele>3.2</ele>
        <time>2022-06-19T09:05:50Z</time>
      </trkpt>
      <trkpt lat="46.50847" lon="-0.78267">
        <ele>3.4</ele>
        <time>2022-06-19T09:05:51Z</time>
      </trkpt>
      <trkpt lat="46.50856" lon="-0.78258">
        <ele>3.4</ele>
        <time>2022-06-19T09:05:54Z</time>
      </trkpt>
      <trkpt lat="46.50876" lon="-0.78246">
        <ele>3.4</ele>
        <time>2022-06-19T09:05:58Z</time>
      </trkpt>
      <trkpt lat="46.5089" lon="-0.7824">
        <ele>3.8</ele>
        <time>2022-06-19T09:06:01Z</time>
      </trkpt>
      <trkpt lat="46.50926" lon="-0.78226">
        <ele>3.8</ele>
        <time>2022-06-19T09:06:07Z</time>
      </trkpt>
      <trkpt lat="46.50938" lon="-0.78218">
        <ele>3.8</ele>
        <time>2022-06-19T09:06:09Z</time>
      </trkpt>
      <trkpt lat="46.50937" lon="-0.78214">
        <ele>3.4</ele>
        <time>2022-06-19T09:06:12Z</time>
      </trkpt>
      <trkpt lat="46.5094" lon="-0.78211">
        <ele>2</ele>
        <time>2022-06-19T09:06:15Z</time>
      </trkpt>
      <trkpt lat="46.50939" lon="-0.7821">
        <ele>1.6</ele>
        <time>2022-06-19T09:06:17Z</time>
      </trkpt>
      <trkpt lat="46.50938" lon="-0.7821">
        <ele>1.4</ele>
        <time>2022-06-19T09:06:18Z</time>
      </trkpt>
      <trkpt lat="46.50938" lon="-0.78208">
        <ele>1</ele>
        <time>2022-06-19T09:06:21Z</time>
      </trkpt>
      <trkpt lat="46.50934" lon="-0.78196">
        <ele>0.8</ele>
        <time>2022-06-19T09:06:27Z</time>
      </trkpt>
      <trkpt lat="46.50924" lon="-0.78185">
        <ele>1.6</ele>
        <time>2022-06-19T09:06:35Z</time>
      </trkpt>
      <trkpt lat="46.50918" lon="-0.78177">
        <ele>2.2</ele>
        <time>2022-06-19T09:06:40Z</time>
      </trkpt>
      <trkpt lat="46.50917" lon="-0.78176">
        <ele>2.4</ele>
        <time>2022-06-19T09:06:41Z</time>
      </trkpt>
      <trkpt lat="46.5091" lon="-0.78173">
        <ele>3.2</ele>
        <time>2022-06-19T09:06:45Z</time>
      </trkpt>
      <trkpt lat="46.50909" lon="-0.78173">
        <ele>3.6</ele>
        <time>2022-06-19T09:06:46Z</time>
      </trkpt>
      <trkpt lat="46.50905" lon="-0.78174">
        <ele>4</ele>
        <time>2022-06-19T09:06:48Z</time>
      </trkpt>
      <trkpt lat="46.50899" lon="-0.78172">
        <ele>4.4</ele>
        <time>2022-06-19T09:06:52Z</time>
      </trkpt>
      <trkpt lat="46.50892" lon="-0.78171">
        <ele>5</ele>
        <time>2022-06-19T09:06:55Z</time>
      </trkpt>
      <trkpt lat="46.50874" lon="-0.78165">
        <ele>4.8</ele>
        <time>2022-06-19T09:07:02Z</time>
      </trkpt>
      <trkpt lat="46.50861" lon="-0.7816">
        <ele>4.8</ele>
        <time>2022-06-19T09:07:08Z</time>
      </trkpt>
      <trkpt lat="46.50846" lon="-0.78155">
        <ele>4.6</ele>
        <time>2022-06-19T09:07:14Z</time>
      </trkpt>
      <trkpt lat="46.50829" lon="-0.7815">
        <ele>5</ele>
        <time>2022-06-19T09:07:20Z</time>
      </trkpt>
      <trkpt lat="46.50812" lon="-0.78148">
        <ele>5.2</ele>
        <time>2022-06-19T09:07:28Z</time>
      </trkpt>
      <trkpt lat="46.50803" lon="-0.78148">
        <ele>5.4</ele>
        <time>2022-06-19T09:07:31Z</time>
      </trkpt>
      <trkpt lat="46.50789" lon="-0.7815">
        <ele>6</ele>
        <time>2022-06-19T09:07:35Z</time>
      </trkpt>
      <trkpt lat="46.50768" lon="-0.78154">
        <ele>6.6</ele>
        <time>2022-06-19T09:07:42Z</time>
      </trkpt>
      <trkpt lat="46.50765" lon="-0.78155">
        <ele>6.6</ele>
        <time>2022-06-19T09:07:43Z</time>
      </trkpt>
      <trkpt lat="46.50746" lon="-0.78159">
        <ele>7.2</ele>
        <time>2022-06-19T09:07:49Z</time>
      </trkpt>
      <trkpt lat="46.5074" lon="-0.78161">
        <ele>7.6</ele>
        <time>2022-06-19T09:07:51Z</time>
      </trkpt>
      <trkpt lat="46.50727" lon="-0.78164">
        <ele>9</ele>
        <time>2022-06-19T09:07:54Z</time>
      </trkpt>
      <trkpt lat="46.5072" lon="-0.78165">
        <ele>9.8</ele>
        <time>2022-06-19T09:07:56Z</time>
      </trkpt>
      <trkpt lat="46.50717" lon="-0.78165">
        <ele>10</ele>
        <time>2022-06-19T09:07:57Z</time>
      </trkpt>
      <trkpt lat="46.50704" lon="-0.78169">
        <ele>11</ele>
        <time>2022-06-19T09:08:02Z</time>
      </trkpt>
      <trkpt lat="46.50685" lon="-0.78165">
        <ele>12.2</ele>
        <time>2022-06-19T09:08:09Z</time>
      </trkpt>
      <trkpt lat="46.50674" lon="-0.7816">
        <ele>12.8</ele>
        <time>2022-06-19T09:08:14Z</time>
      </trkpt>
      <trkpt lat="46.50668" lon="-0.78156">
        <ele>13.2</ele>
        <time>2022-06-19T09:08:17Z</time>
      </trkpt>
      <trkpt lat="46.50662" lon="-0.78154">
        <ele>13.8</ele>
        <time>2022-06-19T09:08:20Z</time>
      </trkpt>
      <trkpt lat="46.50658" lon="-0.78152">
        <ele>14.4</ele>
        <time>2022-06-19T09:08:22Z</time>
      </trkpt>
      <trkpt lat="46.50649" lon="-0.78144">
        <ele>15.2</ele>
        <time>2022-06-19T09:08:27Z</time>
      </trkpt>
      <trkpt lat="46.50644" lon="-0.7814">
        <ele>15.6</ele>
        <time>2022-06-19T09:08:30Z</time>
      </trkpt>
      <trkpt lat="46.50638" lon="-0.78136">
        <ele>16.6</ele>
        <time>2022-06-19T09:08:33Z</time>
      </trkpt>
      <trkpt lat="46.50627" lon="-0.78121">
        <ele>17.8</ele>
        <time>2022-06-19T09:08:40Z</time>
      </trkpt>
      <trkpt lat="46.50619" lon="-0.78109">
        <ele>18.8</ele>
        <time>2022-06-19T09:08:45Z</time>
      </trkpt>
      <trkpt lat="46.50613" lon="-0.78102">
        <ele>20</ele>
        <time>2022-06-19T09:08:49Z</time>
      </trkpt>
      <trkpt lat="46.50612" lon="-0.78103">
        <ele>20.2</ele>
        <time>2022-06-19T09:08:50Z</time>
      </trkpt>
      <trkpt lat="46.50606" lon="-0.78109">
        <ele>19.8</ele>
        <time>2022-06-19T09:08:53Z</time>
      </trkpt>
      <trkpt lat="46.50593" lon="-0.78118">
        <ele>19</ele>
        <time>2022-06-19T09:08:57Z</time>
      </trkpt>
      <trkpt lat="46.50589" lon="-0.78121">
        <ele>18.8</ele>
        <time>2022-06-19T09:08:58Z</time>
      </trkpt>
      <trkpt lat="46.50579" lon="-0.78128">
        <ele>17.6</ele>
        <time>2022-06-19T09:09:01Z</time>
      </trkpt>
      <trkpt lat="46.50564" lon="-0.7814">
        <ele>16.4</ele>
        <time>2022-06-19T09:09:04Z</time>
      </trkpt>
      <trkpt lat="46.50552" lon="-0.78148">
        <ele>15.6</ele>
        <time>2022-06-19T09:09:06Z</time>
      </trkpt>
      <trkpt lat="46.5054" lon="-0.78153">
        <ele>15.2</ele>
        <time>2022-06-19T09:09:08Z</time>
      </trkpt>
      <trkpt lat="46.50534" lon="-0.78156">
        <ele>15</ele>
        <time>2022-06-19T09:09:09Z</time>
      </trkpt>
      <trkpt lat="46.50519" lon="-0.78161">
        <ele>14.2</ele>
        <time>2022-06-19T09:09:11Z</time>
      </trkpt>
      <trkpt lat="46.50501" lon="-0.78163">
        <ele>13.4</ele>
        <time>2022-06-19T09:09:14Z</time>
      </trkpt>
      <trkpt lat="46.50493" lon="-0.78163">
        <ele>12.6</ele>
        <time>2022-06-19T09:09:15Z</time>
      </trkpt>
      <trkpt lat="46.50477" lon="-0.78159">
        <ele>11.6</ele>
        <time>2022-06-19T09:09:18Z</time>
      </trkpt>
      <trkpt lat="46.50473" lon="-0.78157">
        <ele>11.4</ele>
        <time>2022-06-19T09:09:19Z</time>
      </trkpt>
      <trkpt lat="46.5047" lon="-0.78155">
        <ele>10.8</ele>
        <time>2022-06-19T09:09:20Z</time>
      </trkpt>
      <trkpt lat="46.50468" lon="-0.78152">
        <ele>10.2</ele>
        <time>2022-06-19T09:09:21Z</time>
      </trkpt>
      <trkpt lat="46.50467" lon="-0.78149">
        <ele>9.6</ele>
        <time>2022-06-19T09:09:22Z</time>
      </trkpt>
      <trkpt lat="46.50465" lon="-0.78144">
        <ele>9.2</ele>
        <time>2022-06-19T09:09:23Z</time>
      </trkpt>
      <trkpt lat="46.50461" lon="-0.78136">
        <ele>8.8</ele>
        <time>2022-06-19T09:09:25Z</time>
      </trkpt>
      <trkpt lat="46.50458" lon="-0.78126">
        <ele>8.6</ele>
        <time>2022-06-19T09:09:27Z</time>
      </trkpt>
      <trkpt lat="46.50455" lon="-0.78115">
        <ele>8.4</ele>
        <time>2022-06-19T09:09:29Z</time>
      </trkpt>
      <trkpt lat="46.50451" lon="-0.78069">
        <ele>8.4</ele>
        <time>2022-06-19T09:09:36Z</time>
      </trkpt>
      <trkpt lat="46.50452" lon="-0.78063">
        <ele>8.6</ele>
        <time>2022-06-19T09:09:37Z</time>
      </trkpt>
      <trkpt lat="46.50457" lon="-0.78036">
        <ele>8.6</ele>
        <time>2022-06-19T09:09:41Z</time>
      </trkpt>
      <trkpt lat="46.5046" lon="-0.78024">
        <ele>9.2</ele>
        <time>2022-06-19T09:09:43Z</time>
      </trkpt>
      <trkpt lat="46.50471" lon="-0.7798">
        <ele>9.6</ele>
        <time>2022-06-19T09:09:50Z</time>
      </trkpt>
      <trkpt lat="46.50473" lon="-0.77968">
        <ele>10.2</ele>
        <time>2022-06-19T09:09:52Z</time>
      </trkpt>
      <trkpt lat="46.50473" lon="-0.77963">
        <ele>10.4</ele>
        <time>2022-06-19T09:09:53Z</time>
      </trkpt>
      <trkpt lat="46.50473" lon="-0.77958">
        <ele>10.6</ele>
        <time>2022-06-19T09:09:54Z</time>
      </trkpt>
      <trkpt lat="46.50473" lon="-0.77954">
        <ele>10.8</ele>
        <time>2022-06-19T09:09:55Z</time>
      </trkpt>
      <trkpt lat="46.50473" lon="-0.77939">
        <ele>10.8</ele>
        <time>2022-06-19T09:09:58Z</time>
      </trkpt>
      <trkpt lat="46.50474" lon="-0.77927">
        <ele>11</ele>
        <time>2022-06-19T09:10:00Z</time>
      </trkpt>
      <trkpt lat="46.50475" lon="-0.7792">
        <ele>11</ele>
        <time>2022-06-19T09:10:01Z</time>
      </trkpt>
      <trkpt lat="46.50476" lon="-0.77908">
        <ele>11.4</ele>
        <time>2022-06-19T09:10:02Z</time>
      </trkpt>
      <trkpt lat="46.50479" lon="-0.77879">
        <ele>11.6</ele>
        <time>2022-06-19T09:10:07Z</time>
      </trkpt>
      <trkpt lat="46.50476" lon="-0.77859">
        <ele>11.8</ele>
        <time>2022-06-19T09:10:10Z</time>
      </trkpt>
      <trkpt lat="46.50471" lon="-0.7782">
        <ele>12.4</ele>
        <time>2022-06-19T09:10:16Z</time>
      </trkpt>
      <trkpt lat="46.50472" lon="-0.77812">
        <ele>13</ele>
        <time>2022-06-19T09:10:18Z</time>
      </trkpt>
      <trkpt lat="46.50471" lon="-0.77791">
        <ele>13.6</ele>
        <time>2022-06-19T09:10:21Z</time>
      </trkpt>
      <trkpt lat="46.50467" lon="-0.77763">
        <ele>14</ele>
        <time>2022-06-19T09:10:25Z</time>
      </trkpt>
      <trkpt lat="46.50463" lon="-0.77725">
        <ele>14.6</ele>
        <time>2022-06-19T09:10:31Z</time>
      </trkpt>
      <trkpt lat="46.50458" lon="-0.77693">
        <ele>15.2</ele>
        <time>2022-06-19T09:10:37Z</time>
      </trkpt>
      <trkpt lat="46.50457" lon="-0.77664">
        <ele>15.8</ele>
        <time>2022-06-19T09:10:43Z</time>
      </trkpt>
      <trkpt lat="46.50456" lon="-0.7766">
        <ele>16</ele>
        <time>2022-06-19T09:10:44Z</time>
      </trkpt>
      <trkpt lat="46.50454" lon="-0.77629">
        <ele>16.8</ele>
        <time>2022-06-19T09:10:50Z</time>
      </trkpt>
      <trkpt lat="46.50454" lon="-0.77624">
        <ele>17</ele>
        <time>2022-06-19T09:10:51Z</time>
      </trkpt>
      <trkpt lat="46.50454" lon="-0.77595">
        <ele>17.6</ele>
        <time>2022-06-19T09:10:57Z</time>
      </trkpt>
      <trkpt lat="46.50452" lon="-0.77565">
        <ele>17.8</ele>
        <time>2022-06-19T09:11:04Z</time>
      </trkpt>
      <trkpt lat="46.5045" lon="-0.77546">
        <ele>18.2</ele>
        <time>2022-06-19T09:11:08Z</time>
      </trkpt>
      <trkpt lat="46.50448" lon="-0.77536">
        <ele>18.6</ele>
        <time>2022-06-19T09:11:10Z</time>
      </trkpt>
      <trkpt lat="46.50444" lon="-0.77517">
        <ele>19.4</ele>
        <time>2022-06-19T09:11:14Z</time>
      </trkpt>
      <trkpt lat="46.50439" lon="-0.77499">
        <ele>19.8</ele>
        <time>2022-06-19T09:11:18Z</time>
      </trkpt>
      <trkpt lat="46.5044" lon="-0.77483">
        <ele>20.6</ele>
        <time>2022-06-19T09:11:21Z</time>
      </trkpt>
      <trkpt lat="46.50439" lon="-0.77469">
        <ele>21</ele>
        <time>2022-06-19T09:11:24Z</time>
      </trkpt>
      <trkpt lat="46.50434" lon="-0.77448">
        <ele>21.4</ele>
        <time>2022-06-19T09:11:30Z</time>
      </trkpt>
      <trkpt lat="46.50432" lon="-0.7744">
        <ele>21.8</ele>
        <time>2022-06-19T09:11:32Z</time>
      </trkpt>
      <trkpt lat="46.50427" lon="-0.77424">
        <ele>22.4</ele>
        <time>2022-06-19T09:11:37Z</time>
      </trkpt>
      <trkpt lat="46.50426" lon="-0.77415">
        <ele>22.8</ele>
        <time>2022-06-19T09:11:40Z</time>
      </trkpt>
      <trkpt lat="46.50427" lon="-0.77402">
        <ele>23.8</ele>
        <time>2022-06-19T09:11:44Z</time>
      </trkpt>
      <trkpt lat="46.50427" lon="-0.774">
        <ele>24</ele>
        <time>2022-06-19T09:11:45Z</time>
      </trkpt>
      <trkpt lat="46.50427" lon="-0.77378">
        <ele>24.4</ele>
        <time>2022-06-19T09:11:51Z</time>
      </trkpt>
      <trkpt lat="46.50432" lon="-0.77353">
        <ele>24.8</ele>
        <time>2022-06-19T09:11:58Z</time>
      </trkpt>
      <trkpt lat="46.50433" lon="-0.77349">
        <ele>25</ele>
        <time>2022-06-19T09:11:59Z</time>
      </trkpt>
      <trkpt lat="46.50435" lon="-0.77318">
        <ele>25.6</ele>
        <time>2022-06-19T09:12:07Z</time>
      </trkpt>
      <trkpt lat="46.50426" lon="-0.77294">
        <ele>25.6</ele>
        <time>2022-06-19T09:12:13Z</time>
      </trkpt>
      <trkpt lat="46.50419" lon="-0.77285">
        <ele>26</ele>
        <time>2022-06-19T09:12:16Z</time>
      </trkpt>
      <trkpt lat="46.50416" lon="-0.77275">
        <ele>26.2</ele>
        <time>2022-06-19T09:12:19Z</time>
      </trkpt>
      <trkpt lat="46.50407" lon="-0.77253">
        <ele>27</ele>
        <time>2022-06-19T09:12:26Z</time>
      </trkpt>
      <trkpt lat="46.50398" lon="-0.77239">
        <ele>27.2</ele>
        <time>2022-06-19T09:12:30Z</time>
      </trkpt>
      <trkpt lat="46.50395" lon="-0.77232">
        <ele>27.4</ele>
        <time>2022-06-19T09:12:32Z</time>
      </trkpt>
      <trkpt lat="46.50395" lon="-0.77232">
        <ele>28.2</ele>
        <time>2022-06-19T09:12:34Z</time>
      </trkpt>
      <trkpt lat="46.50381" lon="-0.77202">
        <ele>29</ele>
        <time>2022-06-19T09:12:42Z</time>
      </trkpt>
      <trkpt lat="46.50379" lon="-0.77196">
        <ele>29.4</ele>
        <time>2022-06-19T09:12:44Z</time>
      </trkpt>
      <trkpt lat="46.50369" lon="-0.77175">
        <ele>30</ele>
        <time>2022-06-19T09:12:49Z</time>
      </trkpt>
      <trkpt lat="46.5036" lon="-0.77157">
        <ele>30.6</ele>
        <time>2022-06-19T09:12:54Z</time>
      </trkpt>
      <trkpt lat="46.50359" lon="-0.77155">
        <ele>30.8</ele>
        <time>2022-06-19T09:12:55Z</time>
      </trkpt>
      <trkpt lat="46.50356" lon="-0.77138">
        <ele>31.6</ele>
        <time>2022-06-19T09:13:01Z</time>
      </trkpt>
      <trkpt lat="46.50356" lon="-0.77131">
        <ele>32</ele>
        <time>2022-06-19T09:13:03Z</time>
      </trkpt>
      <trkpt lat="46.50348" lon="-0.77099">
        <ele>32.6</ele>
        <time>2022-06-19T09:13:11Z</time>
      </trkpt>
      <trkpt lat="46.50346" lon="-0.77077">
        <ele>32.8</ele>
        <time>2022-06-19T09:13:19Z</time>
      </trkpt>
      <trkpt lat="46.5034" lon="-0.77069">
        <ele>33</ele>
        <time>2022-06-19T09:13:23Z</time>
      </trkpt>
      <trkpt lat="46.50338" lon="-0.77067">
        <ele>33</ele>
        <time>2022-06-19T09:13:25Z</time>
      </trkpt>
      <trkpt lat="46.50337" lon="-0.77066">
        <ele>33.2</ele>
        <time>2022-06-19T09:13:26Z</time>
      </trkpt>
      <trkpt lat="46.50334" lon="-0.77065">
        <ele>33.6</ele>
        <time>2022-06-19T09:13:28Z</time>
      </trkpt>
      <trkpt lat="46.50332" lon="-0.77062">
        <ele>33.8</ele>
        <time>2022-06-19T09:13:30Z</time>
      </trkpt>
      <trkpt lat="46.5033" lon="-0.77061">
        <ele>34</ele>
        <time>2022-06-19T09:13:31Z</time>
      </trkpt>
      <trkpt lat="46.50327" lon="-0.77057">
        <ele>34.4</ele>
        <time>2022-06-19T09:13:33Z</time>
      </trkpt>
      <trkpt lat="46.50322" lon="-0.7705">
        <ele>35</ele>
        <time>2022-06-19T09:13:37Z</time>
      </trkpt>
      <trkpt lat="46.50319" lon="-0.77046">
        <ele>35.2</ele>
        <time>2022-06-19T09:13:39Z</time>
      </trkpt>
      <trkpt lat="46.5031" lon="-0.77035">
        <ele>36</ele>
        <time>2022-06-19T09:13:45Z</time>
      </trkpt>
      <trkpt lat="46.50302" lon="-0.77028">
        <ele>36.8</ele>
        <time>2022-06-19T09:13:49Z</time>
      </trkpt>
      <trkpt lat="46.50299" lon="-0.77026">
        <ele>37.2</ele>
        <time>2022-06-19T09:13:51Z</time>
      </trkpt>
      <trkpt lat="46.50291" lon="-0.7702">
        <ele>37.8</ele>
        <time>2022-06-19T09:13:54Z</time>
      </trkpt>
      <trkpt lat="46.50287" lon="-0.77017">
        <ele>38</ele>
        <time>2022-06-19T09:13:56Z</time>
      </trkpt>
      <trkpt lat="46.50284" lon="-0.77017">
        <ele>38.2</ele>
        <time>2022-06-19T09:13:57Z</time>
      </trkpt>
      <trkpt lat="46.50282" lon="-0.77017">
        <ele>38.2</ele>
        <time>2022-06-19T09:13:58Z</time>
      </trkpt>
      <trkpt lat="46.50275" lon="-0.77017">
        <ele>39</ele>
        <time>2022-06-19T09:14:01Z</time>
      </trkpt>
      <trkpt lat="46.50272" lon="-0.77016">
        <ele>39</ele>
        <time>2022-06-19T09:14:02Z</time>
      </trkpt>
      <trkpt lat="46.50269" lon="-0.77014">
        <ele>39.2</ele>
        <time>2022-06-19T09:14:03Z</time>
      </trkpt>
      <trkpt lat="46.50253" lon="-0.7701">
        <ele>40.2</ele>
        <time>2022-06-19T09:14:09Z</time>
      </trkpt>
      <trkpt lat="46.50249" lon="-0.77009">
        <ele>40.2</ele>
        <time>2022-06-19T09:14:10Z</time>
      </trkpt>
      <trkpt lat="46.50238" lon="-0.77008">
        <ele>40.8</ele>
        <time>2022-06-19T09:14:15Z</time>
      </trkpt>
      <trkpt lat="46.50233" lon="-0.77007">
        <ele>41.4</ele>
        <time>2022-06-19T09:14:19Z</time>
      </trkpt>
      <trkpt lat="46.50226" lon="-0.77005">
        <ele>42.2</ele>
        <time>2022-06-19T09:14:24Z</time>
      </trkpt>
      <trkpt lat="46.50221" lon="-0.77004">
        <ele>42.4</ele>
        <time>2022-06-19T09:14:26Z</time>
      </trkpt>
      <trkpt lat="46.50219" lon="-0.77004">
        <ele>42.6</ele>
        <time>2022-06-19T09:14:27Z</time>
      </trkpt>
      <trkpt lat="46.50216" lon="-0.77003">
        <ele>43.8</ele>
        <time>2022-06-19T09:14:30Z</time>
      </trkpt>
      <trkpt lat="46.50215" lon="-0.77003">
        <ele>44.2</ele>
        <time>2022-06-19T09:14:31Z</time>
      </trkpt>
      <trkpt lat="46.50215" lon="-0.77002">
        <ele>44.4</ele>
        <time>2022-06-19T09:14:32Z</time>
      </trkpt>
      <trkpt lat="46.50213" lon="-0.77002">
        <ele>44.8</ele>
        <time>2022-06-19T09:14:34Z</time>
      </trkpt>
      <trkpt lat="46.50213" lon="-0.77002">
        <ele>45</ele>
        <time>2022-06-19T09:14:35Z</time>
      </trkpt>
      <trkpt lat="46.50207" lon="-0.77003">
        <ele>45</ele>
        <time>2022-06-19T09:14:39Z</time>
      </trkpt>
      <trkpt lat="46.50195" lon="-0.77004">
        <ele>45.8</ele>
        <time>2022-06-19T09:14:45Z</time>
      </trkpt>
      <trkpt lat="46.50194" lon="-0.77005">
        <ele>46</ele>
        <time>2022-06-19T09:14:46Z</time>
      </trkpt>
      <trkpt lat="46.50191" lon="-0.77006">
        <ele>46.2</ele>
        <time>2022-06-19T09:14:47Z</time>
      </trkpt>
      <trkpt lat="46.50187" lon="-0.77006">
        <ele>46.2</ele>
        <time>2022-06-19T09:14:48Z</time>
      </trkpt>
      <trkpt lat="46.5017" lon="-0.77002">
        <ele>46.8</ele>
        <time>2022-06-19T09:14:56Z</time>
      </trkpt>
      <trkpt lat="46.50169" lon="-0.77003">
        <ele>47</ele>
        <time>2022-06-19T09:14:57Z</time>
      </trkpt>
      <trkpt lat="46.50157" lon="-0.77002">
        <ele>48</ele>
        <time>2022-06-19T09:15:02Z</time>
      </trkpt>
      <trkpt lat="46.50148" lon="-0.77">
        <ele>49</ele>
        <time>2022-06-19T09:15:09Z</time>
      </trkpt>
      <trkpt lat="46.50147" lon="-0.77">
        <ele>49</ele>
        <time>2022-06-19T09:15:10Z</time>
      </trkpt>
      <trkpt lat="46.50144" lon="-0.76998">
        <ele>49.2</ele>
        <time>2022-06-19T09:15:11Z</time>
      </trkpt>
      <trkpt lat="46.50136" lon="-0.76996">
        <ele>50.2</ele>
        <time>2022-06-19T09:15:17Z</time>
      </trkpt>
      <trkpt lat="46.50119" lon="-0.76991">
        <ele>51.6</ele>
        <time>2022-06-19T09:15:24Z</time>
      </trkpt>
      <trkpt lat="46.50112" lon="-0.76988">
        <ele>52.6</ele>
        <time>2022-06-19T09:15:26Z</time>
      </trkpt>
      <trkpt lat="46.50112" lon="-0.76985">
        <ele>53.8</ele>
        <time>2022-06-19T09:15:30Z</time>
      </trkpt>
      <trkpt lat="46.50111" lon="-0.76985">
        <ele>54</ele>
        <time>2022-06-19T09:15:31Z</time>
      </trkpt>
      <trkpt lat="46.50112" lon="-0.76984">
        <ele>54.2</ele>
        <time>2022-06-19T09:15:32Z</time>
      </trkpt>
      <trkpt lat="46.50114" lon="-0.76981">
        <ele>55</ele>
        <time>2022-06-19T09:15:36Z</time>
      </trkpt>
      <trkpt lat="46.50114" lon="-0.7698">
        <ele>55.2</ele>
        <time>2022-06-19T09:15:37Z</time>
      </trkpt>
      <trkpt lat="46.50115" lon="-0.76978">
        <ele>55.4</ele>
        <time>2022-06-19T09:15:39Z</time>
      </trkpt>
      <trkpt lat="46.50115" lon="-0.76974">
        <ele>55.8</ele>
        <time>2022-06-19T09:15:43Z</time>
      </trkpt>
      <trkpt lat="46.50116" lon="-0.76974">
        <ele>56</ele>
        <time>2022-06-19T09:15:44Z</time>
      </trkpt>
      <trkpt lat="46.50116" lon="-0.76972">
        <ele>56.4</ele>
        <time>2022-06-19T09:15:45Z</time>
      </trkpt>
      <trkpt lat="46.50118" lon="-0.7697">
        <ele>57</ele>
        <time>2022-06-19T09:15:48Z</time>
      </trkpt>
      <trkpt lat="46.50119" lon="-0.76969">
        <ele>57</ele>
        <time>2022-06-19T09:15:49Z</time>
      </trkpt>
      <trkpt lat="46.5012" lon="-0.76969">
        <ele>57.2</ele>
        <time>2022-06-19T09:15:50Z</time>
      </trkpt>
      <trkpt lat="46.50121" lon="-0.76968">
        <ele>57.2</ele>
        <time>2022-06-19T09:15:51Z</time>
      </trkpt>
      <trkpt lat="46.50122" lon="-0.76966">
        <ele>57.2</ele>
        <time>2022-06-19T09:15:52Z</time>
      </trkpt>
      <trkpt lat="46.50131" lon="-0.76957">
        <ele>57.8</ele>
        <time>2022-06-19T09:15:59Z</time>
      </trkpt>
      <trkpt lat="46.50133" lon="-0.76954">
        <ele>58.2</ele>
        <time>2022-06-19T09:16:01Z</time>
      </trkpt>
      <trkpt lat="46.50138" lon="-0.76946">
        <ele>59</ele>
        <time>2022-06-19T09:16:07Z</time>
      </trkpt>
      <trkpt lat="46.50144" lon="-0.76941">
        <ele>59.2</ele>
        <time>2022-06-19T09:16:11Z</time>
      </trkpt>
      <trkpt lat="46.50147" lon="-0.76939">
        <ele>59.2</ele>
        <time>2022-06-19T09:16:13Z</time>
      </trkpt>
      <trkpt lat="46.50159" lon="-0.76923">
        <ele>58.2</ele>
        <time>2022-06-19T09:16:19Z</time>
      </trkpt>
      <trkpt lat="46.5016" lon="-0.76918">
        <ele>58.2</ele>
        <time>2022-06-19T09:16:20Z</time>
      </trkpt>
      <trkpt lat="46.50162" lon="-0.7691">
        <ele>58</ele>
        <time>2022-06-19T09:16:22Z</time>
      </trkpt>
      <trkpt lat="46.50162" lon="-0.76906">
        <ele>57.8</ele>
        <time>2022-06-19T09:16:23Z</time>
      </trkpt>
      <trkpt lat="46.50163" lon="-0.76882">
        <ele>57.6</ele>
        <time>2022-06-19T09:16:29Z</time>
      </trkpt>
      <trkpt lat="46.50161" lon="-0.76858">
        <ele>58.4</ele>
        <time>2022-06-19T09:16:35Z</time>
      </trkpt>
      <trkpt lat="46.50157" lon="-0.76846">
        <ele>59.2</ele>
        <time>2022-06-19T09:16:39Z</time>
      </trkpt>
      <trkpt lat="46.50155" lon="-0.7684">
        <ele>59.6</ele>
        <time>2022-06-19T09:16:41Z</time>
      </trkpt>
      <trkpt lat="46.50151" lon="-0.76833">
        <ele>60.2</ele>
        <time>2022-06-19T09:16:44Z</time>
      </trkpt>
      <trkpt lat="46.50148" lon="-0.76827">
        <ele>61</ele>
        <time>2022-06-19T09:16:47Z</time>
      </trkpt>
      <trkpt lat="46.50146" lon="-0.76824">
        <ele>61.4</ele>
        <time>2022-06-19T09:16:48Z</time>
      </trkpt>
      <trkpt lat="46.50143" lon="-0.76817">
        <ele>62.6</ele>
        <time>2022-06-19T09:16:51Z</time>
      </trkpt>
      <trkpt lat="46.50137" lon="-0.76806">
        <ele>63.2</ele>
        <time>2022-06-19T09:16:55Z</time>
      </trkpt>
      <trkpt lat="46.50131" lon="-0.76793">
        <ele>63.6</ele>
        <time>2022-06-19T09:16:59Z</time>
      </trkpt>
      <trkpt lat="46.50125" lon="-0.76782">
        <ele>64.2</ele>
        <time>2022-06-19T09:17:03Z</time>
      </trkpt>
      <trkpt lat="46.50118" lon="-0.76771">
        <ele>64.8</ele>
        <time>2022-06-19T09:17:07Z</time>
      </trkpt>
      <trkpt lat="46.50113" lon="-0.76768">
        <ele>65.2</ele>
        <time>2022-06-19T09:17:10Z</time>
      </trkpt>
      <trkpt lat="46.50105" lon="-0.76761">
        <ele>65.8</ele>
        <time>2022-06-19T09:17:15Z</time>
      </trkpt>
      <trkpt lat="46.50101" lon="-0.76758">
        <ele>65.8</ele>
        <time>2022-06-19T09:17:17Z</time>
      </trkpt>
      <trkpt lat="46.50089" lon="-0.76755">
        <ele>66.8</ele>
        <time>2022-06-19T09:17:24Z</time>
      </trkpt>
      <trkpt lat="46.50087" lon="-0.76755">
        <ele>67</ele>
        <time>2022-06-19T09:17:25Z</time>
      </trkpt>
      <trkpt lat="46.50084" lon="-0.76755">
        <ele>67.4</ele>
        <time>2022-06-19T09:17:27Z</time>
      </trkpt>
      <trkpt lat="46.50078" lon="-0.76756">
        <ele>67.8</ele>
        <time>2022-06-19T09:17:30Z</time>
      </trkpt>
      <trkpt lat="46.50077" lon="-0.76756">
        <ele>68</ele>
        <time>2022-06-19T09:17:31Z</time>
      </trkpt>
      <trkpt lat="46.50063" lon="-0.76758">
        <ele>69</ele>
        <time>2022-06-19T09:17:38Z</time>
      </trkpt>
      <trkpt lat="46.50045" lon="-0.76758">
        <ele>69.8</ele>
        <time>2022-06-19T09:17:45Z</time>
      </trkpt>
      <trkpt lat="46.5004" lon="-0.76757">
        <ele>70</ele>
        <time>2022-06-19T09:17:47Z</time>
      </trkpt>
      <trkpt lat="46.50027" lon="-0.76752">
        <ele>70.8</ele>
        <time>2022-06-19T09:17:52Z</time>
      </trkpt>
      <trkpt lat="46.50025" lon="-0.76751">
        <ele>71</ele>
        <time>2022-06-19T09:17:53Z</time>
      </trkpt>
      <trkpt lat="46.50013" lon="-0.76747">
        <ele>71.4</ele>
        <time>2022-06-19T09:17:58Z</time>
      </trkpt>
      <trkpt lat="46.50001" lon="-0.76743">
        <ele>71.8</ele>
        <time>2022-06-19T09:18:04Z</time>
      </trkpt>
      <trkpt lat="46.49999" lon="-0.76742">
        <ele>72.2</ele>
        <time>2022-06-19T09:18:05Z</time>
      </trkpt>
      <trkpt lat="46.49993" lon="-0.76745">
        <ele>73.2</ele>
        <time>2022-06-19T09:18:09Z</time>
      </trkpt>
      <trkpt lat="46.49991" lon="-0.76746">
        <ele>73.4</ele>
        <time>2022-06-19T09:18:10Z</time>
      </trkpt>
      <trkpt lat="46.49977" lon="-0.76751">
        <ele>73.4</ele>
        <time>2022-06-19T09:18:17Z</time>
      </trkpt>
      <trkpt lat="46.4997" lon="-0.76755">
        <ele>74.4</ele>
        <time>2022-06-19T09:18:21Z</time>
      </trkpt>
      <trkpt lat="46.49965" lon="-0.76759">
        <ele>74.8</ele>
        <time>2022-06-19T09:18:24Z</time>
      </trkpt>
      <trkpt lat="46.49957" lon="-0.76763">
        <ele>75.4</ele>
        <time>2022-06-19T09:18:28Z</time>
      </trkpt>
      <trkpt lat="46.49949" lon="-0.76768">
        <ele>75.8</ele>
        <time>2022-06-19T09:18:32Z</time>
      </trkpt>
      <trkpt lat="46.49943" lon="-0.76773">
        <ele>76.4</ele>
        <time>2022-06-19T09:18:36Z</time>
      </trkpt>
      <trkpt lat="46.49939" lon="-0.76777">
        <ele>77</ele>
        <time>2022-06-19T09:18:39Z</time>
      </trkpt>
      <trkpt lat="46.49936" lon="-0.76779">
        <ele>77.6</ele>
        <time>2022-06-19T09:18:41Z</time>
      </trkpt>
      <trkpt lat="46.49924" lon="-0.76784">
        <ele>78</ele>
        <time>2022-06-19T09:18:46Z</time>
      </trkpt>
      <trkpt lat="46.49921" lon="-0.76785">
        <ele>78</ele>
        <time>2022-06-19T09:18:47Z</time>
      </trkpt>
      <trkpt lat="46.49919" lon="-0.76784">
        <ele>78.2</ele>
        <time>2022-06-19T09:18:48Z</time>
      </trkpt>
      <trkpt lat="46.49912" lon="-0.76783">
        <ele>78.6</ele>
        <time>2022-06-19T09:18:52Z</time>
      </trkpt>
      <trkpt lat="46.4991" lon="-0.76781">
        <ele>78.6</ele>
        <time>2022-06-19T09:18:53Z</time>
      </trkpt>
      <trkpt lat="46.49906" lon="-0.76761">
        <ele>78.6</ele>
        <time>2022-06-19T09:19:00Z</time>
      </trkpt>
      <trkpt lat="46.49909" lon="-0.76736">
        <ele>78</ele>
        <time>2022-06-19T09:19:06Z</time>
      </trkpt>
      <trkpt lat="46.49907" lon="-0.76714">
        <ele>77.8</ele>
        <time>2022-06-19T09:19:12Z</time>
      </trkpt>
      <trkpt lat="46.49904" lon="-0.76697">
        <ele>77.8</ele>
        <time>2022-06-19T09:19:16Z</time>
      </trkpt>
      <trkpt lat="46.49903" lon="-0.76681">
        <ele>77.8</ele>
        <time>2022-06-19T09:19:20Z</time>
      </trkpt>
      <trkpt lat="46.49904" lon="-0.76672">
        <ele>77.4</ele>
        <time>2022-06-19T09:19:22Z</time>
      </trkpt>
      <trkpt lat="46.49904" lon="-0.76654">
        <ele>76.8</ele>
        <time>2022-06-19T09:19:26Z</time>
      </trkpt>
      <trkpt lat="46.49903" lon="-0.76643">
        <ele>76.4</ele>
        <time>2022-06-19T09:19:28Z</time>
      </trkpt>
      <trkpt lat="46.49902" lon="-0.76637">
        <ele>76.4</ele>
        <time>2022-06-19T09:19:29Z</time>
      </trkpt>
      <trkpt lat="46.49898" lon="-0.7662">
        <ele>75.6</ele>
        <time>2022-06-19T09:19:32Z</time>
      </trkpt>
      <trkpt lat="46.49889" lon="-0.76592">
        <ele>76</ele>
        <time>2022-06-19T09:19:35Z</time>
      </trkpt>
      <trkpt lat="46.49881" lon="-0.76567">
        <ele>77</ele>
        <time>2022-06-19T09:19:39Z</time>
      </trkpt>
      <trkpt lat="46.49878" lon="-0.76556">
        <ele>77.6</ele>
        <time>2022-06-19T09:19:41Z</time>
      </trkpt>
      <trkpt lat="46.49873" lon="-0.76535">
        <ele>78.6</ele>
        <time>2022-06-19T09:19:46Z</time>
      </trkpt>
      <trkpt lat="46.49872" lon="-0.76531">
        <ele>78.8</ele>
        <time>2022-06-19T09:19:47Z</time>
      </trkpt>
      <trkpt lat="46.49872" lon="-0.7651">
        <ele>79.2</ele>
        <time>2022-06-19T09:19:53Z</time>
      </trkpt>
      <trkpt lat="46.49872" lon="-0.765">
        <ele>79.8</ele>
        <time>2022-06-19T09:19:56Z</time>
      </trkpt>
      <trkpt lat="46.49866" lon="-0.7648">
        <ele>80.6</ele>
        <time>2022-06-19T09:20:00Z</time>
      </trkpt>
      <trkpt lat="46.49863" lon="-0.76459">
        <ele>80.8</ele>
        <time>2022-06-19T09:20:06Z</time>
      </trkpt>
      <trkpt lat="46.49864" lon="-0.76455">
        <ele>80.6</ele>
        <time>2022-06-19T09:20:07Z</time>
      </trkpt>
      <trkpt lat="46.49863" lon="-0.76439">
        <ele>80.6</ele>
        <time>2022-06-19T09:20:11Z</time>
      </trkpt>
      <trkpt lat="46.49867" lon="-0.76428">
        <ele>80.2</ele>
        <time>2022-06-19T09:20:14Z</time>
      </trkpt>
      <trkpt lat="46.4987" lon="-0.76423">
        <ele>80</ele>
        <time>2022-06-19T09:20:16Z</time>
      </trkpt>
      <trkpt lat="46.49875" lon="-0.76416">
        <ele>79.8</ele>
        <time>2022-06-19T09:20:19Z</time>
      </trkpt>
      <trkpt lat="46.4988" lon="-0.76412">
        <ele>79.4</ele>
        <time>2022-06-19T09:20:21Z</time>
      </trkpt>
      <trkpt lat="46.49886" lon="-0.76408">
        <ele>79.2</ele>
        <time>2022-06-19T09:20:23Z</time>
      </trkpt>
      <trkpt lat="46.49887" lon="-0.76406">
        <ele>78.8</ele>
        <time>2022-06-19T09:20:24Z</time>
      </trkpt>
      <trkpt lat="46.49889" lon="-0.76403">
        <ele>78.4</ele>
        <time>2022-06-19T09:20:25Z</time>
      </trkpt>
      <trkpt lat="46.49892" lon="-0.76394">
        <ele>78.4</ele>
        <time>2022-06-19T09:20:28Z</time>
      </trkpt>
      <trkpt lat="46.49903" lon="-0.76373">
        <ele>78.8</ele>
        <time>2022-06-19T09:20:34Z</time>
      </trkpt>
      <trkpt lat="46.49914" lon="-0.76353">
        <ele>78.6</ele>
        <time>2022-06-19T09:20:40Z</time>
      </trkpt>
      <trkpt lat="46.49927" lon="-0.7634">
        <ele>78.4</ele>
        <time>2022-06-19T09:20:46Z</time>
      </trkpt>
      <trkpt lat="46.49931" lon="-0.76334">
        <ele>77.8</ele>
        <time>2022-06-19T09:20:49Z</time>
      </trkpt>
      <trkpt lat="46.49937" lon="-0.76326">
        <ele>76.4</ele>
        <time>2022-06-19T09:20:53Z</time>
      </trkpt>
      <trkpt lat="46.49939" lon="-0.76323">
        <ele>76.4</ele>
        <time>2022-06-19T09:20:54Z</time>
      </trkpt>
      <trkpt lat="46.49945" lon="-0.76318">
        <ele>75.6</ele>
        <time>2022-06-19T09:20:56Z</time>
      </trkpt>
      <trkpt lat="46.49949" lon="-0.76316">
        <ele>75.4</ele>
        <time>2022-06-19T09:20:57Z</time>
      </trkpt>
      <trkpt lat="46.49953" lon="-0.76313">
        <ele>75.4</ele>
        <time>2022-06-19T09:20:58Z</time>
      </trkpt>
      <trkpt lat="46.49967" lon="-0.76301">
        <ele>75.2</ele>
        <time>2022-06-19T09:21:02Z</time>
      </trkpt>
      <trkpt lat="46.49971" lon="-0.763">
        <ele>75.2</ele>
        <time>2022-06-19T09:21:03Z</time>
      </trkpt>
      <trkpt lat="46.49977" lon="-0.76297">
        <ele>75.4</ele>
        <time>2022-06-19T09:21:05Z</time>
      </trkpt>
      <trkpt lat="46.49986" lon="-0.76288">
        <ele>75.4</ele>
        <time>2022-06-19T09:21:09Z</time>
      </trkpt>
      <trkpt lat="46.49999" lon="-0.76276">
        <ele>75.4</ele>
        <time>2022-06-19T09:21:15Z</time>
      </trkpt>
      <trkpt lat="46.50011" lon="-0.76266">
        <ele>74.6</ele>
        <time>2022-06-19T09:21:20Z</time>
      </trkpt>
      <trkpt lat="46.50015" lon="-0.76265">
        <ele>74</ele>
        <time>2022-06-19T09:21:21Z</time>
      </trkpt>
      <trkpt lat="46.50018" lon="-0.76264">
        <ele>73.8</ele>
        <time>2022-06-19T09:21:22Z</time>
      </trkpt>
      <trkpt lat="46.50022" lon="-0.7626">
        <ele>73</ele>
        <time>2022-06-19T09:21:24Z</time>
      </trkpt>
      <trkpt lat="46.50024" lon="-0.76255">
        <ele>73</ele>
        <time>2022-06-19T09:21:25Z</time>
      </trkpt>
      <trkpt lat="46.50025" lon="-0.76251">
        <ele>72.8</ele>
        <time>2022-06-19T09:21:26Z</time>
      </trkpt>
      <trkpt lat="46.50034" lon="-0.7624">
        <ele>72</ele>
        <time>2022-06-19T09:21:30Z</time>
      </trkpt>
      <trkpt lat="46.50037" lon="-0.76237">
        <ele>71.6</ele>
        <time>2022-06-19T09:21:31Z</time>
      </trkpt>
      <trkpt lat="46.50045" lon="-0.76235">
        <ele>71.6</ele>
        <time>2022-06-19T09:21:33Z</time>
      </trkpt>
      <trkpt lat="46.50051" lon="-0.76237">
        <ele>71.2</ele>
        <time>2022-06-19T09:21:34Z</time>
      </trkpt>
      <trkpt lat="46.50073" lon="-0.76234">
        <ele>70.6</ele>
        <time>2022-06-19T09:21:38Z</time>
      </trkpt>
      <trkpt lat="46.50084" lon="-0.76232">
        <ele>70.4</ele>
        <time>2022-06-19T09:21:40Z</time>
      </trkpt>
      <trkpt lat="46.50089" lon="-0.76234">
        <ele>70.4</ele>
        <time>2022-06-19T09:21:41Z</time>
      </trkpt>
      <trkpt lat="46.50101" lon="-0.76238">
        <ele>70.4</ele>
        <time>2022-06-19T09:21:44Z</time>
      </trkpt>
      <trkpt lat="46.50114" lon="-0.76253">
        <ele>70.2</ele>
        <time>2022-06-19T09:21:50Z</time>
      </trkpt>
      <trkpt lat="46.50124" lon="-0.76261">
        <ele>69.6</ele>
        <time>2022-06-19T09:21:56Z</time>
      </trkpt>
      <trkpt lat="46.5013" lon="-0.76263">
        <ele>69.2</ele>
        <time>2022-06-19T09:21:58Z</time>
      </trkpt>
      <trkpt lat="46.50134" lon="-0.76261">
        <ele>69.2</ele>
        <time>2022-06-19T09:22:00Z</time>
      </trkpt>
      <trkpt lat="46.50145" lon="-0.76243">
        <ele>69</ele>
        <time>2022-06-19T09:22:06Z</time>
      </trkpt>
      <trkpt lat="46.50157" lon="-0.76226">
        <ele>68.6</ele>
        <time>2022-06-19T09:22:10Z</time>
      </trkpt>
      <trkpt lat="46.50163" lon="-0.76214">
        <ele>68.4</ele>
        <time>2022-06-19T09:22:12Z</time>
      </trkpt>
      <trkpt lat="46.5017" lon="-0.76205">
        <ele>67.6</ele>
        <time>2022-06-19T09:22:14Z</time>
      </trkpt>
      <trkpt lat="46.50177" lon="-0.76201">
        <ele>67.4</ele>
        <time>2022-06-19T09:22:16Z</time>
      </trkpt>
      <trkpt lat="46.50193" lon="-0.76191">
        <ele>67.6</ele>
        <time>2022-06-19T09:22:20Z</time>
      </trkpt>
      <trkpt lat="46.502" lon="-0.76186">
        <ele>67.4</ele>
        <time>2022-06-19T09:22:22Z</time>
      </trkpt>
      <trkpt lat="46.50204" lon="-0.76183">
        <ele>67.4</ele>
        <time>2022-06-19T09:22:23Z</time>
      </trkpt>
      <trkpt lat="46.50214" lon="-0.76173">
        <ele>67.4</ele>
        <time>2022-06-19T09:22:26Z</time>
      </trkpt>
      <trkpt lat="46.50224" lon="-0.76166">
        <ele>68</ele>
        <time>2022-06-19T09:22:29Z</time>
      </trkpt>
      <trkpt lat="46.50239" lon="-0.76163">
        <ele>68</ele>
        <time>2022-06-19T09:22:33Z</time>
      </trkpt>
      <trkpt lat="46.50243" lon="-0.76164">
        <ele>68</ele>
        <time>2022-06-19T09:22:34Z</time>
      </trkpt>
      <trkpt lat="46.50247" lon="-0.76163">
        <ele>68</ele>
        <time>2022-06-19T09:22:35Z</time>
      </trkpt>
      <trkpt lat="46.50268" lon="-0.76157">
        <ele>68.2</ele>
        <time>2022-06-19T09:22:38Z</time>
      </trkpt>
      <trkpt lat="46.50272" lon="-0.76157">
        <ele>68.4</ele>
        <time>2022-06-19T09:22:39Z</time>
      </trkpt>
      <trkpt lat="46.50276" lon="-0.76155">
        <ele>68.6</ele>
        <time>2022-06-19T09:22:40Z</time>
      </trkpt>
      <trkpt lat="46.50284" lon="-0.7615">
        <ele>69</ele>
        <time>2022-06-19T09:22:42Z</time>
      </trkpt>
      <trkpt lat="46.50286" lon="-0.76146">
        <ele>69</ele>
        <time>2022-06-19T09:22:43Z</time>
      </trkpt>
      <trkpt lat="46.50292" lon="-0.76131">
        <ele>69.4</ele>
        <time>2022-06-19T09:22:47Z</time>
      </trkpt>
      <trkpt lat="46.50292" lon="-0.76129">
        <ele>69.6</ele>
        <time>2022-06-19T09:22:48Z</time>
      </trkpt>
      <trkpt lat="46.50294" lon="-0.76114">
        <ele>70</ele>
        <time>2022-06-19T09:22:52Z</time>
      </trkpt>
      <trkpt lat="46.50293" lon="-0.7611">
        <ele>70</ele>
        <time>2022-06-19T09:22:53Z</time>
      </trkpt>
      <trkpt lat="46.50285" lon="-0.761">
        <ele>70.4</ele>
        <time>2022-06-19T09:22:57Z</time>
      </trkpt>
      <trkpt lat="46.50283" lon="-0.76097">
        <ele>70.4</ele>
        <time>2022-06-19T09:22:58Z</time>
      </trkpt>
      <trkpt lat="46.50269" lon="-0.76073">
        <ele>70.2</ele>
        <time>2022-06-19T09:23:05Z</time>
      </trkpt>
      <trkpt lat="46.50258" lon="-0.76044">
        <ele>69.8</ele>
        <time>2022-06-19T09:23:12Z</time>
      </trkpt>
      <trkpt lat="46.50256" lon="-0.76035">
        <ele>69</ele>
        <time>2022-06-19T09:23:14Z</time>
      </trkpt>
      <trkpt lat="46.50256" lon="-0.76026">
        <ele>68.8</ele>
        <time>2022-06-19T09:23:16Z</time>
      </trkpt>
      <trkpt lat="46.50256" lon="-0.76017">
        <ele>68.6</ele>
        <time>2022-06-19T09:23:18Z</time>
      </trkpt>
      <trkpt lat="46.50255" lon="-0.76006">
        <ele>68.2</ele>
        <time>2022-06-19T09:23:20Z</time>
      </trkpt>
      <trkpt lat="46.50253" lon="-0.75994">
        <ele>68</ele>
        <time>2022-06-19T09:23:22Z</time>
      </trkpt>
      <trkpt lat="46.5025" lon="-0.75986">
        <ele>67.8</ele>
        <time>2022-06-19T09:23:23Z</time>
      </trkpt>
      <trkpt lat="46.50246" lon="-0.75979">
        <ele>67.8</ele>
        <time>2022-06-19T09:23:24Z</time>
      </trkpt>
      <trkpt lat="46.50228" lon="-0.75957">
        <ele>67</ele>
        <time>2022-06-19T09:23:27Z</time>
      </trkpt>
      <trkpt lat="46.50209" lon="-0.75935">
        <ele>65.8</ele>
        <time>2022-06-19T09:23:31Z</time>
      </trkpt>
      <trkpt lat="46.50205" lon="-0.7593">
        <ele>65.6</ele>
        <time>2022-06-19T09:23:32Z</time>
      </trkpt>
      <trkpt lat="46.50193" lon="-0.75921">
        <ele>64.8</ele>
        <time>2022-06-19T09:23:35Z</time>
      </trkpt>
      <trkpt lat="46.5019" lon="-0.75917">
        <ele>64.6</ele>
        <time>2022-06-19T09:23:36Z</time>
      </trkpt>
      <trkpt lat="46.50182" lon="-0.75907">
        <ele>64.6</ele>
        <time>2022-06-19T09:23:38Z</time>
      </trkpt>
      <trkpt lat="46.50175" lon="-0.75897">
        <ele>64.4</ele>
        <time>2022-06-19T09:23:40Z</time>
      </trkpt>
      <trkpt lat="46.50157" lon="-0.75876">
        <ele>63.8</ele>
        <time>2022-06-19T09:23:45Z</time>
      </trkpt>
      <trkpt lat="46.50153" lon="-0.75867">
        <ele>63</ele>
        <time>2022-06-19T09:23:48Z</time>
      </trkpt>
      <trkpt lat="46.50154" lon="-0.75866">
        <ele>62.8</ele>
        <time>2022-06-19T09:23:49Z</time>
      </trkpt>
      <trkpt lat="46.5016" lon="-0.75862">
        <ele>62.8</ele>
        <time>2022-06-19T09:23:53Z</time>
      </trkpt>
      <trkpt lat="46.50167" lon="-0.75859">
        <ele>63</ele>
        <time>2022-06-19T09:23:56Z</time>
      </trkpt>
      <trkpt lat="46.50179" lon="-0.75854">
        <ele>62.6</ele>
        <time>2022-06-19T09:23:59Z</time>
      </trkpt>
      <trkpt lat="46.50199" lon="-0.75847">
        <ele>62.2</ele>
        <time>2022-06-19T09:24:05Z</time>
      </trkpt>
      <trkpt lat="46.5021" lon="-0.75847">
        <ele>62.2</ele>
        <time>2022-06-19T09:24:10Z</time>
      </trkpt>
      <trkpt lat="46.50227" lon="-0.75844">
        <ele>62.8</ele>
        <time>2022-06-19T09:24:16Z</time>
      </trkpt>
      <trkpt lat="46.50231" lon="-0.75845">
        <ele>62.8</ele>
        <time>2022-06-19T09:24:18Z</time>
      </trkpt>
      <trkpt lat="46.50236" lon="-0.75849">
        <ele>63.4</ele>
        <time>2022-06-19T09:24:21Z</time>
      </trkpt>
      <trkpt lat="46.50241" lon="-0.75853">
        <ele>63.8</ele>
        <time>2022-06-19T09:24:24Z</time>
      </trkpt>
      <trkpt lat="46.50246" lon="-0.75854">
        <ele>64.2</ele>
        <time>2022-06-19T09:24:26Z</time>
      </trkpt>
      <trkpt lat="46.50248" lon="-0.75853">
        <ele>64.2</ele>
        <time>2022-06-19T09:24:27Z</time>
      </trkpt>
      <trkpt lat="46.50256" lon="-0.75844">
        <ele>64.2</ele>
        <time>2022-06-19T09:24:32Z</time>
      </trkpt>
      <trkpt lat="46.50267" lon="-0.75839">
        <ele>64.8</ele>
        <time>2022-06-19T09:24:37Z</time>
      </trkpt>
      <trkpt lat="46.5027" lon="-0.75839">
        <ele>65</ele>
        <time>2022-06-19T09:24:38Z</time>
      </trkpt>
      <trkpt lat="46.50286" lon="-0.75839">
        <ele>65.6</ele>
        <time>2022-06-19T09:24:44Z</time>
      </trkpt>
      <trkpt lat="46.50288" lon="-0.75838">
        <ele>65.6</ele>
        <time>2022-06-19T09:24:45Z</time>
      </trkpt>
      <trkpt lat="46.50298" lon="-0.75835">
        <ele>66</ele>
        <time>2022-06-19T09:24:50Z</time>
      </trkpt>
      <trkpt lat="46.503" lon="-0.75835">
        <ele>66.2</ele>
        <time>2022-06-19T09:24:51Z</time>
      </trkpt>
      <trkpt lat="46.50311" lon="-0.75831">
        <ele>66.8</ele>
        <time>2022-06-19T09:24:58Z</time>
      </trkpt>
      <trkpt lat="46.50319" lon="-0.75827">
        <ele>67.2</ele>
        <time>2022-06-19T09:25:03Z</time>
      </trkpt>
      <trkpt lat="46.50322" lon="-0.75826">
        <ele>67.4</ele>
        <time>2022-06-19T09:25:05Z</time>
      </trkpt>
      <trkpt lat="46.50326" lon="-0.75826">
        <ele>67.4</ele>
        <time>2022-06-19T09:25:07Z</time>
      </trkpt>
      <trkpt lat="46.5034" lon="-0.75827">
        <ele>68</ele>
        <time>2022-06-19T09:25:13Z</time>
      </trkpt>
      <trkpt lat="46.50349" lon="-0.75826">
        <ele>68.2</ele>
        <time>2022-06-19T09:25:17Z</time>
      </trkpt>
      <trkpt lat="46.50358" lon="-0.75825">
        <ele>68.8</ele>
        <time>2022-06-19T09:25:20Z</time>
      </trkpt>
      <trkpt lat="46.50368" lon="-0.75825">
        <ele>69.4</ele>
        <time>2022-06-19T09:25:24Z</time>
      </trkpt>
      <trkpt lat="46.50376" lon="-0.75824">
        <ele>69.8</ele>
        <time>2022-06-19T09:25:27Z</time>
      </trkpt>
      <trkpt lat="46.50387" lon="-0.75824">
        <ele>70.6</ele>
        <time>2022-06-19T09:25:31Z</time>
      </trkpt>
      <trkpt lat="46.50394" lon="-0.75823">
        <ele>71</ele>
        <time>2022-06-19T09:25:34Z</time>
      </trkpt>
      <trkpt lat="46.50406" lon="-0.75822">
        <ele>71.6</ele>
        <time>2022-06-19T09:25:38Z</time>
      </trkpt>
      <trkpt lat="46.50413" lon="-0.75821">
        <ele>72</ele>
        <time>2022-06-19T09:25:41Z</time>
      </trkpt>
      <trkpt lat="46.50423" lon="-0.75819">
        <ele>72.6</ele>
        <time>2022-06-19T09:25:46Z</time>
      </trkpt>
      <trkpt lat="46.50425" lon="-0.75819">
        <ele>72.8</ele>
        <time>2022-06-19T09:25:47Z</time>
      </trkpt>
      <trkpt lat="46.50437" lon="-0.75816">
        <ele>73.6</ele>
        <time>2022-06-19T09:25:53Z</time>
      </trkpt>
      <trkpt lat="46.50447" lon="-0.75814">
        <ele>75</ele>
        <time>2022-06-19T09:25:58Z</time>
      </trkpt>
      <trkpt lat="46.5045" lon="-0.75813">
        <ele>75.2</ele>
        <time>2022-06-19T09:25:59Z</time>
      </trkpt>
      <trkpt lat="46.50465" lon="-0.7581">
        <ele>76</ele>
        <time>2022-06-19T09:26:04Z</time>
      </trkpt>
      <trkpt lat="46.5047" lon="-0.75809">
        <ele>76.2</ele>
        <time>2022-06-19T09:26:06Z</time>
      </trkpt>
      <trkpt lat="46.50476" lon="-0.75807">
        <ele>77.2</ele>
        <time>2022-06-19T09:26:09Z</time>
      </trkpt>
      <trkpt lat="46.50484" lon="-0.75807">
        <ele>78.2</ele>
        <time>2022-06-19T09:26:13Z</time>
      </trkpt>
      <trkpt lat="46.50491" lon="-0.75809">
        <ele>79.4</ele>
        <time>2022-06-19T09:26:19Z</time>
      </trkpt>
      <trkpt lat="46.50505" lon="-0.75815">
        <ele>80.4</ele>
        <time>2022-06-19T09:26:27Z</time>
      </trkpt>
      <trkpt lat="46.50517" lon="-0.75825">
        <ele>81.4</ele>
        <time>2022-06-19T09:26:35Z</time>
      </trkpt>
      <trkpt lat="46.50519" lon="-0.75826">
        <ele>81.6</ele>
        <time>2022-06-19T09:26:36Z</time>
      </trkpt>
      <trkpt lat="46.50534" lon="-0.75841">
        <ele>82.4</ele>
        <time>2022-06-19T09:26:44Z</time>
      </trkpt>
      <trkpt lat="46.50544" lon="-0.75855">
        <ele>82.6</ele>
        <time>2022-06-19T09:26:50Z</time>
      </trkpt>
      <trkpt lat="46.50552" lon="-0.75863">
        <ele>82.8</ele>
        <time>2022-06-19T09:26:56Z</time>
      </trkpt>
      <trkpt lat="46.50557" lon="-0.75868">
        <ele>83.4</ele>
        <time>2022-06-19T09:26:58Z</time>
      </trkpt>
      <trkpt lat="46.50571" lon="-0.75882">
        <ele>83.4</ele>
        <time>2022-06-19T09:27:05Z</time>
      </trkpt>
      <trkpt lat="46.50583" lon="-0.7588">
        <ele>83.4</ele>
        <time>2022-06-19T09:27:10Z</time>
      </trkpt>
      <trkpt lat="46.50597" lon="-0.75873">
        <ele>83.8</ele>
        <time>2022-06-19T09:27:17Z</time>
      </trkpt>
      <trkpt lat="46.5061" lon="-0.75862">
        <ele>84.4</ele>
        <time>2022-06-19T09:27:23Z</time>
      </trkpt>
      <trkpt lat="46.50626" lon="-0.75859">
        <ele>84.2</ele>
        <time>2022-06-19T09:27:27Z</time>
      </trkpt>
      <trkpt lat="46.50635" lon="-0.75857">
        <ele>83.6</ele>
        <time>2022-06-19T09:27:29Z</time>
      </trkpt>
      <trkpt lat="46.50646" lon="-0.75854">
        <ele>83.2</ele>
        <time>2022-06-19T09:27:31Z</time>
      </trkpt>
      <trkpt lat="46.50651" lon="-0.75854">
        <ele>83.2</ele>
        <time>2022-06-19T09:27:32Z</time>
      </trkpt>
      <trkpt lat="46.50656" lon="-0.75856">
        <ele>82.8</ele>
        <time>2022-06-19T09:27:33Z</time>
      </trkpt>
      <trkpt lat="46.50668" lon="-0.75862">
        <ele>82.2</ele>
        <time>2022-06-19T09:27:35Z</time>
      </trkpt>
      <trkpt lat="46.50675" lon="-0.75864">
        <ele>82</ele>
        <time>2022-06-19T09:27:36Z</time>
      </trkpt>
      <trkpt lat="46.50688" lon="-0.75869">
        <ele>81.6</ele>
        <time>2022-06-19T09:27:38Z</time>
      </trkpt>
      <trkpt lat="46.50695" lon="-0.75873">
        <ele>81.4</ele>
        <time>2022-06-19T09:27:39Z</time>
      </trkpt>
      <trkpt lat="46.507" lon="-0.75877">
        <ele>81</ele>
        <time>2022-06-19T09:27:40Z</time>
      </trkpt>
      <trkpt lat="46.50709" lon="-0.75886">
        <ele>80.2</ele>
        <time>2022-06-19T09:27:42Z</time>
      </trkpt>
      <trkpt lat="46.50713" lon="-0.75891">
        <ele>79.8</ele>
        <time>2022-06-19T09:27:43Z</time>
      </trkpt>
      <trkpt lat="46.50715" lon="-0.75897">
        <ele>79.6</ele>
        <time>2022-06-19T09:27:44Z</time>
      </trkpt>
      <trkpt lat="46.50723" lon="-0.75916">
        <ele>79.2</ele>
        <time>2022-06-19T09:27:47Z</time>
      </trkpt>
      <trkpt lat="46.50727" lon="-0.75919">
        <ele>79</ele>
        <time>2022-06-19T09:27:48Z</time>
      </trkpt>
      <trkpt lat="46.5073" lon="-0.75921">
        <ele>78.8</ele>
        <time>2022-06-19T09:27:49Z</time>
      </trkpt>
      <trkpt lat="46.50735" lon="-0.75921">
        <ele>78.6</ele>
        <time>2022-06-19T09:27:50Z</time>
      </trkpt>
      <trkpt lat="46.50746" lon="-0.75923">
        <ele>78.6</ele>
        <time>2022-06-19T09:27:52Z</time>
      </trkpt>
      <trkpt lat="46.50763" lon="-0.75922">
        <ele>78.6</ele>
        <time>2022-06-19T09:27:55Z</time>
      </trkpt>
      <trkpt lat="46.50786" lon="-0.75918">
        <ele>78.2</ele>
        <time>2022-06-19T09:27:59Z</time>
      </trkpt>
      <trkpt lat="46.50791" lon="-0.75916">
        <ele>78.2</ele>
        <time>2022-06-19T09:28:00Z</time>
      </trkpt>
      <trkpt lat="46.50798" lon="-0.75916">
        <ele>78.2</ele>
        <time>2022-06-19T09:28:01Z</time>
      </trkpt>
      <trkpt lat="46.50805" lon="-0.75915">
        <ele>77.8</ele>
        <time>2022-06-19T09:28:02Z</time>
      </trkpt>
      <trkpt lat="46.50823" lon="-0.75912">
        <ele>77</ele>
        <time>2022-06-19T09:28:05Z</time>
      </trkpt>
      <trkpt lat="46.50835" lon="-0.7591">
        <ele>76.6</ele>
        <time>2022-06-19T09:28:07Z</time>
      </trkpt>
      <trkpt lat="46.50858" lon="-0.75907">
        <ele>76.2</ele>
        <time>2022-06-19T09:28:10Z</time>
      </trkpt>
      <trkpt lat="46.50884" lon="-0.75903">
        <ele>75</ele>
        <time>2022-06-19T09:28:13Z</time>
      </trkpt>
      <trkpt lat="46.50908" lon="-0.75898">
        <ele>74.2</ele>
        <time>2022-06-19T09:28:16Z</time>
      </trkpt>
      <trkpt lat="46.50939" lon="-0.75888">
        <ele>74.2</ele>
        <time>2022-06-19T09:28:21Z</time>
      </trkpt>
      <trkpt lat="46.50978" lon="-0.75876">
        <ele>74.2</ele>
        <time>2022-06-19T09:28:27Z</time>
      </trkpt>
      <trkpt lat="46.50984" lon="-0.75876">
        <ele>74</ele>
        <time>2022-06-19T09:28:28Z</time>
      </trkpt>
      <trkpt lat="46.50997" lon="-0.75874">
        <ele>73.8</ele>
        <time>2022-06-19T09:28:31Z</time>
      </trkpt>
      <trkpt lat="46.51012" lon="-0.7587">
        <ele>73.6</ele>
        <time>2022-06-19T09:28:34Z</time>
      </trkpt>
      <trkpt lat="46.51025" lon="-0.75863">
        <ele>73.4</ele>
        <time>2022-06-19T09:28:37Z</time>
      </trkpt>
      <trkpt lat="46.51041" lon="-0.75856">
        <ele>72.8</ele>
        <time>2022-06-19T09:28:40Z</time>
      </trkpt>
      <trkpt lat="46.51057" lon="-0.75848">
        <ele>72.6</ele>
        <time>2022-06-19T09:28:43Z</time>
      </trkpt>
      <trkpt lat="46.51087" lon="-0.75828">
        <ele>71.8</ele>
        <time>2022-06-19T09:28:48Z</time>
      </trkpt>
      <trkpt lat="46.51107" lon="-0.75809">
        <ele>70.8</ele>
        <time>2022-06-19T09:28:51Z</time>
      </trkpt>
      <trkpt lat="46.51114" lon="-0.75802">
        <ele>70.4</ele>
        <time>2022-06-19T09:28:52Z</time>
      </trkpt>
      <trkpt lat="46.5112" lon="-0.75796">
        <ele>69.8</ele>
        <time>2022-06-19T09:28:53Z</time>
      </trkpt>
      <trkpt lat="46.51127" lon="-0.7579">
        <ele>69.4</ele>
        <time>2022-06-19T09:28:54Z</time>
      </trkpt>
      <trkpt lat="46.51142" lon="-0.7578">
        <ele>68.4</ele>
        <time>2022-06-19T09:28:56Z</time>
      </trkpt>
      <trkpt lat="46.51148" lon="-0.75775">
        <ele>67.2</ele>
        <time>2022-06-19T09:28:57Z</time>
      </trkpt>
      <trkpt lat="46.51154" lon="-0.75772">
        <ele>66.2</ele>
        <time>2022-06-19T09:28:58Z</time>
      </trkpt>
      <trkpt lat="46.5116" lon="-0.75772">
        <ele>65.6</ele>
        <time>2022-06-19T09:28:59Z</time>
      </trkpt>
      <trkpt lat="46.51164" lon="-0.75774">
        <ele>65</ele>
        <time>2022-06-19T09:29:00Z</time>
      </trkpt>
      <trkpt lat="46.51167" lon="-0.75776">
        <ele>64.8</ele>
        <time>2022-06-19T09:29:01Z</time>
      </trkpt>
      <trkpt lat="46.51169" lon="-0.75778">
        <ele>64.4</ele>
        <time>2022-06-19T09:29:02Z</time>
      </trkpt>
      <trkpt lat="46.51176" lon="-0.75786">
        <ele>64.4</ele>
        <time>2022-06-19T09:29:05Z</time>
      </trkpt>
      <trkpt lat="46.51178" lon="-0.75791">
        <ele>64.8</ele>
        <time>2022-06-19T09:29:06Z</time>
      </trkpt>
      <trkpt lat="46.51179" lon="-0.75796">
        <ele>64.8</ele>
        <time>2022-06-19T09:29:07Z</time>
      </trkpt>
      <trkpt lat="46.51182" lon="-0.75806">
        <ele>65.2</ele>
        <time>2022-06-19T09:29:09Z</time>
      </trkpt>
      <trkpt lat="46.51184" lon="-0.75811">
        <ele>65.8</ele>
        <time>2022-06-19T09:29:10Z</time>
      </trkpt>
      <trkpt lat="46.51185" lon="-0.75815">
        <ele>66.2</ele>
        <time>2022-06-19T09:29:11Z</time>
      </trkpt>
      <trkpt lat="46.51186" lon="-0.75824">
        <ele>66.4</ele>
        <time>2022-06-19T09:29:13Z</time>
      </trkpt>
      <trkpt lat="46.51188" lon="-0.7584">
        <ele>66.8</ele>
        <time>2022-06-19T09:29:16Z</time>
      </trkpt>
      <trkpt lat="46.51189" lon="-0.75845">
        <ele>67</ele>
        <time>2022-06-19T09:29:17Z</time>
      </trkpt>
      <trkpt lat="46.51187" lon="-0.75877">
        <ele>67.2</ele>
        <time>2022-06-19T09:29:22Z</time>
      </trkpt>
      <trkpt lat="46.51188" lon="-0.75883">
        <ele>67.2</ele>
        <time>2022-06-19T09:29:23Z</time>
      </trkpt>
      <trkpt lat="46.51189" lon="-0.75911">
        <ele>67</ele>
        <time>2022-06-19T09:29:28Z</time>
      </trkpt>
      <trkpt lat="46.51188" lon="-0.75928">
        <ele>66.4</ele>
        <time>2022-06-19T09:29:31Z</time>
      </trkpt>
      <trkpt lat="46.51191" lon="-0.75947">
        <ele>66.4</ele>
        <time>2022-06-19T09:29:34Z</time>
      </trkpt>
      <trkpt lat="46.51192" lon="-0.7596">
        <ele>65.6</ele>
        <time>2022-06-19T09:29:36Z</time>
      </trkpt>
      <trkpt lat="46.51196" lon="-0.7598">
        <ele>65.2</ele>
        <time>2022-06-19T09:29:39Z</time>
      </trkpt>
      <trkpt lat="46.51196" lon="-0.76008">
        <ele>66.6</ele>
        <time>2022-06-19T09:29:44Z</time>
      </trkpt>
      <trkpt lat="46.51195" lon="-0.76014">
        <ele>67</ele>
        <time>2022-06-19T09:29:45Z</time>
      </trkpt>
      <trkpt lat="46.51194" lon="-0.76029">
        <ele>68</ele>
        <time>2022-06-19T09:29:49Z</time>
      </trkpt>
      <trkpt lat="46.51193" lon="-0.76034">
        <ele>68.2</ele>
        <time>2022-06-19T09:29:50Z</time>
      </trkpt>
      <trkpt lat="46.51191" lon="-0.76056">
        <ele>69.2</ele>
        <time>2022-06-19T09:29:56Z</time>
      </trkpt>
      <trkpt lat="46.51189" lon="-0.76063">
        <ele>69.8</ele>
        <time>2022-06-19T09:29:58Z</time>
      </trkpt>
      <trkpt lat="46.51188" lon="-0.76075">
        <ele>70.4</ele>
        <time>2022-06-19T09:30:02Z</time>
      </trkpt>
      <trkpt lat="46.51188" lon="-0.76085">
        <ele>71.4</ele>
        <time>2022-06-19T09:30:06Z</time>
      </trkpt>
      <trkpt lat="46.51188" lon="-0.76088">
        <ele>71.6</ele>
        <time>2022-06-19T09:30:07Z</time>
      </trkpt>
      <trkpt lat="46.51187" lon="-0.76098">
        <ele>72.4</ele>
        <time>2022-06-19T09:30:11Z</time>
      </trkpt>
      <trkpt lat="46.51187" lon="-0.76105">
        <ele>72.8</ele>
        <time>2022-06-19T09:30:14Z</time>
      </trkpt>
      <trkpt lat="46.51185" lon="-0.76116">
        <ele>73.6</ele>
        <time>2022-06-19T09:30:17Z</time>
      </trkpt>
      <trkpt lat="46.51183" lon="-0.76129">
        <ele>74.6</ele>
        <time>2022-06-19T09:30:22Z</time>
      </trkpt>
      <trkpt lat="46.51181" lon="-0.76138">
        <ele>75.6</ele>
        <time>2022-06-19T09:30:26Z</time>
      </trkpt>
      <trkpt lat="46.51179" lon="-0.76156">
        <ele>76.4</ele>
        <time>2022-06-19T09:30:31Z</time>
      </trkpt>
      <trkpt lat="46.51179" lon="-0.76161">
        <ele>76.8</ele>
        <time>2022-06-19T09:30:33Z</time>
      </trkpt>
      <trkpt lat="46.51179" lon="-0.76164">
        <ele>77</ele>
        <time>2022-06-19T09:30:34Z</time>
      </trkpt>
      <trkpt lat="46.51181" lon="-0.76167">
        <ele>77</ele>
        <time>2022-06-19T09:30:36Z</time>
      </trkpt>
      <trkpt lat="46.51195" lon="-0.76176">
        <ele>76.6</ele>
        <time>2022-06-19T09:30:43Z</time>
      </trkpt>
      <trkpt lat="46.51209" lon="-0.76186">
        <ele>76.8</ele>
        <time>2022-06-19T09:30:50Z</time>
      </trkpt>
      <trkpt lat="46.51226" lon="-0.76192">
        <ele>77</ele>
        <time>2022-06-19T09:30:56Z</time>
      </trkpt>
      <trkpt lat="46.51247" lon="-0.76198">
        <ele>77.6</ele>
        <time>2022-06-19T09:31:03Z</time>
      </trkpt>
      <trkpt lat="46.51254" lon="-0.762">
        <ele>78</ele>
        <time>2022-06-19T09:31:05Z</time>
      </trkpt>
      <trkpt lat="46.51268" lon="-0.76207">
        <ele>78.6</ele>
        <time>2022-06-19T09:31:10Z</time>
      </trkpt>
      <trkpt lat="46.51275" lon="-0.76216">
        <ele>78.8</ele>
        <time>2022-06-19T09:31:15Z</time>
      </trkpt>
      <trkpt lat="46.51275" lon="-0.76218">
        <ele>78.8</ele>
        <time>2022-06-19T09:31:17Z</time>
      </trkpt>
      <trkpt lat="46.51275" lon="-0.76218">
        <ele>78.8</ele>
        <time>2022-06-19T09:31:18Z</time>
      </trkpt>
      <trkpt lat="46.51294" lon="-0.76222">
        <ele>78</ele>
        <time>2022-06-19T09:37:54Z</time>
      </trkpt>
      <trkpt lat="46.51294" lon="-0.76222">
        <ele>78</ele>
        <time>2022-06-19T09:37:55Z</time>
      </trkpt>
      <trkpt lat="46.51301" lon="-0.76218">
        <ele>78</ele>
        <time>2022-06-19T09:38:04Z</time>
      </trkpt>
      <trkpt lat="46.51315" lon="-0.76217">
        <ele>77.8</ele>
        <time>2022-06-19T09:38:10Z</time>
      </trkpt>
      <trkpt lat="46.51333" lon="-0.76215">
        <ele>77</ele>
        <time>2022-06-19T09:38:16Z</time>
      </trkpt>
      <trkpt lat="46.51338" lon="-0.76199">
        <ele>76</ele>
        <time>2022-06-19T09:38:20Z</time>
      </trkpt>
      <trkpt lat="46.51339" lon="-0.76195">
        <ele>75.8</ele>
        <time>2022-06-19T09:38:21Z</time>
      </trkpt>
      <trkpt lat="46.5134" lon="-0.76171">
        <ele>75.2</ele>
        <time>2022-06-19T09:38:25Z</time>
      </trkpt>
      <trkpt lat="46.51344" lon="-0.7615">
        <ele>74.6</ele>
        <time>2022-06-19T09:38:28Z</time>
      </trkpt>
      <trkpt lat="46.51347" lon="-0.7613">
        <ele>73.8</ele>
        <time>2022-06-19T09:38:31Z</time>
      </trkpt>
      <trkpt lat="46.51348" lon="-0.76123">
        <ele>73.4</ele>
        <time>2022-06-19T09:38:32Z</time>
      </trkpt>
      <trkpt lat="46.51351" lon="-0.76102">
        <ele>72.2</ele>
        <time>2022-06-19T09:38:35Z</time>
      </trkpt>
      <trkpt lat="46.51355" lon="-0.7607">
        <ele>71.2</ele>
        <time>2022-06-19T09:38:39Z</time>
      </trkpt>
      <trkpt lat="46.51355" lon="-0.76061">
        <ele>71</ele>
        <time>2022-06-19T09:38:40Z</time>
      </trkpt>
      <trkpt lat="46.51355" lon="-0.76061">
        <ele>69.4</ele>
        <time>2022-06-19T09:38:43Z</time>
      </trkpt>
      <trkpt lat="46.51355" lon="-0.76031">
        <ele>68.8</ele>
        <time>2022-06-19T09:38:44Z</time>
      </trkpt>
      <trkpt lat="46.51358" lon="-0.76024">
        <ele>67.4</ele>
        <time>2022-06-19T09:38:45Z</time>
      </trkpt>
      <trkpt lat="46.5136" lon="-0.76015">
        <ele>66.2</ele>
        <time>2022-06-19T09:38:46Z</time>
      </trkpt>
      <trkpt lat="46.51361" lon="-0.76004">
        <ele>65.2</ele>
        <time>2022-06-19T09:38:47Z</time>
      </trkpt>
      <trkpt lat="46.51365" lon="-0.75981">
        <ele>63.8</ele>
        <time>2022-06-19T09:38:49Z</time>
      </trkpt>
      <trkpt lat="46.51366" lon="-0.75969">
        <ele>63.4</ele>
        <time>2022-06-19T09:38:50Z</time>
      </trkpt>
      <trkpt lat="46.51367" lon="-0.75947">
        <ele>62.6</ele>
        <time>2022-06-19T09:38:52Z</time>
      </trkpt>
      <trkpt lat="46.51367" lon="-0.75938">
        <ele>61.6</ele>
        <time>2022-06-19T09:38:53Z</time>
      </trkpt>
      <trkpt lat="46.51368" lon="-0.75929">
        <ele>60.8</ele>
        <time>2022-06-19T09:38:54Z</time>
      </trkpt>
      <trkpt lat="46.51369" lon="-0.75914">
        <ele>59.4</ele>
        <time>2022-06-19T09:38:56Z</time>
      </trkpt>
      <trkpt lat="46.5137" lon="-0.75908">
        <ele>58.6</ele>
        <time>2022-06-19T09:38:57Z</time>
      </trkpt>
      <trkpt lat="46.51371" lon="-0.75901">
        <ele>58.2</ele>
        <time>2022-06-19T09:38:58Z</time>
      </trkpt>
      <trkpt lat="46.51372" lon="-0.75882">
        <ele>57</ele>
        <time>2022-06-19T09:39:01Z</time>
      </trkpt>
      <trkpt lat="46.51371" lon="-0.75878">
        <ele>56.6</ele>
        <time>2022-06-19T09:39:02Z</time>
      </trkpt>
      <trkpt lat="46.5137" lon="-0.75874">
        <ele>55.8</ele>
        <time>2022-06-19T09:39:03Z</time>
      </trkpt>
      <trkpt lat="46.51369" lon="-0.75868">
        <ele>54.8</ele>
        <time>2022-06-19T09:39:05Z</time>
      </trkpt>
      <trkpt lat="46.51367" lon="-0.75866">
        <ele>54.6</ele>
        <time>2022-06-19T09:39:06Z</time>
      </trkpt>
      <trkpt lat="46.51366" lon="-0.75863">
        <ele>54</ele>
        <time>2022-06-19T09:39:07Z</time>
      </trkpt>
      <trkpt lat="46.51364" lon="-0.75861">
        <ele>53.4</ele>
        <time>2022-06-19T09:39:08Z</time>
      </trkpt>
      <trkpt lat="46.51357" lon="-0.75857">
        <ele>52.2</ele>
        <time>2022-06-19T09:39:11Z</time>
      </trkpt>
      <trkpt lat="46.51356" lon="-0.75855">
        <ele>52.2</ele>
        <time>2022-06-19T09:39:12Z</time>
      </trkpt>
      <trkpt lat="46.51355" lon="-0.7585">
        <ele>51.4</ele>
        <time>2022-06-19T09:39:14Z</time>
      </trkpt>
      <trkpt lat="46.51354" lon="-0.75848">
        <ele>51</ele>
        <time>2022-06-19T09:39:15Z</time>
      </trkpt>
      <trkpt lat="46.51353" lon="-0.75843">
        <ele>49.6</ele>
        <time>2022-06-19T09:39:17Z</time>
      </trkpt>
      <trkpt lat="46.51352" lon="-0.75836">
        <ele>47.4</ele>
        <time>2022-06-19T09:39:20Z</time>
      </trkpt>
      <trkpt lat="46.51352" lon="-0.7583">
        <ele>44.6</ele>
        <time>2022-06-19T09:39:22Z</time>
      </trkpt>
      <trkpt lat="46.51352" lon="-0.75828">
        <ele>43.6</ele>
        <time>2022-06-19T09:39:23Z</time>
      </trkpt>
      <trkpt lat="46.51351" lon="-0.75824">
        <ele>42</ele>
        <time>2022-06-19T09:39:24Z</time>
      </trkpt>
      <trkpt lat="46.5135" lon="-0.75822">
        <ele>40.4</ele>
        <time>2022-06-19T09:39:25Z</time>
      </trkpt>
      <trkpt lat="46.5135" lon="-0.7582">
        <ele>39.6</ele>
        <time>2022-06-19T09:39:26Z</time>
      </trkpt>
      <trkpt lat="46.51349" lon="-0.75819">
        <ele>39</ele>
        <time>2022-06-19T09:39:27Z</time>
      </trkpt>
      <trkpt lat="46.51347" lon="-0.75816">
        <ele>38.8</ele>
        <time>2022-06-19T09:39:29Z</time>
      </trkpt>
      <trkpt lat="46.51347" lon="-0.7581">
        <ele>39.6</ele>
        <time>2022-06-19T09:39:31Z</time>
      </trkpt>
      <trkpt lat="46.51343" lon="-0.75792">
        <ele>39.4</ele>
        <time>2022-06-19T09:39:37Z</time>
      </trkpt>
      <trkpt lat="46.51343" lon="-0.75781">
        <ele>40</ele>
        <time>2022-06-19T09:39:45Z</time>
      </trkpt>
      <trkpt lat="46.51343" lon="-0.75779">
        <ele>40.2</ele>
        <time>2022-06-19T09:39:46Z</time>
      </trkpt>
      <trkpt lat="46.51343" lon="-0.75777">
        <ele>40.6</ele>
        <time>2022-06-19T09:39:47Z</time>
      </trkpt>
      <trkpt lat="46.51342" lon="-0.75771">
        <ele>41.2</ele>
        <time>2022-06-19T09:39:51Z</time>
      </trkpt>
      <trkpt lat="46.51341" lon="-0.75769">
        <ele>41.6</ele>
        <time>2022-06-19T09:39:53Z</time>
      </trkpt>
      <trkpt lat="46.51341" lon="-0.75769">
        <ele>42.4</ele>
        <time>2022-06-19T09:39:55Z</time>
      </trkpt>
      <trkpt lat="46.51339" lon="-0.75763">
        <ele>43.2</ele>
        <time>2022-06-19T09:40:02Z</time>
      </trkpt>
      <trkpt lat="46.51339" lon="-0.75761">
        <ele>43.4</ele>
        <time>2022-06-19T09:40:04Z</time>
      </trkpt>
      <trkpt lat="46.51335" lon="-0.75756">
        <ele>44.4</ele>
        <time>2022-06-19T09:40:10Z</time>
      </trkpt>
      <trkpt lat="46.51335" lon="-0.75755">
        <ele>44.6</ele>
        <time>2022-06-19T09:40:11Z</time>
      </trkpt>
      <trkpt lat="46.51335" lon="-0.75752">
        <ele>45.4</ele>
        <time>2022-06-19T09:40:18Z</time>
      </trkpt>
      <trkpt lat="46.51335" lon="-0.75751">
        <ele>46</ele>
        <time>2022-06-19T09:40:20Z</time>
      </trkpt>
      <trkpt lat="46.51332" lon="-0.75746">
        <ele>46.6</ele>
        <time>2022-06-19T09:40:27Z</time>
      </trkpt>
      <trkpt lat="46.5133" lon="-0.75742">
        <ele>47.6</ele>
        <time>2022-06-19T09:40:35Z</time>
      </trkpt>
      <trkpt lat="46.51329" lon="-0.75742">
        <ele>47.8</ele>
        <time>2022-06-19T09:40:36Z</time>
      </trkpt>
      <trkpt lat="46.51326" lon="-0.75738">
        <ele>48.6</ele>
        <time>2022-06-19T09:40:45Z</time>
      </trkpt>
      <trkpt lat="46.51325" lon="-0.75736">
        <ele>49.6</ele>
        <time>2022-06-19T09:40:49Z</time>
      </trkpt>
      <trkpt lat="46.51325" lon="-0.75735">
        <ele>49.8</ele>
        <time>2022-06-19T09:40:51Z</time>
      </trkpt>
      <trkpt lat="46.51324" lon="-0.75728">
        <ele>50</ele>
        <time>2022-06-19T09:41:02Z</time>
      </trkpt>
      <trkpt lat="46.51328" lon="-0.75709">
        <ele>49.8</ele>
        <time>2022-06-19T09:41:10Z</time>
      </trkpt>
      <trkpt lat="46.51328" lon="-0.75688">
        <ele>49</ele>
        <time>2022-06-19T09:41:16Z</time>
      </trkpt>
      <trkpt lat="46.51328" lon="-0.75683">
        <ele>48.8</ele>
        <time>2022-06-19T09:41:17Z</time>
      </trkpt>
      <trkpt lat="46.51325" lon="-0.75668">
        <ele>49</ele>
        <time>2022-06-19T09:41:22Z</time>
      </trkpt>
      <trkpt lat="46.51326" lon="-0.75647">
        <ele>49.6</ele>
        <time>2022-06-19T09:41:29Z</time>
      </trkpt>
      <trkpt lat="46.51334" lon="-0.75624">
        <ele>49.2</ele>
        <time>2022-06-19T09:41:34Z</time>
      </trkpt>
      <trkpt lat="46.51335" lon="-0.75612">
        <ele>48.6</ele>
        <time>2022-06-19T09:41:36Z</time>
      </trkpt>
      <trkpt lat="46.51337" lon="-0.75599">
        <ele>48.4</ele>
        <time>2022-06-19T09:41:39Z</time>
      </trkpt>
      <trkpt lat="46.51336" lon="-0.75594">
        <ele>48.4</ele>
        <time>2022-06-19T09:41:40Z</time>
      </trkpt>
      <trkpt lat="46.51335" lon="-0.75591">
        <ele>48.4</ele>
        <time>2022-06-19T09:41:41Z</time>
      </trkpt>
      <trkpt lat="46.51332" lon="-0.75578">
        <ele>48.6</ele>
        <time>2022-06-19T09:41:44Z</time>
      </trkpt>
      <trkpt lat="46.51329" lon="-0.75558">
        <ele>48.6</ele>
        <time>2022-06-19T09:41:49Z</time>
      </trkpt>
      <trkpt lat="46.51327" lon="-0.75552">
        <ele>48.6</ele>
        <time>2022-06-19T09:41:51Z</time>
      </trkpt>
      <trkpt lat="46.51317" lon="-0.75524">
        <ele>49.6</ele>
        <time>2022-06-19T09:41:59Z</time>
      </trkpt>
      <trkpt lat="46.51304" lon="-0.75506">
        <ele>49.8</ele>
        <time>2022-06-19T09:42:06Z</time>
      </trkpt>
      <trkpt lat="46.51289" lon="-0.755">
        <ele>50.4</ele>
        <time>2022-06-19T09:42:12Z</time>
      </trkpt>
      <trkpt lat="46.51275" lon="-0.75502">
        <ele>50.8</ele>
        <time>2022-06-19T09:42:18Z</time>
      </trkpt>
      <trkpt lat="46.51259" lon="-0.75509">
        <ele>49.8</ele>
        <time>2022-06-19T09:42:25Z</time>
      </trkpt>
      <trkpt lat="46.51254" lon="-0.75511">
        <ele>49</ele>
        <time>2022-06-19T09:42:27Z</time>
      </trkpt>
      <trkpt lat="46.51252" lon="-0.75511">
        <ele>48.6</ele>
        <time>2022-06-19T09:42:28Z</time>
      </trkpt>
      <trkpt lat="46.5125" lon="-0.75514">
        <ele>47.2</ele>
        <time>2022-06-19T09:42:30Z</time>
      </trkpt>
      <trkpt lat="46.51243" lon="-0.75517">
        <ele>46.4</ele>
        <time>2022-06-19T09:42:34Z</time>
      </trkpt>
      <trkpt lat="46.5124" lon="-0.75518">
        <ele>45.6</ele>
        <time>2022-06-19T09:42:35Z</time>
      </trkpt>
      <trkpt lat="46.51237" lon="-0.75519">
        <ele>44.8</ele>
        <time>2022-06-19T09:42:36Z</time>
      </trkpt>
      <trkpt lat="46.51234" lon="-0.75519">
        <ele>43.6</ele>
        <time>2022-06-19T09:42:37Z</time>
      </trkpt>
      <trkpt lat="46.51225" lon="-0.75522">
        <ele>42.6</ele>
        <time>2022-06-19T09:42:39Z</time>
      </trkpt>
      <trkpt lat="46.5122" lon="-0.75523">
        <ele>41.8</ele>
        <time>2022-06-19T09:42:40Z</time>
      </trkpt>
      <trkpt lat="46.51214" lon="-0.75525">
        <ele>41.2</ele>
        <time>2022-06-19T09:42:41Z</time>
      </trkpt>
      <trkpt lat="46.51197" lon="-0.75533">
        <ele>41.2</ele>
        <time>2022-06-19T09:42:45Z</time>
      </trkpt>
      <trkpt lat="46.51181" lon="-0.75532">
        <ele>41.8</ele>
        <time>2022-06-19T09:42:50Z</time>
      </trkpt>
      <trkpt lat="46.51161" lon="-0.75529">
        <ele>39.8</ele>
        <time>2022-06-19T09:42:56Z</time>
      </trkpt>
      <trkpt lat="46.51147" lon="-0.75526">
        <ele>39</ele>
        <time>2022-06-19T09:43:01Z</time>
      </trkpt>
      <trkpt lat="46.51145" lon="-0.75526">
        <ele>38.8</ele>
        <time>2022-06-19T09:43:03Z</time>
      </trkpt>
      <trkpt lat="46.51144" lon="-0.75526">
        <ele>38.8</ele>
        <time>2022-06-19T09:43:04Z</time>
      </trkpt>
      <trkpt lat="46.51142" lon="-0.75525">
        <ele>38.2</ele>
        <time>2022-06-19T09:43:06Z</time>
      </trkpt>
      <trkpt lat="46.5114" lon="-0.75524">
        <ele>37.8</ele>
        <time>2022-06-19T09:43:07Z</time>
      </trkpt>
      <trkpt lat="46.51133" lon="-0.75522">
        <ele>37</ele>
        <time>2022-06-19T09:43:10Z</time>
      </trkpt>
      <trkpt lat="46.51131" lon="-0.75521">
        <ele>36.8</ele>
        <time>2022-06-19T09:43:12Z</time>
      </trkpt>
      <trkpt lat="46.5113" lon="-0.75519">
        <ele>36.8</ele>
        <time>2022-06-19T09:43:13Z</time>
      </trkpt>
      <trkpt lat="46.51122" lon="-0.7551">
        <ele>37.8</ele>
        <time>2022-06-19T09:43:19Z</time>
      </trkpt>
      <trkpt lat="46.51116" lon="-0.75502">
        <ele>38.6</ele>
        <time>2022-06-19T09:43:26Z</time>
      </trkpt>
      <trkpt lat="46.51116" lon="-0.75502">
        <ele>38.8</ele>
        <time>2022-06-19T09:43:27Z</time>
      </trkpt>
      <trkpt lat="46.51112" lon="-0.75499">
        <ele>40</ele>
        <time>2022-06-19T09:43:33Z</time>
      </trkpt>
      <trkpt lat="46.51108" lon="-0.75496">
        <ele>40.8</ele>
        <time>2022-06-19T09:43:38Z</time>
      </trkpt>
      <trkpt lat="46.51108" lon="-0.75496">
        <ele>41</ele>
        <time>2022-06-19T09:43:39Z</time>
      </trkpt>
      <trkpt lat="46.51104" lon="-0.75493">
        <ele>42.2</ele>
        <time>2022-06-19T09:43:45Z</time>
      </trkpt>
      <trkpt lat="46.51101" lon="-0.75489">
        <ele>43.2</ele>
        <time>2022-06-19T09:43:52Z</time>
      </trkpt>
      <trkpt lat="46.51101" lon="-0.75488">
        <ele>43.2</ele>
        <time>2022-06-19T09:43:53Z</time>
      </trkpt>
      <trkpt lat="46.51096" lon="-0.75485">
        <ele>44.2</ele>
        <time>2022-06-19T09:44:02Z</time>
      </trkpt>
      <trkpt lat="46.51095" lon="-0.75484">
        <ele>44.6</ele>
        <time>2022-06-19T09:44:06Z</time>
      </trkpt>
      <trkpt lat="46.51095" lon="-0.75481">
        <ele>45.2</ele>
        <time>2022-06-19T09:44:11Z</time>
      </trkpt>
      <trkpt lat="46.51096" lon="-0.75479">
        <ele>46.2</ele>
        <time>2022-06-19T09:44:17Z</time>
      </trkpt>
      <trkpt lat="46.51096" lon="-0.75478">
        <ele>46.6</ele>
        <time>2022-06-19T09:44:18Z</time>
      </trkpt>
      <trkpt lat="46.51095" lon="-0.75475">
        <ele>47.4</ele>
        <time>2022-06-19T09:44:23Z</time>
      </trkpt>
      <trkpt lat="46.51093" lon="-0.7547">
        <ele>48.6</ele>
        <time>2022-06-19T09:44:30Z</time>
      </trkpt>
      <trkpt lat="46.51089" lon="-0.75467">
        <ele>49.4</ele>
        <time>2022-06-19T09:44:40Z</time>
      </trkpt>
      <trkpt lat="46.51088" lon="-0.75465">
        <ele>49.4</ele>
        <time>2022-06-19T09:44:42Z</time>
      </trkpt>
      <trkpt lat="46.51085" lon="-0.75464">
        <ele>49.8</ele>
        <time>2022-06-19T09:44:45Z</time>
      </trkpt>
      <trkpt lat="46.51082" lon="-0.75463">
        <ele>50</ele>
        <time>2022-06-19T09:44:47Z</time>
      </trkpt>
      <trkpt lat="46.51079" lon="-0.75463">
        <ele>50.2</ele>
        <time>2022-06-19T09:44:49Z</time>
      </trkpt>
      <trkpt lat="46.5107" lon="-0.75461">
        <ele>50.8</ele>
        <time>2022-06-19T09:44:55Z</time>
      </trkpt>
      <trkpt lat="46.51061" lon="-0.75458">
        <ele>51.4</ele>
        <time>2022-06-19T09:45:00Z</time>
      </trkpt>
      <trkpt lat="46.51053" lon="-0.75456">
        <ele>51.8</ele>
        <time>2022-06-19T09:45:04Z</time>
      </trkpt>
      <trkpt lat="46.51047" lon="-0.75456">
        <ele>52</ele>
        <time>2022-06-19T09:45:07Z</time>
      </trkpt>
      <trkpt lat="46.51038" lon="-0.75455">
        <ele>51.8</ele>
        <time>2022-06-19T09:45:12Z</time>
      </trkpt>
      <trkpt lat="46.51029" lon="-0.7545">
        <ele>53</ele>
        <time>2022-06-19T09:45:17Z</time>
      </trkpt>
      <trkpt lat="46.51028" lon="-0.75449">
        <ele>53.2</ele>
        <time>2022-06-19T09:45:18Z</time>
      </trkpt>
      <trkpt lat="46.51018" lon="-0.75446">
        <ele>54.2</ele>
        <time>2022-06-19T09:45:23Z</time>
      </trkpt>
      <trkpt lat="46.51013" lon="-0.75445">
        <ele>54.4</ele>
        <time>2022-06-19T09:45:25Z</time>
      </trkpt>
      <trkpt lat="46.51004" lon="-0.75437">
        <ele>54.2</ele>
        <time>2022-06-19T09:45:30Z</time>
      </trkpt>
      <trkpt lat="46.50998" lon="-0.7543">
        <ele>53.4</ele>
        <time>2022-06-19T09:45:36Z</time>
      </trkpt>
      <trkpt lat="46.50995" lon="-0.75427">
        <ele>53.2</ele>
        <time>2022-06-19T09:45:39Z</time>
      </trkpt>
      <trkpt lat="46.50994" lon="-0.75426">
        <ele>53</ele>
        <time>2022-06-19T09:45:40Z</time>
      </trkpt>
      <trkpt lat="46.50985" lon="-0.7542">
        <ele>52.6</ele>
        <time>2022-06-19T09:45:44Z</time>
      </trkpt>
      <trkpt lat="46.5098" lon="-0.75418">
        <ele>52</ele>
        <time>2022-06-19T09:45:46Z</time>
      </trkpt>
      <trkpt lat="46.50974" lon="-0.75411">
        <ele>52.2</ele>
        <time>2022-06-19T09:45:50Z</time>
      </trkpt>
      <trkpt lat="46.50968" lon="-0.75403">
        <ele>53.2</ele>
        <time>2022-06-19T09:45:54Z</time>
      </trkpt>
      <trkpt lat="46.50968" lon="-0.75403">
        <ele>53.4</ele>
        <time>2022-06-19T09:45:55Z</time>
      </trkpt>
      <trkpt lat="46.50956" lon="-0.75396">
        <ele>54</ele>
        <time>2022-06-19T09:46:07Z</time>
      </trkpt>
      <trkpt lat="46.50954" lon="-0.75394">
        <ele>54.2</ele>
        <time>2022-06-19T09:46:09Z</time>
      </trkpt>
      <trkpt lat="46.50939" lon="-0.75388">
        <ele>54.8</ele>
        <time>2022-06-19T09:46:19Z</time>
      </trkpt>
      <trkpt lat="46.50933" lon="-0.75384">
        <ele>55.6</ele>
        <time>2022-06-19T09:46:22Z</time>
      </trkpt>
      <trkpt lat="46.50931" lon="-0.75383">
        <ele>56</ele>
        <time>2022-06-19T09:46:23Z</time>
      </trkpt>
      <trkpt lat="46.50929" lon="-0.75382">
        <ele>56.6</ele>
        <time>2022-06-19T09:46:26Z</time>
      </trkpt>
      <trkpt lat="46.50928" lon="-0.75382">
        <ele>56.6</ele>
        <time>2022-06-19T09:46:27Z</time>
      </trkpt>
      <trkpt lat="46.50918" lon="-0.75378">
        <ele>56.6</ele>
        <time>2022-06-19T09:46:33Z</time>
      </trkpt>
      <trkpt lat="46.50907" lon="-0.75371">
        <ele>56.4</ele>
        <time>2022-06-19T09:46:37Z</time>
      </trkpt>
      <trkpt lat="46.50897" lon="-0.75364">
        <ele>58</ele>
        <time>2022-06-19T09:46:44Z</time>
      </trkpt>
      <trkpt lat="46.50893" lon="-0.75358">
        <ele>58.6</ele>
        <time>2022-06-19T09:46:48Z</time>
      </trkpt>
      <trkpt lat="46.50891" lon="-0.75358">
        <ele>58.8</ele>
        <time>2022-06-19T09:46:50Z</time>
      </trkpt>
      <trkpt lat="46.50881" lon="-0.75349">
        <ele>58.8</ele>
        <time>2022-06-19T09:46:57Z</time>
      </trkpt>
      <trkpt lat="46.50878" lon="-0.75345">
        <ele>59</ele>
        <time>2022-06-19T09:47:00Z</time>
      </trkpt>
      <trkpt lat="46.50872" lon="-0.75342">
        <ele>60</ele>
        <time>2022-06-19T09:47:04Z</time>
      </trkpt>
      <trkpt lat="46.50871" lon="-0.75341">
        <ele>60.4</ele>
        <time>2022-06-19T09:47:05Z</time>
      </trkpt>
      <trkpt lat="46.5086" lon="-0.75332">
        <ele>61.2</ele>
        <time>2022-06-19T09:47:12Z</time>
      </trkpt>
      <trkpt lat="46.50848" lon="-0.75317">
        <ele>60.8</ele>
        <time>2022-06-19T09:47:19Z</time>
      </trkpt>
      <trkpt lat="46.50843" lon="-0.75301">
        <ele>60</ele>
        <time>2022-06-19T09:47:25Z</time>
      </trkpt>
      <trkpt lat="46.50838" lon="-0.75293">
        <ele>59.2</ele>
        <time>2022-06-19T09:47:28Z</time>
      </trkpt>
      <trkpt lat="46.50831" lon="-0.75282">
        <ele>59.4</ele>
        <time>2022-06-19T09:47:31Z</time>
      </trkpt>
      <trkpt lat="46.5082" lon="-0.7526">
        <ele>60.2</ele>
        <time>2022-06-19T09:47:37Z</time>
      </trkpt>
      <trkpt lat="46.50818" lon="-0.75257">
        <ele>60.8</ele>
        <time>2022-06-19T09:47:38Z</time>
      </trkpt>
      <trkpt lat="46.50815" lon="-0.75251">
        <ele>61.6</ele>
        <time>2022-06-19T09:47:40Z</time>
      </trkpt>
      <trkpt lat="46.50814" lon="-0.75246">
        <ele>62.4</ele>
        <time>2022-06-19T09:47:42Z</time>
      </trkpt>
      <trkpt lat="46.50813" lon="-0.75243">
        <ele>62.6</ele>
        <time>2022-06-19T09:47:43Z</time>
      </trkpt>
      <trkpt lat="46.50811" lon="-0.75236">
        <ele>62.8</ele>
        <time>2022-06-19T09:47:45Z</time>
      </trkpt>
      <trkpt lat="46.50808" lon="-0.7522">
        <ele>62</ele>
        <time>2022-06-19T09:47:51Z</time>
      </trkpt>
      <trkpt lat="46.50805" lon="-0.75204">
        <ele>61.4</ele>
        <time>2022-06-19T09:47:55Z</time>
      </trkpt>
      <trkpt lat="46.50803" lon="-0.75199">
        <ele>60.6</ele>
        <time>2022-06-19T09:47:57Z</time>
      </trkpt>
      <trkpt lat="46.50802" lon="-0.75197">
        <ele>60.2</ele>
        <time>2022-06-19T09:47:58Z</time>
      </trkpt>
      <trkpt lat="46.50798" lon="-0.75189">
        <ele>58.8</ele>
        <time>2022-06-19T09:48:01Z</time>
      </trkpt>
      <trkpt lat="46.50794" lon="-0.7518">
        <ele>57.4</ele>
        <time>2022-06-19T09:48:03Z</time>
      </trkpt>
      <trkpt lat="46.50792" lon="-0.75176">
        <ele>57.2</ele>
        <time>2022-06-19T09:48:04Z</time>
      </trkpt>
      <trkpt lat="46.50787" lon="-0.75163">
        <ele>58.4</ele>
        <time>2022-06-19T09:48:10Z</time>
      </trkpt>
      <trkpt lat="46.50784" lon="-0.75156">
        <ele>59.6</ele>
        <time>2022-06-19T09:48:12Z</time>
      </trkpt>
      <trkpt lat="46.50777" lon="-0.75144">
        <ele>61</ele>
        <time>2022-06-19T09:48:15Z</time>
      </trkpt>
      <trkpt lat="46.50776" lon="-0.75142">
        <ele>61.2</ele>
        <time>2022-06-19T09:48:16Z</time>
      </trkpt>
      <trkpt lat="46.50776" lon="-0.75139">
        <ele>61.4</ele>
        <time>2022-06-19T09:48:17Z</time>
      </trkpt>
      <trkpt lat="46.50773" lon="-0.75129">
        <ele>62</ele>
        <time>2022-06-19T09:48:20Z</time>
      </trkpt>
      <trkpt lat="46.50771" lon="-0.75123">
        <ele>62.8</ele>
        <time>2022-06-19T09:48:23Z</time>
      </trkpt>
      <trkpt lat="46.5077" lon="-0.7512">
        <ele>63</ele>
        <time>2022-06-19T09:48:25Z</time>
      </trkpt>
      <trkpt lat="46.50769" lon="-0.75114">
        <ele>63.4</ele>
        <time>2022-06-19T09:48:27Z</time>
      </trkpt>
      <trkpt lat="46.50767" lon="-0.75105">
        <ele>63.8</ele>
        <time>2022-06-19T09:48:31Z</time>
      </trkpt>
      <trkpt lat="46.50765" lon="-0.75098">
        <ele>64.2</ele>
        <time>2022-06-19T09:48:34Z</time>
      </trkpt>
      <trkpt lat="46.50761" lon="-0.75089">
        <ele>64.4</ele>
        <time>2022-06-19T09:48:38Z</time>
      </trkpt>
      <trkpt lat="46.50752" lon="-0.75073">
        <ele>65.2</ele>
        <time>2022-06-19T09:48:45Z</time>
      </trkpt>
      <trkpt lat="46.50744" lon="-0.75054">
        <ele>65.6</ele>
        <time>2022-06-19T09:48:53Z</time>
      </trkpt>
      <trkpt lat="46.50737" lon="-0.75041">
        <ele>66.2</ele>
        <time>2022-06-19T09:48:58Z</time>
      </trkpt>
      <trkpt lat="46.50736" lon="-0.75039">
        <ele>66.4</ele>
        <time>2022-06-19T09:48:59Z</time>
      </trkpt>
      <trkpt lat="46.50735" lon="-0.75038">
        <ele>66.4</ele>
        <time>2022-06-19T09:49:00Z</time>
      </trkpt>
      <trkpt lat="46.50722" lon="-0.75023">
        <ele>66.6</ele>
        <time>2022-06-19T09:49:08Z</time>
      </trkpt>
      <trkpt lat="46.50717" lon="-0.75021">
        <ele>66.6</ele>
        <time>2022-06-19T09:49:11Z</time>
      </trkpt>
      <trkpt lat="46.50713" lon="-0.75022">
        <ele>66.6</ele>
        <time>2022-06-19T09:49:14Z</time>
      </trkpt>
      <trkpt lat="46.50702" lon="-0.75027">
        <ele>66.8</ele>
        <time>2022-06-19T09:49:19Z</time>
      </trkpt>
      <trkpt lat="46.50693" lon="-0.75033">
        <ele>66.8</ele>
        <time>2022-06-19T09:49:23Z</time>
      </trkpt>
      <trkpt lat="46.50693" lon="-0.75036">
        <ele>66.8</ele>
        <time>2022-06-19T09:49:24Z</time>
      </trkpt>
      <trkpt lat="46.50692" lon="-0.75051">
        <ele>67.4</ele>
        <time>2022-06-19T09:49:30Z</time>
      </trkpt>
      <trkpt lat="46.50693" lon="-0.75056">
        <ele>67.8</ele>
        <time>2022-06-19T09:49:32Z</time>
      </trkpt>
      <trkpt lat="46.50695" lon="-0.7507">
        <ele>68.6</ele>
        <time>2022-06-19T09:49:38Z</time>
      </trkpt>
      <trkpt lat="46.50694" lon="-0.75078">
        <ele>69.2</ele>
        <time>2022-06-19T09:49:41Z</time>
      </trkpt>
      <trkpt lat="46.50695" lon="-0.75089">
        <ele>69.6</ele>
        <time>2022-06-19T09:49:45Z</time>
      </trkpt>
      <trkpt lat="46.50695" lon="-0.75101">
        <ele>70.2</ele>
        <time>2022-06-19T09:49:49Z</time>
      </trkpt>
      <trkpt lat="46.50693" lon="-0.75123">
        <ele>70.4</ele>
        <time>2022-06-19T09:49:55Z</time>
      </trkpt>
      <trkpt lat="46.50691" lon="-0.75126">
        <ele>70.6</ele>
        <time>2022-06-19T09:49:56Z</time>
      </trkpt>
      <trkpt lat="46.50686" lon="-0.75131">
        <ele>70.6</ele>
        <time>2022-06-19T09:49:58Z</time>
      </trkpt>
      <trkpt lat="46.50674" lon="-0.75138">
        <ele>70.8</ele>
        <time>2022-06-19T09:50:02Z</time>
      </trkpt>
      <trkpt lat="46.50657" lon="-0.75142">
        <ele>71.6</ele>
        <time>2022-06-19T09:50:07Z</time>
      </trkpt>
      <trkpt lat="46.5065" lon="-0.75143">
        <ele>71.8</ele>
        <time>2022-06-19T09:50:09Z</time>
      </trkpt>
      <trkpt lat="46.50636" lon="-0.75139">
        <ele>72</ele>
        <time>2022-06-19T09:50:14Z</time>
      </trkpt>
      <trkpt lat="46.5062" lon="-0.75133">
        <ele>72</ele>
        <time>2022-06-19T09:50:19Z</time>
      </trkpt>
      <trkpt lat="46.50594" lon="-0.75133">
        <ele>72.6</ele>
        <time>2022-06-19T09:50:26Z</time>
      </trkpt>
      <trkpt lat="46.50587" lon="-0.75134">
        <ele>73</ele>
        <time>2022-06-19T09:50:28Z</time>
      </trkpt>
      <trkpt lat="46.50573" lon="-0.75133">
        <ele>72.8</ele>
        <time>2022-06-19T09:50:32Z</time>
      </trkpt>
      <trkpt lat="46.50555" lon="-0.75124">
        <ele>72.6</ele>
        <time>2022-06-19T09:50:37Z</time>
      </trkpt>
      <trkpt lat="46.50536" lon="-0.75124">
        <ele>72.6</ele>
        <time>2022-06-19T09:50:42Z</time>
      </trkpt>
      <trkpt lat="46.50516" lon="-0.75126">
        <ele>72.8</ele>
        <time>2022-06-19T09:50:47Z</time>
      </trkpt>
      <trkpt lat="46.50512" lon="-0.75126">
        <ele>72.8</ele>
        <time>2022-06-19T09:50:48Z</time>
      </trkpt>
      <trkpt lat="46.50504" lon="-0.75123">
        <ele>72.2</ele>
        <time>2022-06-19T09:50:50Z</time>
      </trkpt>
      <trkpt lat="46.50496" lon="-0.75118">
        <ele>71.8</ele>
        <time>2022-06-19T09:50:52Z</time>
      </trkpt>
      <trkpt lat="46.50492" lon="-0.75114">
        <ele>71.8</ele>
        <time>2022-06-19T09:50:53Z</time>
      </trkpt>
      <trkpt lat="46.50483" lon="-0.75109">
        <ele>71.4</ele>
        <time>2022-06-19T09:50:55Z</time>
      </trkpt>
      <trkpt lat="46.50466" lon="-0.75099">
        <ele>70.8</ele>
        <time>2022-06-19T09:50:58Z</time>
      </trkpt>
      <trkpt lat="46.50453" lon="-0.75089">
        <ele>69.8</ele>
        <time>2022-06-19T09:51:00Z</time>
      </trkpt>
      <trkpt lat="46.5044" lon="-0.75079">
        <ele>68.8</ele>
        <time>2022-06-19T09:51:02Z</time>
      </trkpt>
      <trkpt lat="46.50432" lon="-0.75074">
        <ele>68.4</ele>
        <time>2022-06-19T09:51:03Z</time>
      </trkpt>
      <trkpt lat="46.50425" lon="-0.75069">
        <ele>67.2</ele>
        <time>2022-06-19T09:51:04Z</time>
      </trkpt>
      <trkpt lat="46.50418" lon="-0.75064">
        <ele>66.6</ele>
        <time>2022-06-19T09:51:05Z</time>
      </trkpt>
      <trkpt lat="46.50411" lon="-0.7505">
        <ele>65.2</ele>
        <time>2022-06-19T09:51:06Z</time>
      </trkpt>
      <trkpt lat="46.50404" lon="-0.75032">
        <ele>64</ele>
        <time>2022-06-19T09:51:09Z</time>
      </trkpt>
      <trkpt lat="46.50397" lon="-0.75013">
        <ele>62.8</ele>
        <time>2022-06-19T09:51:11Z</time>
      </trkpt>
      <trkpt lat="46.50394" lon="-0.75004">
        <ele>62</ele>
        <time>2022-06-19T09:51:12Z</time>
      </trkpt>
      <trkpt lat="46.5039" lon="-0.74996">
        <ele>61.2</ele>
        <time>2022-06-19T09:51:13Z</time>
      </trkpt>
      <trkpt lat="46.50382" lon="-0.74983">
        <ele>60</ele>
        <time>2022-06-19T09:51:15Z</time>
      </trkpt>
      <trkpt lat="46.50378" lon="-0.74977">
        <ele>59.4</ele>
        <time>2022-06-19T09:51:16Z</time>
      </trkpt>
      <trkpt lat="46.50373" lon="-0.7497">
        <ele>58.8</ele>
        <time>2022-06-19T09:51:17Z</time>
      </trkpt>
      <trkpt lat="46.50358" lon="-0.7495">
        <ele>57.6</ele>
        <time>2022-06-19T09:51:20Z</time>
      </trkpt>
      <trkpt lat="46.50353" lon="-0.74945">
        <ele>57</ele>
        <time>2022-06-19T09:51:21Z</time>
      </trkpt>
      <trkpt lat="46.50348" lon="-0.74941">
        <ele>56.6</ele>
        <time>2022-06-19T09:51:22Z</time>
      </trkpt>
      <trkpt lat="46.50343" lon="-0.74937">
        <ele>55.8</ele>
        <time>2022-06-19T09:51:23Z</time>
      </trkpt>
      <trkpt lat="46.50339" lon="-0.74933">
        <ele>54.6</ele>
        <time>2022-06-19T09:51:24Z</time>
      </trkpt>
      <trkpt lat="46.50335" lon="-0.74929">
        <ele>53.2</ele>
        <time>2022-06-19T09:51:25Z</time>
      </trkpt>
      <trkpt lat="46.50331" lon="-0.74925">
        <ele>52</ele>
        <time>2022-06-19T09:51:26Z</time>
      </trkpt>
      <trkpt lat="46.50325" lon="-0.7492">
        <ele>50.6</ele>
        <time>2022-06-19T09:51:28Z</time>
      </trkpt>
      <trkpt lat="46.5032" lon="-0.7492">
        <ele>49.2</ele>
        <time>2022-06-19T09:51:30Z</time>
      </trkpt>
      <trkpt lat="46.50318" lon="-0.74921">
        <ele>48</ele>
        <time>2022-06-19T09:51:31Z</time>
      </trkpt>
      <trkpt lat="46.50313" lon="-0.74924">
        <ele>46</ele>
        <time>2022-06-19T09:51:33Z</time>
      </trkpt>
      <trkpt lat="46.50309" lon="-0.74926">
        <ele>45.2</ele>
        <time>2022-06-19T09:51:34Z</time>
      </trkpt>
      <trkpt lat="46.50305" lon="-0.74928">
        <ele>44.6</ele>
        <time>2022-06-19T09:51:35Z</time>
      </trkpt>
      <trkpt lat="46.50298" lon="-0.7493">
        <ele>43</ele>
        <time>2022-06-19T09:51:37Z</time>
      </trkpt>
      <trkpt lat="46.50291" lon="-0.74933">
        <ele>41.2</ele>
        <time>2022-06-19T09:51:39Z</time>
      </trkpt>
      <trkpt lat="46.50287" lon="-0.74933">
        <ele>40.6</ele>
        <time>2022-06-19T09:51:40Z</time>
      </trkpt>
      <trkpt lat="46.50283" lon="-0.74934">
        <ele>40.4</ele>
        <time>2022-06-19T09:51:41Z</time>
      </trkpt>
      <trkpt lat="46.50278" lon="-0.74936">
        <ele>39.8</ele>
        <time>2022-06-19T09:51:42Z</time>
      </trkpt>
      <trkpt lat="46.50274" lon="-0.74938">
        <ele>38.6</ele>
        <time>2022-06-19T09:51:43Z</time>
      </trkpt>
      <trkpt lat="46.50271" lon="-0.74941">
        <ele>38</ele>
        <time>2022-06-19T09:51:44Z</time>
      </trkpt>
      <trkpt lat="46.50267" lon="-0.74945">
        <ele>37</ele>
        <time>2022-06-19T09:51:45Z</time>
      </trkpt>
      <trkpt lat="46.50259" lon="-0.74945">
        <ele>35.2</ele>
        <time>2022-06-19T09:51:47Z</time>
      </trkpt>
      <trkpt lat="46.50256" lon="-0.74944">
        <ele>34.4</ele>
        <time>2022-06-19T09:51:48Z</time>
      </trkpt>
      <trkpt lat="46.50254" lon="-0.74941">
        <ele>34</ele>
        <time>2022-06-19T09:51:49Z</time>
      </trkpt>
      <trkpt lat="46.50248" lon="-0.7493">
        <ele>32.6</ele>
        <time>2022-06-19T09:51:52Z</time>
      </trkpt>
      <trkpt lat="46.50244" lon="-0.74922">
        <ele>31</ele>
        <time>2022-06-19T09:51:54Z</time>
      </trkpt>
      <trkpt lat="46.50244" lon="-0.74913">
        <ele>30.4</ele>
        <time>2022-06-19T09:51:56Z</time>
      </trkpt>
      <trkpt lat="46.50244" lon="-0.7491">
        <ele>30.2</ele>
        <time>2022-06-19T09:51:57Z</time>
      </trkpt>
      <trkpt lat="46.50245" lon="-0.74906">
        <ele>30.2</ele>
        <time>2022-06-19T09:51:58Z</time>
      </trkpt>
      <trkpt lat="46.50247" lon="-0.7489">
        <ele>30.4</ele>
        <time>2022-06-19T09:52:02Z</time>
      </trkpt>
      <trkpt lat="46.50253" lon="-0.74862">
        <ele>30.2</ele>
        <time>2022-06-19T09:52:07Z</time>
      </trkpt>
      <trkpt lat="46.50255" lon="-0.74854">
        <ele>29.8</ele>
        <time>2022-06-19T09:52:08Z</time>
      </trkpt>
      <trkpt lat="46.50264" lon="-0.74821">
        <ele>29.2</ele>
        <time>2022-06-19T09:52:12Z</time>
      </trkpt>
      <trkpt lat="46.50269" lon="-0.74803">
        <ele>28.6</ele>
        <time>2022-06-19T09:52:14Z</time>
      </trkpt>
      <trkpt lat="46.50281" lon="-0.74767">
        <ele>27.8</ele>
        <time>2022-06-19T09:52:18Z</time>
      </trkpt>
      <trkpt lat="46.50284" lon="-0.74758">
        <ele>27.6</ele>
        <time>2022-06-19T09:52:19Z</time>
      </trkpt>
      <trkpt lat="46.50303" lon="-0.74716">
        <ele>26.6</ele>
        <time>2022-06-19T09:52:24Z</time>
      </trkpt>
      <trkpt lat="46.50308" lon="-0.74708">
        <ele>26.2</ele>
        <time>2022-06-19T09:52:25Z</time>
      </trkpt>
      <trkpt lat="46.50331" lon="-0.74683">
        <ele>25.2</ele>
        <time>2022-06-19T09:52:29Z</time>
      </trkpt>
      <trkpt lat="46.50337" lon="-0.74678">
        <ele>25</ele>
        <time>2022-06-19T09:52:30Z</time>
      </trkpt>
      <trkpt lat="46.50361" lon="-0.74662">
        <ele>24.6</ele>
        <time>2022-06-19T09:52:34Z</time>
      </trkpt>
      <trkpt lat="46.50393" lon="-0.74644">
        <ele>24.2</ele>
        <time>2022-06-19T09:52:41Z</time>
      </trkpt>
      <trkpt lat="46.50401" lon="-0.74644">
        <ele>24.2</ele>
        <time>2022-06-19T09:52:43Z</time>
      </trkpt>
      <trkpt lat="46.50409" lon="-0.74649">
        <ele>24.2</ele>
        <time>2022-06-19T09:52:45Z</time>
      </trkpt>
      <trkpt lat="46.50415" lon="-0.74658">
        <ele>24.2</ele>
        <time>2022-06-19T09:52:47Z</time>
      </trkpt>
      <trkpt lat="46.5042" lon="-0.74668">
        <ele>24.4</ele>
        <time>2022-06-19T09:52:49Z</time>
      </trkpt>
      <trkpt lat="46.50423" lon="-0.74679">
        <ele>24.8</ele>
        <time>2022-06-19T09:52:51Z</time>
      </trkpt>
      <trkpt lat="46.50432" lon="-0.74706">
        <ele>25</ele>
        <time>2022-06-19T09:52:56Z</time>
      </trkpt>
      <trkpt lat="46.50444" lon="-0.74729">
        <ele>25.6</ele>
        <time>2022-06-19T09:53:01Z</time>
      </trkpt>
      <trkpt lat="46.50448" lon="-0.74736">
        <ele>25.6</ele>
        <time>2022-06-19T09:53:03Z</time>
      </trkpt>
      <trkpt lat="46.50455" lon="-0.74745">
        <ele>26.2</ele>
        <time>2022-06-19T09:53:06Z</time>
      </trkpt>
      <trkpt lat="46.50464" lon="-0.74757">
        <ele>26.8</ele>
        <time>2022-06-19T09:53:10Z</time>
      </trkpt>
      <trkpt lat="46.50468" lon="-0.74763">
        <ele>27.2</ele>
        <time>2022-06-19T09:53:12Z</time>
      </trkpt>
      <trkpt lat="46.5048" lon="-0.74773">
        <ele>28.4</ele>
        <time>2022-06-19T09:53:17Z</time>
      </trkpt>
      <trkpt lat="46.50482" lon="-0.74774">
        <ele>28.4</ele>
        <time>2022-06-19T09:53:18Z</time>
      </trkpt>
      <trkpt lat="46.50494" lon="-0.74783">
        <ele>29.4</ele>
        <time>2022-06-19T09:53:23Z</time>
      </trkpt>
      <trkpt lat="46.50515" lon="-0.74795">
        <ele>30.4</ele>
        <time>2022-06-19T09:53:30Z</time>
      </trkpt>
      <trkpt lat="46.50519" lon="-0.74795">
        <ele>30.6</ele>
        <time>2022-06-19T09:53:31Z</time>
      </trkpt>
      <trkpt lat="46.50534" lon="-0.74798">
        <ele>31.6</ele>
        <time>2022-06-19T09:53:36Z</time>
      </trkpt>
      <trkpt lat="46.50537" lon="-0.74798">
        <ele>31.8</ele>
        <time>2022-06-19T09:53:37Z</time>
      </trkpt>
      <trkpt lat="46.5055" lon="-0.74802">
        <ele>32.4</ele>
        <time>2022-06-19T09:53:42Z</time>
      </trkpt>
      <trkpt lat="46.50558" lon="-0.74801">
        <ele>32.8</ele>
        <time>2022-06-19T09:53:45Z</time>
      </trkpt>
      <trkpt lat="46.50567" lon="-0.74799">
        <ele>33.4</ele>
        <time>2022-06-19T09:53:49Z</time>
      </trkpt>
      <trkpt lat="46.50575" lon="-0.74797">
        <ele>34</ele>
        <time>2022-06-19T09:53:52Z</time>
      </trkpt>
      <trkpt lat="46.50583" lon="-0.74795">
        <ele>34.6</ele>
        <time>2022-06-19T09:53:55Z</time>
      </trkpt>
      <trkpt lat="46.50595" lon="-0.74792">
        <ele>35.2</ele>
        <time>2022-06-19T09:53:59Z</time>
      </trkpt>
      <trkpt lat="46.50609" lon="-0.7479">
        <ele>36</ele>
        <time>2022-06-19T09:54:04Z</time>
      </trkpt>
      <trkpt lat="46.50612" lon="-0.74789">
        <ele>36.2</ele>
        <time>2022-06-19T09:54:05Z</time>
      </trkpt>
      <trkpt lat="46.5063" lon="-0.74783">
        <ele>37</ele>
        <time>2022-06-19T09:54:12Z</time>
      </trkpt>
      <trkpt lat="46.50633" lon="-0.74782">
        <ele>37.2</ele>
        <time>2022-06-19T09:54:13Z</time>
      </trkpt>
      <trkpt lat="46.50643" lon="-0.74776">
        <ele>38</ele>
        <time>2022-06-19T09:54:18Z</time>
      </trkpt>
      <trkpt lat="46.50648" lon="-0.74774">
        <ele>38.6</ele>
        <time>2022-06-19T09:54:20Z</time>
      </trkpt>
      <trkpt lat="46.50664" lon="-0.74763">
        <ele>39.2</ele>
        <time>2022-06-19T09:54:27Z</time>
      </trkpt>
      <trkpt lat="46.50671" lon="-0.74758">
        <ele>39.6</ele>
        <time>2022-06-19T09:54:30Z</time>
      </trkpt>
      <trkpt lat="46.50677" lon="-0.74749">
        <ele>39.8</ele>
        <time>2022-06-19T09:54:34Z</time>
      </trkpt>
      <trkpt lat="46.50693" lon="-0.74733">
        <ele>40.8</ele>
        <time>2022-06-19T09:54:41Z</time>
      </trkpt>
      <trkpt lat="46.50705" lon="-0.74712">
        <ele>41.8</ele>
        <time>2022-06-19T09:54:49Z</time>
      </trkpt>
      <trkpt lat="46.50716" lon="-0.7469">
        <ele>43</ele>
        <time>2022-06-19T09:54:56Z</time>
      </trkpt>
      <trkpt lat="46.50726" lon="-0.74672">
        <ele>44.2</ele>
        <time>2022-06-19T09:55:02Z</time>
      </trkpt>
      <trkpt lat="46.50729" lon="-0.74661">
        <ele>45.4</ele>
        <time>2022-06-19T09:55:08Z</time>
      </trkpt>
      <trkpt lat="46.5073" lon="-0.74652">
        <ele>45.8</ele>
        <time>2022-06-19T09:55:11Z</time>
      </trkpt>
      <trkpt lat="46.50732" lon="-0.74642">
        <ele>46.4</ele>
        <time>2022-06-19T09:55:15Z</time>
      </trkpt>
      <trkpt lat="46.50734" lon="-0.74633">
        <ele>47</ele>
        <time>2022-06-19T09:55:18Z</time>
      </trkpt>
      <trkpt lat="46.50736" lon="-0.74625">
        <ele>47.6</ele>
        <time>2022-06-19T09:55:21Z</time>
      </trkpt>
      <trkpt lat="46.50741" lon="-0.74615">
        <ele>48.4</ele>
        <time>2022-06-19T09:55:25Z</time>
      </trkpt>
      <trkpt lat="46.50744" lon="-0.74609">
        <ele>48.6</ele>
        <time>2022-06-19T09:55:28Z</time>
      </trkpt>
      <trkpt lat="46.50749" lon="-0.74603">
        <ele>49</ele>
        <time>2022-06-19T09:55:31Z</time>
      </trkpt>
      <trkpt lat="46.5076" lon="-0.74599">
        <ele>49.6</ele>
        <time>2022-06-19T09:55:37Z</time>
      </trkpt>
      <trkpt lat="46.50761" lon="-0.74599">
        <ele>49.8</ele>
        <time>2022-06-19T09:55:38Z</time>
      </trkpt>
      <trkpt lat="46.50776" lon="-0.74603">
        <ele>50.4</ele>
        <time>2022-06-19T09:55:44Z</time>
      </trkpt>
      <trkpt lat="46.50783" lon="-0.74607">
        <ele>50.8</ele>
        <time>2022-06-19T09:55:48Z</time>
      </trkpt>
      <trkpt lat="46.50789" lon="-0.74611">
        <ele>51</ele>
        <time>2022-06-19T09:55:51Z</time>
      </trkpt>
      <trkpt lat="46.50799" lon="-0.74617">
        <ele>51.8</ele>
        <time>2022-06-19T09:55:56Z</time>
      </trkpt>
      <trkpt lat="46.50812" lon="-0.74619">
        <ele>52.6</ele>
        <time>2022-06-19T09:56:02Z</time>
      </trkpt>
      <trkpt lat="46.50819" lon="-0.74618">
        <ele>53</ele>
        <time>2022-06-19T09:56:05Z</time>
      </trkpt>
      <trkpt lat="46.50828" lon="-0.74615">
        <ele>53.4</ele>
        <time>2022-06-19T09:56:09Z</time>
      </trkpt>
      <trkpt lat="46.50839" lon="-0.74607">
        <ele>54.2</ele>
        <time>2022-06-19T09:56:15Z</time>
      </trkpt>
      <trkpt lat="46.50842" lon="-0.74604">
        <ele>54.6</ele>
        <time>2022-06-19T09:56:17Z</time>
      </trkpt>
      <trkpt lat="46.50849" lon="-0.74596">
        <ele>55.2</ele>
        <time>2022-06-19T09:56:21Z</time>
      </trkpt>
      <trkpt lat="46.50853" lon="-0.74588">
        <ele>55.8</ele>
        <time>2022-06-19T09:56:24Z</time>
      </trkpt>
      <trkpt lat="46.50855" lon="-0.74583">
        <ele>56.4</ele>
        <time>2022-06-19T09:56:26Z</time>
      </trkpt>
      <trkpt lat="46.50865" lon="-0.74566">
        <ele>57.2</ele>
        <time>2022-06-19T09:56:34Z</time>
      </trkpt>
      <trkpt lat="46.50866" lon="-0.74565">
        <ele>57.6</ele>
        <time>2022-06-19T09:56:35Z</time>
      </trkpt>
      <trkpt lat="46.50875" lon="-0.74555">
        <ele>58.4</ele>
        <time>2022-06-19T09:56:42Z</time>
      </trkpt>
      <trkpt lat="46.50877" lon="-0.74554">
        <ele>58.6</ele>
        <time>2022-06-19T09:56:43Z</time>
      </trkpt>
      <trkpt lat="46.50888" lon="-0.74552">
        <ele>59.2</ele>
        <time>2022-06-19T09:56:48Z</time>
      </trkpt>
      <trkpt lat="46.50892" lon="-0.74552">
        <ele>59.6</ele>
        <time>2022-06-19T09:56:50Z</time>
      </trkpt>
      <trkpt lat="46.50893" lon="-0.74553">
        <ele>59.6</ele>
        <time>2022-06-19T09:56:51Z</time>
      </trkpt>
      <trkpt lat="46.50898" lon="-0.74558">
        <ele>60</ele>
        <time>2022-06-19T09:56:54Z</time>
      </trkpt>
      <trkpt lat="46.50905" lon="-0.74565">
        <ele>60.8</ele>
        <time>2022-06-19T09:56:58Z</time>
      </trkpt>
      <trkpt lat="46.50912" lon="-0.74576">
        <ele>61.2</ele>
        <time>2022-06-19T09:57:02Z</time>
      </trkpt>
      <trkpt lat="46.50924" lon="-0.74593">
        <ele>62</ele>
        <time>2022-06-19T09:57:09Z</time>
      </trkpt>
      <trkpt lat="46.50938" lon="-0.74605">
        <ele>63.2</ele>
        <time>2022-06-19T09:57:15Z</time>
      </trkpt>
      <trkpt lat="46.50943" lon="-0.74608">
        <ele>63.6</ele>
        <time>2022-06-19T09:57:17Z</time>
      </trkpt>
      <trkpt lat="46.50952" lon="-0.7462">
        <ele>63.8</ele>
        <time>2022-06-19T09:57:21Z</time>
      </trkpt>
      <trkpt lat="46.50958" lon="-0.74642">
        <ele>63</ele>
        <time>2022-06-19T09:57:25Z</time>
      </trkpt>
      <trkpt lat="46.50959" lon="-0.74649">
        <ele>62.8</ele>
        <time>2022-06-19T09:57:26Z</time>
      </trkpt>
      <trkpt lat="46.50962" lon="-0.74655">
        <ele>61.8</ele>
        <time>2022-06-19T09:57:27Z</time>
      </trkpt>
      <trkpt lat="46.50968" lon="-0.74669">
        <ele>60.6</ele>
        <time>2022-06-19T09:57:29Z</time>
      </trkpt>
      <trkpt lat="46.50972" lon="-0.74677">
        <ele>60.2</ele>
        <time>2022-06-19T09:57:30Z</time>
      </trkpt>
      <trkpt lat="46.50975" lon="-0.74685">
        <ele>59.6</ele>
        <time>2022-06-19T09:57:31Z</time>
      </trkpt>
      <trkpt lat="46.50984" lon="-0.74705">
        <ele>58.8</ele>
        <time>2022-06-19T09:57:34Z</time>
      </trkpt>
      <trkpt lat="46.50987" lon="-0.74711">
        <ele>58.8</ele>
        <time>2022-06-19T09:57:35Z</time>
      </trkpt>
      <trkpt lat="46.51009" lon="-0.7474">
        <ele>59</ele>
        <time>2022-06-19T09:57:41Z</time>
      </trkpt>
      <trkpt lat="46.51024" lon="-0.74762">
        <ele>60.2</ele>
        <time>2022-06-19T09:57:47Z</time>
      </trkpt>
      <trkpt lat="46.51028" lon="-0.74771">
        <ele>60.6</ele>
        <time>2022-06-19T09:57:49Z</time>
      </trkpt>
      <trkpt lat="46.51032" lon="-0.74785">
        <ele>60.8</ele>
        <time>2022-06-19T09:57:52Z</time>
      </trkpt>
      <trkpt lat="46.51034" lon="-0.74796">
        <ele>60.6</ele>
        <time>2022-06-19T09:57:54Z</time>
      </trkpt>
      <trkpt lat="46.51037" lon="-0.74806">
        <ele>60.4</ele>
        <time>2022-06-19T09:57:56Z</time>
      </trkpt>
      <trkpt lat="46.51039" lon="-0.74812">
        <ele>60.4</ele>
        <time>2022-06-19T09:57:57Z</time>
      </trkpt>
      <trkpt lat="46.51051" lon="-0.74839">
        <ele>60</ele>
        <time>2022-06-19T09:58:03Z</time>
      </trkpt>
      <trkpt lat="46.51053" lon="-0.7485">
        <ele>60</ele>
        <time>2022-06-19T09:58:05Z</time>
      </trkpt>
      <trkpt lat="46.51059" lon="-0.74871">
        <ele>60.4</ele>
        <time>2022-06-19T09:58:09Z</time>
      </trkpt>
      <trkpt lat="46.51072" lon="-0.74892">
        <ele>61</ele>
        <time>2022-06-19T09:58:14Z</time>
      </trkpt>
      <trkpt lat="46.51078" lon="-0.74901">
        <ele>61.2</ele>
        <time>2022-06-19T09:58:16Z</time>
      </trkpt>
      <trkpt lat="46.51089" lon="-0.74931">
        <ele>61</ele>
        <time>2022-06-19T09:58:21Z</time>
      </trkpt>
      <trkpt lat="46.51092" lon="-0.74934">
        <ele>61.2</ele>
        <time>2022-06-19T09:58:22Z</time>
      </trkpt>
      <trkpt lat="46.51099" lon="-0.74937">
        <ele>61.2</ele>
        <time>2022-06-19T09:58:24Z</time>
      </trkpt>
      <trkpt lat="46.51106" lon="-0.74936">
        <ele>61.4</ele>
        <time>2022-06-19T09:58:26Z</time>
      </trkpt>
      <trkpt lat="46.51113" lon="-0.74934">
        <ele>61.6</ele>
        <time>2022-06-19T09:58:28Z</time>
      </trkpt>
      <trkpt lat="46.51119" lon="-0.74931">
        <ele>62.2</ele>
        <time>2022-06-19T09:58:30Z</time>
      </trkpt>
      <trkpt lat="46.51125" lon="-0.74929">
        <ele>62.6</ele>
        <time>2022-06-19T09:58:32Z</time>
      </trkpt>
      <trkpt lat="46.51127" lon="-0.74928">
        <ele>62.8</ele>
        <time>2022-06-19T09:58:33Z</time>
      </trkpt>
      <trkpt lat="46.51141" lon="-0.74922">
        <ele>62.6</ele>
        <time>2022-06-19T09:58:38Z</time>
      </trkpt>
      <trkpt lat="46.51144" lon="-0.74921">
        <ele>62.6</ele>
        <time>2022-06-19T09:58:39Z</time>
      </trkpt>
      <trkpt lat="46.51153" lon="-0.74922">
        <ele>62.4</ele>
        <time>2022-06-19T09:58:40Z</time>
      </trkpt>
      <trkpt lat="46.5117" lon="-0.74923">
        <ele>62.4</ele>
        <time>2022-06-19T09:58:44Z</time>
      </trkpt>
      <trkpt lat="46.51191" lon="-0.7492">
        <ele>62</ele>
        <time>2022-06-19T09:58:48Z</time>
      </trkpt>
      <trkpt lat="46.512" lon="-0.74915">
        <ele>62</ele>
        <time>2022-06-19T09:58:50Z</time>
      </trkpt>
      <trkpt lat="46.51208" lon="-0.7491">
        <ele>61.6</ele>
        <time>2022-06-19T09:58:52Z</time>
      </trkpt>
      <trkpt lat="46.51222" lon="-0.74901">
        <ele>61.4</ele>
        <time>2022-06-19T09:58:56Z</time>
      </trkpt>
      <trkpt lat="46.51225" lon="-0.74898">
        <ele>61.6</ele>
        <time>2022-06-19T09:58:57Z</time>
      </trkpt>
      <trkpt lat="46.51235" lon="-0.74888">
        <ele>62.2</ele>
        <time>2022-06-19T09:59:00Z</time>
      </trkpt>
      <trkpt lat="46.51242" lon="-0.74882">
        <ele>62.6</ele>
        <time>2022-06-19T09:59:02Z</time>
      </trkpt>
      <trkpt lat="46.51245" lon="-0.74878">
        <ele>62.8</ele>
        <time>2022-06-19T09:59:03Z</time>
      </trkpt>
      <trkpt lat="46.51271" lon="-0.74855">
        <ele>63.8</ele>
        <time>2022-06-19T09:59:11Z</time>
      </trkpt>
      <trkpt lat="46.51294" lon="-0.74843">
        <ele>64</ele>
        <time>2022-06-19T09:59:17Z</time>
      </trkpt>
      <trkpt lat="46.51321" lon="-0.74828">
        <ele>63</ele>
        <time>2022-06-19T09:59:23Z</time>
      </trkpt>
      <trkpt lat="46.51327" lon="-0.74825">
        <ele>62.6</ele>
        <time>2022-06-19T09:59:24Z</time>
      </trkpt>
      <trkpt lat="46.51332" lon="-0.7482">
        <ele>62.4</ele>
        <time>2022-06-19T09:59:25Z</time>
      </trkpt>
      <trkpt lat="46.5134" lon="-0.74811">
        <ele>62</ele>
        <time>2022-06-19T09:59:27Z</time>
      </trkpt>
      <trkpt lat="46.51344" lon="-0.74804">
        <ele>62</ele>
        <time>2022-06-19T09:59:28Z</time>
      </trkpt>
      <trkpt lat="46.51352" lon="-0.74792">
        <ele>61.6</ele>
        <time>2022-06-19T09:59:30Z</time>
      </trkpt>
      <trkpt lat="46.51358" lon="-0.7478">
        <ele>61.4</ele>
        <time>2022-06-19T09:59:32Z</time>
      </trkpt>
      <trkpt lat="46.51378" lon="-0.74746">
        <ele>62</ele>
        <time>2022-06-19T09:59:38Z</time>
      </trkpt>
      <trkpt lat="46.51392" lon="-0.74722">
        <ele>62.8</ele>
        <time>2022-06-19T09:59:43Z</time>
      </trkpt>
      <trkpt lat="46.51397" lon="-0.74714">
        <ele>63.2</ele>
        <time>2022-06-19T09:59:45Z</time>
      </trkpt>
      <trkpt lat="46.51409" lon="-0.74688">
        <ele>64</ele>
        <time>2022-06-19T09:59:52Z</time>
      </trkpt>
      <trkpt lat="46.51412" lon="-0.74661">
        <ele>64.8</ele>
        <time>2022-06-19T09:59:59Z</time>
      </trkpt>
      <trkpt lat="46.51413" lon="-0.74658">
        <ele>65</ele>
        <time>2022-06-19T10:00:00Z</time>
      </trkpt>
      <trkpt lat="46.51415" lon="-0.7464">
        <ele>66.2</ele>
        <time>2022-06-19T10:00:05Z</time>
      </trkpt>
      <trkpt lat="46.51418" lon="-0.74631">
        <ele>67</ele>
        <time>2022-06-19T10:00:08Z</time>
      </trkpt>
      <trkpt lat="46.51419" lon="-0.74628">
        <ele>67.4</ele>
        <time>2022-06-19T10:00:09Z</time>
      </trkpt>
      <trkpt lat="46.51424" lon="-0.74609">
        <ele>68.4</ele>
        <time>2022-06-19T10:00:15Z</time>
      </trkpt>
      <trkpt lat="46.51427" lon="-0.746">
        <ele>69.4</ele>
        <time>2022-06-19T10:00:18Z</time>
      </trkpt>
      <trkpt lat="46.51428" lon="-0.74597">
        <ele>69.8</ele>
        <time>2022-06-19T10:00:19Z</time>
      </trkpt>
      <trkpt lat="46.51432" lon="-0.74586">
        <ele>71</ele>
        <time>2022-06-19T10:00:24Z</time>
      </trkpt>
      <trkpt lat="46.51434" lon="-0.74584">
        <ele>71.2</ele>
        <time>2022-06-19T10:00:25Z</time>
      </trkpt>
      <trkpt lat="46.51448" lon="-0.7457">
        <ele>71.6</ele>
        <time>2022-06-19T10:00:32Z</time>
      </trkpt>
      <trkpt lat="46.51453" lon="-0.74564">
        <ele>72</ele>
        <time>2022-06-19T10:00:35Z</time>
      </trkpt>
      <trkpt lat="46.51458" lon="-0.74556">
        <ele>72.4</ele>
        <time>2022-06-19T10:00:38Z</time>
      </trkpt>
      <trkpt lat="46.51469" lon="-0.74539">
        <ele>72.8</ele>
        <time>2022-06-19T10:00:45Z</time>
      </trkpt>
      <trkpt lat="46.51474" lon="-0.74529">
        <ele>73</ele>
        <time>2022-06-19T10:00:49Z</time>
      </trkpt>
      <trkpt lat="46.51478" lon="-0.74521">
        <ele>73.2</ele>
        <time>2022-06-19T10:00:52Z</time>
      </trkpt>
      <trkpt lat="46.51486" lon="-0.74511">
        <ele>74.2</ele>
        <time>2022-06-19T10:00:57Z</time>
      </trkpt>
      <trkpt lat="46.5149" lon="-0.74504">
        <ele>74.4</ele>
        <time>2022-06-19T10:01:00Z</time>
      </trkpt>
      <trkpt lat="46.51493" lon="-0.74501">
        <ele>74.6</ele>
        <time>2022-06-19T10:01:02Z</time>
      </trkpt>
      <trkpt lat="46.51497" lon="-0.74496">
        <ele>75.2</ele>
        <time>2022-06-19T10:01:05Z</time>
      </trkpt>
      <trkpt lat="46.51499" lon="-0.74494">
        <ele>75.4</ele>
        <time>2022-06-19T10:01:06Z</time>
      </trkpt>
      <trkpt lat="46.51509" lon="-0.74481">
        <ele>76.2</ele>
        <time>2022-06-19T10:01:14Z</time>
      </trkpt>
      <trkpt lat="46.51521" lon="-0.74468">
        <ele>77.2</ele>
        <time>2022-06-19T10:01:20Z</time>
      </trkpt>
      <trkpt lat="46.51523" lon="-0.74465">
        <ele>77.4</ele>
        <time>2022-06-19T10:01:21Z</time>
      </trkpt>
      <trkpt lat="46.51536" lon="-0.74447">
        <ele>78</ele>
        <time>2022-06-19T10:01:28Z</time>
      </trkpt>
      <trkpt lat="46.51544" lon="-0.74435">
        <ele>78.6</ele>
        <time>2022-06-19T10:01:33Z</time>
      </trkpt>
      <trkpt lat="46.51547" lon="-0.7443">
        <ele>78.8</ele>
        <time>2022-06-19T10:01:35Z</time>
      </trkpt>
      <trkpt lat="46.51562" lon="-0.74409">
        <ele>79.2</ele>
        <time>2022-06-19T10:01:43Z</time>
      </trkpt>
      <trkpt lat="46.51574" lon="-0.74393">
        <ele>79.2</ele>
        <time>2022-06-19T10:01:50Z</time>
      </trkpt>
      <trkpt lat="46.51586" lon="-0.74378">
        <ele>79.6</ele>
        <time>2022-06-19T10:01:56Z</time>
      </trkpt>
      <trkpt lat="46.51591" lon="-0.74372">
        <ele>79.8</ele>
        <time>2022-06-19T10:01:59Z</time>
      </trkpt>
      <trkpt lat="46.51605" lon="-0.74356">
        <ele>80.6</ele>
        <time>2022-06-19T10:02:07Z</time>
      </trkpt>
      <trkpt lat="46.51618" lon="-0.74339">
        <ele>81</ele>
        <time>2022-06-19T10:02:15Z</time>
      </trkpt>
      <trkpt lat="46.51629" lon="-0.74325">
        <ele>81.6</ele>
        <time>2022-06-19T10:02:22Z</time>
      </trkpt>
      <trkpt lat="46.51631" lon="-0.74322">
        <ele>81.6</ele>
        <time>2022-06-19T10:02:23Z</time>
      </trkpt>
      <trkpt lat="46.51641" lon="-0.74311">
        <ele>82.2</ele>
        <time>2022-06-19T10:02:28Z</time>
      </trkpt>
      <trkpt lat="46.51653" lon="-0.74296">
        <ele>82.8</ele>
        <time>2022-06-19T10:02:33Z</time>
      </trkpt>
      <trkpt lat="46.51667" lon="-0.74279">
        <ele>82.8</ele>
        <time>2022-06-19T10:02:40Z</time>
      </trkpt>
      <trkpt lat="46.51685" lon="-0.74261">
        <ele>83.4</ele>
        <time>2022-06-19T10:02:47Z</time>
      </trkpt>
      <trkpt lat="46.51703" lon="-0.74246">
        <ele>83.4</ele>
        <time>2022-06-19T10:02:54Z</time>
      </trkpt>
      <trkpt lat="46.51721" lon="-0.74224">
        <ele>83.8</ele>
        <time>2022-06-19T10:03:01Z</time>
      </trkpt>
      <trkpt lat="46.51722" lon="-0.74221">
        <ele>83.8</ele>
        <time>2022-06-19T10:03:02Z</time>
      </trkpt>
      <trkpt lat="46.51722" lon="-0.74205">
        <ele>83.8</ele>
        <time>2022-06-19T10:03:06Z</time>
      </trkpt>
      <trkpt lat="46.51712" lon="-0.74179">
        <ele>84.8</ele>
        <time>2022-06-19T10:03:12Z</time>
      </trkpt>
      <trkpt lat="46.51707" lon="-0.74164">
        <ele>85.2</ele>
        <time>2022-06-19T10:03:15Z</time>
      </trkpt>
      <trkpt lat="46.51703" lon="-0.74154">
        <ele>85.2</ele>
        <time>2022-06-19T10:03:17Z</time>
      </trkpt>
      <trkpt lat="46.51698" lon="-0.7414">
        <ele>85</ele>
        <time>2022-06-19T10:03:20Z</time>
      </trkpt>
      <trkpt lat="46.51699" lon="-0.74124">
        <ele>84.4</ele>
        <time>2022-06-19T10:03:23Z</time>
      </trkpt>
      <trkpt lat="46.51712" lon="-0.74113">
        <ele>84.6</ele>
        <time>2022-06-19T10:03:27Z</time>
      </trkpt>
      <trkpt lat="46.5174" lon="-0.74093">
        <ele>85</ele>
        <time>2022-06-19T10:03:34Z</time>
      </trkpt>
      <trkpt lat="46.51767" lon="-0.74079">
        <ele>85.2</ele>
        <time>2022-06-19T10:03:41Z</time>
      </trkpt>
      <trkpt lat="46.51771" lon="-0.7408">
        <ele>85.2</ele>
        <time>2022-06-19T10:03:42Z</time>
      </trkpt>
      <trkpt lat="46.51774" lon="-0.74082">
        <ele>85.4</ele>
        <time>2022-06-19T10:03:43Z</time>
      </trkpt>
      <trkpt lat="46.51783" lon="-0.74094">
        <ele>85.6</ele>
        <time>2022-06-19T10:03:46Z</time>
      </trkpt>
      <trkpt lat="46.51788" lon="-0.74104">
        <ele>85.6</ele>
        <time>2022-06-19T10:03:48Z</time>
      </trkpt>
      <trkpt lat="46.51797" lon="-0.74123">
        <ele>85.6</ele>
        <time>2022-06-19T10:03:51Z</time>
      </trkpt>
      <trkpt lat="46.51818" lon="-0.74164">
        <ele>84.4</ele>
        <time>2022-06-19T10:03:57Z</time>
      </trkpt>
      <trkpt lat="46.5183" lon="-0.74192">
        <ele>83.8</ele>
        <time>2022-06-19T10:04:01Z</time>
      </trkpt>
      <trkpt lat="46.51833" lon="-0.74197">
        <ele>83.2</ele>
        <time>2022-06-19T10:04:02Z</time>
      </trkpt>
      <trkpt lat="46.51844" lon="-0.74217">
        <ele>82.4</ele>
        <time>2022-06-19T10:04:05Z</time>
      </trkpt>
      <trkpt lat="46.51857" lon="-0.74243">
        <ele>81.2</ele>
        <time>2022-06-19T10:04:08Z</time>
      </trkpt>
      <trkpt lat="46.51868" lon="-0.74263">
        <ele>80</ele>
        <time>2022-06-19T10:04:10Z</time>
      </trkpt>
      <trkpt lat="46.51879" lon="-0.74283">
        <ele>78.6</ele>
        <time>2022-06-19T10:04:12Z</time>
      </trkpt>
      <trkpt lat="46.5189" lon="-0.74305">
        <ele>77</ele>
        <time>2022-06-19T10:04:14Z</time>
      </trkpt>
      <trkpt lat="46.51897" lon="-0.74317">
        <ele>76.2</ele>
        <time>2022-06-19T10:04:15Z</time>
      </trkpt>
      <trkpt lat="46.51911" lon="-0.74338">
        <ele>75.6</ele>
        <time>2022-06-19T10:04:17Z</time>
      </trkpt>
      <trkpt lat="46.51925" lon="-0.74363">
        <ele>74.6</ele>
        <time>2022-06-19T10:04:20Z</time>
      </trkpt>
      <trkpt lat="46.51929" lon="-0.74372">
        <ele>74.2</ele>
        <time>2022-06-19T10:04:21Z</time>
      </trkpt>
      <trkpt lat="46.51933" lon="-0.74382">
        <ele>73.4</ele>
        <time>2022-06-19T10:04:22Z</time>
      </trkpt>
      <trkpt lat="46.51937" lon="-0.74392">
        <ele>72.8</ele>
        <time>2022-06-19T10:04:23Z</time>
      </trkpt>
      <trkpt lat="46.51941" lon="-0.74403">
        <ele>72.4</ele>
        <time>2022-06-19T10:04:24Z</time>
      </trkpt>
      <trkpt lat="46.51945" lon="-0.74414">
        <ele>71.2</ele>
        <time>2022-06-19T10:04:25Z</time>
      </trkpt>
      <trkpt lat="46.51954" lon="-0.74437">
        <ele>69.8</ele>
        <time>2022-06-19T10:04:27Z</time>
      </trkpt>
      <trkpt lat="46.51965" lon="-0.74461">
        <ele>67.4</ele>
        <time>2022-06-19T10:04:29Z</time>
      </trkpt>
      <trkpt lat="46.51971" lon="-0.74471">
        <ele>66.2</ele>
        <time>2022-06-19T10:04:30Z</time>
      </trkpt>
      <trkpt lat="46.51975" lon="-0.74481">
        <ele>65</ele>
        <time>2022-06-19T10:04:31Z</time>
      </trkpt>
      <trkpt lat="46.51982" lon="-0.74498">
        <ele>63.6</ele>
        <time>2022-06-19T10:04:33Z</time>
      </trkpt>
      <trkpt lat="46.5199" lon="-0.74521">
        <ele>61.8</ele>
        <time>2022-06-19T10:04:36Z</time>
      </trkpt>
      <trkpt lat="46.51996" lon="-0.74535">
        <ele>60</ele>
        <time>2022-06-19T10:04:38Z</time>
      </trkpt>
      <trkpt lat="46.51999" lon="-0.74542">
        <ele>59.4</ele>
        <time>2022-06-19T10:04:39Z</time>
      </trkpt>
      <trkpt lat="46.52" lon="-0.74547">
        <ele>58.8</ele>
        <time>2022-06-19T10:04:40Z</time>
      </trkpt>
      <trkpt lat="46.52001" lon="-0.74552">
        <ele>57.4</ele>
        <time>2022-06-19T10:04:41Z</time>
      </trkpt>
      <trkpt lat="46.52001" lon="-0.74555">
        <ele>56.8</ele>
        <time>2022-06-19T10:04:42Z</time>
      </trkpt>
      <trkpt lat="46.52002" lon="-0.7456">
        <ele>56.2</ele>
        <time>2022-06-19T10:04:43Z</time>
      </trkpt>
      <trkpt lat="46.52004" lon="-0.74574">
        <ele>55</ele>
        <time>2022-06-19T10:04:46Z</time>
      </trkpt>
      <trkpt lat="46.52006" lon="-0.74582">
        <ele>54</ele>
        <time>2022-06-19T10:04:48Z</time>
      </trkpt>
      <trkpt lat="46.52011" lon="-0.74595">
        <ele>52.6</ele>
        <time>2022-06-19T10:04:51Z</time>
      </trkpt>
      <trkpt lat="46.52012" lon="-0.74606">
        <ele>51</ele>
        <time>2022-06-19T10:04:54Z</time>
      </trkpt>
      <trkpt lat="46.52015" lon="-0.7461">
        <ele>50.6</ele>
        <time>2022-06-19T10:04:55Z</time>
      </trkpt>
      <trkpt lat="46.52021" lon="-0.74617">
        <ele>49.6</ele>
        <time>2022-06-19T10:04:57Z</time>
      </trkpt>
      <trkpt lat="46.5203" lon="-0.74631">
        <ele>48</ele>
        <time>2022-06-19T10:04:59Z</time>
      </trkpt>
      <trkpt lat="46.52039" lon="-0.74639">
        <ele>46.8</ele>
        <time>2022-06-19T10:05:00Z</time>
      </trkpt>
      <trkpt lat="46.52052" lon="-0.74653">
        <ele>44.8</ele>
        <time>2022-06-19T10:05:02Z</time>
      </trkpt>
      <trkpt lat="46.52056" lon="-0.74659">
        <ele>43.4</ele>
        <time>2022-06-19T10:05:03Z</time>
      </trkpt>
      <trkpt lat="46.52062" lon="-0.7467">
        <ele>41.4</ele>
        <time>2022-06-19T10:05:05Z</time>
      </trkpt>
      <trkpt lat="46.52068" lon="-0.74675">
        <ele>40.8</ele>
        <time>2022-06-19T10:05:06Z</time>
      </trkpt>
      <trkpt lat="46.52074" lon="-0.74678">
        <ele>40.4</ele>
        <time>2022-06-19T10:05:07Z</time>
      </trkpt>
      <trkpt lat="46.52079" lon="-0.74679">
        <ele>40.2</ele>
        <time>2022-06-19T10:05:08Z</time>
      </trkpt>
      <trkpt lat="46.52088" lon="-0.74678">
        <ele>40</ele>
        <time>2022-06-19T10:05:11Z</time>
      </trkpt>
      <trkpt lat="46.521" lon="-0.74684">
        <ele>41.2</ele>
        <time>2022-06-19T10:05:17Z</time>
      </trkpt>
      <trkpt lat="46.52104" lon="-0.74686">
        <ele>41.6</ele>
        <time>2022-06-19T10:05:18Z</time>
      </trkpt>
      <trkpt lat="46.52112" lon="-0.74692">
        <ele>42.6</ele>
        <time>2022-06-19T10:05:23Z</time>
      </trkpt>
      <trkpt lat="46.52115" lon="-0.74694">
        <ele>42.8</ele>
        <time>2022-06-19T10:05:24Z</time>
      </trkpt>
      <trkpt lat="46.52118" lon="-0.74694">
        <ele>43.2</ele>
        <time>2022-06-19T10:05:25Z</time>
      </trkpt>
      <trkpt lat="46.52123" lon="-0.74697">
        <ele>43.8</ele>
        <time>2022-06-19T10:05:28Z</time>
      </trkpt>
      <trkpt lat="46.52128" lon="-0.74702">
        <ele>44.4</ele>
        <time>2022-06-19T10:05:32Z</time>
      </trkpt>
      <trkpt lat="46.52131" lon="-0.74706">
        <ele>44.8</ele>
        <time>2022-06-19T10:05:34Z</time>
      </trkpt>
      <trkpt lat="46.52139" lon="-0.7471">
        <ele>45.6</ele>
        <time>2022-06-19T10:05:39Z</time>
      </trkpt>
      <trkpt lat="46.52138" lon="-0.74712">
        <ele>45.8</ele>
        <time>2022-06-19T10:05:40Z</time>
      </trkpt>
      <trkpt lat="46.5214" lon="-0.74719">
        <ele>46.2</ele>
        <time>2022-06-19T10:05:43Z</time>
      </trkpt>
      <trkpt lat="46.52144" lon="-0.74725">
        <ele>46.4</ele>
        <time>2022-06-19T10:05:45Z</time>
      </trkpt>
      <trkpt lat="46.52154" lon="-0.74738">
        <ele>46.2</ele>
        <time>2022-06-19T10:05:49Z</time>
      </trkpt>
      <trkpt lat="46.52157" lon="-0.74741">
        <ele>46</ele>
        <time>2022-06-19T10:05:50Z</time>
      </trkpt>
      <trkpt lat="46.52162" lon="-0.74748">
        <ele>45.6</ele>
        <time>2022-06-19T10:05:52Z</time>
      </trkpt>
      <trkpt lat="46.52167" lon="-0.74752">
        <ele>44.6</ele>
        <time>2022-06-19T10:05:54Z</time>
      </trkpt>
      <trkpt lat="46.52174" lon="-0.74755">
        <ele>43.6</ele>
        <time>2022-06-19T10:05:58Z</time>
      </trkpt>
      <trkpt lat="46.52176" lon="-0.74755">
        <ele>43.4</ele>
        <time>2022-06-19T10:05:59Z</time>
      </trkpt>
      <trkpt lat="46.52179" lon="-0.74757">
        <ele>44.6</ele>
        <time>2022-06-19T10:06:03Z</time>
      </trkpt>
      <trkpt lat="46.52183" lon="-0.74754">
        <ele>45.2</ele>
        <time>2022-06-19T10:06:06Z</time>
      </trkpt>
      <trkpt lat="46.5219" lon="-0.74748">
        <ele>45.6</ele>
        <time>2022-06-19T10:06:12Z</time>
      </trkpt>
      <trkpt lat="46.52192" lon="-0.74746">
        <ele>45.6</ele>
        <time>2022-06-19T10:06:14Z</time>
      </trkpt>
      <trkpt lat="46.52197" lon="-0.74739">
        <ele>46.8</ele>
        <time>2022-06-19T10:06:21Z</time>
      </trkpt>
      <trkpt lat="46.522" lon="-0.74734">
        <ele>48</ele>
        <time>2022-06-19T10:06:27Z</time>
      </trkpt>
      <trkpt lat="46.52203" lon="-0.74732">
        <ele>48.4</ele>
        <time>2022-06-19T10:06:29Z</time>
      </trkpt>
      <trkpt lat="46.52211" lon="-0.74724">
        <ele>49</ele>
        <time>2022-06-19T10:06:36Z</time>
      </trkpt>
      <trkpt lat="46.52214" lon="-0.7472">
        <ele>49</ele>
        <time>2022-06-19T10:06:38Z</time>
      </trkpt>
      <trkpt lat="46.52223" lon="-0.74699">
        <ele>48</ele>
        <time>2022-06-19T10:06:43Z</time>
      </trkpt>
      <trkpt lat="46.52228" lon="-0.74685">
        <ele>46.4</ele>
        <time>2022-06-19T10:06:45Z</time>
      </trkpt>
      <trkpt lat="46.52229" lon="-0.74679">
        <ele>45.2</ele>
        <time>2022-06-19T10:06:46Z</time>
      </trkpt>
      <trkpt lat="46.52231" lon="-0.74674">
        <ele>44</ele>
        <time>2022-06-19T10:06:47Z</time>
      </trkpt>
      <trkpt lat="46.52232" lon="-0.7467">
        <ele>43.4</ele>
        <time>2022-06-19T10:06:48Z</time>
      </trkpt>
      <trkpt lat="46.52233" lon="-0.74666">
        <ele>42.8</ele>
        <time>2022-06-19T10:06:49Z</time>
      </trkpt>
      <trkpt lat="46.52236" lon="-0.74659">
        <ele>41.2</ele>
        <time>2022-06-19T10:06:51Z</time>
      </trkpt>
      <trkpt lat="46.52238" lon="-0.74655">
        <ele>40</ele>
        <time>2022-06-19T10:06:53Z</time>
      </trkpt>
      <trkpt lat="46.52239" lon="-0.74654">
        <ele>39.4</ele>
        <time>2022-06-19T10:06:54Z</time>
      </trkpt>
      <trkpt lat="46.52242" lon="-0.74651">
        <ele>38.8</ele>
        <time>2022-06-19T10:06:55Z</time>
      </trkpt>
      <trkpt lat="46.52248" lon="-0.74645">
        <ele>38.2</ele>
        <time>2022-06-19T10:06:57Z</time>
      </trkpt>
      <trkpt lat="46.52251" lon="-0.74641">
        <ele>37.6</ele>
        <time>2022-06-19T10:06:58Z</time>
      </trkpt>
      <trkpt lat="46.52255" lon="-0.74633">
        <ele>35.8</ele>
        <time>2022-06-19T10:07:00Z</time>
      </trkpt>
      <trkpt lat="46.5226" lon="-0.74625">
        <ele>34.8</ele>
        <time>2022-06-19T10:07:02Z</time>
      </trkpt>
      <trkpt lat="46.52265" lon="-0.74614">
        <ele>33.8</ele>
        <time>2022-06-19T10:07:05Z</time>
      </trkpt>
      <trkpt lat="46.52267" lon="-0.74611">
        <ele>33.8</ele>
        <time>2022-06-19T10:07:06Z</time>
      </trkpt>
      <trkpt lat="46.52272" lon="-0.74608">
        <ele>33.4</ele>
        <time>2022-06-19T10:07:08Z</time>
      </trkpt>
      <trkpt lat="46.52274" lon="-0.74609">
        <ele>33.2</ele>
        <time>2022-06-19T10:07:09Z</time>
      </trkpt>
      <trkpt lat="46.52281" lon="-0.74615">
        <ele>32.6</ele>
        <time>2022-06-19T10:07:12Z</time>
      </trkpt>
      <trkpt lat="46.52285" lon="-0.74619">
        <ele>32.2</ele>
        <time>2022-06-19T10:07:14Z</time>
      </trkpt>
      <trkpt lat="46.52296" lon="-0.74635">
        <ele>31.4</ele>
        <time>2022-06-19T10:07:21Z</time>
      </trkpt>
      <trkpt lat="46.52297" lon="-0.74651">
        <ele>30</ele>
        <time>2022-06-19T10:07:24Z</time>
      </trkpt>
      <trkpt lat="46.52298" lon="-0.74668">
        <ele>29.4</ele>
        <time>2022-06-19T10:07:26Z</time>
      </trkpt>
      <trkpt lat="46.52299" lon="-0.74677">
        <ele>28.2</ele>
        <time>2022-06-19T10:07:27Z</time>
      </trkpt>
      <trkpt lat="46.52302" lon="-0.74692">
        <ele>26.8</ele>
        <time>2022-06-19T10:07:29Z</time>
      </trkpt>
      <trkpt lat="46.52304" lon="-0.74699">
        <ele>25.8</ele>
        <time>2022-06-19T10:07:30Z</time>
      </trkpt>
      <trkpt lat="46.52306" lon="-0.74704">
        <ele>25</ele>
        <time>2022-06-19T10:07:31Z</time>
      </trkpt>
      <trkpt lat="46.52308" lon="-0.74709">
        <ele>24.6</ele>
        <time>2022-06-19T10:07:32Z</time>
      </trkpt>
      <trkpt lat="46.52314" lon="-0.7472">
        <ele>24</ele>
        <time>2022-06-19T10:07:35Z</time>
      </trkpt>
      <trkpt lat="46.52316" lon="-0.74722">
        <ele>23.8</ele>
        <time>2022-06-19T10:07:36Z</time>
      </trkpt>
      <trkpt lat="46.52326" lon="-0.74739">
        <ele>25</ele>
        <time>2022-06-19T10:07:42Z</time>
      </trkpt>
      <trkpt lat="46.52339" lon="-0.74752">
        <ele>26.2</ele>
        <time>2022-06-19T10:07:48Z</time>
      </trkpt>
      <trkpt lat="46.52345" lon="-0.74759">
        <ele>26.8</ele>
        <time>2022-06-19T10:07:51Z</time>
      </trkpt>
      <trkpt lat="46.52351" lon="-0.74766">
        <ele>27.4</ele>
        <time>2022-06-19T10:07:54Z</time>
      </trkpt>
      <trkpt lat="46.52361" lon="-0.74779">
        <ele>27.8</ele>
        <time>2022-06-19T10:07:59Z</time>
      </trkpt>
      <trkpt lat="46.52369" lon="-0.7479">
        <ele>28.4</ele>
        <time>2022-06-19T10:08:03Z</time>
      </trkpt>
      <trkpt lat="46.52378" lon="-0.74797">
        <ele>28.8</ele>
        <time>2022-06-19T10:08:06Z</time>
      </trkpt>
      <trkpt lat="46.52396" lon="-0.7482">
        <ele>28</ele>
        <time>2022-06-19T10:08:13Z</time>
      </trkpt>
      <trkpt lat="46.52413" lon="-0.7485">
        <ele>27.6</ele>
        <time>2022-06-19T10:08:19Z</time>
      </trkpt>
      <trkpt lat="46.52418" lon="-0.7486">
        <ele>27.4</ele>
        <time>2022-06-19T10:08:21Z</time>
      </trkpt>
      <trkpt lat="46.52425" lon="-0.74872">
        <ele>27</ele>
        <time>2022-06-19T10:08:23Z</time>
      </trkpt>
      <trkpt lat="46.52432" lon="-0.74883">
        <ele>26.6</ele>
        <time>2022-06-19T10:08:25Z</time>
      </trkpt>
      <trkpt lat="46.52435" lon="-0.74888">
        <ele>26.2</ele>
        <time>2022-06-19T10:08:26Z</time>
      </trkpt>
      <trkpt lat="46.52438" lon="-0.74902">
        <ele>25</ele>
        <time>2022-06-19T10:08:29Z</time>
      </trkpt>
      <trkpt lat="46.5244" lon="-0.74907">
        <ele>24.2</ele>
        <time>2022-06-19T10:08:33Z</time>
      </trkpt>
      <trkpt lat="46.52439" lon="-0.74911">
        <ele>24.2</ele>
        <time>2022-06-19T10:08:35Z</time>
      </trkpt>
      <trkpt lat="46.5243" lon="-0.74924">
        <ele>24.6</ele>
        <time>2022-06-19T10:08:39Z</time>
      </trkpt>
      <trkpt lat="46.52402" lon="-0.74949">
        <ele>24.4</ele>
        <time>2022-06-19T10:08:47Z</time>
      </trkpt>
      <trkpt lat="46.52376" lon="-0.74971">
        <ele>24.6</ele>
        <time>2022-06-19T10:08:55Z</time>
      </trkpt>
      <trkpt lat="46.52343" lon="-0.75001">
        <ele>25</ele>
        <time>2022-06-19T10:09:05Z</time>
      </trkpt>
      <trkpt lat="46.52302" lon="-0.75038">
        <ele>25.2</ele>
        <time>2022-06-19T10:09:17Z</time>
      </trkpt>
      <trkpt lat="46.52287" lon="-0.75067">
        <ele>25</ele>
        <time>2022-06-19T10:09:24Z</time>
      </trkpt>
      <trkpt lat="46.52287" lon="-0.75081">
        <ele>25</ele>
        <time>2022-06-19T10:09:27Z</time>
      </trkpt>
      <trkpt lat="46.52287" lon="-0.75095">
        <ele>25.4</ele>
        <time>2022-06-19T10:09:30Z</time>
      </trkpt>
      <trkpt lat="46.52289" lon="-0.75112">
        <ele>26</ele>
        <time>2022-06-19T10:09:34Z</time>
      </trkpt>
      <trkpt lat="46.5229" lon="-0.75122">
        <ele>26.8</ele>
        <time>2022-06-19T10:09:37Z</time>
      </trkpt>
      <trkpt lat="46.5229" lon="-0.75128">
        <ele>27.2</ele>
        <time>2022-06-19T10:09:39Z</time>
      </trkpt>
      <trkpt lat="46.5229" lon="-0.75128">
        <ele>28.6</ele>
        <time>2022-06-19T10:09:45Z</time>
      </trkpt>
      <trkpt lat="46.52293" lon="-0.75154">
        <ele>29.8</ele>
        <time>2022-06-19T10:09:48Z</time>
      </trkpt>
      <trkpt lat="46.52293" lon="-0.75156">
        <ele>30</ele>
        <time>2022-06-19T10:09:49Z</time>
      </trkpt>
      <trkpt lat="46.52296" lon="-0.75164">
        <ele>30.8</ele>
        <time>2022-06-19T10:09:53Z</time>
      </trkpt>
      <trkpt lat="46.52297" lon="-0.75171">
        <ele>31.6</ele>
        <time>2022-06-19T10:09:56Z</time>
      </trkpt>
      <trkpt lat="46.52297" lon="-0.75173">
        <ele>31.8</ele>
        <time>2022-06-19T10:09:57Z</time>
      </trkpt>
      <trkpt lat="46.52297" lon="-0.75184">
        <ele>33.2</ele>
        <time>2022-06-19T10:10:02Z</time>
      </trkpt>
      <trkpt lat="46.52297" lon="-0.75188">
        <ele>33.8</ele>
        <time>2022-06-19T10:10:04Z</time>
      </trkpt>
      <trkpt lat="46.52296" lon="-0.75193">
        <ele>34.2</ele>
        <time>2022-06-19T10:10:06Z</time>
      </trkpt>
      <trkpt lat="46.52295" lon="-0.75199">
        <ele>34.6</ele>
        <time>2022-06-19T10:10:09Z</time>
      </trkpt>
      <trkpt lat="46.52296" lon="-0.75201">
        <ele>34.8</ele>
        <time>2022-06-19T10:10:10Z</time>
      </trkpt>
      <trkpt lat="46.52296" lon="-0.75204">
        <ele>35.2</ele>
        <time>2022-06-19T10:10:12Z</time>
      </trkpt>
      <trkpt lat="46.52296" lon="-0.75214">
        <ele>36.4</ele>
        <time>2022-06-19T10:10:18Z</time>
      </trkpt>
      <trkpt lat="46.52296" lon="-0.75219">
        <ele>37</ele>
        <time>2022-06-19T10:10:20Z</time>
      </trkpt>
      <trkpt lat="46.52296" lon="-0.75223">
        <ele>37.4</ele>
        <time>2022-06-19T10:10:22Z</time>
      </trkpt>
      <trkpt lat="46.52295" lon="-0.75234">
        <ele>38.6</ele>
        <time>2022-06-19T10:10:27Z</time>
      </trkpt>
      <trkpt lat="46.52294" lon="-0.75241">
        <ele>39.6</ele>
        <time>2022-06-19T10:10:31Z</time>
      </trkpt>
      <trkpt lat="46.52294" lon="-0.75248">
        <ele>40.2</ele>
        <time>2022-06-19T10:10:35Z</time>
      </trkpt>
      <trkpt lat="46.52293" lon="-0.75251">
        <ele>40.8</ele>
        <time>2022-06-19T10:10:37Z</time>
      </trkpt>
      <trkpt lat="46.52292" lon="-0.75256">
        <ele>41.6</ele>
        <time>2022-06-19T10:10:41Z</time>
      </trkpt>
      <trkpt lat="46.52291" lon="-0.75258">
        <ele>42</ele>
        <time>2022-06-19T10:10:42Z</time>
      </trkpt>
      <trkpt lat="46.52291" lon="-0.75259">
        <ele>42.2</ele>
        <time>2022-06-19T10:10:43Z</time>
      </trkpt>
      <trkpt lat="46.5229" lon="-0.7526">
        <ele>42.4</ele>
        <time>2022-06-19T10:10:44Z</time>
      </trkpt>
      <trkpt lat="46.52288" lon="-0.75265">
        <ele>43</ele>
        <time>2022-06-19T10:10:48Z</time>
      </trkpt>
      <trkpt lat="46.52288" lon="-0.75266">
        <ele>43</ele>
        <time>2022-06-19T10:10:49Z</time>
      </trkpt>
      <trkpt lat="46.52286" lon="-0.75269">
        <ele>43.4</ele>
        <time>2022-06-19T10:10:52Z</time>
      </trkpt>
      <trkpt lat="46.52283" lon="-0.75273">
        <ele>44.2</ele>
        <time>2022-06-19T10:10:55Z</time>
      </trkpt>
      <trkpt lat="46.5228" lon="-0.75275">
        <ele>44.8</ele>
        <time>2022-06-19T10:10:59Z</time>
      </trkpt>
      <trkpt lat="46.52277" lon="-0.75278">
        <ele>45.2</ele>
        <time>2022-06-19T10:11:02Z</time>
      </trkpt>
      <trkpt lat="46.52271" lon="-0.75284">
        <ele>46.4</ele>
        <time>2022-06-19T10:11:08Z</time>
      </trkpt>
      <trkpt lat="46.52267" lon="-0.75289">
        <ele>47.4</ele>
        <time>2022-06-19T10:11:14Z</time>
      </trkpt>
      <trkpt lat="46.52266" lon="-0.7529">
        <ele>47.6</ele>
        <time>2022-06-19T10:11:15Z</time>
      </trkpt>
      <trkpt lat="46.5226" lon="-0.75295">
        <ele>48.6</ele>
        <time>2022-06-19T10:11:21Z</time>
      </trkpt>
      <trkpt lat="46.52259" lon="-0.75296">
        <ele>49</ele>
        <time>2022-06-19T10:11:22Z</time>
      </trkpt>
      <trkpt lat="46.52255" lon="-0.753">
        <ele>49.6</ele>
        <time>2022-06-19T10:11:26Z</time>
      </trkpt>
      <trkpt lat="46.52252" lon="-0.75303">
        <ele>50.2</ele>
        <time>2022-06-19T10:11:29Z</time>
      </trkpt>
      <trkpt lat="46.5225" lon="-0.75305">
        <ele>50.8</ele>
        <time>2022-06-19T10:11:31Z</time>
      </trkpt>
      <trkpt lat="46.52246" lon="-0.75311">
        <ele>51.6</ele>
        <time>2022-06-19T10:11:36Z</time>
      </trkpt>
      <trkpt lat="46.52244" lon="-0.75316">
        <ele>52</ele>
        <time>2022-06-19T10:11:40Z</time>
      </trkpt>
      <trkpt lat="46.52242" lon="-0.75323">
        <ele>53</ele>
        <time>2022-06-19T10:11:45Z</time>
      </trkpt>
      <trkpt lat="46.52241" lon="-0.75332">
        <ele>54</ele>
        <time>2022-06-19T10:11:50Z</time>
      </trkpt>
      <trkpt lat="46.52241" lon="-0.75334">
        <ele>54</ele>
        <time>2022-06-19T10:11:51Z</time>
      </trkpt>
      <trkpt lat="46.5224" lon="-0.75333">
        <ele>55</ele>
        <time>2022-06-19T10:11:54Z</time>
      </trkpt>
      <trkpt lat="46.5224" lon="-0.75333">
        <ele>55.2</ele>
        <time>2022-06-19T10:11:55Z</time>
      </trkpt>
      <trkpt lat="46.5224" lon="-0.75332">
        <ele>55.2</ele>
        <time>2022-06-19T10:11:56Z</time>
      </trkpt>
      <trkpt lat="46.5224" lon="-0.75334">
        <ele>56</ele>
        <time>2022-06-19T10:12:00Z</time>
      </trkpt>
      <trkpt lat="46.5224" lon="-0.75334">
        <ele>56.2</ele>
        <time>2022-06-19T10:12:01Z</time>
      </trkpt>
      <trkpt lat="46.52242" lon="-0.75343">
        <ele>57.2</ele>
        <time>2022-06-19T10:12:08Z</time>
      </trkpt>
      <trkpt lat="46.52241" lon="-0.7535">
        <ele>58</ele>
        <time>2022-06-19T10:12:11Z</time>
      </trkpt>
      <trkpt lat="46.52243" lon="-0.75361">
        <ele>58.4</ele>
        <time>2022-06-19T10:12:16Z</time>
      </trkpt>
      <trkpt lat="46.52244" lon="-0.75367">
        <ele>59.2</ele>
        <time>2022-06-19T10:12:19Z</time>
      </trkpt>
      <trkpt lat="46.52245" lon="-0.75375">
        <ele>59.6</ele>
        <time>2022-06-19T10:12:22Z</time>
      </trkpt>
      <trkpt lat="46.52245" lon="-0.75382">
        <ele>60</ele>
        <time>2022-06-19T10:12:25Z</time>
      </trkpt>
      <trkpt lat="46.52245" lon="-0.75385">
        <ele>60.2</ele>
        <time>2022-06-19T10:12:26Z</time>
      </trkpt>
      <trkpt lat="46.52246" lon="-0.75392">
        <ele>60.8</ele>
        <time>2022-06-19T10:12:29Z</time>
      </trkpt>
      <trkpt lat="46.52249" lon="-0.75402">
        <ele>61.4</ele>
        <time>2022-06-19T10:12:34Z</time>
      </trkpt>
      <trkpt lat="46.52253" lon="-0.75411">
        <ele>62</ele>
        <time>2022-06-19T10:12:38Z</time>
      </trkpt>
      <trkpt lat="46.52255" lon="-0.75419">
        <ele>62.6</ele>
        <time>2022-06-19T10:12:42Z</time>
      </trkpt>
      <trkpt lat="46.52256" lon="-0.75426">
        <ele>63</ele>
        <time>2022-06-19T10:12:45Z</time>
      </trkpt>
      <trkpt lat="46.5226" lon="-0.7544">
        <ele>64</ele>
        <time>2022-06-19T10:12:52Z</time>
      </trkpt>
      <trkpt lat="46.5226" lon="-0.75443">
        <ele>64.2</ele>
        <time>2022-06-19T10:12:53Z</time>
      </trkpt>
      <trkpt lat="46.52264" lon="-0.75462">
        <ele>65</ele>
        <time>2022-06-19T10:13:01Z</time>
      </trkpt>
      <trkpt lat="46.52263" lon="-0.75465">
        <ele>65</ele>
        <time>2022-06-19T10:13:02Z</time>
      </trkpt>
      <trkpt lat="46.52266" lon="-0.7548">
        <ele>66.2</ele>
        <time>2022-06-19T10:13:08Z</time>
      </trkpt>
      <trkpt lat="46.52266" lon="-0.75482">
        <ele>66.4</ele>
        <time>2022-06-19T10:13:09Z</time>
      </trkpt>
      <trkpt lat="46.52271" lon="-0.75497">
        <ele>66.6</ele>
        <time>2022-06-19T10:13:16Z</time>
      </trkpt>
      <trkpt lat="46.52275" lon="-0.75509">
        <ele>67.2</ele>
        <time>2022-06-19T10:13:21Z</time>
      </trkpt>
      <trkpt lat="46.52279" lon="-0.75515">
        <ele>67.6</ele>
        <time>2022-06-19T10:13:24Z</time>
      </trkpt>
      <trkpt lat="46.52284" lon="-0.75538">
        <ele>68.4</ele>
        <time>2022-06-19T10:13:32Z</time>
      </trkpt>
      <trkpt lat="46.5229" lon="-0.75554">
        <ele>69.2</ele>
        <time>2022-06-19T10:13:38Z</time>
      </trkpt>
      <trkpt lat="46.52291" lon="-0.75556">
        <ele>69.2</ele>
        <time>2022-06-19T10:13:39Z</time>
      </trkpt>
      <trkpt lat="46.52292" lon="-0.75559">
        <ele>69.4</ele>
        <time>2022-06-19T10:13:40Z</time>
      </trkpt>
      <trkpt lat="46.52299" lon="-0.75575">
        <ele>70</ele>
        <time>2022-06-19T10:13:46Z</time>
      </trkpt>
      <trkpt lat="46.52308" lon="-0.75584">
        <ele>70.4</ele>
        <time>2022-06-19T10:13:50Z</time>
      </trkpt>
      <trkpt lat="46.52311" lon="-0.75585">
        <ele>70.4</ele>
        <time>2022-06-19T10:13:52Z</time>
      </trkpt>
      <trkpt lat="46.52311" lon="-0.75591">
        <ele>70.6</ele>
        <time>2022-06-19T10:13:55Z</time>
      </trkpt>
      <trkpt lat="46.52314" lon="-0.75609">
        <ele>70.8</ele>
        <time>2022-06-19T10:14:02Z</time>
      </trkpt>
      <trkpt lat="46.52316" lon="-0.75629">
        <ele>71</ele>
        <time>2022-06-19T10:14:08Z</time>
      </trkpt>
      <trkpt lat="46.52317" lon="-0.75634">
        <ele>71.2</ele>
        <time>2022-06-19T10:14:10Z</time>
      </trkpt>
      <trkpt lat="46.52317" lon="-0.75646">
        <ele>71.4</ele>
        <time>2022-06-19T10:14:14Z</time>
      </trkpt>
      <trkpt lat="46.5232" lon="-0.75672">
        <ele>71.6</ele>
        <time>2022-06-19T10:14:22Z</time>
      </trkpt>
      <trkpt lat="46.52325" lon="-0.75689">
        <ele>72</ele>
        <time>2022-06-19T10:14:27Z</time>
      </trkpt>
      <trkpt lat="46.52331" lon="-0.75715">
        <ele>72.6</ele>
        <time>2022-06-19T10:14:33Z</time>
      </trkpt>
      <trkpt lat="46.52332" lon="-0.7572">
        <ele>72.6</ele>
        <time>2022-06-19T10:14:34Z</time>
      </trkpt>
      <trkpt lat="46.52336" lon="-0.75754">
        <ele>73.6</ele>
        <time>2022-06-19T10:14:41Z</time>
      </trkpt>
      <trkpt lat="46.52337" lon="-0.75759">
        <ele>73.8</ele>
        <time>2022-06-19T10:14:42Z</time>
      </trkpt>
      <trkpt lat="46.52338" lon="-0.75791">
        <ele>74.8</ele>
        <time>2022-06-19T10:14:49Z</time>
      </trkpt>
      <trkpt lat="46.52339" lon="-0.75799">
        <ele>74.8</ele>
        <time>2022-06-19T10:14:51Z</time>
      </trkpt>
      <trkpt lat="46.52337" lon="-0.75837">
        <ele>75.6</ele>
        <time>2022-06-19T10:14:59Z</time>
      </trkpt>
      <trkpt lat="46.52336" lon="-0.75843">
        <ele>75.6</ele>
        <time>2022-06-19T10:15:00Z</time>
      </trkpt>
      <trkpt lat="46.52332" lon="-0.75868">
        <ele>75.4</ele>
        <time>2022-06-19T10:15:04Z</time>
      </trkpt>
      <trkpt lat="46.52324" lon="-0.75917">
        <ele>74.6</ele>
        <time>2022-06-19T10:15:11Z</time>
      </trkpt>
      <trkpt lat="46.52321" lon="-0.75937">
        <ele>74</ele>
        <time>2022-06-19T10:15:14Z</time>
      </trkpt>
      <trkpt lat="46.52319" lon="-0.75948">
        <ele>73.6</ele>
        <time>2022-06-19T10:15:16Z</time>
      </trkpt>
      <trkpt lat="46.52317" lon="-0.75954">
        <ele>73.4</ele>
        <time>2022-06-19T10:15:17Z</time>
      </trkpt>
      <trkpt lat="46.52313" lon="-0.75962">
        <ele>72.6</ele>
        <time>2022-06-19T10:15:19Z</time>
      </trkpt>
      <trkpt lat="46.52311" lon="-0.75964">
        <ele>72.2</ele>
        <time>2022-06-19T10:15:20Z</time>
      </trkpt>
      <trkpt lat="46.52309" lon="-0.75964">
        <ele>72</ele>
        <time>2022-06-19T10:15:21Z</time>
      </trkpt>
      <trkpt lat="46.52305" lon="-0.75962">
        <ele>71.6</ele>
        <time>2022-06-19T10:15:23Z</time>
      </trkpt>
      <trkpt lat="46.52305" lon="-0.75961">
        <ele>71.6</ele>
        <time>2022-06-19T10:15:24Z</time>
      </trkpt>
      <trkpt lat="46.52307" lon="-0.75961">
        <ele>71.6</ele>
        <time>2022-06-19T10:15:25Z</time>
      </trkpt>
      <trkpt lat="46.5231" lon="-0.75956">
        <ele>71.6</ele>
        <time>2022-06-19T10:15:28Z</time>
      </trkpt>
      <trkpt lat="46.52314" lon="-0.75938">
        <ele>72</ele>
        <time>2022-06-19T10:15:34Z</time>
      </trkpt>
      <trkpt lat="46.52318" lon="-0.75918">
        <ele>72.6</ele>
        <time>2022-06-19T10:15:39Z</time>
      </trkpt>
      <trkpt lat="46.52321" lon="-0.75904">
        <ele>73.2</ele>
        <time>2022-06-19T10:15:42Z</time>
      </trkpt>
      <trkpt lat="46.52323" lon="-0.75894">
        <ele>73.8</ele>
        <time>2022-06-19T10:15:44Z</time>
      </trkpt>
      <trkpt lat="46.52328" lon="-0.7586">
        <ele>74.8</ele>
        <time>2022-06-19T10:15:51Z</time>
      </trkpt>
      <trkpt lat="46.52331" lon="-0.75839">
        <ele>75.8</ele>
        <time>2022-06-19T10:15:55Z</time>
      </trkpt>
      <trkpt lat="46.52337" lon="-0.75827">
        <ele>76</ele>
        <time>2022-06-19T10:15:58Z</time>
      </trkpt>
      <trkpt lat="46.52351" lon="-0.75823">
        <ele>75.8</ele>
        <time>2022-06-19T10:16:02Z</time>
      </trkpt>
      <trkpt lat="46.52379" lon="-0.75827">
        <ele>76</ele>
        <time>2022-06-19T10:16:09Z</time>
      </trkpt>
      <trkpt lat="46.52414" lon="-0.7583">
        <ele>76</ele>
        <time>2022-06-19T10:16:18Z</time>
      </trkpt>
      <trkpt lat="46.52425" lon="-0.75833">
        <ele>75</ele>
        <time>2022-06-19T10:16:23Z</time>
      </trkpt>
      <trkpt lat="46.52427" lon="-0.75833">
        <ele>74.8</ele>
        <time>2022-06-19T10:16:24Z</time>
      </trkpt>
      <trkpt lat="46.52438" lon="-0.75832">
        <ele>74.4</ele>
        <time>2022-06-19T10:16:28Z</time>
      </trkpt>
      <trkpt lat="46.5245" lon="-0.7583">
        <ele>73.6</ele>
        <time>2022-06-19T10:16:32Z</time>
      </trkpt>
      <trkpt lat="46.52453" lon="-0.7583">
        <ele>73.4</ele>
        <time>2022-06-19T10:16:33Z</time>
      </trkpt>
      <trkpt lat="46.52459" lon="-0.75821">
        <ele>72.6</ele>
        <time>2022-06-19T10:16:37Z</time>
      </trkpt>
      <trkpt lat="46.52454" lon="-0.75806">
        <ele>73</ele>
        <time>2022-06-19T10:16:41Z</time>
      </trkpt>
      <trkpt lat="46.52439" lon="-0.75792">
        <ele>73</ele>
        <time>2022-06-19T10:16:46Z</time>
      </trkpt>
      <trkpt lat="46.52426" lon="-0.75767">
        <ele>73</ele>
        <time>2022-06-19T10:16:52Z</time>
      </trkpt>
      <trkpt lat="46.52422" lon="-0.75758">
        <ele>72.8</ele>
        <time>2022-06-19T10:16:56Z</time>
      </trkpt>
      <trkpt lat="46.52422" lon="-0.75757">
        <ele>72.8</ele>
        <time>2022-06-19T10:16:57Z</time>
      </trkpt>
      <trkpt lat="46.52421" lon="-0.75755">
        <ele>72.8</ele>
        <time>2022-06-19T10:16:58Z</time>
      </trkpt>
      <trkpt lat="46.52419" lon="-0.75754">
        <ele>72.8</ele>
        <time>2022-06-19T10:17:00Z</time>
      </trkpt>
      <trkpt lat="46.52416" lon="-0.75754">
        <ele>73</ele>
        <time>2022-06-19T10:17:02Z</time>
      </trkpt>
      <trkpt lat="46.52401" lon="-0.75755">
        <ele>73.6</ele>
        <time>2022-06-19T10:17:07Z</time>
      </trkpt>
      <trkpt lat="46.52381" lon="-0.75746">
        <ele>74</ele>
        <time>2022-06-19T10:17:13Z</time>
      </trkpt>
      <trkpt lat="46.52364" lon="-0.75724">
        <ele>74.4</ele>
        <time>2022-06-19T10:17:19Z</time>
      </trkpt>
      <trkpt lat="46.52353" lon="-0.757">
        <ele>73.2</ele>
        <time>2022-06-19T10:17:26Z</time>
      </trkpt>
      <trkpt lat="46.52356" lon="-0.75697">
        <ele>73</ele>
        <time>2022-06-19T10:17:29Z</time>
      </trkpt>
      <trkpt lat="46.52356" lon="-0.75697">
        <ele>73</ele>
        <time>2022-06-19T10:17:30Z</time>
      </trkpt>
      <trkpt lat="46.52359" lon="-0.75696">
        <ele>73.2</ele>
        <time>2022-06-19T10:17:33Z</time>
      </trkpt>
      <trkpt lat="46.5236" lon="-0.75693">
        <ele>73.4</ele>
        <time>2022-06-19T10:17:37Z</time>
      </trkpt>
    </trkseg>
  </trk>
</gpx>